Wetterdaten: Donnerstag, 01.03.2018
Datum Zeit Temp. A. Pool Temp. Feuchte A. Luftdruck Regen Wind Richtung Richtung Sonnenschein ET UV Solar Taupunkt Windchill Windben Empfang
01.03.2018 00:00 -10,9 C 3,3 C 78 % 1018,5 hPa 0,0 l/m 27,4 km/h (4 Bft) O 90 0 min 0,000 mm 0,0 UV-I 0 W/m -14,0 C -27,6 C 32,2 km/h (5 Bft) 100,00 %
01.03.2018 00:02 -10,9 C 3,3 C 78 % 1018,6 hPa 0,0 l/m 38,6 km/h (5 Bft) O 92 0 min 0,000 mm 0,0 UV-I 0 W/m -14,0 C -31,7 C 38,6 km/h (5 Bft) 97,67 %
01.03.2018 00:03 -11,0 C 3,3 C 78 % 1018,6 hPa 0,0 l/m 25,4 km/h (4 Bft) O-NO 68 0 min 0,000 mm 0,0 UV-I 0 W/m -14,1 C -26,8 C 38,6 km/h (5 Bft) 91,67 %
01.03.2018 00:04 -11,0 C 3,3 C 78 % 1018,6 hPa 0,0 l/m 23,6 km/h (4 Bft) NO 50 0 min 0,000 mm 0,0 UV-I 0 W/m -14,1 C -25,9 C 33,8 km/h (5 Bft) 100,00 %
01.03.2018 00:05 -11,0 C 3,3 C 78 % 1018,7 hPa 0,0 l/m 33,1 km/h (5 Bft) O 87 0 min 0,000 mm 0,0 UV-I 0 W/m -14,1 C -30,1 C 43,5 km/h (6 Bft) 100,00 %
01.03.2018 00:06 -11,0 C 3,3 C 78 % 1018,6 hPa 0,0 l/m 25,9 km/h (4 Bft) O 90 0 min 0,000 mm 0,0 UV-I 0 W/m -14,1 C -27,1 C 32,2 km/h (5 Bft) 100,00 %
01.03.2018 00:07 -11,0 C 3,3 C 78 % 1018,7 hPa 0,0 l/m 25,5 km/h (4 Bft) O 86 0 min 0,000 mm 0,0 UV-I 0 W/m -14,1 C -26,9 C 33,8 km/h (5 Bft) 100,00 %
01.03.2018 00:08 -11,0 C 3,3 C 78 % 1018,7 hPa 0,0 l/m 27,0 km/h (4 Bft) O 97 0 min 0,000 mm 0,0 UV-I 0 W/m -14,1 C -27,6 C 37,0 km/h (5 Bft) 100,00 %
01.03.2018 00:09 -11,0 C 3,3 C 78 % 1018,8 hPa 0,0 l/m 26,3 km/h (4 Bft) O-NO 73 0 min 0,000 mm 0,0 UV-I 0 W/m -14,1 C -27,3 C 33,8 km/h (5 Bft) 100,00 %
01.03.2018 00:10 -11,0 C 3,3 C 78 % 1018,7 hPa 0,0 l/m 25,3 km/h (4 Bft) O-NO 77 0 min 0,000 mm 0,0 UV-I 0 W/m -14,1 C -26,8 C 37,0 km/h (5 Bft) 100,00 %
01.03.2018 00:11 -11,0 C 3,3 C 78 % 1018,8 hPa 0,0 l/m 27,0 km/h (4 Bft) O-SO 108 0 min 0,000 mm 0,0 UV-I 0 W/m -14,1 C -27,6 C 32,2 km/h (5 Bft) 95,65 %
01.03.2018 00:12 -11,0 C 3,3 C 78 % 1018,8 hPa 0,0 l/m 25,3 km/h (4 Bft) O 90 0 min 0,000 mm 0,0 UV-I 0 W/m -14,1 C -26,8 C 37,0 km/h (5 Bft) 100,00 %
01.03.2018 00:13 -11,0 C 3,3 C 78 % 1018,8 hPa 0,0 l/m 25,8 km/h (4 Bft) O 84 0 min 0,000 mm 0,0 UV-I 0 W/m -14,1 C -27,0 C 32,2 km/h (5 Bft) 100,00 %
01.03.2018 00:14 -11,0 C 3,3 C 78 % 1018,8 hPa 0,0 l/m 26,7 km/h (4 Bft) O 84 0 min 0,000 mm 0,0 UV-I 0 W/m -14,1 C -27,4 C 33,8 km/h (5 Bft) 100,00 %
01.03.2018 00:15 -11,0 C 3,3 C 78 % 1018,7 hPa 0,0 l/m 28,8 km/h (4 Bft) O-NO 67 0 min 0,000 mm 0,0 UV-I 0 W/m -14,1 C -28,4 C 38,6 km/h (5 Bft) 100,00 %
01.03.2018 00:16 -11,0 C 3,3 C 78 % 1018,7 hPa 0,0 l/m 29,0 km/h (5 Bft) O 98 0 min 0,000 mm 0,0 UV-I 0 W/m -14,1 C -28,5 C 35,4 km/h (5 Bft) 100,00 %
01.03.2018 00:17 -11,0 C 3,3 C 78 % 1018,7 hPa 0,0 l/m 27,4 km/h (4 Bft) O 95 0 min 0,000 mm 0,0 UV-I 0 W/m -14,1 C -27,8 C 32,2 km/h (5 Bft) 100,00 %
01.03.2018 00:18 -11,0 C 3,3 C 78 % 1018,8 hPa 0,0 l/m 19,7 km/h (3 Bft) O 90 0 min 0,000 mm 0,0 UV-I 0 W/m -14,1 C -23,7 C 25,7 km/h (4 Bft) 100,00 %
01.03.2018 00:19 -11,0 C 3,3 C 78 % 1018,8 hPa 0,0 l/m 26,7 km/h (4 Bft) O-NO 63 0 min 0,000 mm 0,0 UV-I 0 W/m -14,1 C -27,4 C 33,8 km/h (5 Bft) 100,00 %
01.03.2018 00:20 -11,0 C 3,3 C 78 % 1018,8 hPa 0,0 l/m 25,5 km/h (4 Bft) O-NO 72 0 min 0,000 mm 0,0 UV-I 0 W/m -14,1 C -26,9 C 30,6 km/h (5 Bft) 100,00 %
01.03.2018 00:21 -11,1 C 3,3 C 79 % 1018,7 hPa 0,0 l/m 30,8 km/h (5 Bft) O 90 0 min 0,000 mm 0,0 UV-I 0 W/m -14,0 C -29,3 C 38,6 km/h (5 Bft) 100,00 %
01.03.2018 00:22 -11,0 C 3,3 C 78 % 1018,7 hPa 0,0 l/m 24,6 km/h (4 Bft) O-NO 72 0 min 0,000 mm 0,0 UV-I 0 W/m -14,1 C -26,4 C 32,2 km/h (5 Bft) 95,83 %
01.03.2018 00:23 -11,0 C 3,3 C 79 % 1018,7 hPa 0,0 l/m 23,5 km/h (4 Bft) O 84 0 min 0,000 mm 0,0 UV-I 0 W/m -13,9 C -25,9 C 29,0 km/h (5 Bft) 100,00 %
01.03.2018 00:24 -11,1 C 3,3 C 79 % 1018,7 hPa 0,0 l/m 27,7 km/h (4 Bft) O 89 0 min 0,000 mm 0,0 UV-I 0 W/m -14,0 C -28,0 C 32,2 km/h (5 Bft) 100,00 %
01.03.2018 00:25 -11,1 C 3,3 C 79 % 1018,7 hPa 0,0 l/m 24,3 km/h (4 Bft) O 91 0 min 0,000 mm 0,0 UV-I 0 W/m -14,0 C -26,4 C 30,6 km/h (5 Bft) 92,31 %
01.03.2018 00:26 -11,1 C 3,3 C 79 % 1018,7 hPa 0,0 l/m 25,8 km/h (4 Bft) O 97 0 min 0,000 mm 0,0 UV-I 0 W/m -14,0 C -27,2 C 33,8 km/h (5 Bft) 100,00 %
01.03.2018 00:27 -11,1 C 3,3 C 79 % 1018,7 hPa 0,0 l/m 29,5 km/h (5 Bft) O 90 0 min 0,000 mm 0,0 UV-I 0 W/m -14,0 C -28,8 C 41,8 km/h (6 Bft) 100,00 %
01.03.2018 00:28 -11,0 C 3,3 C 79 % 1018,6 hPa 0,0 l/m 26,8 km/h (4 Bft) O-NO 71 0 min 0,000 mm 0,0 UV-I 0 W/m -13,9 C -27,5 C 37,0 km/h (5 Bft) 100,00 %
01.03.2018 00:29 -11,1 C 3,3 C 78 % 1018,6 hPa 0,0 l/m 25,3 km/h (4 Bft) NO 52 0 min 0,000 mm 0,0 UV-I 0 W/m -14,2 C -26,9 C 37,0 km/h (5 Bft) 100,00 %
01.03.2018 00:30 -11,1 C 3,3 C 79 % 1018,6 hPa 0,0 l/m 25,6 km/h (4 Bft) O-NO 69 0 min 0,000 mm 0,0 UV-I 0 W/m -14,0 C -27,1 C 32,2 km/h (5 Bft) 100,00 %
01.03.2018 00:31 -11,1 C 3,3 C 78 % 1018,4 hPa 0,0 l/m 26,7 km/h (4 Bft) O 81 0 min 0,000 mm 0,0 UV-I 0 W/m -14,2 C -27,6 C 37,0 km/h (5 Bft) 100,00 %
01.03.2018 00:32 -11,1 C 3,3 C 78 % 1018,4 hPa 0,0 l/m 26,4 km/h (4 Bft) O 93 0 min 0,000 mm 0,0 UV-I 0 W/m -14,2 C -27,4 C 38,6 km/h (5 Bft) 96,15 %
01.03.2018 00:33 -11,1 C 3,3 C 78 % 1018,4 hPa 0,0 l/m 25,7 km/h (4 Bft) O-NO 65 0 min 0,000 mm 0,0 UV-I 0 W/m -14,2 C -27,1 C 37,0 km/h (5 Bft) 100,00 %
01.03.2018 00:34 -11,1 C 3,3 C 79 % 1018,4 hPa 0,0 l/m 30,1 km/h (5 Bft) O 80 0 min 0,000 mm 0,0 UV-I 0 W/m -14,0 C -29,1 C 35,4 km/h (5 Bft) 88,46 %
01.03.2018 00:35 -11,1 C 3,3 C 79 % 1018,3 hPa 0,0 l/m 24,1 km/h (4 Bft) O-NO 66 0 min 0,000 mm 0,0 UV-I 0 W/m -14,0 C -26,3 C 29,0 km/h (5 Bft) 96,30 %
01.03.2018 00:36 -11,1 C 3,3 C 79 % 1018,2 hPa 0,0 l/m 25,5 km/h (4 Bft) O 82 0 min 0,000 mm 0,0 UV-I 0 W/m -14,0 C -27,0 C 33,8 km/h (5 Bft) 95,65 %
01.03.2018 00:37 -11,1 C 3,3 C 79 % 1018,2 hPa 0,0 l/m 26,1 km/h (4 Bft) O 97 0 min 0,000 mm 0,0 UV-I 0 W/m -14,0 C -27,3 C 33,8 km/h (5 Bft) 96,30 %
01.03.2018 00:38 -11,1 C 3,3 C 79 % 1018,2 hPa 0,0 l/m 23,2 km/h (4 Bft) NO 55 0 min 0,000 mm 0,0 UV-I 0 W/m -14,0 C -25,8 C 32,2 km/h (5 Bft) 91,30 %
01.03.2018 00:39 -11,1 C 3,3 C 79 % 1018,2 hPa 0,0 l/m 28,2 km/h (4 Bft) O 79 0 min 0,000 mm 0,0 UV-I 0 W/m -14,0 C -28,3 C 32,2 km/h (5 Bft) 93,33 %
01.03.2018 00:40 -11,1 C 3,3 C 79 % 1018,2 hPa 0,0 l/m 34,5 km/h (5 Bft) O-NO 68 0 min 0,000 mm 0,0 UV-I 0 W/m -14,0 C -30,7 C 41,8 km/h (6 Bft) 96,55 %
01.03.2018 00:41 -11,1 C 3,3 C 79 % 1018,0 hPa 0,0 l/m 34,6 km/h (5 Bft) O-NO 67 0 min 0,000 mm 0,0 UV-I 0 W/m -14,0 C -30,7 C 43,5 km/h (6 Bft) 93,33 %
01.03.2018 00:42 -11,1 C 3,3 C 79 % 1018,0 hPa 0,0 l/m 30,4 km/h (5 Bft) O 88 0 min 0,000 mm 0,0 UV-I 0 W/m -14,0 C -29,2 C 37,0 km/h (5 Bft) 96,55 %
01.03.2018 00:43 -11,1 C 3,3 C 79 % 1018,0 hPa 0,0 l/m 33,2 km/h (5 Bft) O 91 0 min 0,000 mm 0,0 UV-I 0 W/m -14,0 C -30,2 C 41,8 km/h (6 Bft) 92,59 %
01.03.2018 00:44 -11,1 C 3,3 C 79 % 1017,9 hPa 0,0 l/m 23,1 km/h (4 Bft) O 84 0 min 0,000 mm 0,0 UV-I 0 W/m -14,0 C -25,8 C 29,0 km/h (5 Bft) 100,00 %
01.03.2018 00:45 -11,1 C 3,3 C 79 % 1018,0 hPa 0,0 l/m 30,3 km/h (5 Bft) O-NO 69 0 min 0,000 mm 0,0 UV-I 0 W/m -14,0 C -29,1 C 43,5 km/h (6 Bft) 89,66 %
01.03.2018 00:46 -11,1 C 3,3 C 79 % 1017,9 hPa 0,0 l/m 36,3 km/h (5 Bft) O-NO 70 0 min 0,000 mm 0,0 UV-I 0 W/m -14,0 C -31,3 C 46,7 km/h (6 Bft) 96,55 %
01.03.2018 00:47 -11,1 C 3,3 C 79 % 1017,8 hPa 0,0 l/m 29,0 km/h (5 Bft) O 79 0 min 0,000 mm 0,0 UV-I 0 W/m -14,0 C -28,6 C 35,4 km/h (5 Bft) 91,67 %
01.03.2018 00:48 -11,1 C 3,3 C 79 % 1017,8 hPa 0,0 l/m 24,8 km/h (4 Bft) O-NO 71 0 min 0,000 mm 0,0 UV-I 0 W/m -14,0 C -26,7 C 37,0 km/h (5 Bft) 93,94 %
01.03.2018 00:49 -11,1 C 2,8 C 79 % 1017,8 hPa 0,0 l/m 26,6 km/h (4 Bft) O 94 0 min 0,000 mm 0,0 UV-I 0 W/m -14,0 C -27,5 C 32,2 km/h (5 Bft) 95,65 %
01.03.2018 00:50 -11,1 C 2,8 C 79 % 1017,8 hPa 0,0 l/m 25,9 km/h (4 Bft) O-NO 64 0 min 0,000 mm 0,0 UV-I 0 W/m -14,0 C -27,2 C 33,8 km/h (5 Bft) 92,31 %
01.03.2018 00:51 -11,1 C 2,8 C 79 % 1017,8 hPa 0,0 l/m 22,8 km/h (4 Bft) O-NO 69 0 min 0,000 mm 0,0 UV-I 0 W/m -14,0 C -25,6 C 29,0 km/h (5 Bft) 96,30 %
01.03.2018 00:52 -11,1 C 2,8 C 79 % 1017,8 hPa 0,0 l/m 30,5 km/h (5 Bft) O-NO 69 0 min 0,000 mm 0,0 UV-I 0 W/m -14,0 C -29,2 C 40,2 km/h (6 Bft) 91,67 %
01.03.2018 00:53 -11,1 C 3,3 C 79 % 1017,8 hPa 0,0 l/m 31,8 km/h (5 Bft) O-NO 63 0 min 0,000 mm 0,0 UV-I 0 W/m -14,0 C -29,7 C 40,2 km/h (6 Bft) 96,15 %
01.03.2018 00:54 -11,1 C 2,8 C 79 % 1017,8 hPa 0,0 l/m 29,5 km/h (5 Bft) O-NO 78 0 min 0,000 mm 0,0 UV-I 0 W/m -14,0 C -28,8 C 35,4 km/h (5 Bft) 92,59 %
01.03.2018 00:55 -11,1 C 2,8 C 79 % 1017,8 hPa 0,0 l/m 25,7 km/h (4 Bft) O 90 0 min 0,000 mm 0,0 UV-I 0 W/m -14,0 C -27,1 C 33,8 km/h (5 Bft) 95,65 %
01.03.2018 00:56 -11,1 C 3,3 C 79 % 1017,8 hPa 0,0 l/m 27,6 km/h (4 Bft) O-NO 65 0 min 0,000 mm 0,0 UV-I 0 W/m -14,0 C -28,0 C 35,4 km/h (5 Bft) 100,00 %
01.03.2018 00:57 -11,1 C 3,3 C 79 % 1017,7 hPa 0,0 l/m 28,7 km/h (4 Bft) O-NO 73 0 min 0,000 mm 0,0 UV-I 0 W/m -14,0 C -28,5 C 37,0 km/h (5 Bft) 91,30 %
01.03.2018 00:58 -11,1 C 3,3 C 79 % 1017,7 hPa 0,0 l/m 31,5 km/h (5 Bft) O 96 0 min 0,000 mm 0,0 UV-I 0 W/m -14,0 C -29,6 C 38,6 km/h (5 Bft) 100,00 %
01.03.2018 00:59 -11,1 C 3,3 C 79 % 1017,7 hPa 0,0 l/m 32,9 km/h (5 Bft) O-NO 77 0 min 0,000 mm 0,0 UV-I 0 W/m -14,0 C -30,1 C 41,8 km/h (6 Bft) 91,30 %
01.03.2018 01:00 -11,1 C 3,3 C 79 % 1017,7 hPa 0,0 l/m 31,2 km/h (5 Bft) O 85 0 min 0,025 mm 0,0 UV-I 0 W/m -14,0 C -29,5 C 37,0 km/h (5 Bft) 96,30 %
01.03.2018 01:01 -11,1 C 2,8 C 79 % 1017,7 hPa 0,0 l/m 28,2 km/h (4 Bft) O 100 0 min 0,000 mm 0,0 UV-I 0 W/m -14,0 C -28,3 C 37,0 km/h (5 Bft) 92,31 %
01.03.2018 01:02 -11,1 C 2,8 C 79 % 1017,6 hPa 0,0 l/m 26,8 km/h (4 Bft) O-NO 70 0 min 0,000 mm 0,0 UV-I 0 W/m -14,0 C -27,6 C 33,8 km/h (5 Bft) 95,83 %
01.03.2018 01:03 -11,2 C 2,8 C 79 % 1017,8 hPa 0,0 l/m 31,6 km/h (5 Bft) O-NO 75 0 min 0,000 mm 0,0 UV-I 0 W/m -14,1 C -29,8 C 43,5 km/h (6 Bft) 85,71 %
01.03.2018 01:04 -11,2 C 2,8 C 79 % 1017,7 hPa 0,0 l/m 28,5 km/h (4 Bft) O-NO 76 0 min 0,000 mm 0,0 UV-I 0 W/m -14,1 C -28,5 C 37,0 km/h (5 Bft) 100,00 %
01.03.2018 01:05 -11,2 C 2,8 C 79 % 1017,7 hPa 0,0 l/m 25,0 km/h (4 Bft) O 92 0 min 0,000 mm 0,0 UV-I 0 W/m -14,1 C -26,9 C 29,0 km/h (5 Bft) 92,31 %
01.03.2018 01:06 -11,2 C 2,8 C 79 % 1017,7 hPa 0,0 l/m 22,6 km/h (4 Bft) O-NO 65 0 min 0,000 mm 0,0 UV-I 0 W/m -14,1 C -25,6 C 30,6 km/h (5 Bft) 91,67 %
01.03.2018 01:07 -11,2 C 2,8 C 79 % 1017,7 hPa 0,0 l/m 29,7 km/h (5 Bft) O-NO 65 0 min 0,000 mm 0,0 UV-I 0 W/m -14,1 C -29,0 C 40,2 km/h (6 Bft) 100,00 %
01.03.2018 01:08 -11,2 C 2,8 C 79 % 1017,7 hPa 0,0 l/m 28,6 km/h (4 Bft) O-NO 57 0 min 0,000 mm 0,0 UV-I 0 W/m -14,1 C -28,6 C 35,4 km/h (5 Bft) 96,30 %
01.03.2018 01:09 -11,2 C 2,8 C 79 % 1017,7 hPa 0,0 l/m 30,8 km/h (5 Bft) O 86 0 min 0,000 mm 0,0 UV-I 0 W/m -14,1 C -29,5 C 38,6 km/h (5 Bft) 95,65 %
01.03.2018 01:10 -11,2 C 2,8 C 79 % 1017,7 hPa 0,0 l/m 30,7 km/h (5 Bft) O-SO 107 0 min 0,000 mm 0,0 UV-I 0 W/m -14,1 C -29,4 C 41,8 km/h (6 Bft) 86,67 %
01.03.2018 01:11 -11,2 C 2,8 C 79 % 1017,7 hPa 0,0 l/m 28,1 km/h (4 Bft) O 85 0 min 0,000 mm 0,0 UV-I 0 W/m -14,1 C -28,4 C 35,4 km/h (5 Bft) 100,00 %
01.03.2018 01:12 -11,2 C 2,8 C 79 % 1017,6 hPa 0,0 l/m 29,7 km/h (5 Bft) O-NO 64 0 min 0,000 mm 0,0 UV-I 0 W/m -14,1 C -29,0 C 35,4 km/h (5 Bft) 94,12 %
01.03.2018 01:13 -11,2 C 2,8 C 79 % 1017,6 hPa 0,0 l/m 26,8 km/h (4 Bft) O 81 0 min 0,000 mm 0,0 UV-I 0 W/m -14,1 C -27,8 C 32,2 km/h (5 Bft) 100,00 %
01.03.2018 01:14 -11,2 C 2,8 C 79 % 1017,5 hPa 0,0 l/m 27,4 km/h (4 Bft) O-NO 61 0 min 0,000 mm 0,0 UV-I 0 W/m -14,1 C -28,0 C 32,2 km/h (5 Bft) 96,30 %
01.03.2018 01:15 -11,2 C 2,8 C 79 % 1017,4 hPa 0,0 l/m 29,5 km/h (5 Bft) O 94 0 min 0,000 mm 0,0 UV-I 0 W/m -14,1 C -29,0 C 40,2 km/h (6 Bft) 96,97 %
01.03.2018 01:16 -11,2 C 2,8 C 79 % 1017,4 hPa 0,0 l/m 30,2 km/h (5 Bft) O-NO 75 0 min 0,000 mm 0,0 UV-I 0 W/m -14,1 C -29,2 C 38,6 km/h (5 Bft) 100,00 %
01.03.2018 01:17 -11,2 C 2,8 C 79 % 1017,4 hPa 0,0 l/m 35,1 km/h (5 Bft) O-NO 71 0 min 0,000 mm 0,0 UV-I 0 W/m -14,1 C -31,0 C 45,1 km/h (6 Bft) 96,30 %
01.03.2018 01:18 -11,2 C 2,8 C 79 % 1017,4 hPa 0,0 l/m 28,7 km/h (4 Bft) O 79 0 min 0,000 mm 0,0 UV-I 0 W/m -14,1 C -28,6 C 40,2 km/h (6 Bft) 100,00 %
01.03.2018 01:19 -11,2 C 2,8 C 79 % 1017,5 hPa 0,0 l/m 33,3 km/h (5 Bft) O-NO 68 0 min 0,000 mm 0,0 UV-I 0 W/m -14,1 C -30,4 C 40,2 km/h (6 Bft) 91,67 %
01.03.2018 01:20 -11,2 C 2,8 C 79 % 1017,4 hPa 0,0 l/m 33,2 km/h (5 Bft) O-NO 68 0 min 0,000 mm 0,0 UV-I 0 W/m -14,1 C -30,4 C 40,2 km/h (6 Bft) 100,00 %
01.03.2018 01:21 -11,2 C 2,8 C 79 % 1017,4 hPa 0,0 l/m 26,9 km/h (4 Bft) O-SO 102 0 min 0,000 mm 0,0 UV-I 0 W/m -14,1 C -27,8 C 35,4 km/h (5 Bft) 91,67 %
01.03.2018 01:22 -11,2 C 2,8 C 79 % 1017,4 hPa 0,0 l/m 31,8 km/h (5 Bft) O-NO 63 0 min 0,000 mm 0,0 UV-I 0 W/m -14,1 C -29,9 C 37,0 km/h (5 Bft) 100,00 %
01.03.2018 01:23 -11,2 C 2,8 C 79 % 1017,3 hPa 0,0 l/m 27,6 km/h (4 Bft) O-NO 70 0 min 0,000 mm 0,0 UV-I 0 W/m -14,1 C -28,1 C 35,4 km/h (5 Bft) 97,56 %
01.03.2018 01:24 -11,2 C 2,8 C 79 % 1017,3 hPa 0,0 l/m 27,2 km/h (4 Bft) O 81 0 min 0,000 mm 0,0 UV-I 0 W/m -14,1 C -27,9 C 35,4 km/h (5 Bft) 100,00 %
01.03.2018 01:25 -11,2 C 2,8 C 79 % 1017,3 hPa 0,0 l/m 25,7 km/h (4 Bft) O 92 0 min 0,000 mm 0,0 UV-I 0 W/m -14,1 C -27,2 C 35,4 km/h (5 Bft) 96,30 %
01.03.2018 01:26 -11,3 C 2,8 C 79 % 1017,3 hPa 0,0 l/m 34,3 km/h (5 Bft) NO 56 0 min 0,000 mm 0,0 UV-I 0 W/m -14,2 C -30,9 C 45,1 km/h (6 Bft) 96,73 %
01.03.2018 01:27 -11,3 C 3,3 C 79 % 1017,2 hPa 0,0 l/m 30,1 km/h (5 Bft) O 90 0 min 0,000 mm 0,0 UV-I 0 W/m -14,2 C -29,3 C 40,2 km/h (6 Bft) 97,73 %
01.03.2018 01:28 -11,3 C 2,8 C 79 % 1017,3 hPa 0,0 l/m 34,4 km/h (5 Bft) O-NO 77 0 min 0,000 mm 0,0 UV-I 0 W/m -14,2 C -31,0 C 45,1 km/h (6 Bft) 96,15 %
01.03.2018 01:29 -11,2 C 2,8 C 79 % 1017,2 hPa 0,0 l/m 30,4 km/h (5 Bft) O 86 0 min 0,000 mm 0,0 UV-I 0 W/m -14,1 C -29,3 C 40,2 km/h (6 Bft) 95,83 %
01.03.2018 01:30 -11,3 C 2,8 C 79 % 1017,3 hPa 0,0 l/m 34,8 km/h (5 Bft) O 82 0 min 0,000 mm 0,0 UV-I 0 W/m -14,2 C -31,1 C 43,5 km/h (6 Bft) 94,44 %
01.03.2018 01:31 -11,3 C 2,8 C 79 % 1017,3 hPa 0,0 l/m 31,2 km/h (5 Bft) O 97 0 min 0,000 mm 0,0 UV-I 0 W/m -14,2 C -29,8 C 41,8 km/h (6 Bft) 100,00 %
01.03.2018 01:32 -11,3 C 2,8 C 79 % 1017,3 hPa 0,0 l/m 29,4 km/h (5 Bft) O 101 0 min 0,000 mm 0,0 UV-I 0 W/m -14,2 C -29,0 C 37,0 km/h (5 Bft) 96,30 %
01.03.2018 01:33 -11,3 C 2,8 C 79 % 1017,3 hPa 0,0 l/m 25,8 km/h (4 Bft) O 81 0 min 0,000 mm 0,0 UV-I 0 W/m -14,2 C -27,4 C 41,8 km/h (6 Bft) 100,00 %
01.03.2018 01:34 -11,3 C 2,8 C 79 % 1017,3 hPa 0,0 l/m 29,0 km/h (5 Bft) O-NO 73 0 min 0,000 mm 0,0 UV-I 0 W/m -14,2 C -28,9 C 35,4 km/h (5 Bft) 91,67 %
01.03.2018 01:35 -11,3 C 2,8 C 79 % 1017,3 hPa 0,0 l/m 27,6 km/h (4 Bft) O-SO 103 0 min 0,000 mm 0,0 UV-I 0 W/m -14,2 C -28,3 C 35,4 km/h (5 Bft) 100,00 %
01.03.2018 01:36 -11,3 C 2,8 C 79 % 1017,3 hPa 0,0 l/m 31,0 km/h (5 Bft) O-NO 69 0 min 0,000 mm 0,0 UV-I 0 W/m -14,2 C -29,7 C 41,8 km/h (6 Bft) 96,30 %
01.03.2018 01:37 -11,3 C 3,3 C 79 % 1017,3 hPa 0,0 l/m 24,6 km/h (4 Bft) O-NO 68 0 min 0,000 mm 0,0 UV-I 0 W/m -14,2 C -26,8 C 37,0 km/h (5 Bft) 100,00 %
01.03.2018 01:38 -11,3 C 3,3 C 79 % 1017,3 hPa 0,0 l/m 29,9 km/h (5 Bft) O 95 0 min 0,000 mm 0,0 UV-I 0 W/m -14,2 C -29,3 C 35,4 km/h (5 Bft) 92,59 %
01.03.2018 01:39 -11,3 C 3,3 C 79 % 1017,3 hPa 0,0 l/m 25,5 km/h (4 Bft) O-NO 77 0 min 0,000 mm 0,0 UV-I 0 W/m -14,2 C -27,3 C 33,8 km/h (5 Bft) 100,00 %
01.03.2018 01:40 -11,3 C 3,3 C 79 % 1017,3 hPa 0,0 l/m 28,4 km/h (4 Bft) O 80 0 min 0,000 mm 0,0 UV-I 0 W/m -14,2 C -28,6 C 43,5 km/h (6 Bft) 96,67 %
01.03.2018 01:41 -11,3 C 3,3 C 80 % 1017,2 hPa 0,0 l/m 32,8 km/h (5 Bft) O 94 0 min 0,000 mm 0,0 UV-I 0 W/m -14,0 C -30,4 C 45,1 km/h (6 Bft) 100,00 %
01.03.2018 01:42 -11,3 C 2,8 C 80 % 1017,2 hPa 0,0 l/m 32,1 km/h (5 Bft) O 80 0 min 0,000 mm 0,0 UV-I 0 W/m -14,0 C -30,1 C 40,2 km/h (6 Bft) 92,59 %
01.03.2018 01:43 -11,3 C 2,8 C 79 % 1017,2 hPa 0,0 l/m 31,7 km/h (5 Bft) O 88 0 min 0,000 mm 0,0 UV-I 0 W/m -14,2 C -30,0 C 38,6 km/h (5 Bft) 96,15 %
01.03.2018 01:44 -11,3 C 2,8 C 80 % 1017,2 hPa 0,0 l/m 31,6 km/h (5 Bft) O-NO 61 0 min 0,000 mm 0,0 UV-I 0 W/m -14,0 C -29,9 C 45,1 km/h (6 Bft) 100,00 %
01.03.2018 01:45 -11,3 C 2,8 C 80 % 1017,1 hPa 0,0 l/m 31,6 km/h (5 Bft) O-NO 69 0 min 0,000 mm 0,0 UV-I 0 W/m -14,0 C -29,9 C 37,0 km/h (5 Bft) 96,30 %
01.03.2018 01:46 -11,3 C 2,8 C 80 % 1017,2 hPa 0,0 l/m 33,1 km/h (5 Bft) O 101 0 min 0,000 mm 0,0 UV-I 0 W/m -14,0 C -30,5 C 43,5 km/h (6 Bft) 100,00 %
01.03.2018 01:47 -11,3 C 2,8 C 80 % 1017,1 hPa 0,0 l/m 28,0 km/h (4 Bft) O 96 0 min 0,000 mm 0,0 UV-I 0 W/m -14,0 C -28,4 C 38,6 km/h (5 Bft) 96,55 %
01.03.2018 01:48 -11,3 C 2,8 C 80 % 1017,2 hPa 0,0 l/m 26,0 km/h (4 Bft) O 84 0 min 0,000 mm 0,0 UV-I 0 W/m -14,0 C -27,5 C 33,8 km/h (5 Bft) 95,83 %
01.03.2018 01:49 -11,3 C 2,8 C 80 % 1017,1 hPa 0,0 l/m 29,1 km/h (5 Bft) O-NO 68 0 min 0,000 mm 0,0 UV-I 0 W/m -14,0 C -28,9 C 40,2 km/h (6 Bft) 95,65 %
01.03.2018 01:50 -11,3 C 2,8 C 80 % 1017,1 hPa 0,0 l/m 22,1 km/h (4 Bft) O 79 0 min 0,000 mm 0,0 UV-I 0 W/m -14,0 C -25,5 C 30,6 km/h (5 Bft) 95,83 %
01.03.2018 01:51 -11,3 C 2,8 C 80 % 1017,1 hPa 0,0 l/m 28,0 km/h (4 Bft) O-SO 115 0 min 0,000 mm 0,0 UV-I 0 W/m -14,0 C -28,4 C 37,0 km/h (5 Bft) 100,00 %
01.03.2018 01:52 -11,3 C 2,8 C 80 % 1017,1 hPa 0,0 l/m 26,5 km/h (4 Bft) O-NO 74 0 min 0,000 mm 0,0 UV-I 0 W/m -14,0 C -27,8 C 38,6 km/h (5 Bft) 91,67 %
01.03.2018 01:53 -11,3 C 2,8 C 80 % 1017,2 hPa 0,0 l/m 27,4 km/h (4 Bft) O-NO 66 0 min 0,000 mm 0,0 UV-I 0 W/m -14,0 C -28,2 C 37,0 km/h (5 Bft) 100,00 %
01.03.2018 01:54 -11,3 C 2,8 C 80 % 1017,2 hPa 0,0 l/m 27,1 km/h (4 Bft) O-SO 103 0 min 0,000 mm 0,0 UV-I 0 W/m -14,0 C -28,0 C 35,4 km/h (5 Bft) 100,00 %
01.03.2018 01:55 -11,4 C 2,8 C 80 % 1017,2 hPa 0,0 l/m 25,2 km/h (4 Bft) O 79 0 min 0,000 mm 0,0 UV-I 0 W/m -14,1 C -27,3 C 32,2 km/h (5 Bft) 100,00 %
01.03.2018 01:56 -11,4 C 2,8 C 80 % 1017,1 hPa 0,0 l/m 35,3 km/h (5 Bft) O 97 0 min 0,000 mm 0,0 UV-I 0 W/m -14,1 C -31,4 C 48,3 km/h (6 Bft) 100,00 %
01.03.2018 01:57 -11,4 C 2,8 C 80 % 1017,0 hPa 0,0 l/m 27,5 km/h (4 Bft) O 92 0 min 0,000 mm 0,0 UV-I 0 W/m -14,1 C -28,4 C 37,0 km/h (5 Bft) 93,94 %
01.03.2018 01:58 -11,4 C 2,8 C 80 % 1017,0 hPa 0,0 l/m 29,0 km/h (5 Bft) O-NO 71 0 min 0,000 mm 0,0 UV-I 0 W/m -14,1 C -29,0 C 35,4 km/h (5 Bft) 100,00 %
01.03.2018 01:59 -11,4 C 2,8 C 80 % 1016,9 hPa 0,0 l/m 31,3 km/h (5 Bft) O 81 0 min 0,000 mm 0,0 UV-I 0 W/m -14,1 C -30,0 C 41,8 km/h (6 Bft) 100,00 %
01.03.2018 02:00 -11,3 C 2,8 C 80 % 1016,9 hPa 0,0 l/m 27,1 km/h (4 Bft) O 84 0 min 0,000 mm 0,0 UV-I 0 W/m -14,0 C -28,0 C 35,4 km/h (5 Bft) 92,86 %
01.03.2018 02:01 -11,4 C 2,8 C 80 % 1016,8 hPa 0,0 l/m 28,6 km/h (4 Bft) O-NO 78 0 min 0,026 mm 0,0 UV-I 0 W/m -14,1 C -28,8 C 37,0 km/h (5 Bft) 100,00 %
01.03.2018 02:02 -11,4 C 2,8 C 80 % 1016,8 hPa 0,0 l/m 28,3 km/h (4 Bft) O 99 0 min 0,000 mm 0,0 UV-I 0 W/m -14,1 C -28,7 C 35,4 km/h (5 Bft) 100,00 %
01.03.2018 02:03 -11,4 C 2,8 C 80 % 1016,8 hPa 0,0 l/m 27,4 km/h (4 Bft) O 93 0 min 0,000 mm 0,0 UV-I 0 W/m -14,1 C -28,3 C 43,5 km/h (6 Bft) 95,83 %
01.03.2018 02:04 -11,4 C 2,8 C 80 % 1016,8 hPa 0,0 l/m 32,9 km/h (5 Bft) O-NO 74 0 min 0,000 mm 0,0 UV-I 0 W/m -14,1 C -30,6 C 40,2 km/h (6 Bft) 100,00 %
01.03.2018 02:05 -11,4 C 2,8 C 80 % 1016,8 hPa 0,0 l/m 32,7 km/h (5 Bft) O 97 0 min 0,000 mm 0,0 UV-I 0 W/m -14,1 C -30,5 C 40,2 km/h (6 Bft) 100,00 %
01.03.2018 02:06 -11,4 C 2,8 C 80 % 1016,8 hPa 0,0 l/m 30,3 km/h (5 Bft) O 88 0 min 0,000 mm 0,0 UV-I 0 W/m -14,1 C -29,6 C 38,6 km/h (5 Bft) 100,00 %
01.03.2018 02:07 -11,4 C 2,8 C 80 % 1016,8 hPa 0,0 l/m 24,9 km/h (4 Bft) O-NO 70 0 min 0,000 mm 0,0 UV-I 0 W/m -14,1 C -27,1 C 32,2 km/h (5 Bft) 100,00 %
01.03.2018 02:08 -11,4 C 2,8 C 80 % 1017,0 hPa 0,0 l/m 27,4 km/h (4 Bft) O-NO 69 0 min 0,000 mm 0,0 UV-I 0 W/m -14,1 C -28,3 C 33,8 km/h (5 Bft) 100,00 %
01.03.2018 02:09 -11,4 C 2,8 C 80 % 1016,9 hPa 0,0 l/m 27,3 km/h (4 Bft) O 83 0 min 0,000 mm 0,0 UV-I 0 W/m -14,1 C -28,3 C 43,5 km/h (6 Bft) 96,15 %
01.03.2018 02:10 -11,4 C 2,8 C 80 % 1016,9 hPa 0,0 l/m 35,8 km/h (5 Bft) O 79 0 min 0,000 mm 0,0 UV-I 0 W/m -14,1 C -31,6 C 41,8 km/h (6 Bft) 100,00 %
01.03.2018 02:11 -11,4 C 2,8 C 80 % 1016,9 hPa 0,0 l/m 26,4 km/h (4 Bft) O-NO 69 0 min 0,000 mm 0,0 UV-I 0 W/m -14,1 C -27,9 C 35,4 km/h (5 Bft) 100,00 %
01.03.2018 02:12 -11,4 C 2,8 C 80 % 1016,9 hPa 0,0 l/m 24,7 km/h (4 Bft) O 83 0 min 0,000 mm 0,0 UV-I 0 W/m -14,1 C -27,0 C 30,6 km/h (5 Bft) 96,30 %
01.03.2018 02:13 -11,4 C 2,8 C 80 % 1016,9 hPa 0,0 l/m 33,7 km/h (5 Bft) O 90 0 min 0,000 mm 0,0 UV-I 0 W/m -14,1 C -30,8 C 41,8 km/h (6 Bft) 100,00 %
01.03.2018 02:14 -11,4 C 2,8 C 80 % 1016,9 hPa 0,0 l/m 29,5 km/h (5 Bft) O-NO 75 0 min 0,000 mm 0,0 UV-I 0 W/m -14,1 C -29,2 C 35,4 km/h (5 Bft) 100,00 %
01.03.2018 02:15 -11,4 C 2,8 C 80 % 1016,8 hPa 0,0 l/m 25,0 km/h (4 Bft) O-NO 73 0 min 0,000 mm 0,0 UV-I 0 W/m -14,1 C -27,2 C 32,2 km/h (5 Bft) 100,00 %
01.03.2018 02:16 -11,4 C 2,8 C 80 % 1016,8 hPa 0,0 l/m 29,3 km/h (5 Bft) O 91 0 min 0,000 mm 0,0 UV-I 0 W/m -14,1 C -29,1 C 40,2 km/h (6 Bft) 100,00 %
01.03.2018 02:17 -11,4 C 2,8 C 80 % 1016,7 hPa 0,0 l/m 31,5 km/h (5 Bft) O-NO 61 0 min 0,000 mm 0,0 UV-I 0 W/m -14,1 C -30,0 C 40,2 km/h (6 Bft) 100,00 %
01.03.2018 02:18 -11,4 C 2,8 C 80 % 1016,7 hPa 0,0 l/m 29,6 km/h (5 Bft) O-NO 65 0 min 0,000 mm 0,0 UV-I 0 W/m -14,1 C -29,3 C 38,6 km/h (5 Bft) 100,00 %
01.03.2018 02:19 -11,4 C 2,8 C 80 % 1016,6 hPa 0,0 l/m 32,9 km/h (5 Bft) O 83 0 min 0,000 mm 0,0 UV-I 0 W/m -14,1 C -30,6 C 38,6 km/h (5 Bft) 100,00 %
01.03.2018 02:20 -11,4 C 2,8 C 80 % 1016,6 hPa 0,0 l/m 32,9 km/h (5 Bft) O 85 0 min 0,000 mm 0,0 UV-I 0 W/m -14,1 C -30,6 C 43,5 km/h (6 Bft) 100,00 %
01.03.2018 02:21 -11,4 C 2,8 C 80 % 1016,6 hPa 0,0 l/m 34,7 km/h (5 Bft) O-NO 61 0 min 0,000 mm 0,0 UV-I 0 W/m -14,1 C -31,2 C 40,2 km/h (6 Bft) 100,00 %
01.03.2018 02:22 -11,4 C 2,8 C 80 % 1016,6 hPa 0,0 l/m 32,3 km/h (5 Bft) O-NO 76 0 min 0,000 mm 0,0 UV-I 0 W/m -14,1 C -30,3 C 40,2 km/h (6 Bft) 100,00 %
01.03.2018 02:23 -11,4 C 2,8 C 80 % 1016,6 hPa 0,0 l/m 26,8 km/h (4 Bft) O 86 0 min 0,000 mm 0,0 UV-I 0 W/m -14,1 C -28,0 C 33,8 km/h (5 Bft) 100,00 %
01.03.2018 02:24 -11,4 C 2,8 C 80 % 1016,6 hPa 0,0 l/m 22,6 km/h (4 Bft) O-NO 63 0 min 0,000 mm 0,0 UV-I 0 W/m -14,1 C -25,9 C 32,2 km/h (5 Bft) 100,00 %
01.03.2018 02:25 -11,4 C 2,8 C 80 % 1016,6 hPa 0,0 l/m 25,9 km/h (4 Bft) O 86 0 min 0,000 mm 0,0 UV-I 0 W/m -14,1 C -27,6 C 35,4 km/h (5 Bft) 96,15 %
01.03.2018 02:26 -11,5 C 2,8 C 80 % 1016,6 hPa 0,0 l/m 22,4 km/h (4 Bft) O-NO 76 0 min 0,000 mm 0,0 UV-I 0 W/m -14,2 C -25,9 C 32,2 km/h (5 Bft) 100,00 %
01.03.2018 02:27 -11,5 C 2,8 C 80 % 1016,6 hPa 0,0 l/m 22,8 km/h (4 Bft) O 83 0 min 0,000 mm 0,0 UV-I 0 W/m -14,2 C -26,1 C 29,0 km/h (5 Bft) 100,00 %
01.03.2018 02:28 -11,6 C 2,8 C 80 % 1016,6 hPa 0,0 l/m 28,3 km/h (4 Bft) O-SO 107 0 min 0,000 mm 0,0 UV-I 0 W/m -14,3 C -29,0 C 35,4 km/h (5 Bft) 100,00 %
01.03.2018 02:29 -11,5 C 2,8 C 80 % 1016,5 hPa 0,0 l/m 27,9 km/h (4 Bft) O-NO 69 0 min 0,000 mm 0,0 UV-I 0 W/m -14,2 C -28,7 C 37,0 km/h (5 Bft) 100,00 %
01.03.2018 02:30 -11,6 C 2,8 C 80 % 1016,5 hPa 0,0 l/m 31,7 km/h (5 Bft) O-NO 73 0 min 0,000 mm 0,0 UV-I 0 W/m -14,3 C -30,4 C 46,7 km/h (6 Bft) 100,00 %
01.03.2018 02:31 -11,6 C 2,8 C 80 % 1016,4 hPa 0,0 l/m 30,2 km/h (5 Bft) O 98 0 min 0,000 mm 0,0 UV-I 0 W/m -14,3 C -29,8 C 37,0 km/h (5 Bft) 92,59 %
01.03.2018 02:32 -11,6 C 2,8 C 80 % 1016,5 hPa 0,0 l/m 27,9 km/h (4 Bft) O-NO 74 0 min 0,000 mm 0,0 UV-I 0 W/m -14,3 C -28,8 C 33,8 km/h (5 Bft) 96,15 %
01.03.2018 02:33 -11,6 C 2,8 C 80 % 1016,4 hPa 0,0 l/m 32,4 km/h (5 Bft) O 82 0 min 0,000 mm 0,0 UV-I 0 W/m -14,3 C -30,7 C 45,1 km/h (6 Bft) 100,00 %
01.03.2018 02:34 -11,6 C 2,8 C 80 % 1016,5 hPa 0,0 l/m 20,7 km/h (4 Bft) O-NO 71 0 min 0,000 mm 0,0 UV-I 0 W/m -14,3 C -25,1 C 25,7 km/h (4 Bft) 96,15 %
01.03.2018 02:35 -11,6 C 2,8 C 80 % 1016,5 hPa 0,0 l/m 26,9 km/h (4 Bft) O-NO 69 0 min 0,000 mm 0,0 UV-I 0 W/m -14,3 C -28,4 C 35,4 km/h (5 Bft) 100,00 %
01.03.2018 02:36 -11,6 C 2,8 C 80 % 1016,5 hPa 0,0 l/m 23,6 km/h (4 Bft) O-NO 75 0 min 0,000 mm 0,0 UV-I 0 W/m -14,3 C -26,7 C 30,6 km/h (5 Bft) 96,15 %
01.03.2018 02:37 -11,6 C 2,8 C 80 % 1016,5 hPa 0,0 l/m 23,9 km/h (4 Bft) O-NO 71 0 min 0,000 mm 0,0 UV-I 0 W/m -14,3 C -26,9 C 30,6 km/h (5 Bft) 100,00 %
01.03.2018 02:38 -11,6 C 2,8 C 81 % 1016,5 hPa 0,0 l/m 19,0 km/h (3 Bft) O-SO 111 0 min 0,000 mm 0,0 UV-I 0 W/m -14,2 C -24,0 C 24,1 km/h (4 Bft) 95,65 %
01.03.2018 02:39 -11,6 C 2,8 C 81 % 1016,5 hPa 0,0 l/m 21,2 km/h (4 Bft) O 94 0 min 0,000 mm 0,0 UV-I 0 W/m -14,2 C -25,4 C 25,7 km/h (4 Bft) 96,30 %
01.03.2018 02:40 -11,6 C 2,8 C 81 % 1016,5 hPa 0,0 l/m 20,8 km/h (4 Bft) O 86 0 min 0,000 mm 0,0 UV-I 0 W/m -14,2 C -25,1 C 27,4 km/h (4 Bft) 95,65 %
01.03.2018 02:41 -11,7 C 2,8 C 81 % 1016,5 hPa 0,0 l/m 14,1 km/h (3 Bft) O-SO 103 0 min 0,000 mm 0,0 UV-I 0 W/m -14,3 C -20,4 C 20,9 km/h (4 Bft) 100,00 %
01.03.2018 02:42 -11,7 C 2,8 C 81 % 1016,5 hPa 0,0 l/m 20,8 km/h (4 Bft) O 99 0 min 0,000 mm 0,0 UV-I 0 W/m -14,3 C -25,2 C 24,1 km/h (4 Bft) 92,31 %
01.03.2018 02:43 -11,7 C 2,8 C 81 % 1016,4 hPa 0,0 l/m 21,0 km/h (4 Bft) O-NO 69 0 min 0,000 mm 0,0 UV-I 0 W/m -14,3 C -25,4 C 29,0 km/h (5 Bft) 96,30 %
01.03.2018 02:44 -11,7 C 2,8 C 81 % 1016,4 hPa 0,0 l/m 23,6 km/h (4 Bft) O 82 0 min 0,000 mm 0,0 UV-I 0 W/m -14,3 C -26,8 C 33,8 km/h (5 Bft) 100,00 %
01.03.2018 02:45 -11,7 C 2,8 C 81 % 1016,3 hPa 0,0 l/m 18,5 km/h (3 Bft) O-NO 69 0 min 0,000 mm 0,0 UV-I 0 W/m -14,3 C -23,8 C 25,7 km/h (4 Bft) 96,30 %
01.03.2018 02:46 -11,7 C 2,8 C 81 % 1016,3 hPa 0,0 l/m 27,4 km/h (4 Bft) O-NO 76 0 min 0,000 mm 0,0 UV-I 0 W/m -14,3 C -28,7 C 38,6 km/h (5 Bft) 96,88 %
01.03.2018 02:47 -11,7 C 2,8 C 81 % 1016,2 hPa 0,0 l/m 34,8 km/h (5 Bft) O 86 0 min 0,000 mm 0,0 UV-I 0 W/m -14,3 C -31,7 C 40,2 km/h (6 Bft) 91,67 %
01.03.2018 02:48 -11,7 C 2,8 C 81 % 1016,2 hPa 0,0 l/m 27,0 km/h (4 Bft) O 88 0 min 0,000 mm 0,0 UV-I 0 W/m -14,3 C -28,5 C 38,6 km/h (5 Bft) 96,67 %
01.03.2018 02:49 -11,7 C 2,8 C 81 % 1016,2 hPa 0,0 l/m 26,2 km/h (4 Bft) O 92 0 min 0,000 mm 0,0 UV-I 0 W/m -14,3 C -28,2 C 32,2 km/h (5 Bft) 96,15 %
01.03.2018 02:50 -11,7 C 2,8 C 81 % 1016,2 hPa 0,0 l/m 25,6 km/h (4 Bft) O 86 0 min 0,000 mm 0,0 UV-I 0 W/m -14,3 C -27,9 C 32,2 km/h (5 Bft) 91,30 %
01.03.2018 02:51 -11,7 C 2,8 C 81 % 1016,3 hPa 0,0 l/m 28,6 km/h (4 Bft) O 81 0 min 0,000 mm 0,0 UV-I 0 W/m -14,3 C -29,3 C 38,6 km/h (5 Bft) 96,30 %
01.03.2018 02:52 -11,7 C 2,8 C 81 % 1016,3 hPa 0,0 l/m 23,8 km/h (4 Bft) O-SO 105 0 min 0,000 mm 0,0 UV-I 0 W/m -14,3 C -27,0 C 33,8 km/h (5 Bft) 91,67 %
01.03.2018 02:53 -11,7 C 2,8 C 81 % 1016,3 hPa 0,0 l/m 28,9 km/h (5 Bft) O 87 0 min 0,000 mm 0,0 UV-I 0 W/m -14,3 C -29,4 C 37,0 km/h (5 Bft) 96,15 %
01.03.2018 02:54 -11,7 C 2,8 C 81 % 1016,3 hPa 0,0 l/m 27,4 km/h (4 Bft) O 93 0 min 0,000 mm 0,0 UV-I 0 W/m -14,3 C -28,7 C 32,2 km/h (5 Bft) 95,83 %
01.03.2018 02:55 -11,7 C 2,8 C 81 % 1016,3 hPa 0,0 l/m 22,7 km/h (4 Bft) O 95 0 min 0,000 mm 0,0 UV-I 0 W/m -14,3 C -26,4 C 27,4 km/h (4 Bft) 100,00 %
01.03.2018 02:56 -11,7 C 2,8 C 81 % 1016,3 hPa 0,0 l/m 18,3 km/h (3 Bft) O 83 0 min 0,000 mm 0,0 UV-I 0 W/m -14,3 C -23,6 C 25,7 km/h (4 Bft) 96,30 %
01.03.2018 02:57 -11,8 C 2,8 C 81 % 1016,2 hPa 0,0 l/m 24,9 km/h (4 Bft) O 90 0 min 0,000 mm 0,0 UV-I 0 W/m -14,4 C -27,7 C 37,0 km/h (5 Bft) 96,15 %
01.03.2018 02:58 -11,8 C 2,8 C 81 % 1016,1 hPa 0,0 l/m 26,7 km/h (4 Bft) O-NO 71 0 min 0,000 mm 0,0 UV-I 0 W/m -14,4 C -28,5 C 33,8 km/h (5 Bft) 100,00 %
01.03.2018 02:59 -11,8 C 2,8 C 81 % 1016,0 hPa 0,0 l/m 27,4 km/h (4 Bft) O-NO 59 0 min 0,000 mm 0,0 UV-I 0 W/m -14,4 C -28,9 C 33,8 km/h (5 Bft) 96,15 %
01.03.2018 03:00 -11,8 C 2,8 C 81 % 1016,0 hPa 0,0 l/m 26,8 km/h (4 Bft) O 87 0 min 0,025 mm 0,0 UV-I 0 W/m -14,4 C -28,6 C 35,4 km/h (5 Bft) 100,00 %
01.03.2018 03:01 -11,8 C 2,8 C 81 % 1016,0 hPa 0,0 l/m 26,3 km/h (4 Bft) O-NO 59 0 min 0,000 mm 0,0 UV-I 0 W/m -14,4 C -28,4 C 32,2 km/h (5 Bft) 96,15 %
01.03.2018 03:02 -11,8 C 2,8 C 81 % 1016,0 hPa 0,0 l/m 24,0 km/h (4 Bft) O-NO 63 0 min 0,000 mm 0,0 UV-I 0 W/m -14,4 C -27,2 C 33,8 km/h (5 Bft) 100,00 %
01.03.2018 03:03 -11,8 C 2,8 C 81 % 1015,9 hPa 0,0 l/m 24,7 km/h (4 Bft) O 86 0 min 0,000 mm 0,0 UV-I 0 W/m -14,4 C -27,6 C 32,2 km/h (5 Bft) 96,15 %
01.03.2018 03:04 -11,8 C 2,8 C 81 % 1016,0 hPa 0,0 l/m 21,6 km/h (4 Bft) O-NO 67 0 min 0,000 mm 0,0 UV-I 0 W/m -14,4 C -25,9 C 27,4 km/h (4 Bft) 100,00 %
01.03.2018 03:05 -11,8 C 2,8 C 81 % 1016,0 hPa 0,0 l/m 24,7 km/h (4 Bft) O 88 0 min 0,000 mm 0,0 UV-I 0 W/m -14,4 C -27,6 C 35,4 km/h (5 Bft) 93,33 %
01.03.2018 03:06 -11,8 C 2,8 C 81 % 1015,9 hPa 0,0 l/m 21,8 km/h (4 Bft) O 93 0 min 0,000 mm 0,0 UV-I 0 W/m -14,4 C -26,0 C 29,0 km/h (5 Bft) 96,15 %
01.03.2018 03:07 -11,8 C 2,8 C 81 % 1015,9 hPa 0,0 l/m 25,4 km/h (4 Bft) O-NO 65 0 min 0,000 mm 0,0 UV-I 0 W/m -14,4 C -27,9 C 27,4 km/h (4 Bft) 91,30 %
01.03.2018 03:08 -11,8 C 2,8 C 81 % 1015,8 hPa 0,0 l/m 23,9 km/h (4 Bft) O-NO 78 0 min 0,000 mm 0,0 UV-I 0 W/m -14,4 C -27,1 C 29,0 km/h (5 Bft) 96,30 %
01.03.2018 03:09 -11,8 C 2,8 C 81 % 1015,8 hPa 0,0 l/m 29,3 km/h (5 Bft) O-NO 63 0 min 0,000 mm 0,0 UV-I 0 W/m -14,4 C -29,7 C 38,6 km/h (5 Bft) 95,65 %
01.03.2018 03:10 -11,8 C 2,8 C 81 % 1015,7 hPa 0,0 l/m 28,0 km/h (4 Bft) O 90 0 min 0,000 mm 0,0 UV-I 0 W/m -14,4 C -29,1 C 33,8 km/h (5 Bft) 100,00 %
01.03.2018 03:11 -11,8 C 2,8 C 81 % 1015,7 hPa 0,0 l/m 23,8 km/h (4 Bft) O-NO 68 0 min 0,000 mm 0,0 UV-I 0 W/m -14,4 C -27,1 C 30,6 km/h (5 Bft) 100,00 %
01.03.2018 03:12 -11,8 C 2,8 C 81 % 1015,6 hPa 0,0 l/m 22,7 km/h (4 Bft) O-SO 103 0 min 0,000 mm 0,0 UV-I 0 W/m -14,4 C -26,5 C 32,2 km/h (5 Bft) 100,00 %
01.03.2018 03:13 -11,8 C 2,8 C 81 % 1015,6 hPa 0,0 l/m 21,9 km/h (4 Bft) O-NO 74 0 min 0,000 mm 0,0 UV-I 0 W/m -14,4 C -26,0 C 30,6 km/h (5 Bft) 100,00 %
01.03.2018 03:14 -11,8 C 2,8 C 81 % 1015,6 hPa 0,0 l/m 25,2 km/h (4 Bft) O-SO 115 0 min 0,000 mm 0,0 UV-I 0 W/m -14,4 C -27,8 C 30,6 km/h (5 Bft) 92,86 %
01.03.2018 03:15 -11,8 C 2,8 C 81 % 1015,6 hPa 0,0 l/m 24,9 km/h (4 Bft) O 85 0 min 0,000 mm 0,0 UV-I 0 W/m -14,4 C -27,7 C 30,6 km/h (5 Bft) 100,00 %
01.03.2018 03:16 -11,8 C 2,8 C 81 % 1015,5 hPa 0,0 l/m 25,9 km/h (4 Bft) O-NO 78 0 min 0,000 mm 0,0 UV-I 0 W/m -14,4 C -28,2 C 33,8 km/h (5 Bft) 96,15 %
01.03.2018 03:17 -11,8 C 2,8 C 81 % 1015,5 hPa 0,0 l/m 22,5 km/h (4 Bft) O 88 0 min 0,000 mm 0,0 UV-I 0 W/m -14,4 C -26,4 C 29,0 km/h (5 Bft) 100,00 %
01.03.2018 03:18 -11,9 C 2,8 C 81 % 1015,4 hPa 0,0 l/m 21,6 km/h (4 Bft) O-NO 65 0 min 0,000 mm 0,0 UV-I 0 W/m -14,5 C -26,0 C 29,0 km/h (5 Bft) 100,00 %
01.03.2018 03:19 -11,9 C 2,8 C 81 % 1015,5 hPa 0,0 l/m 20,1 km/h (4 Bft) O 88 0 min 0,000 mm 0,0 UV-I 0 W/m -14,5 C -25,1 C 25,7 km/h (4 Bft) 96,67 %
01.03.2018 03:20 -11,9 C 2,8 C 81 % 1015,4 hPa 0,0 l/m 18,3 km/h (3 Bft) O 85 0 min 0,000 mm 0,0 UV-I 0 W/m -14,5 C -23,9 C 32,2 km/h (5 Bft) 100,00 %
01.03.2018 03:21 -11,9 C 2,8 C 81 % 1015,5 hPa 0,0 l/m 25,1 km/h (4 Bft) O 97 0 min 0,000 mm 0,0 UV-I 0 W/m -14,5 C -27,9 C 32,2 km/h (5 Bft) 100,00 %
01.03.2018 03:22 -11,9 C 2,8 C 81 % 1015,4 hPa 0,0 l/m 21,9 km/h (4 Bft) O 94 0 min 0,000 mm 0,0 UV-I 0 W/m -14,5 C -26,2 C 27,4 km/h (4 Bft) 100,00 %
01.03.2018 03:23 -11,9 C 2,8 C 81 % 1015,4 hPa 0,0 l/m 16,7 km/h (3 Bft) O 89 0 min 0,000 mm 0,0 UV-I 0 W/m -14,5 C -22,7 C 22,5 km/h (4 Bft) 100,00 %
01.03.2018 03:24 -11,9 C 2,8 C 81 % 1015,4 hPa 0,0 l/m 18,8 km/h (3 Bft) O 84 0 min 0,000 mm 0,0 UV-I 0 W/m -14,5 C -24,2 C 27,4 km/h (4 Bft) 100,00 %
01.03.2018 03:25 -11,9 C 2,8 C 81 % 1015,4 hPa 0,0 l/m 17,7 km/h (3 Bft) O-NO 73 0 min 0,000 mm 0,0 UV-I 0 W/m -14,5 C -23,5 C 20,9 km/h (4 Bft) 100,00 %
01.03.2018 03:26 -12,0 C 2,8 C 82 % 1015,4 hPa 0,0 l/m 20,7 km/h (4 Bft) O-NO 71 0 min 0,000 mm 0,0 UV-I 0 W/m -14,4 C -25,6 C 30,6 km/h (5 Bft) 95,65 %
01.03.2018 03:27 -12,0 C 2,8 C 82 % 1015,4 hPa 0,0 l/m 22,2 km/h (4 Bft) O-NO 64 0 min 0,000 mm 0,0 UV-I 0 W/m -14,4 C -26,5 C 27,4 km/h (4 Bft) 100,00 %
01.03.2018 03:28 -12,0 C 2,8 C 82 % 1015,4 hPa 0,0 l/m 20,6 km/h (4 Bft) O 94 0 min 0,000 mm 0,0 UV-I 0 W/m -14,4 C -25,5 C 25,7 km/h (4 Bft) 100,00 %
01.03.2018 03:29 -12,0 C 2,8 C 82 % 1015,4 hPa 0,0 l/m 19,4 km/h (3 Bft) O-NO 63 0 min 0,000 mm 0,0 UV-I 0 W/m -14,4 C -24,7 C 29,0 km/h (5 Bft) 100,00 %
01.03.2018 03:30 -12,0 C 2,8 C 82 % 1015,4 hPa 0,0 l/m 23,7 km/h (4 Bft) O 96 0 min 0,000 mm 0,0 UV-I 0 W/m -14,4 C -27,3 C 32,2 km/h (5 Bft) 100,00 %
01.03.2018 03:31 -12,0 C 2,8 C 82 % 1015,3 hPa 0,0 l/m 21,3 km/h (4 Bft) O 83 0 min 0,000 mm 0,0 UV-I 0 W/m -14,4 C -25,9 C 25,7 km/h (4 Bft) 100,00 %
01.03.2018 03:32 -12,0 C 2,8 C 82 % 1015,3 hPa 0,0 l/m 21,9 km/h (4 Bft) O-NO 67 0 min 0,000 mm 0,0 UV-I 0 W/m -14,4 C -26,3 C 29,0 km/h (5 Bft) 100,00 %
01.03.2018 03:33 -12,0 C 2,8 C 82 % 1015,4 hPa 0,0 l/m 24,8 km/h (4 Bft) O-NO 71 0 min 0,000 mm 0,0 UV-I 0 W/m -14,4 C -27,9 C 33,8 km/h (5 Bft) 95,83 %
01.03.2018 03:34 -12,0 C 2,8 C 82 % 1015,3 hPa 0,0 l/m 23,5 km/h (4 Bft) O-SO 106 0 min 0,000 mm 0,0 UV-I 0 W/m -14,4 C -27,2 C 30,6 km/h (5 Bft) 100,00 %
01.03.2018 03:35 -12,0 C 2,8 C 82 % 1015,3 hPa 0,0 l/m 21,3 km/h (4 Bft) O 82 0 min 0,000 mm 0,0 UV-I 0 W/m -14,4 C -25,9 C 29,0 km/h (5 Bft) 100,00 %
01.03.2018 03:36 -12,0 C 2,8 C 82 % 1015,4 hPa 0,0 l/m 22,1 km/h (4 Bft) O-NO 67 0 min 0,000 mm 0,0 UV-I 0 W/m -14,4 C -26,4 C 32,2 km/h (5 Bft) 96,30 %
01.03.2018 03:37 -12,0 C 2,8 C 82 % 1015,4 hPa 0,0 l/m 22,7 km/h (4 Bft) O 92 0 min 0,000 mm 0,0 UV-I 0 W/m -14,4 C -26,7 C 35,4 km/h (5 Bft) 100,00 %
01.03.2018 03:38 -12,0 C 2,8 C 82 % 1015,4 hPa 0,0 l/m 22,1 km/h (4 Bft) O 83 0 min 0,000 mm 0,0 UV-I 0 W/m -14,4 C -26,4 C 29,0 km/h (5 Bft) 100,00 %
01.03.2018 03:39 -12,0 C 2,8 C 82 % 1015,3 hPa 0,0 l/m 22,2 km/h (4 Bft) O-SO 103 0 min 0,000 mm 0,0 UV-I 0 W/m -14,4 C -26,5 C 27,4 km/h (4 Bft) 100,00 %
01.03.2018 03:40 -12,0 C 2,8 C 82 % 1015,3 hPa 0,0 l/m 22,7 km/h (4 Bft) O 88 0 min 0,000 mm 0,0 UV-I 0 W/m -14,4 C -26,7 C 32,2 km/h (5 Bft) 100,00 %
01.03.2018 03:41 -11,9 C 2,8 C 82 % 1015,2 hPa 0,0 l/m 22,2 km/h (4 Bft) O-NO 72 0 min 0,000 mm 0,0 UV-I 0 W/m -14,3 C -26,3 C 32,2 km/h (5 Bft) 100,00 %
01.03.2018 03:42 -12,0 C 2,8 C 82 % 1015,2 hPa 0,0 l/m 16,5 km/h (3 Bft) O-SO 109 0 min 0,000 mm 0,0 UV-I 0 W/m -14,4 C -22,7 C 20,9 km/h (4 Bft) 100,00 %
01.03.2018 03:43 -12,0 C 2,8 C 82 % 1015,2 hPa 0,0 l/m 19,4 km/h (3 Bft) O-SO 109 0 min 0,000 mm 0,0 UV-I 0 W/m -14,4 C -24,7 C 41,8 km/h (6 Bft) 96,15 %
01.03.2018 03:44 -12,0 C 2,8 C 82 % 1015,2 hPa 0,0 l/m 24,6 km/h (4 Bft) O 82 0 min 0,000 mm 0,0 UV-I 0 W/m -14,4 C -27,8 C 32,2 km/h (5 Bft) 100,00 %
01.03.2018 03:45 -12,0 C 2,8 C 82 % 1015,2 hPa 0,0 l/m 19,6 km/h (3 Bft) O-NO 67 0 min 0,000 mm 0,0 UV-I 0 W/m -14,4 C -24,9 C 25,7 km/h (4 Bft) 100,00 %
01.03.2018 03:46 -12,0 C 2,8 C 82 % 1015,1 hPa 0,0 l/m 25,3 km/h (4 Bft) O-NO 76 0 min 0,000 mm 0,0 UV-I 0 W/m -14,4 C -28,1 C 30,6 km/h (5 Bft) 100,00 %
01.03.2018 03:47 -12,0 C 2,8 C 82 % 1015,1 hPa 0,0 l/m 19,2 km/h (3 Bft) O-SO 110 0 min 0,000 mm 0,0 UV-I 0 W/m -14,4 C -24,6 C 30,6 km/h (5 Bft) 100,00 %
01.03.2018 03:48 -12,1 C 2,8 C 82 % 1015,1 hPa 0,0 l/m 24,9 km/h (4 Bft) O 88 0 min 0,000 mm 0,0 UV-I 0 W/m -14,5 C -28,1 C 33,8 km/h (5 Bft) 100,00 %
01.03.2018 03:49 -12,0 C 2,8 C 82 % 1015,0 hPa 0,0 l/m 31,3 km/h (5 Bft) O-NO 71 0 min 0,000 mm 0,0 UV-I 0 W/m -14,4 C -30,8 C 40,2 km/h (6 Bft) 100,00 %
01.03.2018 03:50 -12,0 C 2,8 C 82 % 1015,0 hPa 0,0 l/m 28,2 km/h (4 Bft) O 101 0 min 0,000 mm 0,0 UV-I 0 W/m -14,4 C -29,5 C 38,6 km/h (5 Bft) 100,00 %
01.03.2018 03:51 -12,0 C 2,8 C 82 % 1015,0 hPa 0,0 l/m 20,4 km/h (4 Bft) O-SO 107 0 min 0,000 mm 0,0 UV-I 0 W/m -14,4 C -25,4 C 25,7 km/h (4 Bft) 100,00 %
01.03.2018 03:52 -12,0 C 2,8 C 82 % 1015,0 hPa 0,0 l/m 22,5 km/h (4 Bft) O 82 0 min 0,000 mm 0,0 UV-I 0 W/m -14,4 C -26,6 C 29,0 km/h (5 Bft) 100,00 %
01.03.2018 03:53 -12,0 C 2,8 C 82 % 1015,0 hPa 0,0 l/m 24,0 km/h (4 Bft) O-NO 67 0 min 0,000 mm 0,0 UV-I 0 W/m -14,4 C -27,5 C 29,0 km/h (5 Bft) 100,00 %
01.03.2018 03:54 -12,0 C 2,8 C 82 % 1015,0 hPa 0,0 l/m 25,3 km/h (4 Bft) O-SO 106 0 min 0,000 mm 0,0 UV-I 0 W/m -14,4 C -28,1 C 32,2 km/h (5 Bft) 34,62 %
01.03.2018 03:55 -12,0 C 2,8 C 82 % 1014,9 hPa 0,0 l/m 19,7 km/h (3 Bft) O-NO 76 0 min 0,000 mm 0,0 UV-I 0 W/m -14,4 C -24,9 C 25,7 km/h (4 Bft) 97,23 %
01.03.2018 03:56 -12,1 C 2,8 C 82 % 1015,0 hPa 0,0 l/m 24,6 km/h (4 Bft) O-NO 57 0 min 0,000 mm 0,0 UV-I 0 W/m -14,5 C -27,9 C 37,0 km/h (5 Bft) 100,00 %
01.03.2018 03:57 -12,1 C 2,8 C 82 % 1014,9 hPa 0,0 l/m 24,7 km/h (4 Bft) O 88 0 min 0,000 mm 0,0 UV-I 0 W/m -14,5 C -28,0 C 32,2 km/h (5 Bft) 100,00 %
01.03.2018 03:58 -12,0 C 2,8 C 82 % 1014,9 hPa 0,0 l/m 27,5 km/h (4 Bft) O-NO 72 0 min 0,000 mm 0,0 UV-I 0 W/m -14,4 C -29,2 C 37,0 km/h (5 Bft) 100,00 %
01.03.2018 03:59 -12,0 C 2,8 C 82 % 1014,9 hPa 0,0 l/m 28,2 km/h (4 Bft) O 101 0 min 0,000 mm 0,0 UV-I 0 W/m -14,4 C -29,5 C 37,0 km/h (5 Bft) 100,00 %
01.03.2018 04:00 -12,0 C 2,8 C 82 % 1014,9 hPa 0,0 l/m 25,7 km/h (4 Bft) O-NO 67 0 min 0,000 mm 0,0 UV-I 0 W/m -14,4 C -28,3 C 32,2 km/h (5 Bft) 96,15 %
01.03.2018 04:01 -12,0 C 2,8 C 82 % 1014,9 hPa 0,0 l/m 19,4 km/h (3 Bft) O 86 0 min 0,026 mm 0,0 UV-I 0 W/m -14,4 C -24,7 C 27,4 km/h (4 Bft) 100,00 %
01.03.2018 04:02 -12,0 C 2,8 C 82 % 1014,9 hPa 0,0 l/m 24,3 km/h (4 Bft) O-SO 115 0 min 0,000 mm 0,0 UV-I 0 W/m -14,4 C -27,6 C 38,6 km/h (5 Bft) 91,30 %
01.03.2018 04:03 -12,1 C 2,8 C 82 % 1015,0 hPa 0,0 l/m 24,8 km/h (4 Bft) O-NO 71 0 min 0,000 mm 0,0 UV-I 0 W/m -14,5 C -28,0 C 37,0 km/h (5 Bft) 100,00 %
01.03.2018 04:04 -12,1 C 2,8 C 82 % 1015,0 hPa 0,0 l/m 24,9 km/h (4 Bft) O-NO 59 0 min 0,000 mm 0,0 UV-I 0 W/m -14,5 C -28,1 C 33,8 km/h (5 Bft) 100,00 %
01.03.2018 04:05 -12,0 C 2,8 C 82 % 1015,0 hPa 0,0 l/m 24,1 km/h (4 Bft) O-NO 67 0 min 0,000 mm 0,0 UV-I 0 W/m -14,4 C -27,5 C 30,6 km/h (5 Bft) 100,00 %
01.03.2018 04:06 -12,1 C 2,8 C 82 % 1015,0 hPa 0,0 l/m 20,9 km/h (4 Bft) O 92 0 min 0,000 mm 0,0 UV-I 0 W/m -14,5 C -25,8 C 32,2 km/h (5 Bft) 91,30 %
01.03.2018 04:07 -12,1 C 2,8 C 82 % 1015,1 hPa 0,0 l/m 21,9 km/h (4 Bft) O-SO 117 0 min 0,000 mm 0,0 UV-I 0 W/m -14,5 C -26,4 C 32,2 km/h (5 Bft) 100,00 %
01.03.2018 04:08 -12,1 C 2,8 C 82 % 1015,1 hPa 0,0 l/m 27,0 km/h (4 Bft) O 85 0 min 0,000 mm 0,0 UV-I 0 W/m -14,5 C -29,1 C 37,0 km/h (5 Bft) 100,00 %
01.03.2018 04:09 -12,1 C 2,8 C 82 % 1015,0 hPa 0,0 l/m 26,6 km/h (4 Bft) O 96 0 min 0,000 mm 0,0 UV-I 0 W/m -14,5 C -28,9 C 37,0 km/h (5 Bft) 96,30 %
01.03.2018 04:10 -12,0 C 2,8 C 82 % 1014,9 hPa 0,0 l/m 27,3 km/h (4 Bft) O-NO 64 0 min 0,000 mm 0,0 UV-I 0 W/m -14,4 C -29,1 C 40,2 km/h (6 Bft) 100,00 %
01.03.2018 04:11 -12,0 C 2,8 C 82 % 1015,0 hPa 0,0 l/m 31,3 km/h (5 Bft) O 96 0 min 0,000 mm 0,0 UV-I 0 W/m -14,4 C -30,8 C 38,6 km/h (5 Bft) 100,00 %
01.03.2018 04:12 -12,1 C 2,8 C 82 % 1015,0 hPa 0,0 l/m 20,6 km/h (4 Bft) O-NO 71 0 min 0,000 mm 0,0 UV-I 0 W/m -14,5 C -25,6 C 27,4 km/h (4 Bft) 100,00 %
01.03.2018 04:13 -12,1 C 2,8 C 82 % 1015,0 hPa 0,0 l/m 28,2 km/h (4 Bft) O 87 0 min 0,000 mm 0,0 UV-I 0 W/m -14,5 C -29,6 C 38,6 km/h (5 Bft) 96,88 %
01.03.2018 04:14 -12,1 C 2,8 C 82 % 1015,0 hPa 0,0 l/m 28,5 km/h (4 Bft) O-SO 116 0 min 0,000 mm 0,0 UV-I 0 W/m -14,5 C -29,8 C 37,0 km/h (5 Bft) 100,00 %
01.03.2018 04:15 -12,1 C 2,8 C 82 % 1015,0 hPa 0,0 l/m 27,4 km/h (4 Bft) O 91 0 min 0,000 mm 0,0 UV-I 0 W/m -14,5 C -29,3 C 32,2 km/h (5 Bft) 100,00 %
01.03.2018 04:16 -12,1 C 2,8 C 82 % 1015,0 hPa 0,0 l/m 25,3 km/h (4 Bft) O 101 0 min 0,000 mm 0,0 UV-I 0 W/m -14,5 C -28,3 C 33,8 km/h (5 Bft) 100,00 %
01.03.2018 04:17 -12,1 C 2,8 C 82 % 1014,9 hPa 0,0 l/m 29,6 km/h (5 Bft) O 86 0 min 0,000 mm 0,0 UV-I 0 W/m -14,5 C -30,3 C 38,6 km/h (5 Bft) 91,30 %
01.03.2018 04:18 -12,1 C 2,8 C 82 % 1014,8 hPa 0,0 l/m 27,8 km/h (4 Bft) O 90 0 min 0,000 mm 0,0 UV-I 0 W/m -14,5 C -29,5 C 37,0 km/h (5 Bft) 100,00 %
01.03.2018 04:19 -12,0 C 2,8 C 82 % 1014,8 hPa 0,0 l/m 27,2 km/h (4 Bft) O 93 0 min 0,000 mm 0,0 UV-I 0 W/m -14,4 C -29,1 C 35,4 km/h (5 Bft) 100,00 %
01.03.2018 04:20 -12,0 C 2,8 C 82 % 1014,8 hPa 0,0 l/m 23,3 km/h (4 Bft) O 101 0 min 0,000 mm 0,0 UV-I 0 W/m -14,4 C -27,1 C 33,8 km/h (5 Bft) 100,00 %
01.03.2018 04:21 -12,0 C 2,8 C 82 % 1014,8 hPa 0,0 l/m 29,5 km/h (5 Bft) O 80 0 min 0,000 mm 0,0 UV-I 0 W/m -14,4 C -30,1 C 35,4 km/h (5 Bft) 100,00 %
01.03.2018 04:22 -12,0 C 2,8 C 82 % 1014,7 hPa 0,0 l/m 25,1 km/h (4 Bft) O-NO 75 0 min 0,000 mm 0,0 UV-I 0 W/m -14,4 C -28,0 C 30,6 km/h (5 Bft) 100,00 %
01.03.2018 04:23 -11,9 C 2,8 C 82 % 1014,7 hPa 0,0 l/m 31,3 km/h (5 Bft) O 85 0 min 0,000 mm 0,0 UV-I 0 W/m -14,3 C -30,7 C 40,2 km/h (6 Bft) 96,55 %
01.03.2018 04:24 -12,0 C 2,8 C 82 % 1014,7 hPa 0,0 l/m 24,6 km/h (4 Bft) O-NO 76 0 min 0,000 mm 0,0 UV-I 0 W/m -14,4 C -27,8 C 32,2 km/h (5 Bft) 100,00 %
01.03.2018 04:25 -11,9 C 2,8 C 82 % 1014,7 hPa 0,0 l/m 23,9 km/h (4 Bft) O 92 0 min 0,000 mm 0,0 UV-I 0 W/m -14,3 C -27,3 C 32,2 km/h (5 Bft) 100,00 %
01.03.2018 04:26 -11,9 C 2,8 C 82 % 1014,7 hPa 0,0 l/m 26,7 km/h (4 Bft) O 82 0 min 0,000 mm 0,0 UV-I 0 W/m -14,3 C -28,7 C 38,6 km/h (5 Bft) 100,00 %
01.03.2018 04:27 -11,9 C 2,8 C 82 % 1014,6 hPa 0,0 l/m 31,7 km/h (5 Bft) O 98 0 min 0,000 mm 0,0 UV-I 0 W/m -14,3 C -30,8 C 41,8 km/h (6 Bft) 100,00 %
01.03.2018 04:28 -11,9 C 2,8 C 82 % 1014,6 hPa 0,0 l/m 28,7 km/h (4 Bft) O 87 0 min 0,000 mm 0,0 UV-I 0 W/m -14,3 C -29,6 C 37,0 km/h (5 Bft) 100,00 %
01.03.2018 04:29 -11,9 C 2,8 C 82 % 1014,6 hPa 0,0 l/m 27,7 km/h (4 Bft) O 93 0 min 0,000 mm 0,0 UV-I 0 W/m -14,3 C -29,1 C 33,8 km/h (5 Bft) 100,00 %
01.03.2018 04:30 -12,0 C 2,8 C 82 % 1014,6 hPa 0,0 l/m 24,2 km/h (4 Bft) O-SO 113 0 min 0,000 mm 0,0 UV-I 0 W/m -14,4 C -27,6 C 33,8 km/h (5 Bft) 96,15 %
01.03.2018 04:31 -11,9 C 2,8 C 82 % 1014,6 hPa 0,0 l/m 29,5 km/h (5 Bft) SO 128 0 min 0,000 mm 0,0 UV-I 0 W/m -14,3 C -29,9 C 37,0 km/h (5 Bft) 100,00 %
01.03.2018 04:32 -11,9 C 2,8 C 82 % 1014,6 hPa 0,0 l/m 28,9 km/h (5 Bft) O 90 0 min 0,000 mm 0,0 UV-I 0 W/m -14,3 C -29,7 C 38,6 km/h (5 Bft) 100,00 %
01.03.2018 04:35 -11,9 C 2,8 C 82 % 1014,6 hPa 0,0 l/m 28,6 km/h (4 Bft) O 91 0 min 0,000 mm 0,0 UV-I 0 W/m -14,3 C -29,5 C 48,3 km/h (6 Bft) 96,55 %
01.03.2018 04:36 -11,9 C 2,8 C 82 % 1014,7 hPa 0,0 l/m 32,9 km/h (5 Bft) O-SO 105 0 min 0,000 mm 0,0 UV-I 0 W/m -14,3 C -31,3 C 41,8 km/h (6 Bft) 100,00 %
01.03.2018 04:37 -12,0 C 2,8 C 82 % 1014,7 hPa 0,0 l/m 24,9 km/h (4 Bft) O 93 0 min 0,000 mm 0,0 UV-I 0 W/m -14,4 C -27,9 C 32,2 km/h (5 Bft) 100,00 %
01.03.2018 04:38 -11,9 C 2,8 C 82 % 1014,7 hPa 0,0 l/m 24,1 km/h (4 Bft) O 101 0 min 0,000 mm 0,0 UV-I 0 W/m -14,3 C -27,4 C 38,6 km/h (5 Bft) 91,67 %
01.03.2018 04:39 -12,0 C 2,8 C 82 % 1014,7 hPa 0,0 l/m 28,9 km/h (5 Bft) O 88 0 min 0,000 mm 0,0 UV-I 0 W/m -14,4 C -29,8 C 38,6 km/h (5 Bft) 100,00 %
01.03.2018 04:40 -12,0 C 2,8 C 82 % 1014,7 hPa 0,0 l/m 25,1 km/h (4 Bft) O-NO 76 0 min 0,000 mm 0,0 UV-I 0 W/m -14,4 C -28,0 C 45,1 km/h (6 Bft) 95,83 %
01.03.2018 04:41 -12,0 C 2,8 C 82 % 1014,7 hPa 0,0 l/m 30,8 km/h (5 Bft) O 83 0 min 0,000 mm 0,0 UV-I 0 W/m -14,4 C -30,6 C 40,2 km/h (6 Bft) 95,65 %
01.03.2018 04:42 -12,0 C 2,8 C 82 % 1014,7 hPa 0,0 l/m 24,9 km/h (4 Bft) O 90 0 min 0,000 mm 0,0 UV-I 0 W/m -14,4 C -27,9 C 45,1 km/h (6 Bft) 100,00 %
01.03.2018 04:43 -12,0 C 2,8 C 82 % 1014,8 hPa 0,0 l/m 30,0 km/h (5 Bft) O 83 0 min 0,000 mm 0,0 UV-I 0 W/m -14,4 C -30,3 C 38,6 km/h (5 Bft) 95,65 %
01.03.2018 04:44 -12,0 C 2,8 C 82 % 1014,8 hPa 0,0 l/m 27,5 km/h (4 Bft) O 83 0 min 0,000 mm 0,0 UV-I 0 W/m -14,4 C -29,2 C 35,4 km/h (5 Bft) 100,00 %
01.03.2018 04:45 -12,0 C 2,8 C 82 % 1014,8 hPa 0,0 l/m 22,3 km/h (4 Bft) O-SO 116 0 min 0,000 mm 0,0 UV-I 0 W/m -14,4 C -26,5 C 29,0 km/h (5 Bft) 91,67 %
01.03.2018 04:46 -12,0 C 2,8 C 82 % 1014,8 hPa 0,0 l/m 33,3 km/h (5 Bft) O-NO 76 0 min 0,000 mm 0,0 UV-I 0 W/m -14,4 C -31,6 C 46,7 km/h (6 Bft) 100,00 %
01.03.2018 04:47 -12,0 C 2,8 C 82 % 1014,7 hPa 0,0 l/m 29,5 km/h (5 Bft) O 101 0 min 0,000 mm 0,0 UV-I 0 W/m -14,4 C -30,1 C 40,2 km/h (6 Bft) 93,33 %
01.03.2018 04:48 -12,0 C 2,8 C 82 % 1014,8 hPa 0,0 l/m 26,4 km/h (4 Bft) O 98 0 min 0,000 mm 0,0 UV-I 0 W/m -14,4 C -28,7 C 38,6 km/h (5 Bft) 100,00 %
01.03.2018 04:49 -12,0 C 2,8 C 82 % 1014,8 hPa 0,0 l/m 24,5 km/h (4 Bft) O-SO 106 0 min 0,000 mm 0,0 UV-I 0 W/m -14,4 C -27,7 C 33,8 km/h (5 Bft) 96,30 %
01.03.2018 04:50 -12,0 C 2,8 C 82 % 1014,7 hPa 0,0 l/m 24,8 km/h (4 Bft) O 101 0 min 0,000 mm 0,0 UV-I 0 W/m -14,4 C -27,9 C 30,6 km/h (5 Bft) 100,00 %
01.03.2018 04:51 -12,0 C 2,8 C 82 % 1014,6 hPa 0,0 l/m 27,0 km/h (4 Bft) O 88 0 min 0,000 mm 0,0 UV-I 0 W/m -14,4 C -29,0 C 43,5 km/h (6 Bft) 92,59 %
01.03.2018 04:52 -12,0 C 2,8 C 82 % 1014,6 hPa 0,0 l/m 34,5 km/h (5 Bft) O-NO 70 0 min 0,000 mm 0,0 UV-I 0 W/m -14,4 C -32,0 C 38,6 km/h (5 Bft) 100,00 %
01.03.2018 04:53 -12,0 C 2,8 C 82 % 1014,5 hPa 0,0 l/m 28,9 km/h (5 Bft) O 96 0 min 0,000 mm 0,0 UV-I 0 W/m -14,4 C -29,8 C 38,6 km/h (5 Bft) 93,10 %
01.03.2018 04:54 -12,0 C 2,8 C 82 % 1014,5 hPa 0,0 l/m 25,3 km/h (4 Bft) O-SO 113 0 min 0,000 mm 0,0 UV-I 0 W/m -14,4 C -28,1 C 33,8 km/h (5 Bft) 95,65 %
01.03.2018 04:55 -12,0 C 2,8 C 82 % 1014,5 hPa 0,0 l/m 27,8 km/h (4 Bft) O 90 0 min 0,000 mm 0,0 UV-I 0 W/m -14,4 C -29,3 C 35,4 km/h (5 Bft) 100,00 %
01.03.2018 04:56 -12,0 C 2,8 C 82 % 1014,5 hPa 0,0 l/m 26,6 km/h (4 Bft) O-NO 57 0 min 0,000 mm 0,0 UV-I 0 W/m -14,4 C -28,8 C 38,6 km/h (5 Bft) 91,30 %
01.03.2018 04:57 -12,0 C 2,8 C 82 % 1014,5 hPa 0,0 l/m 25,9 km/h (4 Bft) O 96 0 min 0,000 mm 0,0 UV-I 0 W/m -14,4 C -28,4 C 38,6 km/h (5 Bft) 100,00 %
01.03.2018 04:58 -12,0 C 2,8 C 82 % 1014,6 hPa 0,0 l/m 27,5 km/h (4 Bft) O-SO 113 0 min 0,000 mm 0,0 UV-I 0 W/m -14,4 C -29,2 C 37,0 km/h (5 Bft) 96,15 %
01.03.2018 04:59 -12,0 C 2,8 C 82 % 1014,6 hPa 0,0 l/m 29,9 km/h (5 Bft) O 96 0 min 0,000 mm 0,0 UV-I 0 W/m -14,4 C -30,2 C 37,0 km/h (5 Bft) 92,59 %
01.03.2018 05:00 -12,0 C 2,8 C 82 % 1014,6 hPa 0,0 l/m 21,9 km/h (4 Bft) O-SO 107 0 min 0,025 mm 0,0 UV-I 0 W/m -14,4 C -26,3 C 30,6 km/h (5 Bft) 100,00 %
01.03.2018 05:01 -12,0 C 2,8 C 82 % 1014,6 hPa 0,0 l/m 29,1 km/h (5 Bft) O 91 0 min 0,000 mm 0,0 UV-I 0 W/m -14,4 C -29,9 C 43,5 km/h (6 Bft) 93,33 %
01.03.2018 05:02 -12,1 C 2,8 C 82 % 1014,6 hPa 0,0 l/m 25,1 km/h (4 Bft) O-SO 109 0 min 0,000 mm 0,0 UV-I 0 W/m -14,5 C -28,2 C 33,8 km/h (5 Bft) 100,00 %
01.03.2018 05:03 -12,1 C 2,8 C 82 % 1014,6 hPa 0,0 l/m 19,4 km/h (3 Bft) O 84 0 min 0,000 mm 0,0 UV-I 0 W/m -14,5 C -24,9 C 27,4 km/h (4 Bft) 96,30 %
01.03.2018 05:04 -12,1 C 2,8 C 82 % 1014,6 hPa 0,0 l/m 26,4 km/h (4 Bft) O 98 0 min 0,000 mm 0,0 UV-I 0 W/m -14,5 C -28,8 C 37,0 km/h (5 Bft) 100,00 %
01.03.2018 05:05 -12,1 C 2,8 C 82 % 1014,7 hPa 0,0 l/m 27,4 km/h (4 Bft) O-SO 107 0 min 0,000 mm 0,0 UV-I 0 W/m -14,5 C -29,3 C 33,8 km/h (5 Bft) 90,91 %
01.03.2018 05:06 -12,1 C 2,8 C 82 % 1014,7 hPa 0,0 l/m 21,3 km/h (4 Bft) O 99 0 min 0,000 mm 0,0 UV-I 0 W/m -14,5 C -26,1 C 27,4 km/h (4 Bft) 100,00 %
01.03.2018 05:07 -12,0 C 2,8 C 82 % 1014,8 hPa 0,0 l/m 23,7 km/h (4 Bft) O 88 0 min 0,000 mm 0,0 UV-I 0 W/m -14,4 C -27,3 C 29,0 km/h (5 Bft) 95,65 %
01.03.2018 05:08 -12,1 C 2,8 C 82 % 1014,7 hPa 0,0 l/m 27,0 km/h (4 Bft) O 98 0 min 0,000 mm 0,0 UV-I 0 W/m -14,5 C -29,1 C 37,0 km/h (5 Bft) 95,83 %
01.03.2018 05:09 -12,1 C 2,8 C 82 % 1014,6 hPa 0,0 l/m 31,7 km/h (5 Bft) O 83 0 min 0,000 mm 0,0 UV-I 0 W/m -14,5 C -31,1 C 41,8 km/h (6 Bft) 96,15 %
01.03.2018 05:10 -12,1 C 2,8 C 82 % 1014,5 hPa 0,0 l/m 26,8 km/h (4 Bft) O-NO 76 0 min 0,000 mm 0,0 UV-I 0 W/m -14,5 C -29,0 C 33,8 km/h (5 Bft) 91,67 %
01.03.2018 05:11 -12,1 C 2,8 C 82 % 1014,6 hPa 0,0 l/m 24,3 km/h (4 Bft) O 84 0 min 0,000 mm 0,0 UV-I 0 W/m -14,5 C -27,8 C 32,2 km/h (5 Bft) 100,00 %
01.03.2018 05:12 -12,1 C 2,8 C 82 % 1014,6 hPa 0,0 l/m 29,2 km/h (5 Bft) O-SO 112 0 min 0,000 mm 0,0 UV-I 0 W/m -14,5 C -30,1 C 41,8 km/h (6 Bft) 91,67 %
01.03.2018 05:13 -12,1 C 2,8 C 82 % 1014,5 hPa 0,0 l/m 30,3 km/h (5 Bft) O 85 0 min 0,000 mm 0,0 UV-I 0 W/m -14,5 C -30,5 C 43,5 km/h (6 Bft) 94,74 %
01.03.2018 05:14 -12,0 C 2,8 C 82 % 1014,4 hPa 0,0 l/m 22,6 km/h (4 Bft) O-SO 117 0 min 0,000 mm 0,0 UV-I 0 W/m -14,4 C -26,7 C 32,2 km/h (5 Bft) 100,00 %
01.03.2018 05:15 -12,1 C 2,8 C 82 % 1014,4 hPa 0,0 l/m 23,7 km/h (4 Bft) O 84 0 min 0,000 mm 0,0 UV-I 0 W/m -14,5 C -27,4 C 35,4 km/h (5 Bft) 95,65 %
01.03.2018 05:16 -12,0 C 2,8 C 82 % 1014,4 hPa 0,0 l/m 31,0 km/h (5 Bft) O-SO 121 0 min 0,000 mm 0,0 UV-I 0 W/m -14,4 C -30,7 C 41,8 km/h (6 Bft) 100,00 %
01.03.2018 05:17 -12,1 C 2,8 C 82 % 1014,4 hPa 0,0 l/m 26,6 km/h (4 Bft) O-SO 103 0 min 0,000 mm 0,0 UV-I 0 W/m -14,5 C -28,9 C 37,0 km/h (5 Bft) 95,65 %
01.03.2018 05:18 -12,1 C 2,8 C 82 % 1014,4 hPa 0,0 l/m 26,8 km/h (4 Bft) O 79 0 min 0,000 mm 0,0 UV-I 0 W/m -14,5 C -29,0 C 38,6 km/h (5 Bft) 100,00 %
01.03.2018 05:19 -12,0 C 2,8 C 82 % 1014,4 hPa 0,0 l/m 23,9 km/h (4 Bft) O-NO 77 0 min 0,000 mm 0,0 UV-I 0 W/m -14,4 C -27,4 C 33,8 km/h (5 Bft) 96,15 %
01.03.2018 05:20 -12,0 C 2,8 C 82 % 1014,4 hPa 0,0 l/m 27,3 km/h (4 Bft) O 88 0 min 0,000 mm 0,0 UV-I 0 W/m -14,4 C -29,1 C 32,2 km/h (5 Bft) 100,00 %
01.03.2018 05:21 -12,0 C 2,8 C 82 % 1014,4 hPa 0,0 l/m 27,6 km/h (4 Bft) O-SO 103 0 min 0,000 mm 0,0 UV-I 0 W/m -14,4 C -29,2 C 35,4 km/h (5 Bft) 91,67 %
01.03.2018 05:22 -12,0 C 2,8 C 82 % 1014,4 hPa 0,0 l/m 30,7 km/h (5 Bft) O 82 0 min 0,000 mm 0,0 UV-I 0 W/m -14,4 C -30,6 C 45,1 km/h (6 Bft) 96,55 %
01.03.2018 05:23 -12,0 C 2,8 C 82 % 1014,3 hPa 0,0 l/m 28,6 km/h (4 Bft) O 86 0 min 0,000 mm 0,0 UV-I 0 W/m -14,4 C -29,7 C 37,0 km/h (5 Bft) 96,30 %
01.03.2018 05:24 -12,0 C 2,8 C 82 % 1014,2 hPa 0,0 l/m 27,2 km/h (4 Bft) O-NO 76 0 min 0,000 mm 0,0 UV-I 0 W/m -14,4 C -29,1 C 33,8 km/h (5 Bft) 92,31 %
01.03.2018 05:25 -12,0 C 2,8 C 82 % 1014,1 hPa 0,0 l/m 30,1 km/h (5 Bft) O 94 0 min 0,000 mm 0,0 UV-I 0 W/m -14,4 C -30,3 C 38,6 km/h (5 Bft) 100,00 %
01.03.2018 05:26 -12,0 C 2,8 C 82 % 1014,1 hPa 0,0 l/m 32,2 km/h (5 Bft) O 100 0 min 0,000 mm 0,0 UV-I 0 W/m -14,4 C -31,2 C 40,2 km/h (6 Bft) 96,55 %
01.03.2018 05:27 -12,1 C 2,8 C 82 % 1013,9 hPa 0,0 l/m 29,5 km/h (5 Bft) O 86 0 min 0,000 mm 0,0 UV-I 0 W/m -14,5 C -30,2 C 41,8 km/h (6 Bft) 100,00 %
01.03.2018 05:28 -12,0 C 2,8 C 82 % 1013,7 hPa 0,0 l/m 34,4 km/h (5 Bft) O 91 0 min 0,000 mm 0,0 UV-I 0 W/m -14,4 C -32,0 C 41,8 km/h (6 Bft) 95,65 %
01.03.2018 05:29 -12,0 C 2,8 C 82 % 1013,7 hPa 0,0 l/m 26,8 km/h (4 Bft) O 80 0 min 0,000 mm 0,0 UV-I 0 W/m -14,4 C -28,9 C 38,6 km/h (5 Bft) 100,00 %
01.03.2018 05:30 -12,1 C 2,8 C 82 % 1013,7 hPa 0,0 l/m 23,4 km/h (4 Bft) O-SO 118 0 min 0,000 mm 0,0 UV-I 0 W/m -14,5 C -27,3 C 32,2 km/h (5 Bft) 95,65 %
01.03.2018 05:31 -12,1 C 2,8 C 82 % 1013,8 hPa 0,0 l/m 24,1 km/h (4 Bft) O-NO 78 0 min 0,000 mm 0,0 UV-I 0 W/m -14,5 C -27,6 C 32,2 km/h (5 Bft) 100,00 %
01.03.2018 05:32 -12,1 C 2,8 C 82 % 1013,8 hPa 0,0 l/m 36,9 km/h (5 Bft) O 98 0 min 0,000 mm 0,0 UV-I 0 W/m -14,5 C -32,9 C 45,1 km/h (6 Bft) 91,30 %
01.03.2018 05:33 -12,1 C 2,8 C 82 % 1013,7 hPa 0,0 l/m 26,2 km/h (4 Bft) O 88 0 min 0,000 mm 0,0 UV-I 0 W/m -14,5 C -28,7 C 40,2 km/h (6 Bft) 96,67 %
01.03.2018 05:34 -12,1 C 2,8 C 82 % 1013,8 hPa 0,0 l/m 28,7 km/h (4 Bft) O 82 0 min 0,000 mm 0,0 UV-I 0 W/m -14,5 C -29,9 C 41,8 km/h (6 Bft) 100,00 %
01.03.2018 05:35 -12,1 C 2,8 C 82 % 1013,8 hPa 0,0 l/m 24,3 km/h (4 Bft) O-NO 63 0 min 0,000 mm 0,0 UV-I 0 W/m -14,5 C -27,8 C 32,2 km/h (5 Bft) 100,00 %
01.03.2018 05:36 -12,1 C 2,8 C 82 % 1013,8 hPa 0,0 l/m 29,0 km/h (5 Bft) O 94 0 min 0,000 mm 0,0 UV-I 0 W/m -14,5 C -30,0 C 38,6 km/h (5 Bft) 95,65 %
01.03.2018 05:37 -12,1 C 2,8 C 82 % 1013,7 hPa 0,0 l/m 26,1 km/h (4 Bft) O 96 0 min 0,000 mm 0,0 UV-I 0 W/m -14,5 C -28,7 C 33,8 km/h (5 Bft) 92,59 %
01.03.2018 05:38 -12,1 C 2,8 C 82 % 1013,8 hPa 0,0 l/m 23,8 km/h (4 Bft) O 80 0 min 0,000 mm 0,0 UV-I 0 W/m -14,5 C -27,5 C 35,4 km/h (5 Bft) 100,00 %
01.03.2018 05:39 -12,1 C 2,8 C 82 % 1013,7 hPa 0,0 l/m 23,7 km/h (4 Bft) O 87 0 min 0,000 mm 0,0 UV-I 0 W/m -14,5 C -27,4 C 32,2 km/h (5 Bft) 96,55 %
01.03.2018 05:40 -12,1 C 2,8 C 82 % 1013,7 hPa 0,0 l/m 24,3 km/h (4 Bft) O-SO 107 0 min 0,000 mm 0,0 UV-I 0 W/m -14,5 C -27,8 C 29,0 km/h (5 Bft) 100,00 %
01.03.2018 05:41 -12,1 C 2,8 C 82 % 1013,7 hPa 0,0 l/m 29,4 km/h (5 Bft) O-NO 74 0 min 0,000 mm 0,0 UV-I 0 W/m -14,5 C -30,2 C 33,8 km/h (5 Bft) 96,15 %
01.03.2018 05:42 -12,1 C 2,8 C 82 % 1013,7 hPa 0,0 l/m 25,5 km/h (4 Bft) O-NO 69 0 min 0,000 mm 0,0 UV-I 0 W/m -14,5 C -28,4 C 35,4 km/h (5 Bft) 95,65 %
01.03.2018 05:43 -12,1 C 2,8 C 82 % 1013,7 hPa 0,0 l/m 20,0 km/h (4 Bft) O-SO 107 0 min 0,000 mm 0,0 UV-I 0 W/m -14,5 C -25,3 C 27,4 km/h (4 Bft) 95,83 %
01.03.2018 05:44 -12,2 C 2,8 C 82 % 1013,7 hPa 0,0 l/m 24,3 km/h (4 Bft) O-NO 75 0 min 0,000 mm 0,0 UV-I 0 W/m -14,6 C -27,9 C 35,4 km/h (5 Bft) 100,00 %
01.03.2018 05:45 -12,2 C 2,8 C 82 % 1013,7 hPa 0,0 l/m 22,9 km/h (4 Bft) O-SO 114 0 min 0,000 mm 0,0 UV-I 0 W/m -14,6 C -27,1 C 29,0 km/h (5 Bft) 96,15 %
01.03.2018 05:46 -12,2 C 2,8 C 82 % 1013,7 hPa 0,0 l/m 24,3 km/h (4 Bft) O-NO 76 0 min 0,000 mm 0,0 UV-I 0 W/m -14,6 C -27,9 C 32,2 km/h (5 Bft) 96,67 %
01.03.2018 05:47 -12,2 C 2,8 C 82 % 1013,7 hPa 0,0 l/m 23,4 km/h (4 Bft) O-SO 114 0 min 0,000 mm 0,0 UV-I 0 W/m -14,6 C -27,4 C 33,8 km/h (5 Bft) 100,00 %
01.03.2018 05:48 -12,2 C 2,8 C 82 % 1013,7 hPa 0,0 l/m 20,6 km/h (4 Bft) O 87 0 min 0,000 mm 0,0 UV-I 0 W/m -14,6 C -25,8 C 33,8 km/h (5 Bft) 100,00 %
01.03.2018 05:49 -12,2 C 2,8 C 82 % 1013,6 hPa 0,0 l/m 24,1 km/h (4 Bft) O 87 0 min 0,000 mm 0,0 UV-I 0 W/m -14,6 C -27,8 C 32,2 km/h (5 Bft) 96,88 %
01.03.2018 05:50 -12,2 C 2,8 C 82 % 1013,7 hPa 0,0 l/m 24,5 km/h (4 Bft) O-NO 67 0 min 0,000 mm 0,0 UV-I 0 W/m -14,6 C -28,0 C 32,2 km/h (5 Bft) 91,67 %
01.03.2018 05:51 -12,2 C 2,8 C 82 % 1013,7 hPa 0,0 l/m 25,1 km/h (4 Bft) O 98 0 min 0,000 mm 0,0 UV-I 0 W/m -14,6 C -28,3 C 37,0 km/h (5 Bft) 100,00 %
01.03.2018 05:52 -12,2 C 2,8 C 82 % 1013,7 hPa 0,0 l/m 25,5 km/h (4 Bft) O 98 0 min 0,000 mm 0,0 UV-I 0 W/m -14,6 C -28,5 C 33,8 km/h (5 Bft) 96,30 %
01.03.2018 05:53 -12,2 C 2,8 C 82 % 1013,6 hPa 0,0 l/m 25,0 km/h (4 Bft) O-SO 104 0 min 0,000 mm 0,0 UV-I 0 W/m -14,6 C -28,3 C 38,6 km/h (5 Bft) 100,00 %
01.03.2018 05:54 -12,2 C 2,8 C 82 % 1013,5 hPa 0,0 l/m 29,5 km/h (5 Bft) O-NO 67 0 min 0,000 mm 0,0 UV-I 0 W/m -14,6 C -30,4 C 37,0 km/h (5 Bft) 95,24 %
01.03.2018 05:55 -12,2 C 2,8 C 82 % 1013,6 hPa 0,0 l/m 27,5 km/h (4 Bft) O 95 0 min 0,000 mm 0,0 UV-I 0 W/m -14,6 C -29,5 C 33,8 km/h (5 Bft) 96,15 %
01.03.2018 05:56 -12,1 C 2,8 C 82 % 1013,6 hPa 0,0 l/m 28,0 km/h (4 Bft) O-NO 78 0 min 0,000 mm 0,0 UV-I 0 W/m -14,5 C -29,6 C 37,0 km/h (5 Bft) 100,00 %
01.03.2018 05:57 -12,1 C 2,8 C 82 % 1013,5 hPa 0,0 l/m 27,6 km/h (4 Bft) O 90 0 min 0,000 mm 0,0 UV-I 0 W/m -14,5 C -29,4 C 35,4 km/h (5 Bft) 100,00 %
01.03.2018 05:58 -12,1 C 2,8 C 82 % 1013,5 hPa 0,0 l/m 27,3 km/h (4 Bft) O 97 0 min 0,000 mm 0,0 UV-I 0 W/m -14,5 C -29,2 C 37,0 km/h (5 Bft) 91,67 %
01.03.2018 05:59 -12,1 C 2,8 C 82 % 1013,5 hPa 0,0 l/m 21,0 km/h (4 Bft) O 86 0 min 0,000 mm 0,0 UV-I 0 W/m -14,5 C -25,9 C 29,0 km/h (5 Bft) 95,65 %
01.03.2018 06:00 -12,1 C 2,8 C 82 % 1013,5 hPa 0,0 l/m 29,5 km/h (5 Bft) O 90 0 min 0,025 mm 0,0 UV-I 0 W/m -14,5 C -30,2 C 41,8 km/h (6 Bft) 100,00 %
01.03.2018 06:01 -12,1 C 2,8 C 82 % 1013,5 hPa 0,0 l/m 26,6 km/h (4 Bft) O 80 0 min 0,000 mm 0,0 UV-I 0 W/m -14,5 C -28,9 C 38,6 km/h (5 Bft) 96,55 %
01.03.2018 06:02 -12,2 C 2,8 C 82 % 1013,5 hPa 0,0 l/m 24,5 km/h (4 Bft) O-SO 103 0 min 0,000 mm 0,0 UV-I 0 W/m -14,6 C -28,0 C 37,0 km/h (5 Bft) 100,00 %
01.03.2018 06:03 -12,2 C 2,8 C 82 % 1013,4 hPa 0,0 l/m 22,8 km/h (4 Bft) O 86 0 min 0,000 mm 0,0 UV-I 0 W/m -14,6 C -27,1 C 29,0 km/h (5 Bft) 96,30 %
01.03.2018 06:04 -12,2 C 2,8 C 82 % 1013,4 hPa 0,0 l/m 24,8 km/h (4 Bft) O 100 0 min 0,000 mm 0,0 UV-I 0 W/m -14,6 C -28,1 C 43,5 km/h (6 Bft) 96,15 %
01.03.2018 06:05 -12,1 C 2,8 C 82 % 1013,4 hPa 0,0 l/m 30,0 km/h (5 Bft) O 91 0 min 0,000 mm 0,0 UV-I 0 W/m -14,5 C -30,4 C 43,5 km/h (6 Bft) 94,44 %
01.03.2018 06:06 -12,2 C 2,8 C 82 % 1013,3 hPa 0,0 l/m 26,5 km/h (4 Bft) O-NO 75 0 min 0,000 mm 0,0 UV-I 0 W/m -14,6 C -29,0 C 33,8 km/h (5 Bft) 100,00 %
01.03.2018 06:07 -12,2 C 2,8 C 82 % 1013,2 hPa 0,0 l/m 32,7 km/h (5 Bft) O-SO 104 0 min 0,000 mm 0,0 UV-I 0 W/m -14,6 C -31,6 C 37,0 km/h (5 Bft) 96,67 %
01.03.2018 06:08 -12,2 C 2,8 C 82 % 1013,2 hPa 0,0 l/m 27,4 km/h (4 Bft) O 101 0 min 0,000 mm 0,0 UV-I 0 W/m -14,6 C -29,4 C 35,4 km/h (5 Bft) 100,00 %
01.03.2018 06:09 -12,2 C 2,8 C 82 % 1013,1 hPa 0,0 l/m 26,7 km/h (4 Bft) O 94 0 min 0,000 mm 0,0 UV-I 0 W/m -14,6 C -29,1 C 38,6 km/h (5 Bft) 96,67 %
01.03.2018 06:10 -12,2 C 2,8 C 82 % 1013,2 hPa 0,0 l/m 29,1 km/h (5 Bft) O-SO 110 0 min 0,000 mm 0,0 UV-I 0 W/m -14,6 C -30,2 C 38,6 km/h (5 Bft) 96,55 %
01.03.2018 06:11 -12,2 C 2,8 C 82 % 1013,2 hPa 0,0 l/m 26,1 km/h (4 Bft) O-NO 57 0 min 0,000 mm 0,0 UV-I 0 W/m -14,6 C -28,8 C 33,8 km/h (5 Bft) 100,00 %
01.03.2018 06:12 -12,2 C 2,8 C 82 % 1013,2 hPa 0,0 l/m 24,1 km/h (4 Bft) O 97 0 min 0,000 mm 0,0 UV-I 0 W/m -14,6 C -27,8 C 40,2 km/h (6 Bft) 90,91 %
01.03.2018 06:13 -12,2 C 2,8 C 82 % 1013,1 hPa 0,0 l/m 27,5 km/h (4 Bft) O-NO 65 0 min 0,000 mm 0,0 UV-I 0 W/m -14,6 C -29,5 C 38,6 km/h (5 Bft) 100,00 %
01.03.2018 06:14 -12,2 C 2,8 C 82 % 1013,1 hPa 0,0 l/m 34,8 km/h (5 Bft) O 94 0 min 0,000 mm 0,0 UV-I 0 W/m -14,6 C -32,4 C 43,5 km/h (6 Bft) 92,86 %
01.03.2018 06:15 -12,2 C 2,8 C 82 % 1013,1 hPa 0,0 l/m 27,0 km/h (4 Bft) O 95 0 min 0,000 mm 0,0 UV-I 0 W/m -14,6 C -29,2 C 38,6 km/h (5 Bft) 95,83 %
01.03.2018 06:16 -12,2 C 2,8 C 82 % 1013,1 hPa 0,0 l/m 24,5 km/h (4 Bft) O-SO 113 0 min 0,000 mm 0,0 UV-I 0 W/m -14,6 C -28,0 C 33,8 km/h (5 Bft) 96,55 %
01.03.2018 06:17 -12,2 C 2,8 C 82 % 1013,1 hPa 0,0 l/m 30,7 km/h (5 Bft) O 83 0 min 0,000 mm 0,0 UV-I 0 W/m -14,6 C -30,9 C 45,1 km/h (6 Bft) 100,00 %
01.03.2018 06:18 -12,2 C 2,8 C 82 % 1013,1 hPa 0,0 l/m 26,6 km/h (4 Bft) O 90 0 min 0,000 mm 0,0 UV-I 0 W/m -14,6 C -29,0 C 37,0 km/h (5 Bft) 92,59 %
01.03.2018 06:19 -12,3 C 2,8 C 82 % 1013,0 hPa 0,0 l/m 23,5 km/h (4 Bft) O 79 0 min 0,000 mm 0,0 UV-I 0 W/m -14,7 C -27,6 C 32,2 km/h (5 Bft) 96,55 %
01.03.2018 06:20 -12,3 C 2,8 C 82 % 1013,0 hPa 0,0 l/m 24,8 km/h (4 Bft) O-NO 77 0 min 0,000 mm 0,0 UV-I 0 W/m -14,7 C -28,3 C 30,6 km/h (5 Bft) 96,15 %
01.03.2018 06:21 -12,3 C 2,8 C 82 % 1012,9 hPa 0,0 l/m 19,9 km/h (4 Bft) O-NO 77 0 min 0,000 mm 0,0 UV-I 0 W/m -14,7 C -25,5 C 24,1 km/h (4 Bft) 96,88 %
01.03.2018 06:22 -12,3 C 2,8 C 82 % 1012,9 hPa 0,0 l/m 24,2 km/h (4 Bft) O 89 0 min 0,000 mm 0,0 UV-I 0 W/m -14,7 C -28,0 C 40,2 km/h (6 Bft) 97,78 %
01.03.2018 06:23 -12,3 C 2,8 C 82 % 1012,9 hPa 0,0 l/m 25,3 km/h (4 Bft) O 90 0 min 0,000 mm 0,0 UV-I 0 W/m -14,7 C -28,5 C 33,8 km/h (5 Bft) 96,15 %
01.03.2018 06:24 -12,3 C 2,8 C 82 % 1012,9 hPa 0,0 l/m 20,4 km/h (4 Bft) O 84 0 min 0,000 mm 0,0 UV-I 0 W/m -14,7 C -25,8 C 27,4 km/h (4 Bft) 96,89 %
01.03.2018 06:25 -12,3 C 2,8 C 83 % 1012,9 hPa 0,0 l/m 22,9 km/h (4 Bft) O-NO 71 0 min 0,000 mm 0,0 UV-I 0 W/m -14,6 C -27,3 C 29,0 km/h (5 Bft) 95,12 %
01.03.2018 06:26 -12,3 C 2,8 C 83 % 1012,9 hPa 0,0 l/m 20,4 km/h (4 Bft) O 99 0 min 0,000 mm 0,0 UV-I 0 W/m -14,6 C -25,8 C 27,4 km/h (4 Bft) 100,00 %
01.03.2018 06:27 -12,3 C 2,8 C 83 % 1012,9 hPa 0,0 l/m 24,9 km/h (4 Bft) O 79 0 min 0,000 mm 0,0 UV-I 0 W/m -14,6 C -28,3 C 32,2 km/h (5 Bft) 100,00 %
01.03.2018 06:28 -12,3 C 2,8 C 83 % 1013,0 hPa 0,0 l/m 23,4 km/h (4 Bft) O 92 0 min 0,000 mm 0,0 UV-I 0 W/m -14,6 C -27,5 C 27,4 km/h (4 Bft) 100,00 %
01.03.2018 06:29 -12,3 C 2,8 C 83 % 1013,0 hPa 0,0 l/m 22,7 km/h (4 Bft) O 82 0 min 0,000 mm 0,0 UV-I 0 W/m -14,6 C -27,1 C 27,4 km/h (4 Bft) 95,65 %
01.03.2018 06:30 -12,3 C 2,8 C 83 % 1013,1 hPa 0,0 l/m 23,0 km/h (4 Bft) O-NO 68 0 min 0,000 mm 0,0 UV-I 0 W/m -14,6 C -27,3 C 32,2 km/h (5 Bft) 100,00 %
01.03.2018 06:31 -12,3 C 2,8 C 82 % 1013,2 hPa 0,0 l/m 25,7 km/h (4 Bft) O-SO 115 0 min 0,000 mm 0,0 UV-I 4 W/m -14,7 C -28,7 C 30,6 km/h (5 Bft) 96,55 %
01.03.2018 06:32 -12,3 C 2,8 C 82 % 1013,2 hPa 0,0 l/m 24,0 km/h (4 Bft) O 100 0 min 0,000 mm 0,0 UV-I 5 W/m -14,7 C -27,9 C 32,2 km/h (5 Bft) 100,00 %
01.03.2018 06:33 -12,3 C 2,8 C 82 % 1013,2 hPa 0,0 l/m 24,4 km/h (4 Bft) O-SO 103 0 min 0,000 mm 0,0 UV-I 5 W/m -14,7 C -28,1 C 30,6 km/h (5 Bft) 96,15 %
01.03.2018 06:34 -12,3 C 2,8 C 82 % 1013,3 hPa 0,0 l/m 19,6 km/h (3 Bft) O-SO 116 0 min 0,000 mm 0,0 UV-I 5 W/m -14,7 C -25,3 C 24,1 km/h (4 Bft) 100,00 %
01.03.2018 06:35 -12,3 C 2,8 C 82 % 1013,4 hPa 0,0 l/m 15,4 km/h (3 Bft) O 101 0 min 0,000 mm 0,0 UV-I 5 W/m -14,7 C -22,2 C 22,5 km/h (4 Bft) 100,00 %
01.03.2018 06:36 -12,3 C 2,8 C 82 % 1013,5 hPa 0,0 l/m 21,4 km/h (4 Bft) O-NO 71 0 min 0,000 mm 0,0 UV-I 5 W/m -14,7 C -26,4 C 25,7 km/h (4 Bft) 100,00 %
01.03.2018 06:37 -12,3 C 2,8 C 82 % 1013,5 hPa 0,0 l/m 27,4 km/h (4 Bft) O-NO 68 0 min 0,000 mm 0,0 UV-I 5 W/m -14,7 C -29,6 C 33,8 km/h (5 Bft) 100,00 %
01.03.2018 06:38 -12,3 C 2,8 C 82 % 1013,5 hPa 0,0 l/m 22,3 km/h (4 Bft) O-NO 67 0 min 0,000 mm 0,0 UV-I 5 W/m -14,7 C -26,9 C 29,0 km/h (5 Bft) 96,15 %
01.03.2018 06:39 -12,3 C 2,8 C 82 % 1013,5 hPa 0,0 l/m 23,3 km/h (4 Bft) O 84 0 min 0,000 mm 0,0 UV-I 5 W/m -14,7 C -27,5 C 27,4 km/h (4 Bft) 100,00 %
01.03.2018 06:40 -12,3 C 2,8 C 82 % 1013,5 hPa 0,0 l/m 17,7 km/h (3 Bft) O 99 0 min 0,000 mm 0,0 UV-I 5 W/m -14,7 C -24,0 C 24,1 km/h (4 Bft) 100,00 %
01.03.2018 06:41 -12,3 C 2,8 C 82 % 1013,5 hPa 0,0 l/m 20,1 km/h (4 Bft) O-NO 63 0 min 0,000 mm 0,0 UV-I 7 W/m -14,7 C -25,6 C 27,4 km/h (4 Bft) 100,00 %
01.03.2018 06:42 -12,3 C 2,8 C 82 % 1013,5 hPa 0,0 l/m 19,9 km/h (4 Bft) O 88 0 min 0,000 mm 0,0 UV-I 7 W/m -14,7 C -25,5 C 24,1 km/h (4 Bft) 100,00 %
01.03.2018 06:43 -12,3 C 2,8 C 82 % 1013,4 hPa 0,0 l/m 22,3 km/h (4 Bft) O 80 0 min 0,000 mm 0,0 UV-I 7 W/m -14,7 C -26,9 C 29,0 km/h (5 Bft) 96,30 %
01.03.2018 06:44 -12,3 C 2,8 C 82 % 1013,3 hPa 0,0 l/m 23,9 km/h (4 Bft) O-SO 110 0 min 0,000 mm 0,0 UV-I 9 W/m -14,7 C -27,8 C 30,6 km/h (5 Bft) 100,00 %
01.03.2018 06:45 -12,4 C 2,8 C 82 % 1013,4 hPa 0,0 l/m 23,3 km/h (4 Bft) O-SO 105 0 min 0,000 mm 0,0 UV-I 9 W/m -14,8 C -27,6 C 30,6 km/h (5 Bft) 100,00 %
01.03.2018 06:46 -12,3 C 2,8 C 82 % 1013,4 hPa 0,0 l/m 20,0 km/h (4 Bft) O 98 0 min 0,000 mm 0,0 UV-I 10 W/m -14,7 C -25,5 C 27,4 km/h (4 Bft) 100,00 %
01.03.2018 06:47 -12,3 C 2,8 C 82 % 1013,5 hPa 0,0 l/m 17,0 km/h (3 Bft) O-NO 78 0 min 0,000 mm 0,0 UV-I 11 W/m -14,7 C -23,5 C 22,5 km/h (4 Bft) 95,83 %
01.03.2018 06:48 -12,4 C 2,8 C 82 % 1013,6 hPa 0,0 l/m 19,8 km/h (3 Bft) O-SO 107 0 min 0,000 mm 0,0 UV-I 11 W/m -14,8 C -25,5 C 24,1 km/h (4 Bft) 100,00 %
01.03.2018 06:49 -12,4 C 2,8 C 82 % 1013,6 hPa 0,0 l/m 20,8 km/h (4 Bft) O 87 0 min 0,000 mm 0,0 UV-I 11 W/m -14,8 C -26,2 C 29,0 km/h (5 Bft) 91,67 %
01.03.2018 06:50 -12,4 C 2,8 C 82 % 1013,5 hPa 0,0 l/m 23,1 km/h (4 Bft) O-SO 105 0 min 0,000 mm 0,0 UV-I 12 W/m -14,8 C -27,5 C 30,6 km/h (5 Bft) 100,00 %
01.03.2018 06:51 -12,4 C 2,8 C 82 % 1013,5 hPa 0,0 l/m 19,6 km/h (3 Bft) SO 130 0 min 0,000 mm 0,0 UV-I 12 W/m -14,8 C -25,4 C 24,1 km/h (4 Bft) 97,56 %
01.03.2018 06:52 -12,4 C 2,8 C 82 % 1013,5 hPa 0,0 l/m 19,8 km/h (3 Bft) O 98 0 min 0,000 mm 0,0 UV-I 12 W/m -14,8 C -25,5 C 24,1 km/h (4 Bft) 100,00 %
01.03.2018 06:53 -12,4 C 2,8 C 83 % 1013,4 hPa 0,0 l/m 21,4 km/h (4 Bft) O-SO 106 0 min 0,000 mm 0,0 UV-I 12 W/m -14,7 C -26,5 C 25,7 km/h (4 Bft) 96,67 %
01.03.2018 06:54 -12,4 C 2,8 C 83 % 1013,3 hPa 0,0 l/m 19,9 km/h (4 Bft) O 89 0 min 0,000 mm 0,0 UV-I 13 W/m -14,7 C -25,6 C 25,7 km/h (4 Bft) 95,65 %
01.03.2018 06:55 -12,4 C 2,8 C 82 % 1013,2 hPa 0,0 l/m 18,9 km/h (3 Bft) O-NO 76 0 min 0,000 mm 0,0 UV-I 14 W/m -14,8 C -24,9 C 25,7 km/h (4 Bft) 100,00 %
01.03.2018 06:56 -12,4 C 2,8 C 82 % 1013,2 hPa 0,0 l/m 18,7 km/h (3 Bft) O-SO 103 1 min 0,000 mm 0,0 UV-I 14 W/m -14,8 C -24,8 C 24,1 km/h (4 Bft) 97,23 %
01.03.2018 06:57 -12,4 C 2,8 C 83 % 1013,1 hPa 0,0 l/m 23,5 km/h (4 Bft) O 98 1 min 0,000 mm 0,0 UV-I 14 W/m -14,7 C -27,7 C 27,4 km/h (4 Bft) 97,56 %
01.03.2018 06:58 -12,4 C 2,8 C 83 % 1013,1 hPa 0,0 l/m 25,3 km/h (4 Bft) O-SO 108 1 min 0,000 mm 0,0 UV-I 14 W/m -14,7 C -28,7 C 33,8 km/h (5 Bft) 95,83 %
01.03.2018 06:59 -12,4 C 2,8 C 83 % 1013,1 hPa 0,0 l/m 23,0 km/h (4 Bft) O-SO 108 1 min 0,000 mm 0,0 UV-I 14 W/m -14,7 C -27,4 C 32,2 km/h (5 Bft) 100,00 %
01.03.2018 07:00 -12,4 C 2,8 C 83 % 1013,2 hPa 0,0 l/m 24,3 km/h (4 Bft) O 89 0 min 0,026 mm 0,0 UV-I 14 W/m -14,7 C -28,2 C 30,6 km/h (5 Bft) 95,83 %
01.03.2018 07:01 -12,4 C 2,8 C 82 % 1013,2 hPa 0,0 l/m 20,9 km/h (4 Bft) O-NO 69 0 min 0,000 mm 0,0 UV-I 14 W/m -14,8 C -26,2 C 27,4 km/h (4 Bft) 100,00 %
01.03.2018 07:02 -12,5 C 2,8 C 82 % 1013,2 hPa 0,0 l/m 23,4 km/h (4 Bft) O 82 0 min 0,000 mm 0,0 UV-I 14 W/m -14,9 C -27,8 C 29,0 km/h (5 Bft) 96,67 %
01.03.2018 07:03 -12,5 C 2,8 C 82 % 1013,2 hPa 0,0 l/m 22,0 km/h (4 Bft) O 98 0 min 0,000 mm 0,0 UV-I 16 W/m -14,9 C -27,0 C 32,2 km/h (5 Bft) 95,65 %
01.03.2018 07:04 -12,4 C 2,8 C 82 % 1013,1 hPa 0,0 l/m 19,3 km/h (3 Bft) O 92 0 min 0,000 mm 0,0 UV-I 16 W/m -14,8 C -25,2 C 27,4 km/h (4 Bft) 95,83 %
01.03.2018 07:05 -12,4 C 2,8 C 83 % 1013,2 hPa 0,0 l/m 22,2 km/h (4 Bft) O-NO 64 0 min 0,000 mm 0,0 UV-I 16 W/m -14,7 C -27,0 C 27,4 km/h (4 Bft) 95,65 %
01.03.2018 07:06 -12,4 C 2,8 C 83 % 1013,3 hPa 0,0 l/m 18,7 km/h (3 Bft) NO 44 0 min 0,000 mm 0,0 UV-I 16 W/m -14,7 C -24,8 C 25,7 km/h (4 Bft) 100,00 %
01.03.2018 07:07 -12,5 C 2,8 C 83 % 1013,3 hPa 0,0 l/m 24,1 km/h (4 Bft) O 96 0 min 0,000 mm 0,0 UV-I 18 W/m -14,8 C -28,2 C 30,6 km/h (5 Bft) 96,15 %
01.03.2018 07:08 -12,5 C 2,8 C 83 % 1013,3 hPa 0,0 l/m 19,1 km/h (3 Bft) NO 55 0 min 0,000 mm 0,0 UV-I 18 W/m -14,8 C -25,2 C 24,1 km/h (4 Bft) 86,67 %
01.03.2018 07:09 -12,5 C 2,8 C 83 % 1013,3 hPa 0,0 l/m 16,4 km/h (3 Bft) O 81 0 min 0,000 mm 0,0 UV-I 19 W/m -14,8 C -23,2 C 24,1 km/h (4 Bft) 96,15 %
01.03.2018 07:10 -12,5 C 2,8 C 83 % 1013,2 hPa 0,0 l/m 23,0 km/h (4 Bft) O 98 0 min 0,000 mm 0,0 UV-I 19 W/m -14,8 C -27,6 C 32,2 km/h (5 Bft) 96,30 %
01.03.2018 07:11 -12,5 C 2,8 C 83 % 1013,2 hPa 0,0 l/m 21,1 km/h (4 Bft) O-SO 105 0 min 0,000 mm 0,0 UV-I 21 W/m -14,8 C -26,5 C 29,0 km/h (5 Bft) 100,00 %
01.03.2018 07:12 -12,5 C 2,8 C 83 % 1013,2 hPa 0,0 l/m 21,5 km/h (4 Bft) O 94 0 min 0,000 mm 0,0 UV-I 23 W/m -14,8 C -26,7 C 27,4 km/h (4 Bft) 91,67 %
01.03.2018 07:13 -12,5 C 2,8 C 83 % 1013,2 hPa 0,0 l/m 23,4 km/h (4 Bft) O 89 0 min 0,000 mm 0,0 UV-I 25 W/m -14,8 C -27,8 C 29,0 km/h (5 Bft) 100,00 %
01.03.2018 07:14 -12,5 C 2,8 C 83 % 1013,2 hPa 0,0 l/m 17,6 km/h (3 Bft) O 81 0 min 0,000 mm 0,0 UV-I 27 W/m -14,8 C -24,1 C 25,7 km/h (4 Bft) 95,83 %
01.03.2018 07:15 -12,5 C 2,8 C 83 % 1013,2 hPa 0,0 l/m 22,9 km/h (4 Bft) O 88 0 min 0,000 mm 0,0 UV-I 31 W/m -14,8 C -27,5 C 33,8 km/h (5 Bft) 100,00 %
01.03.2018 07:16 -12,5 C 2,8 C 83 % 1013,1 hPa 0,0 l/m 25,2 km/h (4 Bft) O-NO 58 0 min 0,000 mm 0,0 UV-I 33 W/m -14,8 C -28,8 C 32,2 km/h (5 Bft) 95,83 %
01.03.2018 07:17 -12,4 C 2,8 C 82 % 1013,0 hPa 0,0 l/m 23,1 km/h (4 Bft) O-NO 70 0 min 0,000 mm 0,0 UV-I 36 W/m -14,8 C -27,5 C 30,6 km/h (5 Bft) 96,15 %
01.03.2018 07:18 -12,4 C 2,8 C 82 % 1013,0 hPa 0,0 l/m 25,4 km/h (4 Bft) O-NO 67 0 min 0,000 mm 0,0 UV-I 38 W/m -14,8 C -28,7 C 33,8 km/h (5 Bft) 100,00 %
01.03.2018 07:19 -12,4 C 2,8 C 82 % 1012,9 hPa 0,0 l/m 24,5 km/h (4 Bft) O-NO 66 0 min 0,000 mm 0,0 UV-I 42 W/m -14,8 C -28,3 C 30,6 km/h (5 Bft) 100,00 %
01.03.2018 07:20 -12,4 C 2,8 C 82 % 1012,9 hPa 0,0 l/m 22,1 km/h (4 Bft) O-NO 76 0 min 0,000 mm 0,0 UV-I 46 W/m -14,8 C -26,9 C 27,4 km/h (4 Bft) 100,00 %
01.03.2018 07:21 -12,4 C 2,8 C 82 % 1012,9 hPa 0,0 l/m 21,0 km/h (4 Bft) O-NO 68 0 min 0,000 mm 0,0 UV-I 47 W/m -14,8 C -26,3 C 29,0 km/h (5 Bft) 100,00 %
01.03.2018 07:22 -12,4 C 2,8 C 82 % 1012,9 hPa 0,0 l/m 21,5 km/h (4 Bft) O 85 0 min 0,000 mm 0,0 UV-I 46 W/m -14,8 C -26,6 C 24,1 km/h (4 Bft) 100,00 %
01.03.2018 07:23 -12,4 C 2,8 C 82 % 1012,9 hPa 0,0 l/m 22,5 km/h (4 Bft) O-NO 60 0 min 0,000 mm 0,0 UV-I 46 W/m -14,8 C -27,2 C 30,6 km/h (5 Bft) 100,00 %
01.03.2018 07:24 -12,4 C 2,8 C 82 % 1012,9 hPa 0,0 l/m 21,8 km/h (4 Bft) O 89 0 min 0,000 mm 0,0 UV-I 44 W/m -14,8 C -26,8 C 29,0 km/h (5 Bft) 96,15 %
01.03.2018 07:25 -12,4 C 2,8 C 82 % 1012,9 hPa 0,0 l/m 29,5 km/h (5 Bft) O 85 0 min 0,000 mm 0,0 UV-I 47 W/m -14,8 C -30,6 C 41,8 km/h (6 Bft) 95,83 %
01.03.2018 07:26 -12,4 C 2,8 C 82 % 1012,9 hPa 0,0 l/m 24,4 km/h (4 Bft) O 90 0 min 0,000 mm 0,0 UV-I 55 W/m -14,8 C -28,2 C 35,4 km/h (5 Bft) 100,00 %
01.03.2018 07:27 -12,4 C 2,8 C 82 % 1012,8 hPa 0,0 l/m 24,4 km/h (4 Bft) O-NO 71 1 min 0,000 mm 0,0 UV-I 62 W/m -14,8 C -28,2 C 35,4 km/h (5 Bft) 100,00 %
01.03.2018 07:28 -12,4 C 2,8 C 83 % 1012,8 hPa 0,0 l/m 23,0 km/h (4 Bft) O 82 1 min 0,000 mm 0,0 UV-I 65 W/m -14,7 C -27,4 C 29,0 km/h (5 Bft) 100,00 %
01.03.2018 07:29 -12,4 C 2,8 C 83 % 1012,8 hPa 0,0 l/m 23,6 km/h (4 Bft) O-NO 74 1 min 0,000 mm 0,0 UV-I 68 W/m -14,7 C -27,8 C 30,6 km/h (5 Bft) 96,30 %
01.03.2018 07:30 -12,3 C 2,8 C 82 % 1012,8 hPa 0,0 l/m 26,1 km/h (4 Bft) O 82 1 min 0,000 mm 0,0 UV-I 70 W/m -14,7 C -28,9 C 32,2 km/h (5 Bft) 92,86 %
01.03.2018 07:31 -12,3 C 2,8 C 82 % 1012,8 hPa 0,0 l/m 25,5 km/h (4 Bft) O 85 1 min 0,000 mm 0,0 UV-I 72 W/m -14,7 C -28,6 C 32,2 km/h (5 Bft) 100,00 %
01.03.2018 07:32 -12,3 C 2,8 C 82 % 1012,8 hPa 0,0 l/m 23,9 km/h (4 Bft) O-NO 69 1 min 0,000 mm 0,0 UV-I 74 W/m -14,7 C -27,8 C 33,8 km/h (5 Bft) 96,15 %
01.03.2018 07:33 -12,3 C 2,8 C 82 % 1012,8 hPa 0,0 l/m 21,9 km/h (4 Bft) O 98 1 min 0,000 mm 0,0 UV-I 76 W/m -14,7 C -26,7 C 25,7 km/h (4 Bft) 100,00 %
01.03.2018 07:34 -12,3 C 2,8 C 82 % 1012,8 hPa 0,0 l/m 22,4 km/h (4 Bft) O 79 1 min 0,000 mm 0,0 UV-I 77 W/m -14,7 C -27,0 C 29,0 km/h (5 Bft) 100,00 %
01.03.2018 07:35 -12,3 C 2,8 C 82 % 1012,7 hPa 0,0 l/m 24,4 km/h (4 Bft) O-NO 65 1 min 0,000 mm 0,0 UV-I 77 W/m -14,7 C -28,1 C 30,6 km/h (5 Bft) 96,67 %
01.03.2018 07:36 -12,3 C 2,8 C 82 % 1012,7 hPa 0,0 l/m 19,6 km/h (3 Bft) O-NO 58 1 min 0,000 mm 0,0 UV-I 81 W/m -14,7 C -25,3 C 25,7 km/h (4 Bft) 100,00 %
01.03.2018 07:37 -12,3 C 2,8 C 82 % 1012,7 hPa 0,0 l/m 18,5 km/h (3 Bft) O-NO 62 1 min 0,000 mm 0,0 UV-I 84 W/m -14,7 C -24,5 C 25,7 km/h (4 Bft) 100,00 %
01.03.2018 07:38 -12,2 C 2,8 C 82 % 1012,6 hPa 0,0 l/m 21,8 km/h (4 Bft) O-NO 69 1 min 0,000 mm 0,0 UV-I 88 W/m -14,6 C -26,5 C 30,6 km/h (5 Bft) 100,00 %
01.03.2018 07:39 -12,2 C 2,8 C 82 % 1012,6 hPa 0,0 l/m 28,1 km/h (4 Bft) O-SO 112 1 min 0,000 mm 0,0 UV-I 90 W/m -14,6 C -29,7 C 33,8 km/h (5 Bft) 100,00 %
01.03.2018 07:40 -12,2 C 2,8 C 82 % 1012,6 hPa 0,0 l/m 22,2 km/h (4 Bft) O 88 1 min 0,000 mm 0,0 UV-I 90 W/m -14,6 C -26,7 C 32,2 km/h (5 Bft) 100,00 %
01.03.2018 07:41 -12,2 C 2,8 C 82 % 1012,5 hPa 0,0 l/m 26,7 km/h (4 Bft) O 94 1 min 0,000 mm 0,0 UV-I 95 W/m -14,6 C -29,1 C 32,2 km/h (5 Bft) 100,00 %
01.03.2018 07:42 -12,2 C 2,8 C 82 % 1012,6 hPa 0,0 l/m 29,5 km/h (5 Bft) O 84 1 min 0,000 mm 0,0 UV-I 100 W/m -14,6 C -30,4 C 37,0 km/h (5 Bft) 100,00 %
01.03.2018 07:43 -12,2 C 2,8 C 82 % 1012,5 hPa 0,0 l/m 28,0 km/h (4 Bft) O 99 1 min 0,000 mm 0,0 UV-I 102 W/m -14,6 C -29,7 C 40,2 km/h (6 Bft) 95,65 %
01.03.2018 07:44 -12,2 C 2,8 C 82 % 1012,5 hPa 0,0 l/m 28,2 km/h (4 Bft) O 90 1 min 0,000 mm 0,0 UV-I 104 W/m -14,6 C -29,8 C 37,0 km/h (5 Bft) 100,00 %
01.03.2018 07:45 -12,2 C 2,8 C 82 % 1012,6 hPa 0,0 l/m 32,3 km/h (5 Bft) O-SO 114 1 min 0,000 mm 0,0 UV-I 107 W/m -14,6 C -31,5 C 43,5 km/h (6 Bft) 100,00 %
01.03.2018 07:46 -12,2 C 2,8 C 82 % 1012,6 hPa 0,0 l/m 22,3 km/h (4 Bft) O 83 1 min 0,000 mm 0,0 UV-I 111 W/m -14,6 C -26,8 C 29,0 km/h (5 Bft) 100,00 %
01.03.2018 07:47 -12,1 C 2,8 C 82 % 1012,6 hPa 0,0 l/m 21,1 km/h (4 Bft) O 84 1 min 0,000 mm 0,0 UV-I 113 W/m -14,5 C -25,9 C 33,8 km/h (5 Bft) 100,00 %
01.03.2018 07:48 -12,1 C 2,8 C 82 % 1012,7 hPa 0,0 l/m 22,4 km/h (4 Bft) O-SO 104 1 min 0,000 mm 0,0 UV-I 115 W/m -14,5 C -26,7 C 33,8 km/h (5 Bft) 100,00 %
01.03.2018 07:49 -12,1 C 2,8 C 82 % 1012,7 hPa 0,0 l/m 26,4 km/h (4 Bft) O 91 1 min 0,000 mm 0,0 UV-I 118 W/m -14,5 C -28,8 C 35,4 km/h (5 Bft) 100,00 %
01.03.2018 07:50 -12,1 C 2,8 C 82 % 1012,7 hPa 0,0 l/m 25,6 km/h (4 Bft) O 92 1 min 0,000 mm 0,0 UV-I 118 W/m -14,5 C -28,4 C 32,2 km/h (5 Bft) 96,30 %
01.03.2018 07:51 -12,1 C 2,8 C 82 % 1012,8 hPa 0,0 l/m 21,6 km/h (4 Bft) O-SO 109 1 min 0,000 mm 0,0 UV-I 120 W/m -14,5 C -26,2 C 30,6 km/h (5 Bft) 100,00 %
01.03.2018 07:52 -12,0 C 2,8 C 81 % 1012,8 hPa 0,0 l/m 21,2 km/h (4 Bft) O-SO 103 1 min 0,000 mm 0,0 UV-I 124 W/m -14,6 C -25,9 C 27,4 km/h (4 Bft) 97,50 %
01.03.2018 07:53 -12,0 C 2,8 C 81 % 1012,7 hPa 0,0 l/m 25,7 km/h (4 Bft) O-SO 103 1 min 0,000 mm 0,0 UV-I 127 W/m -14,6 C -28,3 C 33,8 km/h (5 Bft) 100,00 %
01.03.2018 07:54 -11,9 C 2,8 C 81 % 1012,7 hPa 0,0 l/m 24,9 km/h (4 Bft) O-NO 67 1 min 0,000 mm 0,0 UV-I 130 W/m -14,5 C -27,8 C 33,8 km/h (5 Bft) 100,00 %
01.03.2018 07:55 -11,9 C 2,8 C 81 % 1012,7 hPa 0,0 l/m 26,5 km/h (4 Bft) O-NO 76 1 min 0,000 mm 0,0 UV-I 134 W/m -14,5 C -28,6 C 37,0 km/h (5 Bft) 100,00 %
01.03.2018 07:56 -11,9 C 2,8 C 81 % 1012,8 hPa 0,0 l/m 23,5 km/h (4 Bft) O 79 1 min 0,000 mm 0,0 UV-I 133 W/m -14,5 C -27,1 C 33,8 km/h (5 Bft) 100,00 %
01.03.2018 07:57 -11,9 C 2,8 C 82 % 1012,7 hPa 0,0 l/m 27,2 km/h (4 Bft) O-SO 116 1 min 0,000 mm 0,0 UV-I 132 W/m -14,3 C -28,9 C 37,0 km/h (5 Bft) 86,67 %
01.03.2018 07:58 -11,9 C 2,8 C 81 % 1012,8 hPa 0,0 l/m 23,2 km/h (4 Bft) O 89 1 min 0,000 mm 0,0 UV-I 133 W/m -14,5 C -26,9 C 32,2 km/h (5 Bft) 100,00 %
01.03.2018 07:59 -11,8 C 2,8 C 81 % 1012,7 hPa 0,0 l/m 24,3 km/h (4 Bft) O 90 1 min 0,000 mm 0,0 UV-I 133 W/m -14,4 C -27,3 C 32,2 km/h (5 Bft) 97,54 %
01.03.2018 08:00 -11,8 C 2,8 C 81 % 1012,7 hPa 0,0 l/m 22,8 km/h (4 Bft) O 83 1 min 0,025 mm 0,0 UV-I 130 W/m -14,4 C -26,5 C 29,0 km/h (5 Bft) 100,00 %
01.03.2018 08:01 -11,8 C 2,8 C 81 % 1012,6 hPa 0,0 l/m 24,1 km/h (4 Bft) NO 52 1 min 0,000 mm 0,0 UV-I 128 W/m -14,4 C -27,2 C 29,0 km/h (5 Bft) 100,00 %
01.03.2018 08:02 -11,8 C 2,8 C 81 % 1012,6 hPa 0,0 l/m 24,5 km/h (4 Bft) O-NO 73 1 min 0,000 mm 0,0 UV-I 124 W/m -14,4 C -27,5 C 38,6 km/h (5 Bft) 100,00 %
01.03.2018 08:03 -11,8 C 2,8 C 81 % 1012,5 hPa 0,0 l/m 24,6 km/h (4 Bft) O-NO 57 1 min 0,000 mm 0,0 UV-I 121 W/m -14,4 C -27,5 C 33,8 km/h (5 Bft) 96,30 %
01.03.2018 08:04 -11,8 C 2,8 C 81 % 1012,5 hPa 0,0 l/m 26,2 km/h (4 Bft) O 80 1 min 0,000 mm 0,0 UV-I 126 W/m -14,4 C -28,3 C 35,4 km/h (5 Bft) 100,00 %
01.03.2018 08:05 -11,8 C 2,8 C 81 % 1012,4 hPa 0,0 l/m 25,7 km/h (4 Bft) O 80 1 min 0,000 mm 0,0 UV-I 133 W/m -14,4 C -28,1 C 32,2 km/h (5 Bft) 100,00 %
01.03.2018 08:06 -11,8 C 2,8 C 81 % 1012,4 hPa 0,0 l/m 25,7 km/h (4 Bft) O 96 1 min 0,000 mm 0,0 UV-I 138 W/m -14,4 C -28,1 C 33,8 km/h (5 Bft) 100,00 %
01.03.2018 08:07 -11,8 C 2,8 C 81 % 1012,4 hPa 0,0 l/m 22,9 km/h (4 Bft) O 95 1 min 0,000 mm 0,0 UV-I 144 W/m -14,4 C -26,6 C 33,8 km/h (5 Bft) 100,00 %
01.03.2018 08:08 -11,7 C 2,8 C 81 % 1012,4 hPa 0,0 l/m 24,6 km/h (4 Bft) O-NO 77 1 min 0,000 mm 0,0 UV-I 149 W/m -14,3 C -27,4 C 32,2 km/h (5 Bft) 100,00 %
01.03.2018 08:09 -11,7 C 2,8 C 81 % 1012,5 hPa 0,0 l/m 20,2 km/h (4 Bft) O 92 1 min 0,000 mm 0,0 UV-I 150 W/m -14,3 C -24,9 C 29,0 km/h (5 Bft) 100,00 %
01.03.2018 08:10 -11,7 C 2,8 C 81 % 1012,5 hPa 0,0 l/m 22,1 km/h (4 Bft) O 93 1 min 0,000 mm 0,0 UV-I 152 W/m -14,3 C -26,0 C 29,0 km/h (5 Bft) 100,00 %
01.03.2018 08:11 -11,7 C 2,8 C 81 % 1012,5 hPa 0,0 l/m 27,4 km/h (4 Bft) O 87 1 min 0,000 mm 0,0 UV-I 156 W/m -14,3 C -28,7 C 35,4 km/h (5 Bft) 100,00 %
01.03.2018 08:12 -11,7 C 2,8 C 81 % 1012,4 hPa 0,0 l/m 34,7 km/h (5 Bft) O 89 1 min 0,000 mm 0,0 UV-I 163 W/m -14,3 C -31,6 C 40,2 km/h (6 Bft) 100,00 %
01.03.2018 08:13 -11,7 C 2,8 C 81 % 1012,4 hPa 0,0 l/m 24,6 km/h (4 Bft) O-NO 61 1 min 0,000 mm 0,0 UV-I 171 W/m -14,3 C -27,4 C 32,2 km/h (5 Bft) 100,00 %
01.03.2018 08:14 -11,7 C 2,8 C 80 % 1012,4 hPa 0,0 l/m 24,1 km/h (4 Bft) O-SO 102 1 min 0,000 mm 0,0 UV-I 177 W/m -14,4 C -27,1 C 38,6 km/h (5 Bft) 96,15 %
01.03.2018 08:15 -11,7 C 2,8 C 81 % 1012,4 hPa 0,0 l/m 20,8 km/h (4 Bft) O 89 1 min 0,000 mm 0,0 UV-I 186 W/m -14,3 C -25,2 C 29,0 km/h (5 Bft) 100,00 %
01.03.2018 08:16 -11,6 C 2,8 C 81 % 1012,4 hPa 0,0 l/m 21,4 km/h (4 Bft) O-NO 67 1 min 0,000 mm 0,0 UV-I 194 W/m -14,2 C -25,5 C 25,7 km/h (4 Bft) 100,00 %
01.03.2018 08:17 -11,6 C 2,8 C 81 % 1012,4 hPa 0,0 l/m 27,1 km/h (4 Bft) O 82 1 min 0,000 mm 0,0 UV-I 203 W/m -14,2 C -28,5 C 33,8 km/h (5 Bft) 100,00 %
01.03.2018 08:18 -11,5 C 2,8 C 81 % 1012,4 hPa 0,0 l/m 26,4 km/h (4 Bft) O-NO 59 1 min 0,000 mm 0,0 UV-I 209 W/m -14,1 C -28,0 C 37,0 km/h (5 Bft) 100,00 %
01.03.2018 08:19 -11,5 C 2,8 C 80 % 1012,3 hPa 0,0 l/m 26,6 km/h (4 Bft) O-NO 60 1 min 0,000 mm 0,0 UV-I 215 W/m -14,2 C -28,1 C 37,0 km/h (5 Bft) 100,00 %
01.03.2018 08:20 -11,5 C 2,8 C 80 % 1012,3 hPa 0,0 l/m 24,4 km/h (4 Bft) O 85 1 min 0,000 mm 0,0 UV-I 221 W/m -14,2 C -27,0 C 35,4 km/h (5 Bft) 100,00 %
01.03.2018 08:21 -11,5 C 2,8 C 80 % 1012,3 hPa 0,0 l/m 27,7 km/h (4 Bft) O 92 1 min 0,000 mm 0,0 UV-I 226 W/m -14,2 C -28,6 C 41,8 km/h (6 Bft) 97,74 %
01.03.2018 08:22 -11,5 C 2,8 C 80 % 1012,3 hPa 0,0 l/m 31,4 km/h (5 Bft) O-NO 65 1 min 0,000 mm 0,0 UV-I 230 W/m -14,2 C -30,1 C 41,8 km/h (6 Bft) 100,00 %
01.03.2018 08:23 -11,4 C 2,8 C 80 % 1012,3 hPa 0,0 l/m 25,6 km/h (4 Bft) O-SO 103 1 min 0,000 mm 0,0 UV-I 232 W/m -14,1 C -27,5 C 35,4 km/h (5 Bft) 97,56 %
01.03.2018 08:24 -11,4 C 2,8 C 80 % 1012,3 hPa 0,0 l/m 23,1 km/h (4 Bft) O 83 1 min 0,000 mm 0,0 UV-I 236 W/m -14,1 C -26,2 C 32,2 km/h (5 Bft) 100,00 %
01.03.2018 08:25 -11,4 C 2,8 C 80 % 1012,3 hPa 0,0 l/m 26,2 km/h (4 Bft) O-NO 61 1 min 0,000 mm 0,0 UV-I 244 W/m -14,1 C -27,8 C 41,8 km/h (6 Bft) 100,00 %
01.03.2018 08:26 -11,4 C 2,8 C 80 % 1012,3 hPa 0,0 l/m 31,2 km/h (5 Bft) O 82 1 min 0,000 mm 0,0 UV-I 248 W/m -14,1 C -29,9 C 46,7 km/h (6 Bft) 100,00 %
01.03.2018 08:27 -11,3 C 2,8 C 80 % 1012,3 hPa 0,0 l/m 27,5 km/h (4 Bft) O 83 1 min 0,000 mm 0,0 UV-I 251 W/m -14,0 C -28,2 C 32,2 km/h (5 Bft) 100,00 %
01.03.2018 08:28 -11,3 C 2,8 C 80 % 1012,3 hPa 0,0 l/m 23,2 km/h (4 Bft) O-NO 71 1 min 0,000 mm 0,0 UV-I 253 W/m -14,0 C -26,1 C 29,0 km/h (5 Bft) 100,00 %
01.03.2018 08:29 -11,3 C 2,8 C 80 % 1012,3 hPa 0,0 l/m 24,5 km/h (4 Bft) O 96 1 min 0,000 mm 0,0 UV-I 257 W/m -14,0 C -26,8 C 32,2 km/h (5 Bft) 100,00 %
01.03.2018 08:30 -11,3 C 2,8 C 80 % 1012,3 hPa 0,0 l/m 25,2 km/h (4 Bft) O 86 1 min 0,000 mm 0,0 UV-I 247 W/m -14,0 C -27,1 C 33,8 km/h (5 Bft) 100,00 %
01.03.2018 08:31 -11,2 C 2,8 C 80 % 1012,3 hPa 0,0 l/m 29,4 km/h (5 Bft) O-NO 66 1 min 0,000 mm 0,0 UV-I 233 W/m -13,9 C -28,9 C 35,4 km/h (5 Bft) 95,65 %
01.03.2018 08:32 -11,2 C 2,8 C 80 % 1012,3 hPa 0,0 l/m 25,4 km/h (4 Bft) O 79 1 min 0,000 mm 0,0 UV-I 220 W/m -13,9 C -27,1 C 38,6 km/h (5 Bft) 100,00 %
01.03.2018 08:33 -11,2 C 2,8 C 80 % 1012,3 hPa 0,0 l/m 23,3 km/h (4 Bft) O-NO 76 1 min 0,000 mm 0,0 UV-I 199 W/m -13,9 C -26,0 C 37,0 km/h (5 Bft) 100,00 %
01.03.2018 08:34 -11,2 C 2,8 C 80 % 1012,3 hPa 0,0 l/m 26,4 km/h (4 Bft) O-SO 113 1 min 0,000 mm 0,0 UV-I 193 W/m -13,9 C -27,6 C 35,4 km/h (5 Bft) 96,67 %
01.03.2018 08:35 -11,2 C 2,8 C 79 % 1012,2 hPa 0,0 l/m 24,5 km/h (4 Bft) O 84 1 min 0,000 mm 0,0 UV-I 173 W/m -14,1 C -26,6 C 37,0 km/h (5 Bft) 100,00 %
01.03.2018 08:36 -11,2 C 2,8 C 79 % 1012,2 hPa 0,0 l/m 27,1 km/h (4 Bft) O 82 1 min 0,000 mm 0,0 UV-I 168 W/m -14,1 C -27,9 C 30,6 km/h (5 Bft) 100,00 %
01.03.2018 08:37 -11,3 C 2,8 C 79 % 1012,1 hPa 0,0 l/m 22,9 km/h (4 Bft) O-NO 76 0 min 0,000 mm 0,0 UV-I 150 W/m -14,2 C -25,9 C 30,6 km/h (5 Bft) 92,31 %
01.03.2018 08:38 -11,3 C 2,8 C 79 % 1012,1 hPa 0,0 l/m 26,6 km/h (4 Bft) O 93 0 min 0,000 mm 0,0 UV-I 144 W/m -14,2 C -27,8 C 40,2 km/h (6 Bft) 91,67 %
01.03.2018 08:39 -11,3 C 2,8 C 79 % 1012,1 hPa 0,0 l/m 28,8 km/h (4 Bft) NO 53 0 min 0,000 mm 0,0 UV-I 142 W/m -14,2 C -28,8 C 40,2 km/h (6 Bft) 100,00 %
01.03.2018 08:40 -11,3 C 2,8 C 80 % 1012,1 hPa 0,0 l/m 23,4 km/h (4 Bft) O 82 0 min 0,000 mm 0,0 UV-I 142 W/m -14,0 C -26,2 C 29,0 km/h (5 Bft) 91,67 %
01.03.2018 08:41 -11,3 C 2,8 C 80 % 1012,1 hPa 0,0 l/m 23,7 km/h (4 Bft) O 79 0 min 0,000 mm 0,0 UV-I 150 W/m -14,0 C -26,4 C 32,2 km/h (5 Bft) 100,00 %
01.03.2018 08:42 -11,3 C 2,8 C 80 % 1012,1 hPa 0,0 l/m 23,0 km/h (4 Bft) O 88 1 min 0,000 mm 0,0 UV-I 180 W/m -14,0 C -26,0 C 33,8 km/h (5 Bft) 95,65 %
01.03.2018 08:43 -11,3 C 2,8 C 80 % 1012,1 hPa 0,0 l/m 24,1 km/h (4 Bft) O-NO 71 1 min 0,000 mm 0,0 UV-I 202 W/m -14,0 C -26,6 C 30,6 km/h (5 Bft) 100,00 %
01.03.2018 08:44 -11,3 C 2,8 C 80 % 1012,0 hPa 0,0 l/m 31,7 km/h (5 Bft) O 96 1 min 0,000 mm 0,0 UV-I 213 W/m -14,0 C -30,0 C 41,8 km/h (6 Bft) 95,65 %
01.03.2018 08:45 -11,3 C 2,8 C 80 % 1012,0 hPa 0,0 l/m 23,1 km/h (4 Bft) O 94 1 min 0,000 mm 0,0 UV-I 202 W/m -14,0 C -26,0 C 27,4 km/h (4 Bft) 93,33 %
01.03.2018 08:46 -11,2 C 2,8 C 80 % 1012,0 hPa 0,0 l/m 26,2 km/h (4 Bft) O-SO 114 1 min 0,000 mm 0,0 UV-I 202 W/m -13,9 C -27,5 C 33,8 km/h (5 Bft) 96,88 %
01.03.2018 08:47 -11,2 C 2,8 C 80 % 1012,1 hPa 0,0 l/m 23,7 km/h (4 Bft) O 84 1 min 0,000 mm 0,0 UV-I 200 W/m -13,9 C -26,2 C 30,6 km/h (5 Bft) 100,00 %
01.03.2018 08:48 -11,2 C 2,8 C 80 % 1012,0 hPa 0,0 l/m 18,3 km/h (3 Bft) O 80 1 min 0,000 mm 0,0 UV-I 203 W/m -13,9 C -23,0 C 27,4 km/h (4 Bft) 96,55 %
01.03.2018 08:49 -11,1 C 2,8 C 80 % 1012,0 hPa 0,0 l/m 21,9 km/h (4 Bft) O 96 1 min 0,000 mm 0,0 UV-I 228 W/m -13,8 C -25,1 C 29,0 km/h (5 Bft) 96,30 %
01.03.2018 08:50 -11,1 C 2,8 C 80 % 1012,0 hPa 0,0 l/m 24,9 km/h (4 Bft) O-SO 117 1 min 0,000 mm 0,0 UV-I 214 W/m -13,8 C -26,7 C 30,6 km/h (5 Bft) 100,00 %
01.03.2018 08:51 -11,1 C 2,8 C 79 % 1012,0 hPa 0,0 l/m 28,8 km/h (4 Bft) O-SO 103 1 min 0,000 mm 0,0 UV-I 178 W/m -14,0 C -28,5 C 37,0 km/h (5 Bft) 97,37 %
01.03.2018 08:52 -11,2 C 2,8 C 79 % 1012,0 hPa 0,0 l/m 26,2 km/h (4 Bft) O-NO 74 0 min 0,000 mm 0,0 UV-I 164 W/m -14,1 C -27,5 C 32,2 km/h (5 Bft) 100,00 %
01.03.2018 08:53 -11,2 C 2,8 C 79 % 1012,0 hPa 0,0 l/m 27,1 km/h (4 Bft) O 87 0 min 0,000 mm 0,0 UV-I 139 W/m -14,1 C -27,9 C 32,2 km/h (5 Bft) 96,88 %
01.03.2018 08:54 -11,2 C 2,8 C 79 % 1012,1 hPa 0,0 l/m 20,3 km/h (4 Bft) O 81 0 min 0,000 mm 0,0 UV-I 144 W/m -14,1 C -24,3 C 24,1 km/h (4 Bft) 95,65 %
01.03.2018 08:55 -11,2 C 2,8 C 79 % 1012,1 hPa 0,0 l/m 24,3 km/h (4 Bft) O-NO 77 0 min 0,000 mm 0,0 UV-I 155 W/m -14,1 C -26,5 C 33,8 km/h (5 Bft) 100,00 %
01.03.2018 08:56 -11,2 C 2,8 C 79 % 1012,1 hPa 0,0 l/m 23,5 km/h (4 Bft) O-NO 70 0 min 0,000 mm 0,0 UV-I 181 W/m -14,1 C -26,1 C 32,2 km/h (5 Bft) 96,15 %
01.03.2018 08:57 -11,2 C 2,8 C 79 % 1012,1 hPa 0,0 l/m 26,3 km/h (4 Bft) O-SO 103 1 min 0,000 mm 0,0 UV-I 211 W/m -14,1 C -27,5 C 32,2 km/h (5 Bft) 100,00 %
01.03.2018 08:58 -11,2 C 2,8 C 79 % 1012,1 hPa 0,0 l/m 25,4 km/h (4 Bft) O-NO 59 1 min 0,000 mm 0,0 UV-I 199 W/m -14,1 C -27,1 C 30,6 km/h (5 Bft) 91,30 %
01.03.2018 08:59 -11,1 C 2,8 C 79 % 1012,0 hPa 0,0 l/m 21,7 km/h (4 Bft) O-NO 67 1 min 0,000 mm 0,0 UV-I 249 W/m -14,0 C -25,0 C 27,4 km/h (4 Bft) 100,00 %
01.03.2018 09:00 -11,1 C 2,8 C 80 % 1012,0 hPa 0,0 l/m 24,6 km/h (4 Bft) O-SO 103 1 min 0,051 mm 0,0 UV-I 222 W/m -13,8 C -26,6 C 32,2 km/h (5 Bft) 100,00 %
01.03.2018 09:01 -11,1 C 2,8 C 79 % 1012,0 hPa 0,0 l/m 21,5 km/h (4 Bft) O-SO 114 1 min 0,000 mm 0,0 UV-I 216 W/m -14,0 C -24,9 C 29,0 km/h (5 Bft) 96,15 %
01.03.2018 09:02 -11,1 C 2,8 C 79 % 1012,0 hPa 0,0 l/m 19,6 km/h (3 Bft) O 88 1 min 0,000 mm 0,0 UV-I 219 W/m -14,0 C -23,7 C 25,7 km/h (4 Bft) 100,00 %
01.03.2018 09:03 -11,0 C 2,8 C 79 % 1012,0 hPa 0,0 l/m 18,8 km/h (3 Bft) O 99 1 min 0,000 mm 0,0 UV-I 244 W/m -13,9 C -23,1 C 25,7 km/h (4 Bft) 95,65 %
01.03.2018 09:04 -10,9 C 2,8 C 79 % 1012,0 hPa 0,0 l/m 22,0 km/h (4 Bft) O 92 1 min 0,000 mm 0,0 UV-I 225 W/m -13,8 C -24,9 C 27,4 km/h (4 Bft) 100,00 %
01.03.2018 09:05 -10,9 C 2,8 C 79 % 1012,0 hPa 0,0 l/m 19,0 km/h (3 Bft) O 80 0 min 0,000 mm 0,0 UV-I 185 W/m -13,8 C -23,1 C 25,7 km/h (4 Bft) 95,65 %
01.03.2018 09:06 -10,9 C 2,8 C 79 % 1012,0 hPa 0,0 l/m 22,6 km/h (4 Bft) O 94 1 min 0,000 mm 0,1 UV-I 220 W/m -13,8 C -25,2 C 29,0 km/h (5 Bft) 94,44 %
01.03.2018 09:07 -10,9 C 2,8 C 79 % 1012,0 hPa 0,0 l/m 21,7 km/h (4 Bft) O 96 1 min 0,000 mm 0,5 UV-I 257 W/m -13,8 C -24,7 C 29,0 km/h (5 Bft) 95,65 %
01.03.2018 09:08 -10,8 C 2,8 C 79 % 1012,0 hPa 0,0 l/m 20,0 km/h (4 Bft) O-SO 111 1 min 0,000 mm 0,5 UV-I 288 W/m -13,7 C -23,6 C 29,0 km/h (5 Bft) 100,00 %
01.03.2018 09:09 -10,8 C 2,8 C 79 % 1012,0 hPa 0,0 l/m 21,8 km/h (4 Bft) O 94 1 min 0,000 mm 0,5 UV-I 310 W/m -13,7 C -24,7 C 29,0 km/h (5 Bft) 100,00 %
01.03.2018 09:10 -10,8 C 2,8 C 79 % 1012,0 hPa 0,0 l/m 24,2 km/h (4 Bft) O 86 1 min 0,000 mm 0,5 UV-I 338 W/m -13,7 C -26,0 C 29,0 km/h (5 Bft) 93,33 %
01.03.2018 09:11 -10,7 C 2,8 C 79 % 1012,1 hPa 0,0 l/m 21,9 km/h (4 Bft) O 92 1 min 0,000 mm 0,5 UV-I 343 W/m -13,6 C -24,6 C 25,7 km/h (4 Bft) 100,00 %
01.03.2018 09:12 -10,7 C 2,8 C 79 % 1012,0 hPa 0,0 l/m 19,0 km/h (3 Bft) O-SO 106 1 min 0,000 mm 0,5 UV-I 345 W/m -13,6 C -22,8 C 27,4 km/h (4 Bft) 100,00 %
01.03.2018 09:13 -10,6 C 2,8 C 79 % 1012,0 hPa 0,0 l/m 17,8 km/h (3 Bft) O 87 1 min 0,000 mm 0,5 UV-I 337 W/m -13,5 C -21,9 C 24,1 km/h (4 Bft) 95,65 %
01.03.2018 09:14 -10,6 C 2,8 C 79 % 1012,0 hPa 0,0 l/m 18,5 km/h (3 Bft) O 98 1 min 0,000 mm 0,5 UV-I 346 W/m -13,5 C -22,4 C 22,5 km/h (4 Bft) 100,00 %
01.03.2018 09:15 -10,4 C 2,8 C 79 % 1011,9 hPa 0,0 l/m 21,3 km/h (4 Bft) O-NO 78 1 min 0,000 mm 0,5 UV-I 333 W/m -13,3 C -23,8 C 27,4 km/h (4 Bft) 100,00 %
01.03.2018 09:16 -10,4 C 2,8 C 78 % 1011,8 hPa 0,0 l/m 17,2 km/h (3 Bft) O 84 1 min 0,000 mm 0,5 UV-I 360 W/m -13,5 C -21,2 C 27,4 km/h (4 Bft) 95,83 %
01.03.2018 09:17 -10,4 C 2,8 C 78 % 1011,8 hPa 0,0 l/m 17,4 km/h (3 Bft) O 83 1 min 0,000 mm 0,5 UV-I 368 W/m -13,5 C -21,4 C 22,5 km/h (4 Bft) 100,00 %
01.03.2018 09:18 -10,3 C 2,8 C 79 % 1011,8 hPa 0,0 l/m 18,6 km/h (3 Bft) O 83 1 min 0,000 mm 0,5 UV-I 350 W/m -13,2 C -22,1 C 27,4 km/h (4 Bft) 100,00 %
01.03.2018 09:19 -10,3 C 2,8 C 79 % 1011,8 hPa 0,0 l/m 18,9 km/h (3 Bft) O 94 1 min 0,000 mm 0,5 UV-I 354 W/m -13,2 C -22,2 C 27,4 km/h (4 Bft) 100,00 %
01.03.2018 09:20 -10,2 C 2,8 C 78 % 1011,7 hPa 0,0 l/m 16,4 km/h (3 Bft) O 95 1 min 0,000 mm 0,5 UV-I 360 W/m -13,3 C -20,4 C 20,9 km/h (4 Bft) 100,00 %
01.03.2018 09:21 -10,2 C 2,8 C 78 % 1011,7 hPa 0,0 l/m 16,9 km/h (3 Bft) O-NO 61 1 min 0,000 mm 0,6 UV-I 339 W/m -13,3 C -20,8 C 24,1 km/h (4 Bft) 100,00 %
01.03.2018 09:22 -10,1 C 2,8 C 78 % 1011,6 hPa 0,0 l/m 22,0 km/h (4 Bft) O-SO 111 1 min 0,000 mm 0,6 UV-I 349 W/m -13,2 C -23,8 C 32,2 km/h (5 Bft) 96,55 %
01.03.2018 09:23 -10,1 C 2,8 C 78 % 1011,6 hPa 0,0 l/m 19,7 km/h (3 Bft) O 86 1 min 0,000 mm 0,6 UV-I 371 W/m -13,2 C -22,5 C 25,7 km/h (4 Bft) 100,00 %
01.03.2018 09:24 -10,1 C 2,8 C 78 % 1011,6 hPa 0,0 l/m 21,7 km/h (4 Bft) O-SO 107 1 min 0,000 mm 0,6 UV-I 373 W/m -13,2 C -23,7 C 30,6 km/h (5 Bft) 100,00 %
01.03.2018 09:25 -10,1 C 2,8 C 78 % 1011,6 hPa 0,0 l/m 20,6 km/h (4 Bft) O-SO 113 1 min 0,000 mm 0,6 UV-I 381 W/m -13,2 C -23,0 C 27,4 km/h (4 Bft) 100,00 %
01.03.2018 09:26 -10,1 C 2,8 C 77 % 1011,5 hPa 0,0 l/m 16,2 km/h (3 Bft) O-NO 71 1 min 0,000 mm 0,6 UV-I 394 W/m -13,3 C -20,1 C 24,1 km/h (4 Bft) 100,00 %
01.03.2018 09:27 -10,0 C 2,8 C 78 % 1011,5 hPa 0,0 l/m 21,8 km/h (4 Bft) O-NO 74 1 min 0,000 mm 0,6 UV-I 397 W/m -13,1 C -23,6 C 27,4 km/h (4 Bft) 100,00 %
01.03.2018 09:28 -9,9 C 2,8 C 78 % 1011,5 hPa 0,0 l/m 18,2 km/h (3 Bft) O 87 1 min 0,000 mm 0,6 UV-I 405 W/m -13,0 C -21,3 C 24,1 km/h (4 Bft) 100,00 %
01.03.2018 09:29 -9,9 C 2,8 C 78 % 1011,5 hPa 0,0 l/m 21,6 km/h (4 Bft) O-SO 104 1 min 0,000 mm 0,6 UV-I 402 W/m -13,0 C -23,4 C 25,7 km/h (4 Bft) 100,00 %
01.03.2018 09:30 -9,9 C 2,8 C 77 % 1011,5 hPa 0,0 l/m 21,4 km/h (4 Bft) O-SO 117 1 min 0,000 mm 0,6 UV-I 405 W/m -13,1 C -23,2 C 27,4 km/h (4 Bft) 95,65 %
01.03.2018 09:31 -9,9 C 2,8 C 77 % 1011,5 hPa 0,0 l/m 22,8 km/h (4 Bft) O 88 1 min 0,000 mm 0,6 UV-I 405 W/m -13,1 C -24,0 C 27,4 km/h (4 Bft) 100,00 %
01.03.2018 09:32 -9,9 C 2,8 C 77 % 1011,5 hPa 0,0 l/m 23,8 km/h (4 Bft) O 93 1 min 0,000 mm 0,6 UV-I 403 W/m -13,1 C -24,5 C 27,4 km/h (4 Bft) 100,00 %
01.03.2018 09:33 -9,9 C 2,8 C 77 % 1011,5 hPa 0,0 l/m 26,0 km/h (4 Bft) O 85 1 min 0,000 mm 0,6 UV-I 386 W/m -13,1 C -25,6 C 32,2 km/h (5 Bft) 100,00 %
01.03.2018 09:34 -9,9 C 2,8 C 77 % 1011,5 hPa 0,0 l/m 22,5 km/h (4 Bft) O-NO 57 1 min 0,000 mm 0,6 UV-I 351 W/m -13,1 C -23,9 C 29,0 km/h (5 Bft) 100,00 %
01.03.2018 09:35 -9,8 C 2,8 C 77 % 1011,4 hPa 0,0 l/m 20,5 km/h (4 Bft) O 86 1 min 0,000 mm 0,6 UV-I 334 W/m -13,1 C -22,6 C 27,4 km/h (4 Bft) 100,00 %
01.03.2018 09:36 -9,8 C 2,8 C 77 % 1011,4 hPa 0,0 l/m 25,2 km/h (4 Bft) O-SO 113 1 min 0,000 mm 0,6 UV-I 333 W/m -13,1 C -25,1 C 30,6 km/h (5 Bft) 96,15 %
01.03.2018 09:37 -9,9 C 2,8 C 77 % 1011,4 hPa 0,0 l/m 19,6 km/h (3 Bft) O-SO 104 1 min 0,000 mm 0,6 UV-I 329 W/m -13,1 C -22,2 C 25,7 km/h (4 Bft) 100,00 %
01.03.2018 09:38 -9,9 C 2,8 C 77 % 1011,4 hPa 0,0 l/m 20,0 km/h (4 Bft) O-NO 76 1 min 0,000 mm 0,6 UV-I 346 W/m -13,1 C -22,4 C 30,6 km/h (5 Bft) 100,00 %
01.03.2018 09:39 -9,8 C 2,8 C 77 % 1011,4 hPa 0,0 l/m 18,6 km/h (3 Bft) O-NO 78 1 min 0,000 mm 0,6 UV-I 345 W/m -13,1 C -21,4 C 22,5 km/h (4 Bft) 100,00 %
01.03.2018 09:40 -9,8 C 2,8 C 77 % 1011,4 hPa 0,0 l/m 16,8 km/h (3 Bft) O 101 1 min 0,000 mm 0,6 UV-I 334 W/m -13,1 C -20,2 C 22,5 km/h (4 Bft) 100,00 %
01.03.2018 09:41 -9,8 C 2,8 C 77 % 1011,4 hPa 0,0 l/m 20,3 km/h (4 Bft) O 94 1 min 0,000 mm 0,6 UV-I 301 W/m -13,1 C -22,5 C 27,4 km/h (4 Bft) 100,00 %
01.03.2018 09:42 -9,8 C 2,8 C 77 % 1011,4 hPa 0,0 l/m 19,2 km/h (3 Bft) O-SO 115 1 min 0,000 mm 0,6 UV-I 266 W/m -13,1 C -21,8 C 22,5 km/h (4 Bft) 100,00 %
01.03.2018 09:43 -9,9 C 2,8 C 77 % 1011,3 hPa 0,0 l/m 20,6 km/h (4 Bft) O-NO 67 1 min 0,000 mm 0,6 UV-I 266 W/m -13,1 C -22,8 C 25,7 km/h (4 Bft) 100,00 %
01.03.2018 09:44 -9,9 C 2,8 C 77 % 1011,3 hPa 0,0 l/m 16,8 km/h (3 Bft) O-SO 115 1 min 0,000 mm 0,6 UV-I 284 W/m -13,1 C -20,3 C 22,5 km/h (4 Bft) 100,00 %
01.03.2018 09:45 -9,9 C 2,8 C 77 % 1011,3 hPa 0,0 l/m 22,4 km/h (4 Bft) O 88 1 min 0,000 mm 0,7 UV-I 285 W/m -13,1 C -23,8 C 27,4 km/h (4 Bft) 100,00 %
01.03.2018 09:46 -9,8 C 2,8 C 77 % 1011,3 hPa 0,0 l/m 19,5 km/h (3 Bft) O 98 1 min 0,000 mm 0,7 UV-I 366 W/m -13,1 C -22,0 C 27,4 km/h (4 Bft) 100,00 %
01.03.2018 09:47 -9,8 C 2,8 C 77 % 1011,2 hPa 0,0 l/m 20,0 km/h (4 Bft) O 90 1 min 0,000 mm 0,7 UV-I 322 W/m -13,1 C -22,3 C 29,0 km/h (5 Bft) 95,65 %
01.03.2018 09:48 -9,8 C 2,8 C 77 % 1011,2 hPa 0,0 l/m 20,8 km/h (4 Bft) O 80 1 min 0,000 mm 0,7 UV-I 356 W/m -13,1 C -22,8 C 29,0 km/h (5 Bft) 100,00 %
01.03.2018 09:49 -9,8 C 2,8 C 77 % 1011,2 hPa 0,0 l/m 20,9 km/h (4 Bft) O-NO 76 1 min 0,000 mm 0,7 UV-I 358 W/m -13,1 C -22,8 C 30,6 km/h (5 Bft) 100,00 %
01.03.2018 09:50 -9,7 C 2,8 C 77 % 1011,2 hPa 0,0 l/m 20,5 km/h (4 Bft) O-NO 74 1 min 0,000 mm 0,7 UV-I 283 W/m -13,0 C -22,5 C 27,4 km/h (4 Bft) 100,00 %
01.03.2018 09:51 -9,7 C 2,8 C 77 % 1011,3 hPa 0,0 l/m 20,0 km/h (4 Bft) O 96 1 min 0,000 mm 0,7 UV-I 321 W/m -13,0 C -22,2 C 27,4 km/h (4 Bft) 96,30 %
01.03.2018 09:52 -9,6 C 2,8 C 77 % 1011,3 hPa 0,0 l/m 26,8 km/h (4 Bft) O-SO 113 1 min 0,000 mm 0,7 UV-I 289 W/m -12,9 C -25,6 C 35,4 km/h (5 Bft) 100,00 %
01.03.2018 09:53 -9,7 C 2,8 C 76 % 1011,2 hPa 0,0 l/m 25,3 km/h (4 Bft) O 93 1 min 0,000 mm 0,8 UV-I 314 W/m -13,1 C -25,0 C 32,2 km/h (5 Bft) 100,00 %
01.03.2018 09:54 -9,7 C 2,8 C 76 % 1011,2 hPa 0,0 l/m 20,2 km/h (4 Bft) SO 132 1 min 0,000 mm 0,7 UV-I 369 W/m -13,1 C -22,3 C 33,8 km/h (5 Bft) 100,00 %
01.03.2018 09:55 -9,7 C 2,8 C 76 % 1011,1 hPa 0,0 l/m 26,0 km/h (4 Bft) O 90 1 min 0,000 mm 0,7 UV-I 366 W/m -13,1 C -25,3 C 30,6 km/h (5 Bft) 100,00 %
01.03.2018 09:56 -9,7 C 2,8 C 76 % 1011,2 hPa 0,0 l/m 24,1 km/h (4 Bft) O-NO 78 1 min 0,000 mm 0,7 UV-I 393 W/m -13,1 C -24,4 C 30,6 km/h (5 Bft) 100,00 %
01.03.2018 09:57 -9,7 C 2,8 C 76 % 1011,2 hPa 0,0 l/m 21,6 km/h (4 Bft) O 88 1 min 0,000 mm 0,7 UV-I 333 W/m -13,1 C -23,1 C 29,0 km/h (5 Bft) 100,00 %
01.03.2018 09:58 -9,7 C 2,8 C 76 % 1011,2 hPa 0,0 l/m 20,0 km/h (4 Bft) O-SO 109 1 min 0,000 mm 0,7 UV-I 356 W/m -13,1 C -22,2 C 29,0 km/h (5 Bft) 100,00 %
01.03.2018 09:59 -9,7 C 2,8 C 76 % 1011,3 hPa 0,0 l/m 21,6 km/h (4 Bft) O-SO 113 1 min 0,000 mm 0,8 UV-I 388 W/m -13,1 C -23,1 C 27,4 km/h (4 Bft) 100,00 %
01.03.2018 10:00 -9,7 C 2,8 C 76 % 1011,2 hPa 0,0 l/m 26,9 km/h (4 Bft) O-SO 109 1 min 0,076 mm 0,8 UV-I 370 W/m -13,1 C -25,7 C 37,0 km/h (5 Bft) 100,00 %
01.03.2018 10:01 -9,6 C 2,8 C 76 % 1011,2 hPa 0,0 l/m 27,2 km/h (4 Bft) O-SO 105 1 min 0,000 mm 0,8 UV-I 405 W/m -13,0 C -25,7 C 33,8 km/h (5 Bft) 95,83 %
01.03.2018 10:02 -9,6 C 2,8 C 76 % 1011,2 hPa 0,0 l/m 23,3 km/h (4 Bft) O 101 1 min 0,000 mm 0,8 UV-I 418 W/m -13,0 C -23,9 C 32,2 km/h (5 Bft) 100,00 %
01.03.2018 10:03 -9,6 C 2,8 C 76 % 1011,1 hPa 0,0 l/m 26,7 km/h (4 Bft) O 94 1 min 0,000 mm 0,8 UV-I 405 W/m -13,0 C -25,5 C 35,4 km/h (5 Bft) 95,83 %
01.03.2018 10:04 -9,6 C 2,8 C 75 % 1011,1 hPa 0,0 l/m 27,8 km/h (4 Bft) O 87 1 min 0,000 mm 0,8 UV-I 412 W/m -13,2 C -26,0 C 35,4 km/h (5 Bft) 100,00 %
01.03.2018 10:05 -9,6 C 2,8 C 75 % 1011,0 hPa 0,0 l/m 25,3 km/h (4 Bft) O-NO 74 1 min 0,000 mm 0,8 UV-I 443 W/m -13,2 C -24,9 C 33,8 km/h (5 Bft) 100,00 %
01.03.2018 10:06 -9,5 C 2,8 C 75 % 1011,0 hPa 0,0 l/m 22,5 km/h (4 Bft) O-NO 67 1 min 0,000 mm 0,9 UV-I 454 W/m -13,1 C -23,3 C 29,0 km/h (5 Bft) 96,55 %
01.03.2018 10:07 -9,4 C 2,8 C 76 % 1011,0 hPa 0,0 l/m 24,2 km/h (4 Bft) O 88 1 min 0,000 mm 0,8 UV-I 435 W/m -12,8 C -24,1 C 30,6 km/h (5 Bft) 100,00 %
01.03.2018 10:08 -9,3 C 2,8 C 76 % 1011,0 hPa 0,0 l/m 21,0 km/h (4 Bft) O 84 1 min 0,000 mm 0,9 UV-I 440 W/m -12,7 C -22,2 C 25,7 km/h (4 Bft) 96,15 %
01.03.2018 10:09 -9,2 C 2,8 C 76 % 1011,0 hPa 0,0 l/m 23,7 km/h (4 Bft) NO 48 1 min 0,000 mm 0,9 UV-I 446 W/m -12,6 C -23,5 C 29,0 km/h (5 Bft) 96,30 %
01.03.2018 10:10 -9,2 C 2,8 C 76 % 1011,0 hPa 0,0 l/m 24,7 km/h (4 Bft) NO 40 1 min 0,000 mm 0,8 UV-I 414 W/m -12,6 C -24,0 C 30,6 km/h (5 Bft) 100,00 %
01.03.2018 10:11 -9,2 C 2,8 C 75 % 1010,9 hPa 0,0 l/m 27,8 km/h (4 Bft) O 90 1 min 0,000 mm 0,9 UV-I 424 W/m -12,8 C -25,4 C 38,6 km/h (5 Bft) 96,30 %
01.03.2018 10:12 -9,2 C 2,8 C 75 % 1010,9 hPa 0,0 l/m 27,1 km/h (4 Bft) O 98 1 min 0,000 mm 0,9 UV-I 433 W/m -12,8 C -25,1 C 35,4 km/h (5 Bft) 96,15 %
01.03.2018 10:13 -9,2 C 2,8 C 74 % 1010,9 hPa 0,0 l/m 25,2 km/h (4 Bft) O-NO 68 1 min 0,000 mm 0,9 UV-I 446 W/m -13,0 C -24,3 C 32,2 km/h (5 Bft) 92,59 %
01.03.2018 10:14 -9,2 C 2,8 C 74 % 1010,9 hPa 0,0 l/m 27,5 km/h (4 Bft) O-SO 117 1 min 0,000 mm 0,8 UV-I 410 W/m -13,0 C -25,3 C 37,0 km/h (5 Bft) 100,00 %
01.03.2018 10:15 -9,2 C 2,8 C 75 % 1010,9 hPa 0,0 l/m 26,6 km/h (4 Bft) O-NO 71 1 min 0,000 mm 0,8 UV-I 392 W/m -12,8 C -24,9 C 33,8 km/h (5 Bft) 96,55 %
01.03.2018 10:16 -9,2 C 2,8 C 74 % 1010,8 hPa 0,0 l/m 26,1 km/h (4 Bft) O 80 1 min 0,000 mm 0,9 UV-I 388 W/m -13,0 C -24,7 C 32,2 km/h (5 Bft) 100,00 %
01.03.2018 10:17 -9,2 C 2,8 C 74 % 1010,8 hPa 0,0 l/m 28,0 km/h (4 Bft) O 79 1 min 0,000 mm 0,9 UV-I 409 W/m -13,0 C -25,5 C 33,8 km/h (5 Bft) 97,56 %
01.03.2018 10:18 -9,2 C 2,8 C 74 % 1010,8 hPa 0,0 l/m 23,7 km/h (4 Bft) O-NO 78 1 min 0,000 mm 0,9 UV-I 442 W/m -13,0 C -23,5 C 27,4 km/h (4 Bft) 95,83 %
01.03.2018 10:19 -9,2 C 2,8 C 75 % 1010,8 hPa 0,0 l/m 28,2 km/h (4 Bft) O 86 1 min 0,000 mm 0,9 UV-I 455 W/m -12,8 C -25,6 C 35,4 km/h (5 Bft) 100,00 %
01.03.2018 10:20 -9,2 C 2,8 C 75 % 1010,8 hPa 0,0 l/m 29,6 km/h (5 Bft) O 94 1 min 0,000 mm 0,9 UV-I 458 W/m -12,8 C -26,2 C 37,0 km/h (5 Bft) 100,00 %
01.03.2018 10:21 -9,2 C 2,8 C 75 % 1010,8 hPa 0,0 l/m 23,3 km/h (4 Bft) O-NO 68 1 min 0,000 mm 1,0 UV-I 484 W/m -12,8 C -23,3 C 33,8 km/h (5 Bft) 96,88 %
01.03.2018 10:22 -9,1 C 2,8 C 75 % 1010,7 hPa 0,0 l/m 25,2 km/h (4 Bft) O-NO 69 1 min 0,000 mm 1,0 UV-I 478 W/m -12,7 C -24,1 C 32,2 km/h (5 Bft) 91,67 %
01.03.2018 10:23 -9,1 C 2,8 C 75 % 1010,8 hPa 0,0 l/m 25,7 km/h (4 Bft) O 95 1 min 0,000 mm 1,0 UV-I 493 W/m -12,7 C -24,4 C 32,2 km/h (5 Bft) 100,00 %
01.03.2018 10:24 -9,1 C 2,8 C 74 % 1010,7 hPa 0,0 l/m 22,8 km/h (4 Bft) O 88 1 min 0,000 mm 1,0 UV-I 498 W/m -12,9 C -23,0 C 32,2 km/h (5 Bft) 96,88 %
01.03.2018 10:25 -9,0 C 2,8 C 74 % 1010,8 hPa 0,0 l/m 28,8 km/h (4 Bft) O 83 1 min 0,000 mm 1,0 UV-I 497 W/m -12,8 C -25,6 C 37,0 km/h (5 Bft) 100,00 %
01.03.2018 10:26 -9,0 C 2,8 C 74 % 1010,8 hPa 0,0 l/m 26,4 km/h (4 Bft) O-NO 62 1 min 0,000 mm 1,0 UV-I 499 W/m -12,8 C -24,6 C 32,2 km/h (5 Bft) 96,30 %
01.03.2018 10:27 -8,9 C 2,8 C 74 % 1010,7 hPa 0,0 l/m 26,4 km/h (4 Bft) O-NO 61 1 min 0,000 mm 1,0 UV-I 496 W/m -12,7 C -24,4 C 35,4 km/h (5 Bft) 100,00 %
01.03.2018 10:28 -8,9 C 2,8 C 74 % 1010,6 hPa 0,0 l/m 27,0 km/h (4 Bft) O-NO 64 1 min 0,000 mm 1,0 UV-I 490 W/m -12,7 C -24,7 C 32,2 km/h (5 Bft) 96,30 %
01.03.2018 10:29 -8,9 C 2,8 C 74 % 1010,6 hPa 0,0 l/m 28,4 km/h (4 Bft) O-NO 67 1 min 0,000 mm 1,0 UV-I 487 W/m -12,7 C -25,3 C 35,4 km/h (5 Bft) 100,00 %
01.03.2018 10:30 -8,8 C 2,8 C 74 % 1010,6 hPa 0,0 l/m 28,1 km/h (4 Bft) O-NO 69 1 min 0,000 mm 1,0 UV-I 484 W/m -12,6 C -25,0 C 33,8 km/h (5 Bft) 100,00 %
01.03.2018 10:31 -8,8 C 2,8 C 74 % 1010,7 hPa 0,0 l/m 25,7 km/h (4 Bft) O 95 1 min 0,000 mm 1,0 UV-I 489 W/m -12,6 C -24,0 C 35,4 km/h (5 Bft) 100,00 %
01.03.2018 10:32 -8,8 C 2,8 C 74 % 1010,7 hPa 0,0 l/m 23,7 km/h (4 Bft) O-NO 67 1 min 0,000 mm 1,0 UV-I 491 W/m -12,6 C -23,0 C 35,4 km/h (5 Bft) 96,55 %
01.03.2018 10:33 -8,7 C 2,8 C 75 % 1010,7 hPa 0,0 l/m 24,3 km/h (4 Bft) O-SO 103 1 min 0,000 mm 1,0 UV-I 501 W/m -12,3 C -23,2 C 33,8 km/h (5 Bft) 100,00 %
01.03.2018 10:34 -8,7 C 2,8 C 74 % 1010,7 hPa 0,0 l/m 29,4 km/h (5 Bft) O-SO 112 1 min 0,000 mm 1,0 UV-I 494 W/m -12,5 C -25,4 C 33,8 km/h (5 Bft) 100,00 %
01.03.2018 10:35 -8,7 C 2,8 C 74 % 1010,7 hPa 0,0 l/m 27,7 km/h (4 Bft) O-SO 112 1 min 0,000 mm 1,0 UV-I 472 W/m -12,5 C -24,7 C 38,6 km/h (5 Bft) 100,00 %
01.03.2018 10:36 -8,7 C 2,8 C 74 % 1010,7 hPa 0,0 l/m 27,1 km/h (4 Bft) O 90 1 min 0,000 mm 1,0 UV-I 443 W/m -12,5 C -24,5 C 35,4 km/h (5 Bft) 100,00 %
01.03.2018 10:37 -8,7 C 2,8 C 74 % 1010,8 hPa 0,0 l/m 27,3 km/h (4 Bft) O-SO 110 1 min 0,000 mm 1,0 UV-I 444 W/m -12,5 C -24,5 C 35,4 km/h (5 Bft) 100,00 %
01.03.2018 10:38 -8,7 C 2,8 C 74 % 1010,8 hPa 0,0 l/m 24,9 km/h (4 Bft) O-SO 109 1 min 0,000 mm 1,0 UV-I 456 W/m -12,5 C -23,5 C 30,6 km/h (5 Bft) 100,00 %
01.03.2018 10:39 -8,7 C 2,8 C 74 % 1010,7 hPa 0,0 l/m 25,3 km/h (4 Bft) O 96 1 min 0,000 mm 1,0 UV-I 454 W/m -12,5 C -23,6 C 32,2 km/h (5 Bft) 100,00 %
01.03.2018 10:40 -8,7 C 2,8 C 74 % 1010,7 hPa 0,0 l/m 26,5 km/h (4 Bft) O-NO 64 1 min 0,000 mm 1,0 UV-I 458 W/m -12,5 C -24,2 C 32,2 km/h (5 Bft) 100,00 %
01.03.2018 10:41 -8,7 C 2,8 C 74 % 1010,7 hPa 0,0 l/m 21,9 km/h (4 Bft) O-SO 113 1 min 0,000 mm 1,0 UV-I 474 W/m -12,5 C -21,9 C 30,6 km/h (5 Bft) 100,00 %
01.03.2018 10:42 -8,7 C 2,8 C 74 % 1010,7 hPa 0,0 l/m 20,5 km/h (4 Bft) O 80 1 min 0,000 mm 1,1 UV-I 490 W/m -12,5 C -21,2 C 27,4 km/h (4 Bft) 100,00 %
01.03.2018 10:43 -8,6 C 2,8 C 74 % 1010,7 hPa 0,0 l/m 23,3 km/h (4 Bft) O-SO 110 1 min 0,000 mm 1,1 UV-I 502 W/m -12,4 C -22,5 C 29,0 km/h (5 Bft) 100,00 %
01.03.2018 10:44 -8,5 C 2,8 C 74 % 1010,7 hPa 0,0 l/m 27,0 km/h (4 Bft) O-SO 109 1 min 0,000 mm 1,1 UV-I 512 W/m -12,3 C -24,1 C 37,0 km/h (5 Bft) 100,00 %
01.03.2018 10:45 -8,5 C 2,8 C 74 % 1010,7 hPa 0,0 l/m 27,0 km/h (4 Bft) O 99 1 min 0,000 mm 1,1 UV-I 519 W/m -12,3 C -24,1 C 37,0 km/h (5 Bft) 100,00 %
01.03.2018 10:46 -8,5 C 2,8 C 73 % 1010,7 hPa 0,0 l/m 22,4 km/h (4 Bft) O-NO 72 1 min 0,000 mm 1,1 UV-I 521 W/m -12,4 C -21,9 C 30,6 km/h (5 Bft) 100,00 %
01.03.2018 10:47 -8,5 C 2,8 C 74 % 1010,7 hPa 0,0 l/m 23,3 km/h (4 Bft) O 82 1 min 0,000 mm 1,1 UV-I 529 W/m -12,3 C -22,4 C 29,0 km/h (5 Bft) 100,00 %
01.03.2018 10:48 -8,5 C 2,8 C 74 % 1010,7 hPa 0,0 l/m 23,4 km/h (4 Bft) O-NO 69 1 min 0,000 mm 1,1 UV-I 528 W/m -12,3 C -22,5 C 27,4 km/h (4 Bft) 100,00 %
01.03.2018 10:49 -8,5 C 2,8 C 73 % 1010,7 hPa 0,0 l/m 25,6 km/h (4 Bft) O-SO 109 1 min 0,000 mm 1,1 UV-I 521 W/m -12,4 C -23,5 C 32,2 km/h (5 Bft) 100,00 %
01.03.2018 10:50 -8,4 C 2,8 C 74 % 1010,7 hPa 0,0 l/m 31,2 km/h (5 Bft) O-SO 110 1 min 0,000 mm 1,1 UV-I 520 W/m -12,2 C -25,7 C 38,6 km/h (5 Bft) 100,00 %
01.03.2018 10:51 -8,4 C 2,8 C 74 % 1010,7 hPa 0,0 l/m 27,2 km/h (4 Bft) O-SO 107 1 min 0,000 mm 1,1 UV-I 520 W/m -12,2 C -24,1 C 35,4 km/h (5 Bft) 100,00 %
01.03.2018 10:52 -8,4 C 2,8 C 73 % 1010,7 hPa 0,0 l/m 25,4 km/h (4 Bft) O-SO 102 1 min 0,000 mm 1,2 UV-I 525 W/m -12,4 C -23,3 C 32,2 km/h (5 Bft) 100,00 %
01.03.2018 10:53 -8,4 C 2,8 C 73 % 1010,7 hPa 0,0 l/m 28,0 km/h (4 Bft) O-SO 105 1 min 0,000 mm 1,1 UV-I 530 W/m -12,4 C -24,4 C 38,6 km/h (5 Bft) 100,00 %
01.03.2018 10:54 -8,4 C 2,8 C 73 % 1010,6 hPa 0,0 l/m 27,7 km/h (4 Bft) O-SO 115 1 min 0,000 mm 1,1 UV-I 533 W/m -12,4 C -24,3 C 37,0 km/h (5 Bft) 96,30 %
01.03.2018 10:55 -8,5 C 2,8 C 73 % 1010,7 hPa 0,0 l/m 29,2 km/h (5 Bft) O 94 1 min 0,000 mm 1,0 UV-I 416 W/m -12,4 C -25,0 C 40,2 km/h (6 Bft) 100,00 %
01.03.2018 10:56 -8,6 C 2,8 C 73 % 1010,6 hPa 0,0 l/m 22,5 km/h (4 Bft) O 86 1 min 0,000 mm 1,0 UV-I 387 W/m -12,5 C -22,1 C 29,0 km/h (5 Bft) 100,00 %
01.03.2018 10:57 -8,6 C 2,8 C 73 % 1010,7 hPa 0,0 l/m 25,8 km/h (4 Bft) O 94 1 min 0,000 mm 1,0 UV-I 398 W/m -12,5 C -23,7 C 35,4 km/h (5 Bft) 100,00 %
01.03.2018 10:58 -8,6 C 2,8 C 73 % 1010,7 hPa 0,0 l/m 28,5 km/h (4 Bft) O-SO 117 1 min 0,000 mm 1,0 UV-I 376 W/m -12,5 C -24,9 C 37,0 km/h (5 Bft) 100,00 %
01.03.2018 10:59 -8,6 C 2,8 C 73 % 1010,7 hPa 0,0 l/m 24,1 km/h (4 Bft) O-NO 76 1 min 0,000 mm 1,1 UV-I 401 W/m -12,5 C -22,9 C 33,8 km/h (5 Bft) 100,00 %
01.03.2018 11:00 -8,5 C 2,8 C 74 % 1010,7 hPa 0,0 l/m 26,5 km/h (4 Bft) O 98 1 min 0,000 mm 1,0 UV-I 408 W/m -12,3 C -23,9 C 33,8 km/h (5 Bft) 100,00 %
01.03.2018 11:01 -8,5 C 2,8 C 74 % 1010,7 hPa 0,0 l/m 26,6 km/h (4 Bft) SO 143 1 min 0,127 mm 1,1 UV-I 413 W/m -12,3 C -24,0 C 37,0 km/h (5 Bft) 96,15 %
01.03.2018 11:02 -8,5 C 2,8 C 74 % 1010,6 hPa 0,0 l/m 23,7 km/h (4 Bft) O-SO 105 1 min 0,000 mm 1,0 UV-I 412 W/m -12,3 C -22,6 C 29,0 km/h (5 Bft) 100,00 %
01.03.2018 11:03 -8,5 C 2,8 C 74 % 1010,7 hPa 0,0 l/m 23,1 km/h (4 Bft) O 101 1 min 0,000 mm 1,0 UV-I 408 W/m -12,3 C -22,3 C 33,8 km/h (5 Bft) 100,00 %
01.03.2018 11:04 -8,5 C 2,8 C 74 % 1010,6 hPa 0,0 l/m 27,4 km/h (4 Bft) O 91 1 min 0,000 mm 1,1 UV-I 422 W/m -12,3 C -24,3 C 37,0 km/h (5 Bft) 100,00 %
01.03.2018 11:05 -8,4 C 2,8 C 74 % 1010,6 hPa 0,0 l/m 24,1 km/h (4 Bft) O 87 1 min 0,000 mm 1,1 UV-I 415 W/m -12,2 C -22,7 C 32,2 km/h (5 Bft) 95,65 %
01.03.2018 11:06 -8,4 C 2,8 C 74 % 1010,6 hPa 0,0 l/m 23,3 km/h (4 Bft) O 95 1 min 0,000 mm 1,1 UV-I 419 W/m -12,2 C -22,3 C 32,2 km/h (5 Bft) 100,00 %
01.03.2018 11:07 -8,3 C 2,8 C 74 % 1010,6 hPa 0,0 l/m 28,0 km/h (4 Bft) SO 126 1 min 0,000 mm 1,1 UV-I 430 W/m -12,1 C -24,3 C 37,0 km/h (5 Bft) 98,10 %
01.03.2018 11:08 -8,3 C 2,8 C 74 % 1010,7 hPa 0,0 l/m 27,4 km/h (4 Bft) O-SO 107 1 min 0,000 mm 1,1 UV-I 446 W/m -12,1 C -24,0 C 35,4 km/h (5 Bft) 100,00 %
01.03.2018 11:09 -8,3 C 2,8 C 73 % 1010,6 hPa 0,0 l/m 25,9 km/h (4 Bft) O-NO 77 1 min 0,000 mm 1,1 UV-I 473 W/m -12,3 C -23,4 C 32,2 km/h (5 Bft) 94,44 %
01.03.2018 11:10 -8,3 C 2,8 C 73 % 1010,7 hPa 0,0 l/m 21,2 km/h (4 Bft) O-SO 118 1 min 0,000 mm 1,1 UV-I 485 W/m -12,3 C -21,0 C 29,0 km/h (5 Bft) 100,00 %
01.03.2018 11:11 -8,2 C 2,8 C 74 % 1010,7 hPa 0,0 l/m 17,1 km/h (3 Bft) O 89 1 min 0,000 mm 1,2 UV-I 501 W/m -12,0 C -18,4 C 25,7 km/h (4 Bft) 100,00 %
01.03.2018 11:12 -8,1 C 2,8 C 74 % 1010,7 hPa 0,0 l/m 21,9 km/h (4 Bft) O-NO 74 1 min 0,000 mm 1,2 UV-I 508 W/m -11,9 C -21,2 C 29,0 km/h (5 Bft) 100,00 %
01.03.2018 11:13 -8,0 C 2,8 C 74 % 1010,7 hPa 0,0 l/m 24,6 km/h (4 Bft) O 89 1 min 0,000 mm 1,2 UV-I 502 W/m -11,8 C -22,4 C 30,6 km/h (5 Bft) 100,00 %
01.03.2018 11:14 -8,0 C 2,8 C 73 % 1010,7 hPa 0,0 l/m 27,4 km/h (4 Bft) O-NO 66 1 min 0,000 mm 1,2 UV-I 496 W/m -12,0 C -23,6 C 37,0 km/h (5 Bft) 100,00 %
01.03.2018 11:15 -8,0 C 2,8 C 72 % 1010,7 hPa 0,0 l/m 22,2 km/h (4 Bft) O 92 1 min 0,000 mm 1,2 UV-I 491 W/m -12,1 C -21,2 C 29,0 km/h (5 Bft) 100,00 %
01.03.2018 11:16 -7,9 C 2,8 C 73 % 1010,7 hPa 0,0 l/m 24,8 km/h (4 Bft) O-NO 75 1 min 0,000 mm 1,2 UV-I 495 W/m -11,9 C -22,3 C 29,0 km/h (5 Bft) 100,00 %
01.03.2018 11:17 -7,9 C 2,8 C 73 % 1010,7 hPa 0,0 l/m 18,5 km/h (3 Bft) O 92 1 min 0,000 mm 1,2 UV-I 512 W/m -11,9 C -18,9 C 24,1 km/h (4 Bft) 100,00 %
01.03.2018 11:18 -7,8 C 2,8 C 73 % 1010,7 hPa 0,0 l/m 17,8 km/h (3 Bft) O 95 1 min 0,000 mm 1,2 UV-I 540 W/m -11,8 C -18,4 C 20,9 km/h (4 Bft) 100,00 %
01.03.2018 11:19 -7,8 C 2,8 C 74 % 1010,7 hPa 0,0 l/m 19,6 km/h (3 Bft) O-SO 113 1 min 0,000 mm 1,2 UV-I 555 W/m -11,6 C -19,5 C 29,0 km/h (5 Bft) 100,00 %
01.03.2018 11:20 -7,7 C 2,8 C 73 % 1010,7 hPa 0,0 l/m 23,9 km/h (4 Bft) O 98 1 min 0,000 mm 1,2 UV-I 548 W/m -11,7 C -21,6 C 27,4 km/h (4 Bft) 100,00 %
01.03.2018 11:21 -7,6 C 2,8 C 73 % 1010,7 hPa 0,0 l/m 19,7 km/h (3 Bft) O-SO 111 1 min 0,000 mm 1,2 UV-I 547 W/m -11,6 C -19,3 C 32,2 km/h (5 Bft) 100,00 %
01.03.2018 11:22 -7,6 C 2,8 C 72 % 1010,7 hPa 0,0 l/m 20,6 km/h (4 Bft) O 94 1 min 0,000 mm 1,2 UV-I 535 W/m -11,8 C -19,8 C 29,0 km/h (5 Bft) 100,00 %
01.03.2018 11:23 -7,6 C 2,8 C 72 % 1010,7 hPa 0,0 l/m 24,3 km/h (4 Bft) O 94 1 min 0,000 mm 1,2 UV-I 508 W/m -11,8 C -21,7 C 33,8 km/h (5 Bft) 100,00 %
01.03.2018 11:24 -7,6 C 2,8 C 72 % 1010,7 hPa 0,0 l/m 17,2 km/h (3 Bft) O-SO 103 1 min 0,000 mm 1,2 UV-I 498 W/m -11,8 C -17,7 C 25,7 km/h (4 Bft) 100,00 %
01.03.2018 11:25 -7,6 C 2,8 C 72 % 1010,7 hPa 0,0 l/m 28,0 km/h (4 Bft) O-SO 102 1 min 0,000 mm 1,1 UV-I 432 W/m -11,8 C -23,3 C 33,8 km/h (5 Bft) 100,00 %
01.03.2018 11:26 -7,6 C 2,8 C 72 % 1010,7 hPa 0,0 l/m 23,5 km/h (4 Bft) O-NO 65 1 min 0,000 mm 1,1 UV-I 424 W/m -11,8 C -21,3 C 30,6 km/h (5 Bft) 100,00 %
01.03.2018 11:27 -7,7 C 2,8 C 72 % 1010,6 hPa 0,0 l/m 21,1 km/h (4 Bft) O 84 1 min 0,000 mm 1,1 UV-I 364 W/m -11,8 C -20,2 C 29,0 km/h (5 Bft) 100,00 %
01.03.2018 11:28 -7,7 C 2,8 C 71 % 1010,6 hPa 0,0 l/m 24,5 km/h (4 Bft) O 86 1 min 0,000 mm 1,1 UV-I 397 W/m -12,0 C -21,9 C 30,6 km/h (5 Bft) 100,00 %
01.03.2018 11:29 -7,7 C 2,8 C 72 % 1010,6 hPa 0,0 l/m 22,9 km/h (4 Bft) O 98 1 min 0,000 mm 1,1 UV-I 453 W/m -11,8 C -21,1 C 30,6 km/h (5 Bft) 92,31 %
01.03.2018 11:30 -7,7 C 2,8 C 72 % 1010,6 hPa 0,0 l/m 24,9 km/h (4 Bft) O 94 1 min 0,000 mm 1,2 UV-I 470 W/m -11,8 C -22,1 C 33,8 km/h (5 Bft) 96,55 %
01.03.2018 11:31 -7,7 C 2,8 C 72 % 1010,5 hPa 0,0 l/m 24,1 km/h (4 Bft) O-NO 67 1 min 0,000 mm 1,2 UV-I 497 W/m -11,8 C -21,7 C 29,0 km/h (5 Bft) 100,00 %
01.03.2018 11:32 -7,6 C 2,8 C 72 % 1010,5 hPa 0,0 l/m 20,6 km/h (4 Bft) O 81 1 min 0,000 mm 1,3 UV-I 530 W/m -11,8 C -19,8 C 27,4 km/h (4 Bft) 91,67 %
01.03.2018 11:33 -7,5 C 2,8 C 73 % 1010,5 hPa 0,0 l/m 23,8 km/h (4 Bft) O-SO 103 1 min 0,000 mm 1,3 UV-I 533 W/m -11,5 C -21,3 C 33,8 km/h (5 Bft) 100,00 %
01.03.2018 11:34 -7,4 C 2,8 C 73 % 1010,5 hPa 0,0 l/m 25,7 km/h (4 Bft) O-NO 67 1 min 0,000 mm 1,3 UV-I 522 W/m -11,4 C -22,1 C 32,2 km/h (5 Bft) 96,30 %
01.03.2018 11:35 -7,4 C 2,8 C 72 % 1010,4 hPa 0,0 l/m 21,6 km/h (4 Bft) O 83 1 min 0,000 mm 1,3 UV-I 526 W/m -11,6 C -20,1 C 30,6 km/h (5 Bft) 96,15 %
01.03.2018 11:36 -7,4 C 2,8 C 71 % 1010,5 hPa 0,0 l/m 23,8 km/h (4 Bft) O 92 1 min 0,000 mm 1,3 UV-I 544 W/m -11,7 C -21,2 C 30,6 km/h (5 Bft) 91,67 %
01.03.2018 11:37 -7,4 C 2,8 C 72 % 1010,4 hPa 0,0 l/m 21,2 km/h (4 Bft) O-NO 76 1 min 0,000 mm 1,3 UV-I 545 W/m -11,6 C -19,9 C 27,4 km/h (4 Bft) 100,00 %
01.03.2018 11:38 -7,4 C 2,8 C 72 % 1010,4 hPa 0,0 l/m 26,9 km/h (4 Bft) O 84 1 min 0,000 mm 1,3 UV-I 544 W/m -11,6 C -22,6 C 32,2 km/h (5 Bft) 95,83 %
01.03.2018 11:39 -7,4 C 2,8 C 71 % 1010,3 hPa 0,0 l/m 18,6 km/h (3 Bft) O-NO 74 1 min 0,000 mm 1,3 UV-I 535 W/m -11,7 C -18,4 C 22,5 km/h (4 Bft) 96,15 %
01.03.2018 11:40 -7,3 C 2,8 C 71 % 1010,3 hPa 0,0 l/m 20,3 km/h (4 Bft) O-NO 66 1 min 0,000 mm 1,3 UV-I 520 W/m -11,6 C -19,2 C 29,0 km/h (5 Bft) 100,00 %
01.03.2018 11:41 -7,3 C 2,8 C 72 % 1010,3 hPa 0,0 l/m 22,9 km/h (4 Bft) O-NO 75 1 min 0,000 mm 1,3 UV-I 523 W/m -11,5 C -20,6 C 29,0 km/h (5 Bft) 100,00 %
01.03.2018 11:42 -7,2 C 2,8 C 72 % 1010,3 hPa 0,0 l/m 18,2 km/h (3 Bft) O-SO 119 1 min 0,000 mm 1,3 UV-I 541 W/m -11,4 C -17,9 C 24,1 km/h (4 Bft) 96,88 %
01.03.2018 11:43 -7,1 C 2,8 C 72 % 1010,3 hPa 0,0 l/m 24,4 km/h (4 Bft) O 101 1 min 0,000 mm 1,3 UV-I 545 W/m -11,3 C -21,1 C 30,6 km/h (5 Bft) 96,15 %
01.03.2018 11:44 -7,1 C 2,8 C 72 % 1010,3 hPa 0,0 l/m 29,0 km/h (5 Bft) O 96 1 min 0,000 mm 1,3 UV-I 542 W/m -11,3 C -23,0 C 37,0 km/h (5 Bft) 96,30 %
01.03.2018 11:45 -7,0 C 2,8 C 71 % 1010,3 hPa 0,0 l/m 23,6 km/h (4 Bft) O-NO 77 1 min 0,000 mm 1,3 UV-I 541 W/m -11,3 C -20,6 C 30,6 km/h (5 Bft) 100,00 %
01.03.2018 11:46 -7,0 C 2,8 C 71 % 1010,2 hPa 0,0 l/m 22,6 km/h (4 Bft) O-NO 63 1 min 0,000 mm 1,3 UV-I 539 W/m -11,3 C -20,1 C 29,0 km/h (5 Bft) 96,30 %
01.03.2018 11:47 -7,0 C 2,8 C 71 % 1010,3 hPa 0,0 l/m 20,0 km/h (4 Bft) O 100 1 min 0,000 mm 1,3 UV-I 546 W/m -11,3 C -18,7 C 25,7 km/h (4 Bft) 100,00 %
01.03.2018 11:48 -6,9 C 2,8 C 71 % 1010,3 hPa 0,0 l/m 21,8 km/h (4 Bft) O-NO 75 1 min 0,000 mm 1,3 UV-I 539 W/m -11,2 C -19,5 C 25,7 km/h (4 Bft) 96,15 %
01.03.2018 11:49 -6,8 C 2,8 C 71 % 1010,3 hPa 0,0 l/m 22,9 km/h (4 Bft) O 89 1 min 0,000 mm 1,3 UV-I 540 W/m -11,2 C -19,9 C 29,0 km/h (5 Bft) 96,55 %
01.03.2018 11:50 -6,8 C 2,8 C 71 % 1010,2 hPa 0,0 l/m 22,1 km/h (4 Bft) O 92 1 min 0,000 mm 1,3 UV-I 541 W/m -11,2 C -19,5 C 29,0 km/h (5 Bft) 83,33 %
01.03.2018 11:51 -6,8 C 2,8 C 71 % 1010,2 hPa 0,0 l/m 21,3 km/h (4 Bft) O 96 1 min 0,000 mm 1,3 UV-I 543 W/m -11,2 C -19,1 C 25,7 km/h (4 Bft) 96,43 %
01.03.2018 11:52 -6,8 C 2,8 C 71 % 1010,2 hPa 0,0 l/m 24,3 km/h (4 Bft) O 79 1 min 0,000 mm 1,3 UV-I 544 W/m -11,2 C -20,6 C 32,2 km/h (5 Bft) 94,12 %
01.03.2018 11:53 -6,7 C 2,8 C 70 % 1010,2 hPa 0,0 l/m 28,5 km/h (4 Bft) O 94 1 min 0,000 mm 1,3 UV-I 542 W/m -11,2 C -22,3 C 35,4 km/h (5 Bft) 96,55 %
01.03.2018 11:54 -6,7 C 2,8 C 70 % 1010,2 hPa 0,0 l/m 22,7 km/h (4 Bft) O-NO 74 1 min 0,000 mm 1,3 UV-I 544 W/m -11,2 C -19,7 C 29,0 km/h (5 Bft) 96,43 %
01.03.2018 11:55 -6,7 C 2,8 C 70 % 1010,2 hPa 0,0 l/m 24,1 km/h (4 Bft) NO 53 1 min 0,000 mm 1,3 UV-I 541 W/m -11,2 C -20,4 C 30,6 km/h (5 Bft) 100,00 %
01.03.2018 11:56 -6,6 C 2,8 C 71 % 1010,2 hPa 0,0 l/m 25,4 km/h (4 Bft) NO 56 1 min 0,000 mm 1,3 UV-I 543 W/m -11,0 C -20,8 C 33,8 km/h (5 Bft) 100,00 %
01.03.2018 11:57 -6,6 C 2,8 C 70 % 1010,1 hPa 0,0 l/m 23,5 km/h (4 Bft) O-NO 69 1 min 0,000 mm 1,3 UV-I 544 W/m -11,1 C -20,0 C 32,2 km/h (5 Bft) 100,00 %
01.03.2018 11:58 -6,6 C 2,8 C 69 % 1010,1 hPa 0,0 l/m 23,8 km/h (4 Bft) O-NO 77 1 min 0,000 mm 1,3 UV-I 546 W/m -11,3 C -20,1 C 29,0 km/h (5 Bft) 100,00 %
01.03.2018 11:59 -6,6 C 2,8 C 69 % 1010,1 hPa 0,0 l/m 19,8 km/h (3 Bft) O 96 1 min 0,000 mm 1,3 UV-I 538 W/m -11,3 C -18,0 C 25,7 km/h (4 Bft) 100,00 %
01.03.2018 12:00 -6,6 C 2,8 C 70 % 1010,0 hPa 0,0 l/m 25,7 km/h (4 Bft) O-NO 75 1 min 0,153 mm 1,3 UV-I 514 W/m -11,1 C -21,0 C 37,0 km/h (5 Bft) 100,00 %
01.03.2018 12:01 -6,5 C 2,8 C 70 % 1010,1 hPa 0,0 l/m 28,1 km/h (4 Bft) O-NO 70 1 min 0,000 mm 1,3 UV-I 510 W/m -11,0 C -21,8 C 35,4 km/h (5 Bft) 100,00 %
01.03.2018 12:02 -6,4 C 2,8 C 70 % 1010,0 hPa 0,0 l/m 27,9 km/h (4 Bft) O 80 1 min 0,000 mm 1,3 UV-I 523 W/m -10,9 C -21,6 C 33,8 km/h (5 Bft) 90,91 %
01.03.2018 12:03 -6,4 C 2,8 C 70 % 1009,9 hPa 0,0 l/m 25,8 km/h (4 Bft) O-NO 65 1 min 0,000 mm 1,3 UV-I 551 W/m -10,9 C -20,7 C 35,4 km/h (5 Bft) 100,00 %
01.03.2018 12:04 -6,4 C 2,8 C 69 % 1010,0 hPa 0,0 l/m 26,4 km/h (4 Bft) O 87 1 min 0,000 mm 1,3 UV-I 545 W/m -11,1 C -21,0 C 33,8 km/h (5 Bft) 95,65 %
01.03.2018 12:05 -6,3 C 2,8 C 69 % 1009,9 hPa 0,0 l/m 23,4 km/h (4 Bft) O-NO 78 1 min 0,000 mm 1,3 UV-I 545 W/m -11,0 C -19,5 C 32,2 km/h (5 Bft) 100,00 %
01.03.2018 12:06 -6,3 C 2,8 C 69 % 1010,0 hPa 0,0 l/m 23,1 km/h (4 Bft) O-NO 67 1 min 0,000 mm 1,4 UV-I 548 W/m -11,0 C -19,4 C 30,6 km/h (5 Bft) 100,00 %
01.03.2018 12:07 -6,2 C 2,8 C 69 % 1010,0 hPa 0,0 l/m 23,4 km/h (4 Bft) O-NO 74 1 min 0,000 mm 1,3 UV-I 513 W/m -10,9 C -19,4 C 29,0 km/h (5 Bft) 100,00 %
01.03.2018 12:08 -6,2 C 2,8 C 69 % 1010,0 hPa 0,0 l/m 24,8 km/h (4 Bft) O 88 1 min 0,000 mm 1,3 UV-I 527 W/m -10,9 C -20,0 C 30,6 km/h (5 Bft) 100,00 %
01.03.2018 12:09 -6,2 C 2,8 C 69 % 1010,0 hPa 0,0 l/m 24,5 km/h (4 Bft) O 98 1 min 0,000 mm 1,3 UV-I 539 W/m -10,9 C -19,9 C 37,0 km/h (5 Bft) 100,00 %
01.03.2018 12:10 -6,2 C 2,8 C 68 % 1010,0 hPa 0,0 l/m 25,4 km/h (4 Bft) O 96 1 min 0,000 mm 1,3 UV-I 534 W/m -11,1 C -20,3 C 30,6 km/h (5 Bft) 100,00 %
01.03.2018 12:11 -6,2 C 2,8 C 68 % 1010,0 hPa 0,0 l/m 25,6 km/h (4 Bft) O-NO 73 1 min 0,000 mm 1,4 UV-I 545 W/m -11,1 C -20,4 C 33,8 km/h (5 Bft) 100,00 %
01.03.2018 12:12 -6,1 C 2,8 C 69 % 1010,0 hPa 0,0 l/m 23,2 km/h (4 Bft) O-SO 110 1 min 0,000 mm 1,3 UV-I 535 W/m -10,8 C -19,2 C 29,0 km/h (5 Bft) 100,00 %
01.03.2018 12:13 -6,1 C 2,8 C 68 % 1010,0 hPa 0,0 l/m 24,8 km/h (4 Bft) O-NO 74 1 min 0,000 mm 1,3 UV-I 530 W/m -11,0 C -19,9 C 37,0 km/h (5 Bft) 100,00 %
01.03.2018 12:14 -6,1 C 2,8 C 68 % 1009,9 hPa 0,0 l/m 22,3 km/h (4 Bft) O 98 1 min 0,000 mm 1,3 UV-I 538 W/m -11,0 C -18,7 C 30,6 km/h (5 Bft) 100,00 %
01.03.2018 12:15 -6,0 C 2,8 C 68 % 1010,0 hPa 0,0 l/m 22,4 km/h (4 Bft) O-NO 61 1 min 0,000 mm 1,3 UV-I 519 W/m -10,9 C -18,6 C 29,0 km/h (5 Bft) 95,65 %
01.03.2018 12:16 -6,0 C 2,8 C 69 % 1010,0 hPa 0,0 l/m 21,6 km/h (4 Bft) NO 42 1 min 0,000 mm 1,2 UV-I 494 W/m -10,7 C -18,2 C 27,4 km/h (4 Bft) 100,00 %
01.03.2018 12:17 -5,9 C 2,8 C 69 % 1009,9 hPa 0,0 l/m 23,6 km/h (4 Bft) O-NO 66 1 min 0,000 mm 1,3 UV-I 494 W/m -10,6 C -19,1 C 32,2 km/h (5 Bft) 100,00 %
01.03.2018 12:18 -6,0 C 2,8 C 68 % 1009,9 hPa 0,0 l/m 19,9 km/h (4 Bft) O-NO 63 1 min 0,000 mm 1,3 UV-I 501 W/m -10,9 C -17,3 C 22,5 km/h (4 Bft) 100,00 %
01.03.2018 12:19 -5,9 C 2,8 C 68 % 1009,9 hPa 0,0 l/m 18,6 km/h (3 Bft) NO 56 1 min 0,000 mm 1,3 UV-I 467 W/m -10,8 C -16,5 C 29,0 km/h (5 Bft) 100,00 %
01.03.2018 12:20 -5,9 C 2,8 C 69 % 1009,9 hPa 0,0 l/m 19,9 km/h (4 Bft) SO 126 1 min 0,000 mm 1,3 UV-I 453 W/m -10,6 C -17,2 C 30,6 km/h (5 Bft) 100,00 %
01.03.2018 12:21 -5,9 C 2,8 C 69 % 1009,9 hPa 0,0 l/m 23,5 km/h (4 Bft) O-SO 110 1 min 0,000 mm 1,3 UV-I 457 W/m -10,6 C -19,0 C 32,2 km/h (5 Bft) 100,00 %
01.03.2018 12:22 -5,9 C 2,8 C 68 % 1009,9 hPa 0,0 l/m 27,4 km/h (4 Bft) O 101 1 min 0,000 mm 1,3 UV-I 482 W/m -10,8 C -20,7 C 37,0 km/h (5 Bft) 100,00 %
01.03.2018 12:23 -5,9 C 2,8 C 68 % 1009,9 hPa 0,0 l/m 23,4 km/h (4 Bft) O 80 1 min 0,000 mm 1,3 UV-I 485 W/m -10,8 C -19,0 C 29,0 km/h (5 Bft) 100,00 %
01.03.2018 12:24 -5,9 C 2,8 C 68 % 1010,0 hPa 0,0 l/m 27,9 km/h (4 Bft) O 90 1 min 0,000 mm 1,3 UV-I 515 W/m -10,8 C -20,9 C 32,2 km/h (5 Bft) 100,00 %
01.03.2018 12:25 -5,8 C 2,8 C 68 % 1009,9 hPa 0,0 l/m 25,3 km/h (4 Bft) O 83 1 min 0,000 mm 1,3 UV-I 513 W/m -10,7 C -19,7 C 33,8 km/h (5 Bft) 100,00 %
01.03.2018 12:26 -5,8 C 2,8 C 68 % 1009,9 hPa 0,0 l/m 20,0 km/h (4 Bft) O 96 1 min 0,000 mm 1,3 UV-I 520 W/m -10,7 C -17,1 C 24,1 km/h (4 Bft) 100,00 %
01.03.2018 12:27 -5,8 C 2,8 C 67 % 1009,9 hPa 0,0 l/m 20,7 km/h (4 Bft) O 90 1 min 0,000 mm 1,3 UV-I 515 W/m -10,9 C -17,5 C 25,7 km/h (4 Bft) 100,00 %
01.03.2018 12:28 -5,8 C 2,8 C 67 % 1009,9 hPa 0,0 l/m 23,8 km/h (4 Bft) O-NO 76 1 min 0,000 mm 1,3 UV-I 510 W/m -10,9 C -19,0 C 32,2 km/h (5 Bft) 93,33 %
01.03.2018 12:29 -5,8 C 2,8 C 67 % 1009,9 hPa 0,0 l/m 23,5 km/h (4 Bft) NO 48 1 min 0,000 mm 1,3 UV-I 512 W/m -10,9 C -18,9 C 30,6 km/h (5 Bft) 100,00 %
01.03.2018 12:30 -5,8 C 2,8 C 67 % 1009,9 hPa 0,0 l/m 20,3 km/h (4 Bft) O-SO 109 1 min 0,000 mm 1,3 UV-I 545 W/m -10,9 C -17,3 C 24,1 km/h (4 Bft) 100,00 %
01.03.2018 12:31 -5,8 C 2,8 C 68 % 1009,9 hPa 0,0 l/m 21,5 km/h (4 Bft) O 92 1 min 0,000 mm 1,3 UV-I 533 W/m -10,7 C -17,9 C 25,7 km/h (4 Bft) 100,00 %
01.03.2018 12:32 -5,7 C 2,8 C 68 % 1009,9 hPa 0,0 l/m 21,2 km/h (4 Bft) O 82 1 min 0,000 mm 1,3 UV-I 514 W/m -10,6 C -17,6 C 29,0 km/h (5 Bft) 100,00 %
01.03.2018 12:33 -5,7 C 2,8 C 68 % 1009,9 hPa 0,0 l/m 20,2 km/h (4 Bft) O 80 1 min 0,000 mm 1,3 UV-I 510 W/m -10,6 C -17,1 C 24,1 km/h (4 Bft) 100,00 %
01.03.2018 12:34 -5,6 C 2,8 C 67 % 1010,0 hPa 0,0 l/m 21,1 km/h (4 Bft) O 94 1 min 0,000 mm 1,3 UV-I 510 W/m -10,7 C -17,5 C 25,7 km/h (4 Bft) 100,00 %
01.03.2018 12:35 -5,6 C 2,8 C 67 % 1010,0 hPa 0,0 l/m 19,6 km/h (3 Bft) O 96 1 min 0,000 mm 1,3 UV-I 527 W/m -10,7 C -16,6 C 24,1 km/h (4 Bft) 100,00 %
01.03.2018 12:36 -5,6 C 2,8 C 66 % 1009,9 hPa 0,0 l/m 18,9 km/h (3 Bft) O 87 1 min 0,000 mm 1,3 UV-I 532 W/m -10,9 C -16,2 C 22,5 km/h (4 Bft) 100,00 %
01.03.2018 12:37 -5,5 C 2,8 C 67 % 1009,9 hPa 0,0 l/m 22,9 km/h (4 Bft) O 90 1 min 0,000 mm 1,3 UV-I 540 W/m -10,6 C -18,2 C 29,0 km/h (5 Bft) 95,83 %
01.03.2018 12:38 -5,5 C 2,8 C 67 % 1009,9 hPa 0,0 l/m 22,3 km/h (4 Bft) O 82 1 min 0,000 mm 1,3 UV-I 532 W/m -10,6 C -17,9 C 32,2 km/h (5 Bft) 100,00 %
01.03.2018 12:39 -5,6 C 2,8 C 67 % 1009,8 hPa 0,0 l/m 16,0 km/h (3 Bft) O-NO 76 1 min 0,000 mm 1,3 UV-I 506 W/m -10,7 C -14,5 C 22,5 km/h (4 Bft) 100,00 %
01.03.2018 12:40 -5,3 C 2,8 C 68 % 1009,7 hPa 0,0 l/m 16,1 km/h (3 Bft) O-NO 78 1 min 0,000 mm 1,3 UV-I 494 W/m -10,3 C -14,1 C 22,5 km/h (4 Bft) 93,10 %
01.03.2018 12:41 -5,2 C 2,8 C 68 % 1009,7 hPa 0,0 l/m 21,9 km/h (4 Bft) O 84 1 min 0,000 mm 1,3 UV-I 515 W/m -10,2 C -17,3 C 29,0 km/h (5 Bft) 100,00 %
01.03.2018 12:42 -5,2 C 2,8 C 67 % 1009,9 hPa 0,0 l/m 19,0 km/h (3 Bft) O 96 1 min 0,000 mm 1,3 UV-I 526 W/m -10,3 C -15,8 C 29,0 km/h (5 Bft) 100,00 %
01.03.2018 12:43 -5,2 C 2,8 C 66 % 1009,8 hPa 0,0 l/m 21,6 km/h (4 Bft) O-SO 104 1 min 0,000 mm 1,3 UV-I 519 W/m -10,5 C -17,2 C 32,2 km/h (5 Bft) 100,00 %
01.03.2018 12:44 -5,2 C 2,8 C 66 % 1009,8 hPa 0,0 l/m 25,2 km/h (4 Bft) O-SO 120 1 min 0,000 mm 1,3 UV-I 520 W/m -10,5 C -18,9 C 33,8 km/h (5 Bft) 100,00 %
01.03.2018 12:45 -5,2 C 2,8 C 66 % 1009,7 hPa 0,0 l/m 24,4 km/h (4 Bft) O 94 1 min 0,000 mm 1,3 UV-I 534 W/m -10,5 C -18,5 C 33,8 km/h (5 Bft) 100,00 %
01.03.2018 12:46 -5,2 C 2,8 C 66 % 1009,8 hPa 0,0 l/m 19,4 km/h (3 Bft) O 96 1 min 0,000 mm 1,3 UV-I 545 W/m -10,5 C -16,0 C 30,6 km/h (5 Bft) 100,00 %
01.03.2018 12:47 -5,2 C 2,8 C 67 % 1009,7 hPa 0,0 l/m 17,5 km/h (3 Bft) O 80 1 min 0,000 mm 1,3 UV-I 550 W/m -10,3 C -14,9 C 27,4 km/h (4 Bft) 96,30 %
01.03.2018 12:48 -5,2 C 2,8 C 66 % 1009,7 hPa 0,0 l/m 26,6 km/h (4 Bft) O 88 1 min 0,000 mm 1,3 UV-I 543 W/m -10,5 C -19,4 C 33,8 km/h (5 Bft) 100,00 %
01.03.2018 12:49 -5,2 C 2,8 C 66 % 1009,7 hPa 0,0 l/m 22,6 km/h (4 Bft) O 94 1 min 0,000 mm 1,4 UV-I 550 W/m -10,5 C -17,7 C 30,6 km/h (5 Bft) 100,00 %
01.03.2018 12:50 -5,3 C 2,8 C 66 % 1009,6 hPa 0,0 l/m 22,0 km/h (4 Bft) O 95 1 min 0,000 mm 1,4 UV-I 568 W/m -10,6 C -17,5 C 29,0 km/h (5 Bft) 100,00 %
01.03.2018 12:51 -5,3 C 2,8 C 65 % 1009,6 hPa 0,0 l/m 22,1 km/h (4 Bft) O 96 1 min 0,000 mm 1,4 UV-I 576 W/m -10,8 C -17,6 C 27,4 km/h (4 Bft) 96,30 %
01.03.2018 12:52 -5,2 C 2,8 C 66 % 1009,7 hPa 0,0 l/m 18,9 km/h (3 Bft) O 88 1 min 0,000 mm 1,4 UV-I 579 W/m -10,5 C -15,7 C 25,7 km/h (4 Bft) 98,22 %
01.03.2018 12:53 -5,1 C 2,8 C 67 % 1009,6 hPa 0,0 l/m 21,3 km/h (4 Bft) O-SO 115 1 min 0,000 mm 1,4 UV-I 574 W/m -10,2 C -16,9 C 29,0 km/h (5 Bft) 97,73 %
01.03.2018 12:54 -5,1 C 2,8 C 66 % 1009,5 hPa 0,0 l/m 14,7 km/h (3 Bft) O 90 1 min 0,000 mm 1,4 UV-I 579 W/m -10,4 C -12,9 C 17,7 km/h (3 Bft) 100,00 %
01.03.2018 12:55 -5,0 C 2,8 C 66 % 1009,5 hPa 0,0 l/m 23,9 km/h (4 Bft) O 84 1 min 0,000 mm 1,3 UV-I 555 W/m -10,3 C -18,0 C 29,0 km/h (5 Bft) 100,00 %
01.03.2018 12:56 -5,0 C 2,8 C 65 % 1009,5 hPa 0,0 l/m 25,0 km/h (4 Bft) O 94 1 min 0,000 mm 1,3 UV-I 541 W/m -10,5 C -18,5 C 30,6 km/h (5 Bft) 100,00 %
01.03.2018 12:57 -5,0 C 2,8 C 65 % 1009,4 hPa 0,0 l/m 22,9 km/h (4 Bft) NO 49 1 min 0,000 mm 1,3 UV-I 535 W/m -10,5 C -17,5 C 29,0 km/h (5 Bft) 100,00 %
01.03.2018 12:58 -5,0 C 2,8 C 66 % 1009,4 hPa 0,0 l/m 20,2 km/h (4 Bft) O-NO 77 1 min 0,000 mm 1,3 UV-I 512 W/m -10,3 C -16,2 C 32,2 km/h (5 Bft) 100,00 %
01.03.2018 12:59 -4,9 C 2,8 C 66 % 1009,4 hPa 0,0 l/m 18,0 km/h (3 Bft) O-SO 104 1 min 0,000 mm 1,3 UV-I 524 W/m -10,2 C -14,8 C 24,1 km/h (4 Bft) 96,88 %
01.03.2018 13:00 -4,9 C 2,8 C 66 % 1009,4 hPa 0,0 l/m 22,4 km/h (4 Bft) O 93 1 min 0,000 mm 1,3 UV-I 546 W/m -10,2 C -17,2 C 29,0 km/h (5 Bft) 96,30 %
01.03.2018 13:01 -4,9 C 2,8 C 65 % 1009,5 hPa 0,0 l/m 26,1 km/h (4 Bft) O-SO 121 1 min 0,177 mm 1,3 UV-I 523 W/m -10,4 C -18,8 C 35,4 km/h (5 Bft) 100,00 %
01.03.2018 13:02 -4,9 C 2,8 C 65 % 1009,4 hPa 0,0 l/m 30,7 km/h (5 Bft) O 101 1 min 0,000 mm 1,3 UV-I 519 W/m -10,4 C -20,5 C 41,8 km/h (6 Bft) 86,67 %
01.03.2018 13:03 -5,0 C 2,8 C 64 % 1009,4 hPa 0,0 l/m 29,0 km/h (5 Bft) O 87 1 min 0,000 mm 1,3 UV-I 521 W/m -10,7 C -20,1 C 37,0 km/h (5 Bft) 95,45 %
01.03.2018 13:04 -5,1 C 2,8 C 64 % 1009,4 hPa 0,0 l/m 29,9 km/h (5 Bft) O-SO 103 1 min 0,000 mm 1,3 UV-I 482 W/m -10,8 C -20,5 C 38,6 km/h (5 Bft) 100,00 %
01.03.2018 13:05 -5,1 C 2,8 C 65 % 1009,4 hPa 0,0 l/m 28,3 km/h (4 Bft) O 86 1 min 0,000 mm 1,2 UV-I 412 W/m -10,6 C -20,0 C 37,0 km/h (5 Bft) 92,31 %
01.03.2018 13:06 -5,2 C 2,8 C 64 % 1009,3 hPa 0,0 l/m 28,2 km/h (4 Bft) O 89 1 min 0,000 mm 1,2 UV-I 419 W/m -10,9 C -20,1 C 35,4 km/h (5 Bft) 100,00 %
01.03.2018 13:07 -5,2 C 2,8 C 65 % 1009,3 hPa 0,0 l/m 22,8 km/h (4 Bft) O 82 1 min 0,000 mm 1,2 UV-I 438 W/m -10,7 C -17,8 C 29,0 km/h (5 Bft) 96,15 %
01.03.2018 13:08 -5,3 C 2,8 C 65 % 1009,2 hPa 0,0 l/m 29,9 km/h (5 Bft) O 96 1 min 0,000 mm 1,2 UV-I 457 W/m -10,8 C -20,8 C 37,0 km/h (5 Bft) 100,00 %
01.03.2018 13:09 -5,3 C 2,8 C 65 % 1009,2 hPa 0,0 l/m 29,0 km/h (5 Bft) O 86 1 min 0,000 mm 1,2 UV-I 421 W/m -10,8 C -20,5 C 33,8 km/h (5 Bft) 96,67 %
01.03.2018 13:10 -5,3 C 2,8 C 65 % 1009,1 hPa 0,0 l/m 25,1 km/h (4 Bft) O 82 1 min 0,000 mm 1,2 UV-I 422 W/m -10,8 C -18,9 C 29,0 km/h (5 Bft) 100,00 %
01.03.2018 13:11 -5,3 C 2,8 C 65 % 1009,1 hPa 0,0 l/m 25,7 km/h (4 Bft) O-SO 111 1 min 0,000 mm 1,1 UV-I 356 W/m -10,8 C -19,2 C 33,8 km/h (5 Bft) 93,33 %
01.03.2018 13:12 -5,3 C 2,8 C 65 % 1009,1 hPa 0,0 l/m 25,1 km/h (4 Bft) O-SO 114 1 min 0,000 mm 1,1 UV-I 364 W/m -10,8 C -18,9 C 30,6 km/h (5 Bft) 96,55 %
01.03.2018 13:13 -5,3 C 2,8 C 65 % 1009,1 hPa 0,0 l/m 25,3 km/h (4 Bft) O-SO 107 1 min 0,000 mm 1,2 UV-I 364 W/m -10,8 C -19,0 C 30,6 km/h (5 Bft) 100,00 %
01.03.2018 13:14 -5,2 C 2,8 C 66 % 1009,1 hPa 0,0 l/m 24,1 km/h (4 Bft) O 80 1 min 0,000 mm 1,1 UV-I 426 W/m -10,5 C -18,4 C 30,6 km/h (5 Bft) 96,15 %
01.03.2018 13:15 -5,2 C 2,8 C 66 % 1009,1 hPa 0,0 l/m 22,7 km/h (4 Bft) O 94 1 min 0,000 mm 1,2 UV-I 460 W/m -10,5 C -17,7 C 29,0 km/h (5 Bft) 100,00 %
01.03.2018 13:16 -5,2 C 2,8 C 65 % 1009,2 hPa 0,0 l/m 21,6 km/h (4 Bft) O 96 1 min 0,000 mm 1,2 UV-I 459 W/m -10,7 C -17,2 C 29,0 km/h (5 Bft) 92,86 %
01.03.2018 13:17 -5,2 C 2,8 C 65 % 1009,1 hPa 0,0 l/m 22,2 km/h (4 Bft) O-SO 109 1 min 0,000 mm 1,2 UV-I 466 W/m -10,7 C -17,5 C 33,8 km/h (5 Bft) 100,00 %
01.03.2018 13:18 -5,1 C 2,8 C 66 % 1009,1 hPa 0,0 l/m 27,5 km/h (4 Bft) O 99 1 min 0,000 mm 1,1 UV-I 426 W/m -10,4 C -19,7 C 40,2 km/h (6 Bft) 96,15 %
01.03.2018 13:19 -5,1 C 2,8 C 66 % 1009,0 hPa 0,0 l/m 28,2 km/h (4 Bft) O 90 1 min 0,000 mm 1,1 UV-I 452 W/m -10,4 C -19,9 C 38,6 km/h (5 Bft) 100,00 %
01.03.2018 13:20 -5,1 C 2,8 C 65 % 1008,9 hPa 0,0 l/m 29,0 km/h (5 Bft) O 93 1 min 0,000 mm 1,2 UV-I 447 W/m -10,6 C -20,2 C 38,6 km/h (5 Bft) 96,15 %
01.03.2018 13:21 -5,1 C 2,8 C 65 % 1008,9 hPa 0,0 l/m 24,9 km/h (4 Bft) O-SO 107 1 min 0,000 mm 1,1 UV-I 405 W/m -10,6 C -18,6 C 30,6 km/h (5 Bft) 95,83 %
01.03.2018 13:22 -5,1 C 2,8 C 65 % 1008,8 hPa 0,0 l/m 30,1 km/h (5 Bft) O 88 1 min 0,000 mm 1,0 UV-I 362 W/m -10,6 C -20,6 C 38,6 km/h (5 Bft) 95,65 %
01.03.2018 13:23 -5,1 C 2,8 C 65 % 1008,8 hPa 0,0 l/m 27,4 km/h (4 Bft) O-SO 104 1 min 0,000 mm 1,1 UV-I 370 W/m -10,6 C -19,6 C 41,8 km/h (6 Bft) 95,83 %
01.03.2018 13:24 -5,1 C 2,8 C 65 % 1008,8 hPa 0,0 l/m 28,0 km/h (4 Bft) O 101 1 min 0,000 mm 1,0 UV-I 347 W/m -10,6 C -19,8 C 32,2 km/h (5 Bft) 100,00 %
01.03.2018 13:25 -5,1 C 2,8 C 65 % 1008,8 hPa 0,0 l/m 24,2 km/h (4 Bft) O 89 1 min 0,000 mm 1,0 UV-I 335 W/m -10,6 C -18,3 C 30,6 km/h (5 Bft) 100,00 %
01.03.2018 13:26 -5,1 C 2,8 C 66 % 1008,8 hPa 0,0 l/m 20,2 km/h (4 Bft) O-SO 102 1 min 0,000 mm 1,0 UV-I 342 W/m -10,4 C -16,3 C 25,7 km/h (4 Bft) 100,00 %
01.03.2018 13:27 -5,1 C 2,8 C 66 % 1008,8 hPa 0,0 l/m 20,4 km/h (4 Bft) O 87 1 min 0,000 mm 1,0 UV-I 328 W/m -10,4 C -16,4 C 25,7 km/h (4 Bft) 91,67 %
01.03.2018 13:28 -5,1 C 2,8 C 65 % 1008,8 hPa 0,0 l/m 18,6 km/h (3 Bft) O 100 1 min 0,000 mm 1,0 UV-I 366 W/m -10,6 C -15,4 C 24,1 km/h (4 Bft) 100,00 %
01.03.2018 13:29 -5,1 C 2,8 C 66 % 1008,8 hPa 0,0 l/m 21,1 km/h (4 Bft) O 86 0 min 0,000 mm 1,0 UV-I 294 W/m -10,4 C -16,8 C 29,0 km/h (5 Bft) 100,00 %
01.03.2018 13:30 -5,0 C 2,8 C 66 % 1008,8 hPa 0,0 l/m 25,6 km/h (4 Bft) O-SO 108 0 min 0,000 mm 1,2 UV-I 294 W/m -10,3 C -18,7 C 32,2 km/h (5 Bft) 100,00 %
01.03.2018 13:31 -5,0 C 2,8 C 66 % 1008,8 hPa 0,0 l/m 25,5 km/h (4 Bft) O-NO 74 0 min 0,000 mm 0,9 UV-I 266 W/m -10,3 C -18,7 C 30,6 km/h (5 Bft) 100,00 %
01.03.2018 13:32 -5,0 C 2,8 C 66 % 1008,8 hPa 0,0 l/m 25,7 km/h (4 Bft) O 99 0 min 0,000 mm 0,9 UV-I 233 W/m -10,3 C -18,8 C 33,8 km/h (5 Bft) 100,00 %
01.03.2018 13:33 -5,0 C 2,8 C 66 % 1008,8 hPa 0,0 l/m 24,3 km/h (4 Bft) O 83 0 min 0,000 mm 1,0 UV-I 253 W/m -10,3 C -18,2 C 32,2 km/h (5 Bft) 100,00 %
01.03.2018 13:34 -4,9 C 2,8 C 66 % 1008,8 hPa 0,0 l/m 24,1 km/h (4 Bft) O 90 0 min 0,000 mm 1,0 UV-I 253 W/m -10,2 C -18,0 C 35,4 km/h (5 Bft) 100,00 %
01.03.2018 13:35 -5,0 C 2,8 C 65 % 1008,8 hPa 0,0 l/m 26,2 km/h (4 Bft) O 99 0 min 0,000 mm 0,8 UV-I 208 W/m -10,5 C -19,0 C 30,6 km/h (5 Bft) 100,00 %
01.03.2018 13:36 -5,1 C 2,8 C 65 % 1008,8 hPa 0,0 l/m 27,4 km/h (4 Bft) O 101 0 min 0,000 mm 0,8 UV-I 217 W/m -10,6 C -19,6 C 35,4 km/h (5 Bft) 95,83 %
01.03.2018 13:37 -5,1 C 2,8 C 65 % 1008,9 hPa 0,0 l/m 27,7 km/h (4 Bft) O-SO 111 0 min 0,000 mm 0,8 UV-I 201 W/m -10,6 C -19,7 C 38,6 km/h (5 Bft) 100,00 %
01.03.2018 13:38 -5,1 C 2,8 C 65 % 1008,8 hPa 0,0 l/m 22,7 km/h (4 Bft) O 86 0 min 0,000 mm 0,9 UV-I 264 W/m -10,6 C -17,6 C 29,0 km/h (5 Bft) 100,00 %
01.03.2018 13:39 -5,1 C 2,8 C 65 % 1008,9 hPa 0,0 l/m 24,1 km/h (4 Bft) O 98 0 min 0,000 mm 0,9 UV-I 277 W/m -10,6 C -18,2 C 29,0 km/h (5 Bft) 100,00 %
01.03.2018 13:40 -5,1 C 2,8 C 65 % 1008,8 hPa 0,0 l/m 21,5 km/h (4 Bft) O 84 0 min 0,000 mm 0,8 UV-I 234 W/m -10,6 C -17,0 C 27,4 km/h (4 Bft) 100,00 %
01.03.2018 13:41 -5,1 C 2,8 C 66 % 1008,8 hPa 0,0 l/m 18,8 km/h (3 Bft) O-SO 109 0 min 0,000 mm 0,8 UV-I 257 W/m -10,4 C -15,6 C 25,7 km/h (4 Bft) 100,00 %
01.03.2018 13:42 -5,1 C 2,8 C 66 % 1008,8 hPa 0,0 l/m 20,4 km/h (4 Bft) O 95 0 min 0,000 mm 0,8 UV-I 227 W/m -10,4 C -16,4 C 30,6 km/h (5 Bft) 100,00 %
01.03.2018 13:43 -5,1 C 2,8 C 66 % 1008,7 hPa 0,0 l/m 22,5 km/h (4 Bft) O 100 0 min 0,000 mm 0,8 UV-I 248 W/m -10,4 C -17,5 C 30,6 km/h (5 Bft) 100,00 %
01.03.2018 13:44 -5,0 C 2,8 C 65 % 1008,7 hPa 0,0 l/m 21,1 km/h (4 Bft) O-NO 74 0 min 0,000 mm 0,8 UV-I 263 W/m -10,5 C -16,7 C 33,8 km/h (5 Bft) 100,00 %
01.03.2018 13:45 -5,1 C 2,8 C 65 % 1008,7 hPa 0,0 l/m 19,6 km/h (3 Bft) O-NO 69 0 min 0,000 mm 0,9 UV-I 283 W/m -10,6 C -16,0 C 25,7 km/h (4 Bft) 100,00 %
01.03.2018 13:46 -5,1 C 2,8 C 66 % 1008,7 hPa 0,0 l/m 21,9 km/h (4 Bft) O 80 1 min 0,000 mm 0,9 UV-I 292 W/m -10,4 C -17,2 C 27,4 km/h (4 Bft) 100,00 %
01.03.2018 13:47 -5,1 C 2,8 C 66 % 1008,7 hPa 0,0 l/m 25,6 km/h (4 Bft) O 91 1 min 0,000 mm 0,9 UV-I 313 W/m -10,4 C -18,9 C 30,6 km/h (5 Bft) 91,30 %
01.03.2018 13:48 -5,1 C 2,8 C 66 % 1008,7 hPa 0,0 l/m 19,0 km/h (3 Bft) O-NO 74 0 min 0,000 mm 0,9 UV-I 270 W/m -10,4 C -15,7 C 24,1 km/h (4 Bft) 100,00 %
01.03.2018 13:49 -5,0 C 2,8 C 66 % 1008,8 hPa 0,0 l/m 18,7 km/h (3 Bft) O-NO 69 1 min 0,000 mm 0,8 UV-I 286 W/m -10,3 C -15,4 C 20,9 km/h (4 Bft) 100,00 %
01.03.2018 13:50 -4,9 C 2,8 C 67 % 1008,8 hPa 0,0 l/m 18,1 km/h (3 Bft) O-SO 118 1 min 0,000 mm 0,9 UV-I 340 W/m -10,1 C -14,9 C 22,5 km/h (4 Bft) 100,00 %
01.03.2018 13:51 -4,9 C 2,8 C 67 % 1008,7 hPa 0,0 l/m 15,9 km/h (3 Bft) O 97 1 min 0,000 mm 0,8 UV-I 359 W/m -10,1 C -13,5 C 25,7 km/h (4 Bft) 100,00 %
01.03.2018 13:52 -4,9 C 2,8 C 66 % 1008,7 hPa 0,0 l/m 21,7 km/h (4 Bft) O-SO 102 1 min 0,000 mm 0,9 UV-I 285 W/m -10,2 C -16,8 C 27,4 km/h (4 Bft) 100,00 %
01.03.2018 13:53 -4,9 C 2,8 C 66 % 1008,8 hPa 0,0 l/m 18,0 km/h (3 Bft) O-SO 104 1 min 0,000 mm 0,9 UV-I 351 W/m -10,2 C -14,8 C 22,5 km/h (4 Bft) 100,00 %
01.03.2018 13:54 -4,9 C 2,8 C 66 % 1008,7 hPa 0,0 l/m 19,0 km/h (3 Bft) O 81 1 min 0,000 mm 0,8 UV-I 329 W/m -10,2 C -15,4 C 20,9 km/h (4 Bft) 100,00 %
01.03.2018 13:55 -4,9 C 2,8 C 66 % 1008,7 hPa 0,0 l/m 23,9 km/h (4 Bft) O 98 1 min 0,000 mm 0,8 UV-I 303 W/m -10,2 C -17,9 C 29,0 km/h (5 Bft) 100,00 %
01.03.2018 13:56 -4,9 C 2,8 C 65 % 1008,7 hPa 0,0 l/m 23,9 km/h (4 Bft) O-SO 109 0 min 0,000 mm 0,9 UV-I 276 W/m -10,4 C -17,9 C 30,6 km/h (5 Bft) 100,00 %
01.03.2018 13:57 -4,9 C 2,8 C 65 % 1008,7 hPa 0,0 l/m 24,6 km/h (4 Bft) O-SO 103 0 min 0,000 mm 1,0 UV-I 274 W/m -10,4 C -18,2 C 30,6 km/h (5 Bft) 96,30 %
01.03.2018 13:58 -4,9 C 2,8 C 65 % 1008,7 hPa 0,0 l/m 27,2 km/h (4 Bft) O 92 0 min 0,000 mm 0,9 UV-I 274 W/m -10,4 C -19,3 C 37,0 km/h (5 Bft) 100,00 %
01.03.2018 13:59 -4,9 C 2,8 C 65 % 1008,7 hPa 0,0 l/m 19,3 km/h (3 Bft) O 88 1 min 0,000 mm 1,0 UV-I 303 W/m -10,4 C -15,6 C 25,7 km/h (4 Bft) 100,00 %
01.03.2018 14:00 -4,8 C 2,8 C 66 % 1008,8 hPa 0,0 l/m 23,3 km/h (4 Bft) O-SO 103 1 min 0,000 mm 1,0 UV-I 435 W/m -10,2 C -17,5 C 29,0 km/h (5 Bft) 100,00 %
01.03.2018 14:01 -4,8 C 2,8 C 65 % 1008,8 hPa 0,0 l/m 21,5 km/h (4 Bft) O 90 1 min 0,127 mm 1,0 UV-I 462 W/m -10,3 C -16,6 C 24,1 km/h (4 Bft) 100,00 %
01.03.2018 14:02 -4,7 C 2,8 C 65 % 1008,8 hPa 0,0 l/m 18,5 km/h (3 Bft) O 97 1 min 0,000 mm 1,0 UV-I 489 W/m -10,2 C -14,9 C 24,1 km/h (4 Bft) 100,00 %
01.03.2018 14:03 -4,7 C 2,8 C 65 % 1008,9 hPa 0,0 l/m 21,5 km/h (4 Bft) O-SO 104 1 min 0,000 mm 1,0 UV-I 485 W/m -10,2 C -16,5 C 29,0 km/h (5 Bft) 100,00 %
01.03.2018 14:04 -4,7 C 2,8 C 64 % 1008,9 hPa 0,0 l/m 18,7 km/h (3 Bft) SO 146 1 min 0,000 mm 0,9 UV-I 458 W/m -10,4 C -15,0 C 22,5 km/h (4 Bft) 100,00 %
01.03.2018 14:05 -4,7 C 2,8 C 65 % 1008,9 hPa 0,0 l/m 17,5 km/h (3 Bft) O-SO 113 1 min 0,000 mm 0,9 UV-I 315 W/m -10,2 C -14,3 C 22,5 km/h (4 Bft) 100,00 %
01.03.2018 14:06 -4,7 C 2,8 C 65 % 1008,8 hPa 0,0 l/m 24,7 km/h (4 Bft) O-SO 109 1 min 0,000 mm 1,0 UV-I 378 W/m -10,2 C -18,0 C 30,6 km/h (5 Bft) 98,27 %
01.03.2018 14:07 -4,7 C 2,8 C 65 % 1008,9 hPa 0,0 l/m 24,5 km/h (4 Bft) O 98 1 min 0,000 mm 1,0 UV-I 426 W/m -10,2 C -17,9 C 37,0 km/h (5 Bft) 97,73 %
01.03.2018 14:08 -4,6 C 2,8 C 65 % 1008,8 hPa 0,0 l/m 26,1 km/h (4 Bft) O 99 1 min 0,000 mm 0,9 UV-I 390 W/m -10,2 C -18,4 C 32,2 km/h (5 Bft) 100,00 %
01.03.2018 14:09 -4,6 C 2,8 C 64 % 1008,8 hPa 0,0 l/m 22,2 km/h (4 Bft) O-NO 78 1 min 0,000 mm 0,9 UV-I 332 W/m -10,3 C -16,7 C 29,0 km/h (5 Bft) 100,00 %
01.03.2018 14:10 -4,6 C 2,8 C 64 % 1008,8 hPa 0,0 l/m 18,3 km/h (3 Bft) O-SO 104 1 min 0,000 mm 0,9 UV-I 367 W/m -10,3 C -14,6 C 25,7 km/h (4 Bft) 100,00 %
01.03.2018 14:11 -4,6 C 2,8 C 65 % 1008,8 hPa 0,0 l/m 20,6 km/h (4 Bft) O-NO 68 1 min 0,000 mm 1,0 UV-I 405 W/m -10,2 C -15,9 C 25,7 km/h (4 Bft) 100,00 %
01.03.2018 14:12 -4,5 C 2,8 C 65 % 1008,8 hPa 0,0 l/m 21,9 km/h (4 Bft) O-SO 103 1 min 0,000 mm 1,0 UV-I 474 W/m -10,1 C -16,4 C 24,1 km/h (4 Bft) 100,00 %
01.03.2018 14:13 -4,4 C 2,8 C 65 % 1008,8 hPa 0,0 l/m 18,0 km/h (3 Bft) O-NO 78 1 min 0,000 mm 1,0 UV-I 477 W/m -10,0 C -14,2 C 24,1 km/h (4 Bft) 94,12 %
01.03.2018 14:14 -4,3 C 2,8 C 65 % 1008,8 hPa 0,0 l/m 19,4 km/h (3 Bft) O-SO 111 1 min 0,000 mm 0,9 UV-I 421 W/m -9,9 C -14,9 C 27,4 km/h (4 Bft) 100,00 %
01.03.2018 14:15 -4,3 C 2,8 C 65 % 1008,9 hPa 0,0 l/m 19,6 km/h (3 Bft) O 92 1 min 0,000 mm 0,9 UV-I 367 W/m -9,9 C -15,0 C 25,7 km/h (4 Bft) 100,00 %
01.03.2018 14:16 -4,3 C 2,8 C 64 % 1008,9 hPa 0,0 l/m 22,5 km/h (4 Bft) O 101 1 min 0,000 mm 0,9 UV-I 430 W/m -10,1 C -16,4 C 30,6 km/h (5 Bft) 100,00 %
01.03.2018 14:17 -4,3 C 2,8 C 64 % 1008,8 hPa 0,0 l/m 18,7 km/h (3 Bft) O-SO 107 1 min 0,000 mm 0,9 UV-I 448 W/m -10,1 C -14,5 C 25,7 km/h (4 Bft) 100,00 %
01.03.2018 14:18 -4,3 C 2,8 C 64 % 1008,8 hPa 0,0 l/m 21,2 km/h (4 Bft) O 98 1 min 0,000 mm 0,9 UV-I 454 W/m -10,1 C -15,8 C 29,0 km/h (5 Bft) 100,00 %
01.03.2018 14:19 -4,3 C 2,8 C 64 % 1008,8 hPa 0,0 l/m 23,8 km/h (4 Bft) O-SO 109 1 min 0,000 mm 0,9 UV-I 427 W/m -10,1 C -17,0 C 30,6 km/h (5 Bft) 100,00 %
01.03.2018 14:20 -4,4 C 2,8 C 63 % 1008,8 hPa 0,0 l/m 20,8 km/h (4 Bft) O-NO 65 1 min 0,000 mm 0,9 UV-I 412 W/m -10,4 C -15,7 C 30,6 km/h (5 Bft) 100,00 %
01.03.2018 14:21 -4,4 C 2,8 C 64 % 1008,8 hPa 0,0 l/m 22,2 km/h (4 Bft) O 92 1 min 0,000 mm 0,8 UV-I 322 W/m -10,2 C -16,4 C 33,8 km/h (5 Bft) 100,00 %
01.03.2018 14:23 -4,4 C 2,8 C 64 % 1008,7 hPa 0,0 l/m 23,1 km/h (4 Bft) O 92 2 min 0,000 mm 0,8 UV-I 274 W/m -10,2 C -16,8 C 32,2 km/h (5 Bft) 100,00 %
01.03.2018 14:24 -4,5 C 2,8 C 64 % 1008,7 hPa 0,0 l/m 22,7 km/h (4 Bft) O 90 1 min 0,000 mm 0,8 UV-I 337 W/m -10,3 C -16,8 C 30,6 km/h (5 Bft) 100,00 %
01.03.2018 14:25 -4,6 C 2,8 C 64 % 1008,8 hPa 0,0 l/m 20,2 km/h (4 Bft) O 90 1 min 0,000 mm 0,8 UV-I 363 W/m -10,3 C -15,7 C 29,0 km/h (5 Bft) 100,00 %
01.03.2018 14:26 -4,6 C 2,8 C 64 % 1008,8 hPa 0,0 l/m 23,5 km/h (4 Bft) O-SO 121 1 min 0,000 mm 0,8 UV-I 371 W/m -10,3 C -17,3 C 32,2 km/h (5 Bft) 100,00 %
01.03.2018 14:27 -4,5 C 2,8 C 65 % 1008,7 hPa 0,0 l/m 23,0 km/h (4 Bft) O 98 1 min 0,000 mm 0,8 UV-I 353 W/m -10,1 C -16,9 C 29,0 km/h (5 Bft) 100,00 %
01.03.2018 14:28 -4,5 C 2,8 C 65 % 1008,7 hPa 0,0 l/m 16,5 km/h (3 Bft) O 94 1 min 0,000 mm 0,8 UV-I 327 W/m -10,1 C -13,4 C 22,5 km/h (4 Bft) 100,00 %
01.03.2018 14:29 -4,4 C 2,8 C 64 % 1008,7 hPa 0,0 l/m 19,6 km/h (3 Bft) O 92 0 min 0,000 mm 0,7 UV-I 246 W/m -10,2 C -15,1 C 24,1 km/h (4 Bft) 100,00 %
01.03.2018 14:30 -4,4 C 2,8 C 64 % 1008,7 hPa 0,0 l/m 22,3 km/h (4 Bft) O-SO 103 0 min 0,000 mm 0,7 UV-I 225 W/m -10,2 C -16,5 C 29,0 km/h (5 Bft) 95,65 %
01.03.2018 14:31 -4,4 C 2,8 C 64 % 1008,7 hPa 0,0 l/m 21,4 km/h (4 Bft) O-SO 115 0 min 0,000 mm 0,7 UV-I 234 W/m -10,2 C -16,0 C 25,7 km/h (4 Bft) 100,00 %
01.03.2018 14:32 -4,5 C 2,8 C 64 % 1008,6 hPa 0,0 l/m 19,0 km/h (3 Bft) O-SO 104 1 min 0,000 mm 0,7 UV-I 285 W/m -10,3 C -14,9 C 27,4 km/h (4 Bft) 100,00 %
01.03.2018 14:33 -4,6 C 2,8 C 64 % 1008,6 hPa 0,0 l/m 24,2 km/h (4 Bft) O 101 1 min 0,000 mm 0,7 UV-I 336 W/m -10,3 C -17,6 C 30,6 km/h (5 Bft) 100,00 %
01.03.2018 14:34 -4,5 C 2,8 C 64 % 1008,6 hPa 0,0 l/m 21,8 km/h (4 Bft) O 89 1 min 0,000 mm 0,7 UV-I 306 W/m -10,3 C -16,4 C 29,0 km/h (5 Bft) 100,00 %
01.03.2018 14:35 -4,6 C 2,8 C 64 % 1008,6 hPa 0,0 l/m 22,2 km/h (4 Bft) O 87 0 min 0,000 mm 0,7 UV-I 238 W/m -10,3 C -16,7 C 29,0 km/h (5 Bft) 100,00 %
01.03.2018 14:36 -4,6 C 2,8 C 64 % 1008,6 hPa 0,0 l/m 24,0 km/h (4 Bft) O 100 0 min 0,000 mm 0,6 UV-I 201 W/m -10,3 C -17,5 C 30,6 km/h (5 Bft) 100,00 %
01.03.2018 14:37 -4,6 C 2,8 C 65 % 1008,5 hPa 0,0 l/m 23,2 km/h (4 Bft) O 100 0 min 0,000 mm 0,6 UV-I 191 W/m -10,2 C -17,2 C 29,0 km/h (5 Bft) 96,30 %
01.03.2018 14:38 -4,6 C 2,8 C 65 % 1008,6 hPa 0,0 l/m 28,1 km/h (4 Bft) O 99 0 min 0,000 mm 0,6 UV-I 198 W/m -10,2 C -19,2 C 43,5 km/h (6 Bft) 100,00 %
01.03.2018 14:39 -4,6 C 2,8 C 65 % 1008,6 hPa 0,0 l/m 23,6 km/h (4 Bft) O 88 0 min 0,000 mm 0,6 UV-I 229 W/m -10,2 C -17,3 C 32,2 km/h (5 Bft) 96,67 %
01.03.2018 14:40 -4,6 C 2,8 C 65 % 1008,6 hPa 0,0 l/m 28,9 km/h (5 Bft) O 88 1 min 0,000 mm 0,7 UV-I 273 W/m -10,2 C -19,5 C 41,8 km/h (6 Bft) 95,65 %
01.03.2018 14:41 -4,6 C 2,8 C 65 % 1008,6 hPa 0,0 l/m 23,7 km/h (4 Bft) O 92 1 min 0,000 mm 0,7 UV-I 317 W/m -10,2 C -17,4 C 30,6 km/h (5 Bft) 100,00 %
01.03.2018 14:42 -4,6 C 2,8 C 65 % 1008,6 hPa 0,0 l/m 24,9 km/h (4 Bft) O-NO 69 1 min 0,000 mm 0,7 UV-I 303 W/m -10,2 C -17,9 C 33,8 km/h (5 Bft) 96,15 %
01.03.2018 14:43 -4,6 C 2,8 C 65 % 1008,6 hPa 0,0 l/m 27,2 km/h (4 Bft) O 84 0 min 0,000 mm 0,6 UV-I 229 W/m -10,2 C -18,8 C 35,4 km/h (5 Bft) 100,00 %
01.03.2018 14:44 -4,6 C 2,8 C 65 % 1008,6 hPa 0,0 l/m 28,2 km/h (4 Bft) O-SO 104 0 min 0,000 mm 0,6 UV-I 187 W/m -10,2 C -19,2 C 37,0 km/h (5 Bft) 92,31 %
01.03.2018 14:45 -4,6 C 2,8 C 64 % 1008,5 hPa 0,0 l/m 19,9 km/h (4 Bft) O 101 1 min 0,000 mm 0,6 UV-I 249 W/m -10,3 C -15,5 C 24,1 km/h (4 Bft) 100,00 %
01.03.2018 14:46 -4,6 C 2,8 C 65 % 1008,6 hPa 0,0 l/m 24,4 km/h (4 Bft) O-SO 118 1 min 0,000 mm 0,6 UV-I 270 W/m -10,2 C -17,7 C 33,8 km/h (5 Bft) 96,15 %
01.03.2018 14:47 -4,6 C 2,8 C 65 % 1008,5 hPa 0,0 l/m 27,5 km/h (4 Bft) O 88 1 min 0,000 mm 0,6 UV-I 278 W/m -10,2 C -19,0 C 40,2 km/h (6 Bft) 100,00 %
01.03.2018 14:48 -4,7 C 2,8 C 64 % 1008,5 hPa 0,0 l/m 29,5 km/h (5 Bft) O 97 1 min 0,000 mm 0,7 UV-I 298 W/m -10,4 C -19,8 C 35,4 km/h (5 Bft) 96,30 %
01.03.2018 14:49 -4,7 C 2,8 C 64 % 1008,5 hPa 0,0 l/m 22,9 km/h (4 Bft) O-SO 111 1 min 0,000 mm 0,6 UV-I 269 W/m -10,4 C -17,2 C 30,6 km/h (5 Bft) 96,15 %
01.03.2018 14:50 -4,7 C 2,8 C 64 % 1008,6 hPa 0,0 l/m 25,7 km/h (4 Bft) O-SO 105 1 min 0,000 mm 0,6 UV-I 257 W/m -10,4 C -18,4 C 30,6 km/h (5 Bft) 100,00 %
01.03.2018 14:51 -4,6 C 2,8 C 65 % 1008,6 hPa 0,0 l/m 19,7 km/h (3 Bft) O 99 1 min 0,000 mm 0,7 UV-I 311 W/m -10,2 C -15,4 C 24,1 km/h (4 Bft) 93,33 %
01.03.2018 14:52 -4,6 C 2,8 C 65 % 1008,6 hPa 0,0 l/m 21,9 km/h (4 Bft) O-SO 117 1 min 0,000 mm 0,6 UV-I 300 W/m -10,2 C -16,5 C 30,6 km/h (5 Bft) 100,00 %
01.03.2018 14:53 -4,6 C 2,8 C 65 % 1008,6 hPa 0,0 l/m 24,6 km/h (4 Bft) NO 53 1 min 0,000 mm 0,6 UV-I 305 W/m -10,2 C -17,8 C 30,6 km/h (5 Bft) 91,30 %
01.03.2018 14:54 -4,6 C 2,8 C 65 % 1008,6 hPa 0,0 l/m 24,9 km/h (4 Bft) O 99 1 min 0,000 mm 0,6 UV-I 298 W/m -10,2 C -17,9 C 30,6 km/h (5 Bft) 100,00 %
01.03.2018 14:55 -4,6 C 2,8 C 64 % 1008,6 hPa 0,0 l/m 23,2 km/h (4 Bft) O-SO 115 1 min 0,000 mm 0,7 UV-I 346 W/m -10,3 C -17,2 C 30,6 km/h (5 Bft) 92,86 %
01.03.2018 14:56 -4,6 C 2,8 C 65 % 1008,6 hPa 0,0 l/m 24,6 km/h (4 Bft) SO 128 1 min 0,000 mm 0,7 UV-I 360 W/m -10,2 C -17,8 C 33,8 km/h (5 Bft) 100,00 %
01.03.2018 14:57 -4,5 C 2,8 C 65 % 1008,6 hPa 0,0 l/m 22,2 km/h (4 Bft) O-SO 119 1 min 0,000 mm 0,6 UV-I 317 W/m -10,1 C -16,6 C 29,0 km/h (5 Bft) 96,15 %
01.03.2018 14:58 -4,5 C 2,8 C 64 % 1008,6 hPa 0,0 l/m 17,5 km/h (3 Bft) O 86 1 min 0,000 mm 0,6 UV-I 251 W/m -10,3 C -14,0 C 22,5 km/h (4 Bft) 100,00 %
01.03.2018 14:59 -4,5 C 2,8 C 65 % 1008,7 hPa 0,0 l/m 22,7 km/h (4 Bft) O 89 0 min 0,000 mm 0,6 UV-I 213 W/m -10,1 C -16,8 C 32,2 km/h (5 Bft) 96,43 %
01.03.2018 15:00 -4,6 C 2,8 C 65 % 1008,7 hPa 0,0 l/m 23,4 km/h (4 Bft) O 92 1 min 0,127 mm 0,6 UV-I 246 W/m -10,2 C -17,2 C 29,0 km/h (5 Bft) 98,29 %
01.03.2018 15:01 -4,6 C 2,8 C 65 % 1008,6 hPa 0,0 l/m 20,1 km/h (4 Bft) NO 50 1 min 0,000 mm 0,6 UV-I 305 W/m -10,2 C -15,6 C 27,4 km/h (4 Bft) 92,86 %
01.03.2018 15:02 -4,5 C 2,8 C 65 % 1008,6 hPa 0,0 l/m 19,2 km/h (3 Bft) O 84 1 min 0,000 mm 0,6 UV-I 351 W/m -10,1 C -15,0 C 30,6 km/h (5 Bft) 96,15 %
01.03.2018 15:03 -4,5 C 2,8 C 66 % 1008,6 hPa 0,0 l/m 22,4 km/h (4 Bft) O 92 1 min 0,000 mm 0,6 UV-I 345 W/m -9,9 C -16,6 C 25,7 km/h (4 Bft) 96,15 %
01.03.2018 15:04 -4,5 C 2,8 C 65 % 1008,6 hPa 0,0 l/m 22,8 km/h (4 Bft) O-NO 70 1 min 0,000 mm 0,6 UV-I 334 W/m -10,1 C -16,8 C 27,4 km/h (4 Bft) 94,44 %
01.03.2018 15:05 -4,5 C 2,8 C 65 % 1008,5 hPa 0,0 l/m 22,4 km/h (4 Bft) O-SO 105 1 min 0,000 mm 0,5 UV-I 241 W/m -10,1 C -16,6 C 27,4 km/h (4 Bft) 100,00 %
01.03.2018 15:06 -4,5 C 2,8 C 65 % 1008,5 hPa 0,0 l/m 20,9 km/h (4 Bft) O 94 0 min 0,000 mm 0,5 UV-I 205 W/m -10,1 C -15,9 C 29,0 km/h (5 Bft) 95,65 %
01.03.2018 15:07 -4,5 C 2,8 C 66 % 1008,5 hPa 0,0 l/m 23,8 km/h (4 Bft) O-NO 78 1 min 0,000 mm 0,5 UV-I 233 W/m -9,9 C -17,3 C 32,2 km/h (5 Bft) 96,30 %
01.03.2018 15:08 -4,5 C 2,8 C 65 % 1008,4 hPa 0,0 l/m 25,3 km/h (4 Bft) O-SO 122 1 min 0,000 mm 0,6 UV-I 290 W/m -10,1 C -17,9 C 30,6 km/h (5 Bft) 100,00 %
01.03.2018 15:09 -4,5 C 2,8 C 65 % 1008,4 hPa 0,0 l/m 20,4 km/h (4 Bft) SO 127 1 min 0,000 mm 0,6 UV-I 314 W/m -10,1 C -15,7 C 27,4 km/h (4 Bft) 100,00 %
01.03.2018 15:10 -4,6 C 2,8 C 65 % 1008,4 hPa 0,0 l/m 23,0 km/h (4 Bft) O 101 1 min 0,000 mm 0,6 UV-I 319 W/m -10,2 C -17,1 C 32,2 km/h (5 Bft) 100,00 %
01.03.2018 15:11 -4,5 C 2,8 C 65 % 1008,5 hPa 0,0 l/m 25,7 km/h (4 Bft) O 98 1 min 0,000 mm 0,6 UV-I 286 W/m -10,1 C -18,1 C 33,8 km/h (5 Bft) 100,00 %
01.03.2018 15:12 -4,5 C 2,8 C 65 % 1008,5 hPa 0,0 l/m 27,3 km/h (4 Bft) O 100 1 min 0,000 mm 0,5 UV-I 262 W/m -10,1 C -18,7 C 30,6 km/h (5 Bft) 100,00 %
01.03.2018 15:13 -4,6 C 2,8 C 65 % 1008,4 hPa 0,0 l/m 28,2 km/h (4 Bft) O-SO 105 1 min 0,000 mm 0,5 UV-I 270 W/m -10,2 C -19,2 C 33,8 km/h (5 Bft) 100,00 %
01.03.2018 15:14 -4,6 C 2,8 C 65 % 1008,4 hPa 0,0 l/m 22,0 km/h (4 Bft) O-SO 103 1 min 0,000 mm 0,5 UV-I 279 W/m -10,2 C -16,6 C 27,4 km/h (4 Bft) 100,00 %
01.03.2018 15:15 -4,6 C 2,8 C 65 % 1008,4 hPa 0,0 l/m 21,6 km/h (4 Bft) NO 49 1 min 0,000 mm 0,5 UV-I 252 W/m -10,2 C -16,4 C 29,0 km/h (5 Bft) 100,00 %
01.03.2018 15:16 -4,6 C 2,8 C 65 % 1008,4 hPa 0,0 l/m 24,1 km/h (4 Bft) O 84 1 min 0,000 mm 0,5 UV-I 298 W/m -10,2 C -17,6 C 32,2 km/h (5 Bft) 81,82 %
01.03.2018 15:17 -4,6 C 2,8 C 65 % 1008,4 hPa 0,0 l/m 25,7 km/h (4 Bft) O 94 1 min 0,000 mm 0,5 UV-I 245 W/m -10,2 C -18,2 C 32,2 km/h (5 Bft) 100,00 %
01.03.2018 15:18 -4,6 C 2,8 C 65 % 1008,5 hPa 0,0 l/m 27,5 km/h (4 Bft) O-SO 112 1 min 0,000 mm 0,5 UV-I 206 W/m -10,2 C -19,0 C 35,4 km/h (5 Bft) 100,00 %
01.03.2018 15:19 -4,6 C 2,8 C 65 % 1008,4 hPa 0,0 l/m 28,8 km/h (4 Bft) O 85 1 min 0,000 mm 0,5 UV-I 209 W/m -10,2 C -19,4 C 38,6 km/h (5 Bft) 100,00 %
01.03.2018 15:20 -4,6 C 2,8 C 65 % 1008,4 hPa 0,0 l/m 25,6 km/h (4 Bft) O 99 1 min 0,000 mm 0,5 UV-I 230 W/m -10,2 C -18,2 C 33,8 km/h (5 Bft) 94,12 %
01.03.2018 15:21 -4,7 C 2,8 C 65 % 1008,3 hPa 0,0 l/m 26,6 km/h (4 Bft) O 92 1 min 0,000 mm 0,5 UV-I 236 W/m -10,2 C -18,7 C 38,6 km/h (5 Bft) 100,00 %
01.03.2018 15:22 -4,7 C 2,8 C 65 % 1008,3 hPa 0,0 l/m 25,8 km/h (4 Bft) O-SO 102 1 min 0,000 mm 0,5 UV-I 255 W/m -10,2 C -18,4 C 37,0 km/h (5 Bft) 100,00 %
01.03.2018 15:23 -4,7 C 2,8 C 65 % 1008,3 hPa 0,0 l/m 21,8 km/h (4 Bft) O 80 1 min 0,000 mm 0,5 UV-I 255 W/m -10,2 C -16,6 C 38,6 km/h (5 Bft) 100,00 %
01.03.2018 15:24 -4,7 C 2,8 C 65 % 1008,4 hPa 0,0 l/m 29,1 km/h (5 Bft) O 93 1 min 0,000 mm 0,5 UV-I 253 W/m -10,2 C -19,7 C 33,8 km/h (5 Bft) 96,30 %
01.03.2018 15:25 -4,7 C 2,8 C 65 % 1008,3 hPa 0,0 l/m 26,2 km/h (4 Bft) O-SO 113 1 min 0,000 mm 0,5 UV-I 260 W/m -10,2 C -18,6 C 33,8 km/h (5 Bft) 100,00 %
01.03.2018 15:26 -4,6 C 2,8 C 66 % 1008,3 hPa 0,0 l/m 16,9 km/h (3 Bft) O-SO 115 1 min 0,000 mm 0,5 UV-I 269 W/m -10,0 C -13,8 C 22,5 km/h (4 Bft) 96,55 %
01.03.2018 15:27 -4,6 C 2,8 C 66 % 1008,3 hPa 0,0 l/m 22,2 km/h (4 Bft) O 89 1 min 0,000 mm 0,5 UV-I 293 W/m -10,0 C -16,7 C 27,4 km/h (4 Bft) 100,00 %
01.03.2018 15:28 -4,6 C 2,8 C 66 % 1008,4 hPa 0,0 l/m 17,3 km/h (3 Bft) O 83 1 min 0,000 mm 0,5 UV-I 292 W/m -10,0 C -14,0 C 24,1 km/h (4 Bft) 96,30 %
01.03.2018 15:29 -4,5 C 2,8 C 66 % 1008,4 hPa 0,0 l/m 19,1 km/h (3 Bft) O 92 1 min 0,000 mm 0,5 UV-I 272 W/m -9,9 C -15,0 C 24,1 km/h (4 Bft) 96,15 %
01.03.2018 15:30 -4,5 C 2,8 C 66 % 1008,4 hPa 0,0 l/m 24,7 km/h (4 Bft) O-NO 78 1 min 0,000 mm 0,5 UV-I 302 W/m -9,9 C -17,7 C 29,0 km/h (5 Bft) 93,33 %
01.03.2018 15:32 -4,4 C 2,8 C 66 % 1008,4 hPa 0,0 l/m 20,7 km/h (4 Bft) O-SO 109 2 min 0,000 mm 0,5 UV-I 296 W/m -9,8 C -15,7 C 27,4 km/h (4 Bft) 98,21 %
01.03.2018 15:33 -4,4 C 2,8 C 66 % 1008,3 hPa 0,0 l/m 24,0 km/h (4 Bft) O-SO 102 1 min 0,000 mm 0,5 UV-I 299 W/m -9,8 C -17,2 C 33,8 km/h (5 Bft) 100,00 %
01.03.2018 15:34 -4,4 C 2,8 C 65 % 1008,3 hPa 0,0 l/m 28,8 km/h (4 Bft) O-SO 109 1 min 0,000 mm 0,5 UV-I 295 W/m -10,0 C -19,2 C 37,0 km/h (5 Bft) 93,33 %
01.03.2018 15:35 -4,5 C 2,8 C 65 % 1008,3 hPa 0,0 l/m 27,9 km/h (4 Bft) O 97 1 min 0,000 mm 0,2 UV-I 293 W/m -10,1 C -19,0 C 33,8 km/h (5 Bft) 97,73 %
01.03.2018 15:37 -4,5 C 2,8 C 65 % 1008,3 hPa 0,0 l/m 24,5 km/h (4 Bft) SO 124 2 min 0,000 mm 0,0 UV-I 287 W/m -10,1 C -17,6 C 33,8 km/h (5 Bft) 97,30 %
01.03.2018 15:38 -4,6 C 2,8 C 65 % 1008,3 hPa 0,0 l/m 24,0 km/h (4 Bft) O-SO 102 1 min 0,000 mm 0,0 UV-I 302 W/m -10,2 C -17,5 C 32,2 km/h (5 Bft) 100,00 %
01.03.2018 15:39 -4,5 C 2,8 C 65 % 1008,2 hPa 0,0 l/m 23,3 km/h (4 Bft) O-NO 73 1 min 0,000 mm 0,0 UV-I 297 W/m -10,1 C -17,1 C 27,4 km/h (4 Bft) 93,33 %
01.03.2018 15:40 -4,5 C 2,8 C 65 % 1008,2 hPa 0,0 l/m 25,5 km/h (4 Bft) O-SO 107 1 min 0,000 mm 0,0 UV-I 286 W/m -10,1 C -18,0 C 32,2 km/h (5 Bft) 100,00 %
01.03.2018 15:41 -4,5 C 2,8 C 66 % 1008,2 hPa 0,0 l/m 21,1 km/h (4 Bft) O 98 1 min 0,000 mm 0,0 UV-I 275 W/m -9,9 C -16,0 C 27,4 km/h (4 Bft) 96,55 %
01.03.2018 15:42 -4,4 C 2,8 C 66 % 1008,2 hPa 0,0 l/m 24,5 km/h (4 Bft) O 94 1 min 0,000 mm 0,0 UV-I 275 W/m -9,8 C -17,5 C 33,8 km/h (5 Bft) 96,30 %
01.03.2018 15:43 -4,4 C 2,8 C 66 % 1008,2 hPa 0,0 l/m 21,3 km/h (4 Bft) O 88 1 min 0,000 mm 0,0 UV-I 253 W/m -9,8 C -16,0 C 25,7 km/h (4 Bft) 100,00 %
01.03.2018 15:44 -4,4 C 2,8 C 66 % 1008,2 hPa 0,0 l/m 23,6 km/h (4 Bft) O 87 1 min 0,000 mm 0,0 UV-I 282 W/m -9,8 C -17,1 C 29,0 km/h (5 Bft) 96,88 %
01.03.2018 15:45 -4,4 C 2,8 C 66 % 1008,2 hPa 0,0 l/m 24,1 km/h (4 Bft) O 90 1 min 0,000 mm 0,0 UV-I 273 W/m -9,8 C -17,3 C 38,6 km/h (5 Bft) 100,00 %
01.03.2018 15:46 -4,4 C 2,8 C 65 % 1008,1 hPa 0,0 l/m 27,5 km/h (4 Bft) O 84 1 min 0,000 mm 0,0 UV-I 267 W/m -10,0 C -18,7 C 32,2 km/h (5 Bft) 100,00 %
01.03.2018 15:47 -4,4 C 2,8 C 65 % 1008,2 hPa 0,0 l/m 22,1 km/h (4 Bft) O 88 1 min 0,000 mm 0,0 UV-I 251 W/m -10,0 C -16,4 C 29,0 km/h (5 Bft) 96,97 %
01.03.2018 15:48 -4,4 C 2,8 C 66 % 1008,1 hPa 0,0 l/m 24,4 km/h (4 Bft) O-NO 59 1 min 0,000 mm 0,0 UV-I 240 W/m -9,8 C -17,4 C 32,2 km/h (5 Bft) 96,55 %
01.03.2018 15:49 -4,4 C 2,8 C 66 % 1008,1 hPa 0,0 l/m 28,4 km/h (4 Bft) O-SO 105 1 min 0,000 mm 0,0 UV-I 252 W/m -9,8 C -19,0 C 37,0 km/h (5 Bft) 100,00 %
01.03.2018 15:50 -4,4 C 2,8 C 66 % 1008,1 hPa 0,0 l/m 25,3 km/h (4 Bft) O-SO 103 1 min 0,000 mm 0,0 UV-I 255 W/m -9,8 C -17,8 C 32,2 km/h (5 Bft) 95,65 %
01.03.2018 15:55 -4,5 C 2,8 C 66 % 1008,0 hPa 0,0 l/m 27,4 km/h (4 Bft) O 90 5 min 0,000 mm 0,0 UV-I 228 W/m -9,9 C -18,8 C 38,6 km/h (5 Bft) 99,12 %
01.03.2018 15:56 -4,5 C 2,8 C 65 % 1008,1 hPa 0,0 l/m 39,6 km/h (6 Bft) O-SO 107 1 min 0,000 mm 0,0 UV-I 234 W/m -10,1 C -22,5 C 45,1 km/h (6 Bft) 96,24 %
01.03.2018 15:57 -4,6 C 2,8 C 65 % 1008,1 hPa 0,0 l/m 24,9 km/h (4 Bft) O 88 1 min 0,000 mm 0,0 UV-I 237 W/m -10,2 C -17,9 C 32,2 km/h (5 Bft) 94,44 %
01.03.2018 15:58 -4,6 C 2,8 C 66 % 1008,1 hPa 0,0 l/m 23,5 km/h (4 Bft) O 88 1 min 0,000 mm 0,0 UV-I 233 W/m -10,0 C -17,3 C 30,6 km/h (5 Bft) 100,00 %
01.03.2018 15:59 -4,6 C 2,8 C 66 % 1008,1 hPa 0,0 l/m 26,7 km/h (4 Bft) O-SO 103 1 min 0,000 mm 0,0 UV-I 218 W/m -10,0 C -18,7 C 33,8 km/h (5 Bft) 92,86 %
01.03.2018 16:00 -4,6 C 2,8 C 66 % 1008,1 hPa 0,0 l/m 20,4 km/h (4 Bft) O 86 1 min 0,127 mm 0,0 UV-I 201 W/m -10,0 C -15,8 C 27,4 km/h (4 Bft) 100,00 %
01.03.2018 16:01 -4,6 C 2,8 C 66 % 1008,1 hPa 0,0 l/m 22,9 km/h (4 Bft) O-NO 74 1 min 0,000 mm 0,0 UV-I 200 W/m -10,0 C -17,0 C 27,4 km/h (4 Bft) 95,65 %
01.03.2018 16:02 -4,6 C 2,8 C 66 % 1008,1 hPa 0,0 l/m 24,1 km/h (4 Bft) O 80 1 min 0,000 mm 0,0 UV-I 211 W/m -10,0 C -17,6 C 33,8 km/h (5 Bft) 100,00 %
01.03.2018 16:03 -4,6 C 2,8 C 66 % 1008,1 hPa 0,0 l/m 27,4 km/h (4 Bft) O-SO 107 1 min 0,000 mm 0,0 UV-I 209 W/m -10,0 C -18,9 C 33,8 km/h (5 Bft) 96,15 %
01.03.2018 16:05 -4,6 C 2,8 C 66 % 1008,1 hPa 0,0 l/m 24,6 km/h (4 Bft) O 97 2 min 0,000 mm 0,0 UV-I 200 W/m -10,0 C -17,8 C 25,7 km/h (4 Bft) 95,12 %
01.03.2018 16:09 -4,6 C 2,8 C 66 % 1008,0 hPa 0,0 l/m 27,3 km/h (4 Bft) O-SO 106 4 min 0,000 mm 0,0 UV-I 200 W/m -10,0 C -18,9 C 35,4 km/h (5 Bft) 97,75 %
01.03.2018 16:10 -4,6 C 2,8 C 67 % 1008,0 hPa 0,0 l/m 24,9 km/h (4 Bft) O 81 1 min 0,000 mm 0,0 UV-I 199 W/m -9,8 C -17,9 C 30,6 km/h (5 Bft) 96,88 %
01.03.2018 16:11 -4,6 C 2,8 C 67 % 1008,0 hPa 0,0 l/m 21,6 km/h (4 Bft) O 97 1 min 0,000 mm 0,0 UV-I 199 W/m -9,8 C -16,4 C 32,2 km/h (5 Bft) 100,00 %
01.03.2018 16:12 -4,6 C 2,8 C 67 % 1008,0 hPa 0,0 l/m 25,5 km/h (4 Bft) O-SO 104 1 min 0,000 mm 0,0 UV-I 196 W/m -9,8 C -18,2 C 33,8 km/h (5 Bft) 93,33 %
01.03.2018 16:13 -4,6 C 2,8 C 67 % 1008,0 hPa 0,0 l/m 26,1 km/h (4 Bft) O-SO 113 1 min 0,000 mm 0,0 UV-I 190 W/m -9,8 C -18,4 C 33,8 km/h (5 Bft) 100,00 %
01.03.2018 16:14 -4,6 C 2,8 C 67 % 1008,0 hPa 0,0 l/m 27,0 km/h (4 Bft) O-SO 105 1 min 0,000 mm 0,0 UV-I 187 W/m -9,8 C -18,8 C 32,2 km/h (5 Bft) 96,30 %
01.03.2018 16:15 -4,6 C 2,8 C 67 % 1008,0 hPa 0,0 l/m 25,2 km/h (4 Bft) O 96 1 min 0,000 mm 0,0 UV-I 184 W/m -9,8 C -18,0 C 32,2 km/h (5 Bft) 92,86 %
01.03.2018 16:20 -4,7 C 2,8 C 67 % 1008,0 hPa 0,0 l/m 25,7 km/h (4 Bft) O 90 5 min 0,000 mm 0,0 UV-I 143 W/m -9,9 C -18,4 C 40,2 km/h (6 Bft) 100,00 %
01.03.2018 16:23 -4,8 C 2,8 C 67 % 1008,0 hPa 0,0 l/m 26,6 km/h (4 Bft) O 88 0 min 0,000 mm 0,0 UV-I 119 W/m -10,0 C -18,9 C 33,8 km/h (5 Bft) 95,90 %
01.03.2018 16:24 -4,8 C 2,8 C 67 % 1008,0 hPa 0,0 l/m 24,5 km/h (4 Bft) O 101 0 min 0,000 mm 0,0 UV-I 63 W/m -10,0 C -18,0 C 30,6 km/h (5 Bft) 100,00 %
01.03.2018 16:25 -4,8 C 2,8 C 67 % 1008,0 hPa 0,0 l/m 29,7 km/h (5 Bft) O 85 0 min 0,000 mm 0,0 UV-I 59 W/m -10,0 C -20,1 C 37,0 km/h (5 Bft) 96,15 %
01.03.2018 16:26 -4,8 C 2,8 C 67 % 1008,0 hPa 0,0 l/m 26,4 km/h (4 Bft) O-NO 74 0 min 0,000 mm 0,0 UV-I 55 W/m -10,0 C -18,8 C 32,2 km/h (5 Bft) 93,33 %
01.03.2018 16:27 -4,8 C 2,8 C 67 % 1008,0 hPa 0,0 l/m 23,5 km/h (4 Bft) O-SO 109 0 min 0,000 mm 0,0 UV-I 54 W/m -10,0 C -17,6 C 30,6 km/h (5 Bft) 100,00 %
01.03.2018 16:28 -4,9 C 2,8 C 67 % 1008,0 hPa 0,0 l/m 33,2 km/h (5 Bft) O 79 0 min 0,000 mm 0,0 UV-I 55 W/m -10,1 C -21,3 C 43,5 km/h (6 Bft) 96,97 %
01.03.2018 16:29 -4,9 C 2,8 C 67 % 1007,9 hPa 0,0 l/m 25,7 km/h (4 Bft) O 84 0 min 0,000 mm 0,0 UV-I 55 W/m -10,1 C -18,7 C 33,8 km/h (5 Bft) 100,00 %
01.03.2018 16:30 -4,9 C 2,8 C 67 % 1008,0 hPa 0,0 l/m 24,5 km/h (4 Bft) O-SO 113 0 min 0,000 mm 0,0 UV-I 54 W/m -10,1 C -18,1 C 30,6 km/h (5 Bft) 92,59 %
01.03.2018 16:31 -4,9 C 2,8 C 67 % 1008,0 hPa 0,0 l/m 31,1 km/h (5 Bft) O 94 0 min 0,000 mm 0,0 UV-I 54 W/m -10,1 C -20,7 C 40,2 km/h (6 Bft) 100,00 %
01.03.2018 16:32 -4,9 C 2,8 C 67 % 1007,9 hPa 0,0 l/m 22,1 km/h (4 Bft) O 92 0 min 0,000 mm 0,0 UV-I 54 W/m -10,1 C -17,0 C 32,2 km/h (5 Bft) 92,59 %
01.03.2018 16:33 -5,0 C 2,8 C 67 % 1007,9 hPa 0,0 l/m 22,8 km/h (4 Bft) O 86 0 min 0,000 mm 0,0 UV-I 55 W/m -10,2 C -17,5 C 32,2 km/h (5 Bft) 96,15 %
01.03.2018 16:34 -5,0 C 2,8 C 67 % 1007,9 hPa 0,0 l/m 28,3 km/h (4 Bft) O 92 0 min 0,000 mm 0,0 UV-I 56 W/m -10,2 C -19,8 C 41,8 km/h (6 Bft) 93,33 %
01.03.2018 16:35 -5,0 C 2,8 C 67 % 1007,9 hPa 0,0 l/m 25,2 km/h (4 Bft) O 91 0 min 0,000 mm 0,0 UV-I 54 W/m -10,2 C -18,6 C 33,8 km/h (5 Bft) 96,15 %
01.03.2018 16:36 -5,1 C 2,8 C 67 % 1008,0 hPa 0,0 l/m 24,8 km/h (4 Bft) O 84 0 min 0,000 mm 0,0 UV-I 54 W/m -10,2 C -18,5 C 33,8 km/h (5 Bft) 92,59 %
01.03.2018 16:38 -5,1 C 2,8 C 67 % 1008,0 hPa 0,0 l/m 20,0 km/h (4 Bft) SO 125 0 min 0,000 mm 0,0 UV-I 53 W/m -10,2 C -16,2 C 27,4 km/h (4 Bft) 94,74 %
01.03.2018 16:39 -5,1 C 2,8 C 67 % 1008,0 hPa 0,0 l/m 23,3 km/h (4 Bft) O-NO 60 0 min 0,000 mm 0,0 UV-I 51 W/m -10,2 C -17,9 C 32,2 km/h (5 Bft) 93,10 %
01.03.2018 16:40 -5,1 C 2,8 C 68 % 1008,0 hPa 0,0 l/m 24,4 km/h (4 Bft) O-SO 105 0 min 0,000 mm 0,0 UV-I 51 W/m -10,1 C -18,4 C 33,8 km/h (5 Bft) 96,30 %
01.03.2018 16:41 -5,1 C 2,8 C 68 % 1008,0 hPa 0,0 l/m 24,1 km/h (4 Bft) O 82 0 min 0,000 mm 0,0 UV-I 51 W/m -10,1 C -18,2 C 37,0 km/h (5 Bft) 93,33 %
01.03.2018 16:42 -5,1 C 2,8 C 67 % 1008,0 hPa 0,0 l/m 25,5 km/h (4 Bft) O-SO 107 0 min 0,000 mm 0,0 UV-I 51 W/m -10,2 C -18,8 C 30,6 km/h (5 Bft) 100,00 %
01.03.2018 16:43 -5,2 C 2,8 C 67 % 1008,0 hPa 0,0 l/m 23,0 km/h (4 Bft) O 101 0 min 0,000 mm 0,0 UV-I 53 W/m -10,3 C -17,9 C 29,0 km/h (5 Bft) 93,75 %
01.03.2018 16:44 -5,2 C 2,8 C 68 % 1008,0 hPa 0,0 l/m 20,5 km/h (4 Bft) O 101 0 min 0,000 mm 0,0 UV-I 55 W/m -10,2 C -16,6 C 27,4 km/h (4 Bft) 95,83 %
01.03.2018 16:45 -5,2 C 2,8 C 68 % 1008,0 hPa 0,0 l/m 22,7 km/h (4 Bft) NO 50 0 min 0,000 mm 0,0 UV-I 60 W/m -10,2 C -17,7 C 30,6 km/h (5 Bft) 95,65 %
01.03.2018 16:46 -5,2 C 2,8 C 68 % 1008,0 hPa 0,0 l/m 26,1 km/h (4 Bft) O-SO 115 0 min 0,000 mm 0,0 UV-I 66 W/m -10,2 C -19,2 C 32,2 km/h (5 Bft) 83,33 %
01.03.2018 16:47 -5,2 C 2,8 C 68 % 1008,0 hPa 0,0 l/m 25,5 km/h (4 Bft) O-NO 78 0 min 0,000 mm 0,0 UV-I 69 W/m -10,2 C -19,0 C 30,6 km/h (5 Bft) 96,55 %
01.03.2018 16:48 -5,2 C 2,8 C 68 % 1008,0 hPa 0,0 l/m 20,6 km/h (4 Bft) O 95 0 min 0,000 mm 0,0 UV-I 70 W/m -10,2 C -16,7 C 29,0 km/h (5 Bft) 91,30 %
01.03.2018 16:49 -5,2 C 2,8 C 69 % 1008,0 hPa 0,0 l/m 21,2 km/h (4 Bft) O-SO 104 0 min 0,000 mm 0,0 UV-I 67 W/m -10,0 C -17,0 C 29,0 km/h (5 Bft) 93,33 %
01.03.2018 16:50 -5,3 C 2,8 C 69 % 1008,1 hPa 0,0 l/m 24,8 km/h (4 Bft) O-SO 113 0 min 0,000 mm 0,0 UV-I 66 W/m -10,1 C -18,8 C 35,4 km/h (5 Bft) 100,00 %
01.03.2018 16:51 -5,3 C 2,8 C 69 % 1008,0 hPa 0,0 l/m 22,4 km/h (4 Bft) O-SO 107 0 min 0,000 mm 0,0 UV-I 62 W/m -10,1 C -17,7 C 29,0 km/h (5 Bft) 93,33 %
01.03.2018 16:52 -5,3 C 2,8 C 69 % 1008,0 hPa 0,0 l/m 23,6 km/h (4 Bft) SO 129 0 min 0,000 mm 0,0 UV-I 62 W/m -10,1 C -18,3 C 29,0 km/h (5 Bft) 96,15 %
01.03.2018 16:53 -5,3 C 2,8 C 69 % 1008,0 hPa 0,0 l/m 24,7 km/h (4 Bft) O 98 0 min 0,000 mm 0,0 UV-I 63 W/m -10,1 C -18,8 C 32,2 km/h (5 Bft) 91,67 %
01.03.2018 16:54 -5,3 C 2,8 C 69 % 1008,0 hPa 0,0 l/m 21,6 km/h (4 Bft) O-SO 105 0 min 0,000 mm 0,0 UV-I 62 W/m -10,1 C -17,3 C 30,6 km/h (5 Bft) 100,00 %
01.03.2018 16:55 -5,3 C 2,8 C 69 % 1008,0 hPa 0,0 l/m 23,4 km/h (4 Bft) O 91 0 min 0,000 mm 0,0 UV-I 60 W/m -10,1 C -18,2 C 32,2 km/h (5 Bft) 96,67 %
01.03.2018 16:56 -5,3 C 2,8 C 69 % 1008,0 hPa 0,0 l/m 22,6 km/h (4 Bft) O-SO 109 0 min 0,000 mm 0,0 UV-I 60 W/m -10,1 C -17,8 C 29,0 km/h (5 Bft) 98,06 %
01.03.2018 16:57 -5,4 C 2,8 C 69 % 1008,1 hPa 0,0 l/m 29,2 km/h (5 Bft) O 94 0 min 0,000 mm 0,0 UV-I 60 W/m -10,2 C -20,7 C 37,0 km/h (5 Bft) 96,55 %
01.03.2018 16:58 -5,4 C 2,8 C 68 % 1008,0 hPa 0,0 l/m 26,3 km/h (4 Bft) O 86 0 min 0,000 mm 0,0 UV-I 56 W/m -10,4 C -19,6 C 30,6 km/h (5 Bft) 95,45 %
01.03.2018 16:59 -5,4 C 2,8 C 69 % 1007,9 hPa 0,0 l/m 20,7 km/h (4 Bft) O 98 0 min 0,000 mm 0,0 UV-I 52 W/m -10,2 C -17,0 C 25,7 km/h (4 Bft) 100,00 %
01.03.2018 17:00 -5,4 C 2,8 C 69 % 1007,9 hPa 0,0 l/m 21,4 km/h (4 Bft) O-SO 113 0 min 0,000 mm 0,0 UV-I 45 W/m -10,2 C -17,3 C 27,4 km/h (4 Bft) 96,55 %
01.03.2018 17:01 -5,4 C 2,8 C 69 % 1007,9 hPa 0,0 l/m 18,4 km/h (3 Bft) O-SO 105 0 min 0,077 mm 0,0 UV-I 41 W/m -10,2 C -15,7 C 22,5 km/h (4 Bft) 96,30 %
01.03.2018 17:02 -5,4 C 2,8 C 69 % 1007,9 hPa 0,0 l/m 22,8 km/h (4 Bft) O 86 0 min 0,000 mm 0,0 UV-I 39 W/m -10,2 C -18,0 C 30,6 km/h (5 Bft) 92,31 %
01.03.2018 17:03 -5,5 C 2,8 C 70 % 1007,9 hPa 0,0 l/m 24,1 km/h (4 Bft) O-NO 62 0 min 0,000 mm 0,0 UV-I 38 W/m -10,1 C -18,8 C 33,8 km/h (5 Bft) 100,00 %
01.03.2018 17:04 -5,5 C 2,8 C 70 % 1007,9 hPa 0,0 l/m 20,9 km/h (4 Bft) O-NO 77 0 min 0,000 mm 0,0 UV-I 36 W/m -10,1 C -17,2 C 25,7 km/h (4 Bft) 100,00 %
01.03.2018 17:05 -5,5 C 2,8 C 70 % 1007,9 hPa 0,0 l/m 19,4 km/h (3 Bft) O-SO 103 0 min 0,000 mm 0,0 UV-I 33 W/m -10,1 C -16,4 C 25,7 km/h (4 Bft) 97,73 %
01.03.2018 17:06 -5,5 C 2,8 C 70 % 1007,9 hPa 0,0 l/m 17,7 km/h (3 Bft) O 82 0 min 0,000 mm 0,0 UV-I 33 W/m -10,1 C -15,4 C 24,1 km/h (4 Bft) 100,00 %
01.03.2018 17:07 -5,6 C 2,8 C 70 % 1007,9 hPa 0,0 l/m 17,9 km/h (3 Bft) O 97 0 min 0,000 mm 0,0 UV-I 33 W/m -10,2 C -15,7 C 25,7 km/h (4 Bft) 100,00 %
01.03.2018 17:08 -5,6 C 2,8 C 71 % 1007,9 hPa 0,0 l/m 23,1 km/h (4 Bft) O-SO 107 0 min 0,000 mm 0,0 UV-I 32 W/m -10,0 C -18,4 C 35,4 km/h (5 Bft) 100,00 %
01.03.2018 17:09 -5,6 C 2,8 C 70 % 1007,9 hPa 0,0 l/m 26,9 km/h (4 Bft) O 92 0 min 0,000 mm 0,0 UV-I 32 W/m -10,2 C -20,1 C 33,8 km/h (5 Bft) 100,00 %
01.03.2018 17:10 -5,6 C 2,8 C 70 % 1007,9 hPa 0,0 l/m 23,7 km/h (4 Bft) O-NO 71 0 min 0,000 mm 0,0 UV-I 30 W/m -10,2 C -18,7 C 27,4 km/h (4 Bft) 93,33 %
01.03.2018 17:11 -5,7 C 2,8 C 70 % 1007,9 hPa 0,0 l/m 24,9 km/h (4 Bft) O-SO 117 0 min 0,000 mm 0,0 UV-I 30 W/m -10,3 C -19,4 C 33,8 km/h (5 Bft) 95,65 %
01.03.2018 17:12 -5,7 C 2,8 C 70 % 1007,9 hPa 0,0 l/m 25,0 km/h (4 Bft) O-SO 109 0 min 0,000 mm 0,0 UV-I 30 W/m -10,3 C -19,4 C 33,8 km/h (5 Bft) 100,00 %
01.03.2018 17:13 -5,7 C 2,8 C 70 % 1007,9 hPa 0,0 l/m 26,2 km/h (4 Bft) O-NO 70 0 min 0,000 mm 0,0 UV-I 30 W/m -10,3 C -20,0 C 30,6 km/h (5 Bft) 100,00 %
01.03.2018 17:14 -5,7 C 2,8 C 70 % 1007,9 hPa 0,0 l/m 26,4 km/h (4 Bft) O 94 0 min 0,000 mm 0,0 UV-I 30 W/m -10,3 C -20,0 C 33,8 km/h (5 Bft) 100,00 %
01.03.2018 17:15 -5,7 C 2,8 C 71 % 1007,9 hPa 0,0 l/m 25,4 km/h (4 Bft) O 101 0 min 0,000 mm 0,0 UV-I 29 W/m -10,1 C -19,6 C 35,4 km/h (5 Bft) 100,00 %
01.03.2018 17:16 -5,8 C 2,8 C 71 % 1007,9 hPa 0,0 l/m 24,5 km/h (4 Bft) O 101 0 min 0,000 mm 0,0 UV-I 28 W/m -10,2 C -19,4 C 32,2 km/h (5 Bft) 96,67 %
01.03.2018 17:17 -5,8 C 2,8 C 71 % 1008,0 hPa 0,0 l/m 24,9 km/h (4 Bft) O 90 0 min 0,000 mm 0,0 UV-I 28 W/m -10,2 C -19,5 C 37,0 km/h (5 Bft) 90,91 %
01.03.2018 17:18 -5,8 C 2,8 C 71 % 1007,9 hPa 0,0 l/m 25,9 km/h (4 Bft) O-NO 66 0 min 0,000 mm 0,0 UV-I 26 W/m -10,2 C -20,0 C 32,2 km/h (5 Bft) 100,00 %
01.03.2018 17:19 -5,8 C 2,8 C 71 % 1007,8 hPa 0,0 l/m 24,9 km/h (4 Bft) O 82 0 min 0,000 mm 0,0 UV-I 26 W/m -10,2 C -19,5 C 32,2 km/h (5 Bft) 100,00 %
01.03.2018 17:20 -5,8 C 2,8 C 71 % 1007,9 hPa 0,0 l/m 25,2 km/h (4 Bft) O-SO 107 0 min 0,000 mm 0,0 UV-I 26 W/m -10,2 C -19,7 C 30,6 km/h (5 Bft) 100,00 %
01.03.2018 17:21 -5,9 C 2,8 C 71 % 1007,9 hPa 0,0 l/m 24,7 km/h (4 Bft) O 101 0 min 0,000 mm 0,0 UV-I 25 W/m -10,3 C -19,6 C 29,0 km/h (5 Bft) 100,00 %
01.03.2018 17:22 -5,9 C 2,8 C 71 % 1007,9 hPa 0,0 l/m 24,3 km/h (4 Bft) O 85 0 min 0,000 mm 0,0 UV-I 25 W/m -10,3 C -19,4 C 32,2 km/h (5 Bft) 100,00 %
01.03.2018 17:23 -5,9 C 2,8 C 71 % 1007,9 hPa 0,0 l/m 30,0 km/h (5 Bft) O 94 0 min 0,000 mm 0,0 UV-I 23 W/m -10,3 C -21,7 C 40,2 km/h (6 Bft) 100,00 %
01.03.2018 17:24 -5,9 C 2,8 C 71 % 1007,9 hPa 0,0 l/m 24,7 km/h (4 Bft) O-NO 58 0 min 0,000 mm 0,0 UV-I 23 W/m -10,3 C -19,6 C 33,8 km/h (5 Bft) 100,00 %
01.03.2018 17:25 -5,9 C 2,8 C 71 % 1008,0 hPa 0,0 l/m 24,1 km/h (4 Bft) O 98 0 min 0,000 mm 0,0 UV-I 22 W/m -10,3 C -19,3 C 29,0 km/h (5 Bft) 100,00 %
01.03.2018 17:26 -5,9 C 2,8 C 71 % 1008,0 hPa 0,0 l/m 21,5 km/h (4 Bft) O 98 0 min 0,000 mm 0,0 UV-I 21 W/m -10,3 C -18,1 C 27,4 km/h (4 Bft) 100,00 %
01.03.2018 17:27 -5,9 C 2,8 C 71 % 1008,0 hPa 0,0 l/m 23,3 km/h (4 Bft) O 99 0 min 0,000 mm 0,0 UV-I 21 W/m -10,3 C -18,9 C 30,6 km/h (5 Bft) 100,00 %
01.03.2018 17:28 -6,0 C 2,8 C 72 % 1007,9 hPa 0,0 l/m 19,1 km/h (3 Bft) O 88 0 min 0,000 mm 0,0 UV-I 19 W/m -10,2 C -16,9 C 25,7 km/h (4 Bft) 100,00 %
01.03.2018 17:29 -6,0 C 2,8 C 72 % 1008,0 hPa 0,0 l/m 26,3 km/h (4 Bft) O-SO 104 0 min 0,000 mm 0,0 UV-I 19 W/m -10,2 C -20,4 C 33,8 km/h (5 Bft) 100,00 %
01.03.2018 17:30 -6,0 C 2,8 C 72 % 1008,0 hPa 0,0 l/m 22,1 km/h (4 Bft) O 79 0 min 0,000 mm 0,0 UV-I 19 W/m -10,2 C -18,5 C 29,0 km/h (5 Bft) 100,00 %
01.03.2018 17:31 -6,0 C 2,8 C 72 % 1008,0 hPa 0,0 l/m 22,8 km/h (4 Bft) O-NO 69 1 min 0,000 mm 0,0 UV-I 19 W/m -10,2 C -18,8 C 29,0 km/h (5 Bft) 100,00 %
01.03.2018 17:32 -6,1 C 2,8 C 72 % 1008,0 hPa 0,0 l/m 19,2 km/h (3 Bft) O 95 1 min 0,000 mm 0,0 UV-I 18 W/m -10,3 C -17,1 C 25,7 km/h (4 Bft) 100,00 %
01.03.2018 17:33 -6,1 C 2,8 C 72 % 1008,0 hPa 0,0 l/m 21,6 km/h (4 Bft) O-NO 76 1 min 0,000 mm 0,0 UV-I 18 W/m -10,3 C -18,4 C 29,0 km/h (5 Bft) 100,00 %
01.03.2018 17:34 -6,1 C 2,8 C 72 % 1008,0 hPa 0,0 l/m 26,1 km/h (4 Bft) O 98 1 min 0,000 mm 0,0 UV-I 18 W/m -10,3 C -20,5 C 38,6 km/h (5 Bft) 100,00 %
01.03.2018 17:35 -6,1 C 2,8 C 72 % 1008,0 hPa 0,0 l/m 24,3 km/h (4 Bft) O 82 1 min 0,000 mm 0,0 UV-I 16 W/m -10,3 C -19,7 C 30,6 km/h (5 Bft) 100,00 %
01.03.2018 17:36 -6,1 C 2,8 C 72 % 1008,0 hPa 0,0 l/m 21,7 km/h (4 Bft) O-NO 71 1 min 0,000 mm 0,0 UV-I 15 W/m -10,3 C -18,4 C 29,0 km/h (5 Bft) 100,00 %
01.03.2018 17:37 -6,1 C 2,8 C 72 % 1008,0 hPa 0,0 l/m 23,1 km/h (4 Bft) O 82 1 min 0,000 mm 0,0 UV-I 14 W/m -10,3 C -19,1 C 32,2 km/h (5 Bft) 100,00 %
01.03.2018 17:38 -6,1 C 2,8 C 73 % 1008,0 hPa 0,0 l/m 19,6 km/h (3 Bft) O 98 0 min 0,000 mm 0,0 UV-I 12 W/m -10,1 C -17,3 C 25,7 km/h (4 Bft) 100,00 %
01.03.2018 17:39 -6,2 C 2,8 C 73 % 1008,0 hPa 0,0 l/m 21,1 km/h (4 Bft) O-NO 78 0 min 0,000 mm 0,0 UV-I 12 W/m -10,2 C -18,2 C 24,1 km/h (4 Bft) 100,00 %
01.03.2018 17:40 -6,2 C 2,8 C 73 % 1008,0 hPa 0,0 l/m 20,5 km/h (4 Bft) O 100 0 min 0,000 mm 0,0 UV-I 12 W/m -10,2 C -17,9 C 29,0 km/h (5 Bft) 96,15 %
01.03.2018 17:41 -6,2 C 2,8 C 73 % 1008,0 hPa 0,0 l/m 23,2 km/h (4 Bft) O 94 0 min 0,000 mm 0,0 UV-I 11 W/m -10,2 C -19,3 C 33,8 km/h (5 Bft) 100,00 %
01.03.2018 17:42 -6,2 C 2,8 C 73 % 1007,9 hPa 0,0 l/m 21,5 km/h (4 Bft) O-SO 102 0 min 0,000 mm 0,0 UV-I 10 W/m -10,2 C -18,4 C 27,4 km/h (4 Bft) 98,10 %
01.03.2018 17:43 -6,2 C 2,8 C 73 % 1007,9 hPa 0,0 l/m 23,7 km/h (4 Bft) O-SO 110 0 min 0,000 mm 0,0 UV-I 9 W/m -10,2 C -19,5 C 30,6 km/h (5 Bft) 100,00 %
01.03.2018 17:44 -6,2 C 2,8 C 73 % 1008,0 hPa 0,0 l/m 23,4 km/h (4 Bft) O-SO 105 0 min 0,000 mm 0,0 UV-I 9 W/m -10,2 C -19,4 C 30,6 km/h (5 Bft) 100,00 %
01.03.2018 17:45 -6,3 C 2,8 C 73 % 1008,0 hPa 0,0 l/m 30,0 km/h (5 Bft) O 87 0 min 0,000 mm 0,0 UV-I 9 W/m -10,3 C -22,3 C 40,2 km/h (6 Bft) 100,00 %
01.03.2018 17:46 -6,3 C 2,8 C 73 % 1008,0 hPa 0,0 l/m 25,3 km/h (4 Bft) O 79 0 min 0,000 mm 0,0 UV-I 7 W/m -10,3 C -20,4 C 35,4 km/h (5 Bft) 100,00 %
01.03.2018 17:47 -6,3 C 2,8 C 73 % 1008,1 hPa 0,0 l/m 26,3 km/h (4 Bft) O-SO 112 0 min 0,000 mm 0,0 UV-I 7 W/m -10,3 C -20,8 C 32,2 km/h (5 Bft) 95,65 %
01.03.2018 17:48 -6,3 C 2,8 C 73 % 1008,0 hPa 0,0 l/m 24,3 km/h (4 Bft) O-NO 76 0 min 0,000 mm 0,0 UV-I 7 W/m -10,3 C -19,9 C 33,8 km/h (5 Bft) 100,00 %
01.03.2018 17:49 -6,3 C 2,8 C 73 % 1008,0 hPa 0,0 l/m 31,4 km/h (5 Bft) O 91 0 min 0,000 mm 0,0 UV-I 7 W/m -10,3 C -22,8 C 40,2 km/h (6 Bft) 92,86 %
01.03.2018 17:50 -6,3 C 2,8 C 73 % 1008,0 hPa 0,0 l/m 25,1 km/h (4 Bft) O 84 0 min 0,000 mm 0,0 UV-I 6 W/m -10,3 C -20,3 C 32,2 km/h (5 Bft) 100,00 %
01.03.2018 17:51 -6,3 C 2,8 C 73 % 1008,1 hPa 0,0 l/m 21,3 km/h (4 Bft) O 96 0 min 0,000 mm 0,0 UV-I 5 W/m -10,3 C -18,5 C 29,0 km/h (5 Bft) 100,00 %
01.03.2018 17:52 -6,4 C 2,8 C 73 % 1008,1 hPa 0,0 l/m 20,0 km/h (4 Bft) O 87 0 min 0,000 mm 0,0 UV-I 5 W/m -10,4 C -17,9 C 25,7 km/h (4 Bft) 100,00 %
01.03.2018 17:53 -6,4 C 2,8 C 74 % 1008,2 hPa 0,0 l/m 26,2 km/h (4 Bft) O-SO 106 0 min 0,000 mm 0,0 UV-I 5 W/m -10,2 C -20,9 C 33,8 km/h (5 Bft) 100,00 %
01.03.2018 17:54 -6,4 C 2,8 C 74 % 1008,1 hPa 0,0 l/m 27,1 km/h (4 Bft) O 83 0 min 0,000 mm 0,0 UV-I 5 W/m -10,2 C -21,3 C 38,6 km/h (5 Bft) 100,00 %
01.03.2018 17:55 -6,4 C 2,8 C 74 % 1008,1 hPa 0,0 l/m 27,9 km/h (4 Bft) O-NO 77 0 min 0,000 mm 0,0 UV-I 5 W/m -10,2 C -21,6 C 38,6 km/h (5 Bft) 100,00 %
01.03.2018 17:56 -6,4 C 2,8 C 73 % 1008,1 hPa 0,0 l/m 25,6 km/h (4 Bft) O 101 0 min 0,000 mm 0,0 UV-I 5 W/m -10,4 C -20,7 C 38,6 km/h (5 Bft) 100,00 %
01.03.2018 17:57 -6,4 C 2,8 C 74 % 1008,1 hPa 0,0 l/m 28,8 km/h (4 Bft) O 98 0 min 0,000 mm 0,0 UV-I 5 W/m -10,2 C -22,0 C 33,8 km/h (5 Bft) 100,00 %
01.03.2018 17:58 -6,4 C 2,8 C 74 % 1008,1 hPa 0,0 l/m 26,7 km/h (4 Bft) O-SO 117 0 min 0,000 mm 0,0 UV-I 5 W/m -10,2 C -21,1 C 33,8 km/h (5 Bft) 96,30 %
01.03.2018 17:59 -6,4 C 2,8 C 74 % 1008,1 hPa 0,0 l/m 23,0 km/h (4 Bft) O-NO 65 0 min 0,000 mm 0,0 UV-I 4 W/m -10,2 C -19,5 C 33,8 km/h (5 Bft) 100,00 %
01.03.2018 18:00 -6,5 C 2,8 C 74 % 1008,1 hPa 0,0 l/m 24,3 km/h (4 Bft) O-SO 104 0 min 0,000 mm 0,0 UV-I 0 W/m -10,3 C -20,2 C 32,2 km/h (5 Bft) 100,00 %
01.03.2018 18:01 -6,5 C 2,8 C 74 % 1008,1 hPa 0,0 l/m 21,0 km/h (4 Bft) O 83 0 min 0,050 mm 0,0 UV-I 0 W/m -10,3 C -18,6 C 32,2 km/h (5 Bft) 100,00 %
01.03.2018 18:02 -6,6 C 2,8 C 74 % 1008,0 hPa 0,0 l/m 24,5 km/h (4 Bft) O 84 0 min 0,000 mm 0,0 UV-I 0 W/m -10,4 C -20,4 C 33,8 km/h (5 Bft) 100,00 %
01.03.2018 18:03 -6,6 C 2,8 C 74 % 1008,0 hPa 0,0 l/m 27,2 km/h (4 Bft) O 101 0 min 0,000 mm 0,0 UV-I 0 W/m -10,4 C -21,6 C 33,8 km/h (5 Bft) 100,00 %
01.03.2018 18:04 -6,6 C 2,8 C 75 % 1008,0 hPa 0,0 l/m 22,9 km/h (4 Bft) O-SO 103 0 min 0,000 mm 0,0 UV-I 0 W/m -10,3 C -19,7 C 29,0 km/h (5 Bft) 100,00 %
01.03.2018 18:05 -6,6 C 2,8 C 75 % 1008,1 hPa 0,0 l/m 22,2 km/h (4 Bft) O-NO 61 0 min 0,000 mm 0,0 UV-I 0 W/m -10,3 C -19,3 C 37,0 km/h (5 Bft) 100,00 %
01.03.2018 18:06 -6,6 C 2,8 C 75 % 1008,1 hPa 0,0 l/m 30,1 km/h (5 Bft) O-SO 103 0 min 0,000 mm 0,0 UV-I 0 W/m -10,3 C -22,7 C 35,4 km/h (5 Bft) 100,00 %
01.03.2018 18:07 -6,6 C 2,8 C 75 % 1008,1 hPa 0,0 l/m 31,7 km/h (5 Bft) O 101 0 min 0,000 mm 0,0 UV-I 0 W/m -10,3 C -23,3 C 41,8 km/h (6 Bft) 96,67 %
01.03.2018 18:08 -6,6 C 2,8 C 75 % 1008,1 hPa 0,0 l/m 22,1 km/h (4 Bft) O 98 0 min 0,000 mm 0,0 UV-I 0 W/m -10,3 C -19,3 C 30,6 km/h (5 Bft) 100,00 %
01.03.2018 18:09 -6,6 C 2,8 C 75 % 1008,1 hPa 0,0 l/m 26,2 km/h (4 Bft) O 89 0 min 0,000 mm 0,0 UV-I 0 W/m -10,3 C -21,2 C 35,4 km/h (5 Bft) 100,00 %
01.03.2018 18:10 -6,7 C 2,8 C 75 % 1008,1 hPa 0,0 l/m 25,0 km/h (4 Bft) O-NO 68 0 min 0,000 mm 0,0 UV-I 0 W/m -10,4 C -20,8 C 33,8 km/h (5 Bft) 96,55 %
01.03.2018 18:11 -6,7 C 2,8 C 75 % 1008,1 hPa 0,0 l/m 29,9 km/h (5 Bft) O 80 0 min 0,000 mm 0,0 UV-I 0 W/m -10,4 C -22,8 C 41,8 km/h (6 Bft) 100,00 %
01.03.2018 18:12 -6,7 C 2,8 C 75 % 1008,1 hPa 0,0 l/m 28,4 km/h (4 Bft) O 99 0 min 0,000 mm 0,0 UV-I 0 W/m -10,4 C -22,2 C 35,4 km/h (5 Bft) 95,65 %
01.03.2018 18:13 -6,7 C 2,8 C 75 % 1008,2 hPa 0,0 l/m 26,0 km/h (4 Bft) O 98 0 min 0,000 mm 0,0 UV-I 0 W/m -10,4 C -21,2 C 32,2 km/h (5 Bft) 100,00 %
01.03.2018 18:14 -6,7 C 2,8 C 75 % 1008,2 hPa 0,0 l/m 27,9 km/h (4 Bft) O 86 0 min 0,000 mm 0,0 UV-I 0 W/m -10,4 C -22,0 C 33,8 km/h (5 Bft) 100,00 %
01.03.2018 18:15 -6,7 C 2,8 C 75 % 1008,2 hPa 0,0 l/m 23,9 km/h (4 Bft) O 86 0 min 0,000 mm 0,0 UV-I 0 W/m -10,4 C -20,3 C 29,0 km/h (5 Bft) 100,00 %
01.03.2018 18:16 -6,7 C 2,8 C 75 % 1008,2 hPa 0,0 l/m 22,7 km/h (4 Bft) O 87 0 min 0,000 mm 0,0 UV-I 0 W/m -10,4 C -19,7 C 29,0 km/h (5 Bft) 95,65 %
01.03.2018 18:17 -6,8 C 2,8 C 75 % 1008,2 hPa 0,0 l/m 19,8 km/h (3 Bft) O-SO 107 0 min 0,000 mm 0,0 UV-I 0 W/m -10,5 C -18,3 C 25,7 km/h (4 Bft) 100,00 %
01.03.2018 18:18 -6,8 C 2,8 C 76 % 1008,2 hPa 0,0 l/m 26,4 km/h (4 Bft) O-SO 102 0 min 0,000 mm 0,0 UV-I 0 W/m -10,3 C -21,5 C 35,4 km/h (5 Bft) 92,86 %
01.03.2018 18:19 -6,8 C 2,8 C 76 % 1008,2 hPa 0,0 l/m 28,3 km/h (4 Bft) O 84 0 min 0,000 mm 0,0 UV-I 0 W/m -10,3 C -22,3 C 40,2 km/h (6 Bft) 100,00 %
01.03.2018 18:20 -6,8 C 2,8 C 76 % 1008,3 hPa 0,0 l/m 21,1 km/h (4 Bft) O 81 0 min 0,000 mm 0,0 UV-I 0 W/m -10,3 C -19,0 C 24,1 km/h (4 Bft) 100,00 %
01.03.2018 18:21 -6,8 C 2,8 C 76 % 1008,2 hPa 0,0 l/m 25,5 km/h (4 Bft) O-SO 108 0 min 0,000 mm 0,0 UV-I 0 W/m -10,3 C -21,2 C 33,8 km/h (5 Bft) 100,00 %
01.03.2018 18:22 -6,8 C 2,8 C 76 % 1008,2 hPa 0,0 l/m 26,1 km/h (4 Bft) O 90 0 min 0,000 mm 0,0 UV-I 0 W/m -10,3 C -21,4 C 37,0 km/h (5 Bft) 100,00 %
01.03.2018 18:23 -6,8 C 2,8 C 76 % 1008,2 hPa 0,0 l/m 27,7 km/h (4 Bft) O 82 0 min 0,000 mm 0,0 UV-I 0 W/m -10,3 C -22,1 C 33,8 km/h (5 Bft) 100,00 %
01.03.2018 18:24 -6,8 C 2,8 C 76 % 1008,2 hPa 0,0 l/m 27,1 km/h (4 Bft) O-SO 107 0 min 0,000 mm 0,0 UV-I 0 W/m -10,3 C -21,8 C 37,0 km/h (5 Bft) 98,16 %
01.03.2018 18:25 -6,8 C 2,8 C 76 % 1008,2 hPa 0,0 l/m 23,8 km/h (4 Bft) O-NO 66 0 min 0,000 mm 0,0 UV-I 0 W/m -10,3 C -20,4 C 29,0 km/h (5 Bft) 100,00 %
01.03.2018 18:26 -6,8 C 2,8 C 76 % 1008,2 hPa 0,0 l/m 28,2 km/h (4 Bft) O 96 0 min 0,000 mm 0,0 UV-I 0 W/m -10,3 C -22,3 C 33,8 km/h (5 Bft) 100,00 %
01.03.2018 18:27 -6,8 C 2,8 C 76 % 1008,2 hPa 0,0 l/m 26,2 km/h (4 Bft) O-NO 70 0 min 0,000 mm 0,0 UV-I 0 W/m -10,3 C -21,5 C 35,4 km/h (5 Bft) 96,15 %
01.03.2018 18:28 -6,8 C 2,8 C 76 % 1008,1 hPa 0,0 l/m 26,7 km/h (4 Bft) O-NO 69 0 min 0,000 mm 0,0 UV-I 0 W/m -10,3 C -21,7 C 32,2 km/h (5 Bft) 100,00 %
01.03.2018 18:29 -6,9 C 2,8 C 76 % 1008,1 hPa 0,0 l/m 29,3 km/h (5 Bft) O-NO 72 0 min 0,000 mm 0,0 UV-I 0 W/m -10,4 C -22,8 C 40,2 km/h (6 Bft) 100,00 %
01.03.2018 18:30 -6,9 C 2,8 C 76 % 1008,2 hPa 0,0 l/m 23,5 km/h (4 Bft) O 87 0 min 0,000 mm 0,0 UV-I 0 W/m -10,4 C -20,4 C 29,0 km/h (5 Bft) 96,30 %
01.03.2018 18:31 -6,9 C 2,8 C 76 % 1008,2 hPa 0,0 l/m 24,7 km/h (4 Bft) O 89 0 min 0,000 mm 0,0 UV-I 0 W/m -10,4 C -20,9 C 35,4 km/h (5 Bft) 100,00 %
01.03.2018 18:32 -6,9 C 2,8 C 76 % 1008,2 hPa 0,0 l/m 24,7 km/h (4 Bft) O 97 0 min 0,000 mm 0,0 UV-I 0 W/m -10,4 C -20,9 C 32,2 km/h (5 Bft) 100,00 %
01.03.2018 18:33 -6,9 C 2,8 C 77 % 1008,2 hPa 0,0 l/m 24,3 km/h (4 Bft) O 101 0 min 0,000 mm 0,0 UV-I 0 W/m -10,2 C -20,7 C 29,0 km/h (5 Bft) 100,00 %
01.03.2018 18:34 -7,0 C 2,8 C 76 % 1008,2 hPa 0,0 l/m 21,6 km/h (4 Bft) O 84 0 min 0,000 mm 0,0 UV-I 0 W/m -10,5 C -19,5 C 29,0 km/h (5 Bft) 96,30 %
01.03.2018 18:35 -7,0 C 2,8 C 77 % 1008,2 hPa 0,0 l/m 19,7 km/h (3 Bft) O-SO 114 0 min 0,000 mm 0,0 UV-I 0 W/m -10,3 C -18,5 C 24,1 km/h (4 Bft) 96,15 %
01.03.2018 18:36 -7,0 C 2,8 C 77 % 1008,1 hPa 0,0 l/m 25,5 km/h (4 Bft) O 94 0 min 0,000 mm 0,0 UV-I 0 W/m -10,3 C -21,4 C 35,4 km/h (5 Bft) 100,00 %
01.03.2018 18:37 -7,0 C 2,8 C 77 % 1008,1 hPa 0,0 l/m 26,8 km/h (4 Bft) O-NO 63 0 min 0,000 mm 0,0 UV-I 0 W/m -10,3 C -22,0 C 35,4 km/h (5 Bft) 92,86 %
01.03.2018 18:38 -7,1 C 2,8 C 77 % 1008,1 hPa 0,0 l/m 28,6 km/h (4 Bft) O-SO 109 0 min 0,000 mm 0,0 UV-I 0 W/m -10,4 C -22,9 C 38,6 km/h (5 Bft) 100,00 %
01.03.2018 18:39 -7,1 C 2,8 C 77 % 1008,1 hPa 0,0 l/m 32,8 km/h (5 Bft) O 97 0 min 0,000 mm 0,0 UV-I 0 W/m -10,4 C -24,4 C 45,1 km/h (6 Bft) 93,10 %
01.03.2018 18:40 -7,1 C 2,8 C 77 % 1008,1 hPa 0,0 l/m 29,8 km/h (5 Bft) O 82 0 min 0,000 mm 0,0 UV-I 0 W/m -10,4 C -23,3 C 35,4 km/h (5 Bft) 100,00 %
01.03.2018 18:41 -7,1 C 2,8 C 77 % 1008,1 hPa 0,0 l/m 31,2 km/h (5 Bft) O-NO 65 0 min 0,000 mm 0,0 UV-I 0 W/m -10,4 C -23,8 C 41,8 km/h (6 Bft) 96,15 %
01.03.2018 18:42 -7,1 C 2,8 C 77 % 1008,1 hPa 0,0 l/m 30,1 km/h (5 Bft) O 92 0 min 0,000 mm 0,0 UV-I 0 W/m -10,4 C -23,4 C 35,4 km/h (5 Bft) 96,30 %
01.03.2018 18:43 -7,1 C 2,8 C 77 % 1008,1 hPa 0,0 l/m 25,8 km/h (4 Bft) O-NO 71 0 min 0,000 mm 0,0 UV-I 0 W/m -10,4 C -21,7 C 33,8 km/h (5 Bft) 96,15 %
01.03.2018 18:44 -7,1 C 2,8 C 77 % 1008,1 hPa 0,0 l/m 23,4 km/h (4 Bft) O-NO 67 0 min 0,000 mm 0,0 UV-I 0 W/m -10,4 C -20,6 C 32,2 km/h (5 Bft) 86,67 %
01.03.2018 18:45 -7,1 C 2,8 C 77 % 1008,1 hPa 0,0 l/m 26,2 km/h (4 Bft) O-NO 58 0 min 0,000 mm 0,0 UV-I 0 W/m -10,4 C -21,9 C 33,8 km/h (5 Bft) 100,00 %
01.03.2018 18:46 -7,1 C 2,8 C 77 % 1008,1 hPa 0,0 l/m 29,2 km/h (5 Bft) O-SO 103 0 min 0,000 mm 0,0 UV-I 0 W/m -10,4 C -23,1 C 32,2 km/h (5 Bft) 95,65 %
01.03.2018 18:47 -7,2 C 2,8 C 77 % 1008,1 hPa 0,0 l/m 23,2 km/h (4 Bft) O-NO 67 0 min 0,000 mm 0,0 UV-I 0 W/m -10,5 C -20,6 C 30,6 km/h (5 Bft) 100,00 %
01.03.2018 18:48 -7,2 C 2,8 C 77 % 1008,1 hPa 0,0 l/m 24,5 km/h (4 Bft) O 101 0 min 0,000 mm 0,0 UV-I 0 W/m -10,5 C -21,2 C 30,6 km/h (5 Bft) 95,65 %
01.03.2018 18:49 -7,2 C 2,8 C 77 % 1008,1 hPa 0,0 l/m 21,0 km/h (4 Bft) O-NO 68 0 min 0,000 mm 0,0 UV-I 0 W/m -10,5 C -19,5 C 29,0 km/h (5 Bft) 100,00 %
01.03.2018 18:50 -7,2 C 2,8 C 77 % 1008,0 hPa 0,0 l/m 30,3 km/h (5 Bft) O 86 0 min 0,000 mm 0,0 UV-I 0 W/m -10,5 C -23,6 C 38,6 km/h (5 Bft) 96,15 %
01.03.2018 18:51 -7,2 C 2,8 C 77 % 1008,1 hPa 0,0 l/m 24,8 km/h (4 Bft) O-NO 76 0 min 0,000 mm 0,0 UV-I 0 W/m -10,5 C -21,4 C 35,4 km/h (5 Bft) 96,30 %
01.03.2018 18:52 -7,2 C 2,8 C 77 % 1008,1 hPa 0,0 l/m 29,1 km/h (5 Bft) O 84 0 min 0,000 mm 0,0 UV-I 0 W/m -10,5 C -23,2 C 35,4 km/h (5 Bft) 100,00 %
01.03.2018 18:53 -7,2 C 2,8 C 77 % 1008,1 hPa 0,0 l/m 27,4 km/h (4 Bft) O-NO 74 0 min 0,000 mm 0,0 UV-I 0 W/m -10,5 C -22,5 C 40,2 km/h (6 Bft) 96,30 %
01.03.2018 18:54 -7,2 C 2,8 C 77 % 1008,2 hPa 0,0 l/m 30,3 km/h (5 Bft) O-SO 103 0 min 0,000 mm 0,0 UV-I 0 W/m -10,5 C -23,6 C 38,6 km/h (5 Bft) 100,00 %
01.03.2018 18:55 -7,2 C 2,8 C 78 % 1008,2 hPa 0,0 l/m 26,5 km/h (4 Bft) O 94 0 min 0,000 mm 0,0 UV-I 0 W/m -10,4 C -22,1 C 30,6 km/h (5 Bft) 93,33 %
01.03.2018 18:56 -7,2 C 2,8 C 78 % 1008,1 hPa 0,0 l/m 29,5 km/h (5 Bft) O 94 0 min 0,000 mm 0,0 UV-I 0 W/m -10,4 C -23,3 C 45,1 km/h (6 Bft) 100,00 %
01.03.2018 18:57 -7,2 C 2,8 C 78 % 1008,1 hPa 0,0 l/m 28,4 km/h (4 Bft) O 98 0 min 0,000 mm 0,0 UV-I 0 W/m -10,4 C -22,9 C 43,5 km/h (6 Bft) 96,30 %
01.03.2018 18:58 -7,3 C 2,8 C 78 % 1008,1 hPa 0,0 l/m 26,2 km/h (4 Bft) O-SO 123 0 min 0,000 mm 0,0 UV-I 0 W/m -10,5 C -22,1 C 32,2 km/h (5 Bft) 100,00 %
01.03.2018 18:59 -7,3 C 2,8 C 78 % 1008,1 hPa 0,0 l/m 29,1 km/h (5 Bft) O-NO 60 0 min 0,000 mm 0,0 UV-I 0 W/m -10,5 C -23,3 C 45,1 km/h (6 Bft) 100,00 %
01.03.2018 19:00 -7,3 C 2,8 C 78 % 1008,1 hPa 0,0 l/m 27,4 km/h (4 Bft) O-SO 105 0 min 0,000 mm 0,0 UV-I 0 W/m -10,5 C -22,7 C 40,2 km/h (6 Bft) 95,65 %
01.03.2018 19:01 -7,3 C 2,8 C 78 % 1008,1 hPa 0,0 l/m 22,8 km/h (4 Bft) O 86 0 min 0,026 mm 0,0 UV-I 0 W/m -10,5 C -20,6 C 38,6 km/h (5 Bft) 100,00 %
01.03.2018 19:02 -7,3 C 2,8 C 78 % 1008,1 hPa 0,0 l/m 27,2 km/h (4 Bft) O 90 0 min 0,000 mm 0,0 UV-I 0 W/m -10,5 C -22,6 C 41,8 km/h (6 Bft) 91,67 %
01.03.2018 19:03 -7,3 C 2,8 C 78 % 1008,1 hPa 0,0 l/m 30,3 km/h (5 Bft) O-NO 61 0 min 0,000 mm 0,0 UV-I 0 W/m -10,5 C -23,8 C 38,6 km/h (5 Bft) 100,00 %
01.03.2018 19:04 -7,3 C 2,8 C 78 % 1008,1 hPa 0,0 l/m 30,5 km/h (5 Bft) O-SO 109 0 min 0,000 mm 0,0 UV-I 0 W/m -10,5 C -23,9 C 41,8 km/h (6 Bft) 96,15 %
01.03.2018 19:05 -7,3 C 2,8 C 78 % 1008,0 hPa 0,0 l/m 25,8 km/h (4 Bft) O-NO 74 0 min 0,000 mm 0,0 UV-I 0 W/m -10,5 C -22,0 C 40,2 km/h (6 Bft) 98,14 %
01.03.2018 19:06 -7,3 C 2,8 C 78 % 1008,0 hPa 0,0 l/m 31,0 km/h (5 Bft) O-SO 107 0 min 0,000 mm 0,0 UV-I 0 W/m -10,5 C -24,0 C 41,8 km/h (6 Bft) 97,62 %
01.03.2018 19:07 -7,3 C 2,8 C 78 % 1008,0 hPa 0,0 l/m 27,1 km/h (4 Bft) O-SO 107 0 min 0,000 mm 0,0 UV-I 0 W/m -10,5 C -22,5 C 38,6 km/h (5 Bft) 100,00 %
01.03.2018 19:08 -7,3 C 2,8 C 78 % 1008,0 hPa 0,0 l/m 26,9 km/h (4 Bft) O 80 0 min 0,000 mm 0,0 UV-I 0 W/m -10,5 C -22,4 C 38,6 km/h (5 Bft) 100,00 %
01.03.2018 19:09 -7,3 C 2,8 C 78 % 1008,0 hPa 0,0 l/m 31,1 km/h (5 Bft) O 88 0 min 0,000 mm 0,0 UV-I 0 W/m -10,5 C -24,1 C 43,5 km/h (6 Bft) 98,14 %
01.03.2018 19:10 -7,3 C 2,8 C 78 % 1008,0 hPa 0,0 l/m 27,6 km/h (4 Bft) O 96 0 min 0,000 mm 0,0 UV-I 0 W/m -10,5 C -22,7 C 38,6 km/h (5 Bft) 97,73 %
01.03.2018 19:11 -7,4 C 2,8 C 78 % 1008,0 hPa 0,0 l/m 26,3 km/h (4 Bft) O-SO 109 0 min 0,000 mm 0,0 UV-I 0 W/m -10,6 C -22,3 C 32,2 km/h (5 Bft) 100,00 %
01.03.2018 19:12 -7,4 C 2,8 C 78 % 1008,0 hPa 0,0 l/m 28,5 km/h (4 Bft) O 98 0 min 0,000 mm 0,0 UV-I 0 W/m -10,6 C -23,2 C 37,0 km/h (5 Bft) 100,00 %
01.03.2018 19:13 -7,4 C 2,8 C 78 % 1008,0 hPa 0,0 l/m 25,5 km/h (4 Bft) O-NO 72 0 min 0,000 mm 0,0 UV-I 0 W/m -10,6 C -22,0 C 40,2 km/h (6 Bft) 91,30 %
01.03.2018 19:14 -7,4 C 2,8 C 78 % 1008,0 hPa 0,0 l/m 26,0 km/h (4 Bft) O 94 0 min 0,000 mm 0,0 UV-I 0 W/m -10,6 C -22,2 C 33,8 km/h (5 Bft) 100,00 %
01.03.2018 19:15 -7,4 C 2,8 C 78 % 1008,0 hPa 0,0 l/m 28,5 km/h (4 Bft) O-SO 103 0 min 0,000 mm 0,0 UV-I 0 W/m -10,6 C -23,2 C 32,2 km/h (5 Bft) 100,00 %
01.03.2018 19:16 -7,4 C 2,8 C 78 % 1008,0 hPa 0,0 l/m 24,1 km/h (4 Bft) O-NO 65 0 min 0,000 mm 0,0 UV-I 0 W/m -10,6 C -21,3 C 24,1 km/h (4 Bft) 100,00 %
01.03.2018 19:17 -7,4 C 2,8 C 78 % 1008,0 hPa 0,0 l/m 24,7 km/h (4 Bft) O 98 0 min 0,000 mm 0,0 UV-I 0 W/m -10,6 C -21,6 C 29,0 km/h (5 Bft) 95,65 %
01.03.2018 19:18 -7,4 C 2,8 C 78 % 1008,1 hPa 0,0 l/m 24,3 km/h (4 Bft) O 98 0 min 0,000 mm 0,0 UV-I 0 W/m -10,6 C -21,4 C 30,6 km/h (5 Bft) 96,30 %
01.03.2018 19:19 -7,4 C 2,8 C 79 % 1008,1 hPa 0,0 l/m 21,8 km/h (4 Bft) O 97 0 min 0,000 mm 0,0 UV-I 0 W/m -10,4 C -20,2 C 29,0 km/h (5 Bft) 100,00 %
01.03.2018 19:20 -7,4 C 2,8 C 78 % 1008,1 hPa 0,0 l/m 24,4 km/h (4 Bft) O 96 0 min 0,000 mm 0,0 UV-I 0 W/m -10,6 C -21,5 C 29,0 km/h (5 Bft) 100,00 %
01.03.2018 19:21 -7,4 C 2,8 C 78 % 1008,1 hPa 0,0 l/m 33,8 km/h (5 Bft) O-SO 108 0 min 0,000 mm 0,0 UV-I 0 W/m -10,6 C -25,1 C 43,5 km/h (6 Bft) 100,00 %
01.03.2018 19:22 -7,4 C 2,8 C 79 % 1008,1 hPa 0,0 l/m 31,8 km/h (5 Bft) SO 145 0 min 0,000 mm 0,0 UV-I 0 W/m -10,4 C -24,5 C 43,5 km/h (6 Bft) 100,00 %
01.03.2018 19:23 -7,4 C 2,8 C 78 % 1008,1 hPa 0,0 l/m 30,3 km/h (5 Bft) O-NO 75 0 min 0,000 mm 0,0 UV-I 0 W/m -10,6 C -23,9 C 40,2 km/h (6 Bft) 95,83 %
01.03.2018 19:24 -7,4 C 2,8 C 78 % 1008,0 hPa 0,0 l/m 28,6 km/h (4 Bft) O 96 0 min 0,000 mm 0,0 UV-I 0 W/m -10,6 C -23,3 C 33,8 km/h (5 Bft) 95,65 %
01.03.2018 19:25 -7,4 C 2,8 C 79 % 1008,0 hPa 0,0 l/m 27,1 km/h (4 Bft) O-NO 68 0 min 0,000 mm 0,0 UV-I 0 W/m -10,4 C -22,7 C 37,0 km/h (5 Bft) 100,00 %
01.03.2018 19:26 -7,5 C 2,8 C 79 % 1007,9 hPa 0,0 l/m 26,4 km/h (4 Bft) O 88 0 min 0,000 mm 0,0 UV-I 0 W/m -10,5 C -22,5 C 33,8 km/h (5 Bft) 100,00 %
01.03.2018 19:27 -7,5 C 2,8 C 79 % 1007,9 hPa 0,0 l/m 22,9 km/h (4 Bft) O 90 0 min 0,000 mm 0,0 UV-I 0 W/m -10,5 C -20,9 C 30,6 km/h (5 Bft) 100,00 %
01.03.2018 19:28 -7,5 C 2,8 C 79 % 1007,9 hPa 0,0 l/m 22,9 km/h (4 Bft) O 98 0 min 0,000 mm 0,0 UV-I 0 W/m -10,5 C -20,9 C 33,8 km/h (5 Bft) 100,00 %
01.03.2018 19:29 -7,5 C 2,8 C 79 % 1007,9 hPa 0,0 l/m 29,9 km/h (5 Bft) O 88 0 min 0,000 mm 0,0 UV-I 0 W/m -10,5 C -23,9 C 38,6 km/h (5 Bft) 100,00 %
01.03.2018 19:30 -7,5 C 2,8 C 79 % 1007,9 hPa 0,0 l/m 29,3 km/h (5 Bft) O 90 0 min 0,000 mm 0,0 UV-I 0 W/m -10,5 C -23,7 C 41,8 km/h (6 Bft) 100,00 %
01.03.2018 19:31 -7,5 C 2,8 C 79 % 1007,8 hPa 0,0 l/m 25,2 km/h (4 Bft) SO 133 0 min 0,000 mm 0,0 UV-I 0 W/m -10,5 C -22,0 C 32,2 km/h (5 Bft) 96,67 %
01.03.2018 19:32 -7,6 C 2,8 C 79 % 1007,8 hPa 0,0 l/m 27,2 km/h (4 Bft) O 97 0 min 0,000 mm 0,0 UV-I 0 W/m -10,6 C -23,0 C 35,4 km/h (5 Bft) 100,00 %
01.03.2018 19:33 -7,6 C 2,8 C 79 % 1007,8 hPa 0,0 l/m 27,2 km/h (4 Bft) O 94 0 min 0,000 mm 0,0 UV-I 0 W/m -10,6 C -23,0 C 30,6 km/h (5 Bft) 100,00 %
01.03.2018 19:34 -7,6 C 2,8 C 79 % 1007,8 hPa 0,0 l/m 25,4 km/h (4 Bft) O-NO 69 0 min 0,000 mm 0,0 UV-I 0 W/m -10,6 C -22,2 C 35,4 km/h (5 Bft) 100,00 %
01.03.2018 19:35 -7,6 C 2,8 C 79 % 1007,8 hPa 0,0 l/m 26,2 km/h (4 Bft) O-NO 62 0 min 0,000 mm 0,0 UV-I 0 W/m -10,6 C -22,6 C 33,8 km/h (5 Bft) 96,55 %
01.03.2018 19:36 -7,6 C 2,8 C 79 % 1007,8 hPa 0,0 l/m 28,1 km/h (4 Bft) O 82 0 min 0,000 mm 0,0 UV-I 0 W/m -10,6 C -23,4 C 37,0 km/h (5 Bft) 100,00 %
01.03.2018 19:37 -7,6 C 2,8 C 79 % 1007,8 hPa 0,0 l/m 28,7 km/h (4 Bft) O-NO 75 0 min 0,000 mm 0,0 UV-I 0 W/m -10,6 C -23,6 C 38,6 km/h (5 Bft) 100,00 %
01.03.2018 19:38 -7,6 C 2,8 C 79 % 1007,8 hPa 0,0 l/m 26,9 km/h (4 Bft) O 84 0 min 0,000 mm 0,0 UV-I 0 W/m -10,6 C -22,9 C 35,4 km/h (5 Bft) 100,00 %
01.03.2018 19:39 -7,6 C 2,8 C 79 % 1007,7 hPa 0,0 l/m 25,6 km/h (4 Bft) O-SO 108 0 min 0,000 mm 0,0 UV-I 0 W/m -10,6 C -22,3 C 33,8 km/h (5 Bft) 98,16 %
01.03.2018 19:40 -7,6 C 2,8 C 80 % 1007,7 hPa 0,0 l/m 29,5 km/h (5 Bft) O-NO 71 0 min 0,000 mm 0,0 UV-I 0 W/m -10,4 C -23,9 C 37,0 km/h (5 Bft) 100,00 %
01.03.2018 19:41 -7,6 C 2,8 C 80 % 1007,6 hPa 0,0 l/m 24,0 km/h (4 Bft) NO 51 0 min 0,000 mm 0,0 UV-I 0 W/m -10,4 C -21,5 C 30,6 km/h (5 Bft) 100,00 %
01.03.2018 19:42 -7,6 C 2,8 C 80 % 1007,8 hPa 0,0 l/m 21,6 km/h (4 Bft) O-NO 74 0 min 0,000 mm 0,0 UV-I 0 W/m -10,4 C -20,3 C 30,6 km/h (5 Bft) 96,67 %
01.03.2018 19:43 -7,6 C 2,8 C 80 % 1007,8 hPa 0,0 l/m 26,7 km/h (4 Bft) O-SO 105 0 min 0,000 mm 0,0 UV-I 0 W/m -10,4 C -22,8 C 40,2 km/h (6 Bft) 100,00 %
01.03.2018 19:44 -7,6 C 2,8 C 80 % 1007,8 hPa 0,0 l/m 31,5 km/h (5 Bft) O 96 0 min 0,000 mm 0,0 UV-I 0 W/m -10,4 C -24,6 C 41,8 km/h (6 Bft) 100,00 %
01.03.2018 19:45 -7,6 C 2,8 C 80 % 1007,8 hPa 0,0 l/m 30,7 km/h (5 Bft) O-SO 106 0 min 0,000 mm 0,0 UV-I 0 W/m -10,4 C -24,4 C 38,6 km/h (5 Bft) 100,00 %
01.03.2018 19:46 -7,6 C 2,8 C 80 % 1007,8 hPa 0,0 l/m 27,7 km/h (4 Bft) O 84 0 min 0,000 mm 0,0 UV-I 0 W/m -10,4 C -23,2 C 35,4 km/h (5 Bft) 100,00 %
01.03.2018 19:47 -7,6 C 2,8 C 80 % 1007,9 hPa 0,0 l/m 29,0 km/h (5 Bft) O 91 0 min 0,000 mm 0,0 UV-I 0 W/m -10,4 C -23,7 C 38,6 km/h (5 Bft) 100,00 %
01.03.2018 19:48 -7,6 C 2,8 C 80 % 1007,9 hPa 0,0 l/m 30,7 km/h (5 Bft) O-SO 103 0 min 0,000 mm 0,0 UV-I 0 W/m -10,4 C -24,4 C 41,8 km/h (6 Bft) 100,00 %
01.03.2018 19:49 -7,6 C 2,8 C 80 % 1007,8 hPa 0,0 l/m 29,7 km/h (5 Bft) O-SO 104 0 min 0,000 mm 0,0 UV-I 0 W/m -10,4 C -24,0 C 37,0 km/h (5 Bft) 100,00 %
01.03.2018 19:50 -7,7 C 2,8 C 80 % 1007,9 hPa 0,0 l/m 31,8 km/h (5 Bft) O 87 0 min 0,000 mm 0,0 UV-I 0 W/m -10,5 C -24,9 C 41,8 km/h (6 Bft) 100,00 %
01.03.2018 19:51 -7,7 C 2,8 C 80 % 1007,8 hPa 0,0 l/m 26,7 km/h (4 Bft) O 92 0 min 0,000 mm 0,0 UV-I 0 W/m -10,5 C -22,9 C 38,6 km/h (5 Bft) 100,00 %
01.03.2018 19:52 -7,7 C 2,8 C 80 % 1007,9 hPa 0,0 l/m 24,4 km/h (4 Bft) O-NO 69 0 min 0,000 mm 0,0 UV-I 0 W/m -10,5 C -21,9 C 41,8 km/h (6 Bft) 100,00 %
01.03.2018 19:53 -7,7 C 2,8 C 80 % 1007,8 hPa 0,0 l/m 24,1 km/h (4 Bft) NO 38 0 min 0,000 mm 0,0 UV-I 0 W/m -10,5 C -21,7 C 30,6 km/h (5 Bft) 95,65 %
01.03.2018 19:54 -7,7 C 2,8 C 80 % 1007,9 hPa 0,0 l/m 27,3 km/h (4 Bft) O 89 0 min 0,000 mm 0,0 UV-I 0 W/m -10,5 C -23,2 C 41,8 km/h (6 Bft) 100,00 %
01.03.2018 19:55 -7,7 C 2,8 C 80 % 1007,8 hPa 0,0 l/m 30,2 km/h (5 Bft) O 101 0 min 0,000 mm 0,0 UV-I 0 W/m -10,5 C -24,3 C 40,2 km/h (6 Bft) 100,00 %
01.03.2018 19:56 -7,7 C 2,8 C 80 % 1007,9 hPa 0,0 l/m 22,7 km/h (4 Bft) O-NO 57 0 min 0,000 mm 0,0 UV-I 0 W/m -10,5 C -21,0 C 32,2 km/h (5 Bft) 100,00 %
01.03.2018 19:57 -7,7 C 2,8 C 80 % 1007,9 hPa 0,0 l/m 31,6 km/h (5 Bft) O 88 0 min 0,000 mm 0,0 UV-I 0 W/m -10,5 C -24,8 C 38,6 km/h (5 Bft) 100,00 %
01.03.2018 19:58 -7,7 C 2,8 C 80 % 1007,8 hPa 0,0 l/m 29,9 km/h (5 Bft) O-NO 74 0 min 0,000 mm 0,0 UV-I 0 W/m -10,5 C -24,2 C 40,2 km/h (6 Bft) 100,00 %
01.03.2018 19:59 -7,7 C 2,8 C 80 % 1007,7 hPa 0,0 l/m 27,8 km/h (4 Bft) O 82 0 min 0,000 mm 0,0 UV-I 0 W/m -10,5 C -23,4 C 33,8 km/h (5 Bft) 100,00 %
01.03.2018 20:00 -7,7 C 2,8 C 80 % 1007,7 hPa 0,0 l/m 29,2 km/h (5 Bft) O-SO 105 0 min 0,000 mm 0,0 UV-I 0 W/m -10,5 C -23,9 C 40,2 km/h (6 Bft) 100,00 %
01.03.2018 20:01 -7,7 C 2,8 C 80 % 1007,7 hPa 0,0 l/m 26,4 km/h (4 Bft) O 80 0 min 0,025 mm 0,0 UV-I 0 W/m -10,5 C -22,8 C 35,4 km/h (5 Bft) 96,67 %
01.03.2018 20:02 -7,7 C 2,8 C 80 % 1007,6 hPa 0,0 l/m 28,7 km/h (4 Bft) O 98 0 min 0,000 mm 0,0 UV-I 0 W/m -10,5 C -23,7 C 41,8 km/h (6 Bft) 96,15 %
01.03.2018 20:03 -7,7 C 2,8 C 80 % 1007,7 hPa 0,0 l/m 28,6 km/h (4 Bft) SO 127 0 min 0,000 mm 0,0 UV-I 0 W/m -10,5 C -23,7 C 41,8 km/h (6 Bft) 100,00 %
01.03.2018 20:04 -7,7 C 2,8 C 80 % 1007,7 hPa 0,0 l/m 25,7 km/h (4 Bft) O-SO 110 0 min 0,000 mm 0,0 UV-I 0 W/m -10,5 C -22,5 C 32,2 km/h (5 Bft) 95,65 %
01.03.2018 20:05 -7,7 C 2,8 C 80 % 1007,7 hPa 0,0 l/m 27,8 km/h (4 Bft) O 93 0 min 0,000 mm 0,0 UV-I 0 W/m -10,5 C -23,4 C 37,0 km/h (5 Bft) 100,00 %
01.03.2018 20:06 -7,7 C 2,8 C 80 % 1007,7 hPa 0,0 l/m 31,3 km/h (5 Bft) O 99 0 min 0,000 mm 0,0 UV-I 0 W/m -10,5 C -24,7 C 40,2 km/h (6 Bft) 92,31 %
01.03.2018 20:07 -7,7 C 2,8 C 80 % 1007,8 hPa 0,0 l/m 29,9 km/h (5 Bft) O-SO 104 0 min 0,000 mm 0,0 UV-I 0 W/m -10,5 C -24,2 C 38,6 km/h (5 Bft) 100,00 %
01.03.2018 20:08 -7,7 C 2,8 C 80 % 1007,7 hPa 0,0 l/m 27,8 km/h (4 Bft) O 83 0 min 0,000 mm 0,0 UV-I 0 W/m -10,5 C -23,4 C 35,4 km/h (5 Bft) 96,55 %
01.03.2018 20:09 -7,7 C 2,8 C 80 % 1007,7 hPa 0,0 l/m 24,1 km/h (4 Bft) O 82 0 min 0,000 mm 0,0 UV-I 0 W/m -10,5 C -21,7 C 32,2 km/h (5 Bft) 100,00 %
01.03.2018 20:10 -7,7 C 2,8 C 80 % 1007,7 hPa 0,0 l/m 32,9 km/h (5 Bft) NO 55 0 min 0,000 mm 0,0 UV-I 0 W/m -10,5 C -25,3 C 43,5 km/h (6 Bft) 95,65 %
01.03.2018 20:11 -7,7 C 2,8 C 80 % 1007,6 hPa 0,0 l/m 28,8 km/h (4 Bft) O 94 0 min 0,000 mm 0,0 UV-I 0 W/m -10,5 C -23,8 C 33,8 km/h (5 Bft) 100,00 %
01.03.2018 20:12 -7,8 C 2,8 C 80 % 1007,7 hPa 0,0 l/m 24,1 km/h (4 Bft) O-NO 59 0 min 0,000 mm 0,0 UV-I 0 W/m -10,6 C -21,9 C 32,2 km/h (5 Bft) 96,15 %
01.03.2018 20:13 -7,8 C 2,8 C 80 % 1007,6 hPa 0,0 l/m 22,4 km/h (4 Bft) O 101 0 min 0,000 mm 0,0 UV-I 0 W/m -10,6 C -21,0 C 29,0 km/h (5 Bft) 100,00 %
01.03.2018 20:14 -7,8 C 2,8 C 80 % 1007,7 hPa 0,0 l/m 20,1 km/h (4 Bft) O 83 0 min 0,000 mm 0,0 UV-I 0 W/m -10,6 C -19,8 C 27,4 km/h (4 Bft) 96,15 %
01.03.2018 20:15 -7,8 C 2,8 C 80 % 1007,7 hPa 0,0 l/m 29,9 km/h (5 Bft) O 91 0 min 0,000 mm 0,0 UV-I 0 W/m -10,6 C -24,3 C 37,0 km/h (5 Bft) 96,30 %
01.03.2018 20:16 -7,8 C 2,8 C 80 % 1007,7 hPa 0,0 l/m 25,2 km/h (4 Bft) O 88 0 min 0,000 mm 0,0 UV-I 0 W/m -10,6 C -22,4 C 32,2 km/h (5 Bft) 94,44 %
01.03.2018 20:17 -7,8 C 2,8 C 80 % 1007,7 hPa 0,0 l/m 20,1 km/h (4 Bft) O 84 0 min 0,000 mm 0,0 UV-I 0 W/m -10,6 C -19,8 C 27,4 km/h (4 Bft) 96,55 %
01.03.2018 20:18 -7,8 C 2,8 C 81 % 1007,7 hPa 0,0 l/m 24,4 km/h (4 Bft) O 90 0 min 0,000 mm 0,0 UV-I 0 W/m -10,5 C -22,0 C 33,8 km/h (5 Bft) 100,00 %
01.03.2018 20:19 -7,8 C 2,8 C 81 % 1007,7 hPa 0,0 l/m 26,3 km/h (4 Bft) O-NO 69 0 min 0,000 mm 0,0 UV-I 0 W/m -10,5 C -22,9 C 30,6 km/h (5 Bft) 93,33 %
01.03.2018 20:20 -7,8 C 2,8 C 81 % 1007,6 hPa 0,0 l/m 27,8 km/h (4 Bft) O-NO 63 0 min 0,000 mm 0,0 UV-I 0 W/m -10,5 C -23,5 C 35,4 km/h (5 Bft) 100,00 %
01.03.2018 20:21 -7,8 C 2,8 C 81 % 1007,6 hPa 0,0 l/m 25,1 km/h (4 Bft) O-SO 111 0 min 0,000 mm 0,0 UV-I 0 W/m -10,5 C -22,3 C 32,2 km/h (5 Bft) 91,30 %
01.03.2018 20:22 -7,8 C 2,8 C 81 % 1007,7 hPa 0,0 l/m 22,9 km/h (4 Bft) O 93 0 min 0,000 mm 0,0 UV-I 0 W/m -10,5 C -21,3 C 33,8 km/h (5 Bft) 96,30 %
01.03.2018 20:23 -7,8 C 2,8 C 81 % 1007,6 hPa 0,0 l/m 25,6 km/h (4 Bft) O 101 0 min 0,000 mm 0,0 UV-I 0 W/m -10,5 C -22,6 C 30,6 km/h (5 Bft) 100,00 %
01.03.2018 20:24 -7,8 C 2,8 C 81 % 1007,6 hPa 0,0 l/m 22,0 km/h (4 Bft) O 92 0 min 0,000 mm 0,0 UV-I 0 W/m -10,5 C -20,8 C 29,0 km/h (5 Bft) 100,00 %
01.03.2018 20:25 -7,8 C 2,8 C 81 % 1007,6 hPa 0,0 l/m 23,9 km/h (4 Bft) O 85 0 min 0,000 mm 0,0 UV-I 0 W/m -10,5 C -21,8 C 30,6 km/h (5 Bft) 96,15 %
01.03.2018 20:26 -7,8 C 2,8 C 81 % 1007,7 hPa 0,0 l/m 24,5 km/h (4 Bft) O-NO 67 0 min 0,000 mm 0,0 UV-I 0 W/m -10,5 C -22,1 C 30,6 km/h (5 Bft) 95,83 %
01.03.2018 20:27 -7,8 C 2,8 C 81 % 1007,7 hPa 0,0 l/m 20,7 km/h (4 Bft) O 85 0 min 0,000 mm 0,0 UV-I 0 W/m -10,5 C -20,1 C 29,0 km/h (5 Bft) 100,00 %
01.03.2018 20:28 -7,9 C 2,8 C 81 % 1007,7 hPa 0,0 l/m 21,3 km/h (4 Bft) O-NO 76 0 min 0,000 mm 0,0 UV-I 0 W/m -10,6 C -20,6 C 25,7 km/h (4 Bft) 86,67 %
01.03.2018 20:29 -7,8 C 2,8 C 81 % 1007,7 hPa 0,0 l/m 25,1 km/h (4 Bft) O 88 0 min 0,000 mm 0,0 UV-I 0 W/m -10,5 C -22,3 C 33,8 km/h (5 Bft) 100,00 %
01.03.2018 20:30 -7,8 C 2,8 C 81 % 1007,6 hPa 0,0 l/m 26,9 km/h (4 Bft) O-NO 63 0 min 0,000 mm 0,0 UV-I 0 W/m -10,5 C -23,1 C 32,2 km/h (5 Bft) 88,89 %
01.03.2018 20:31 -7,8 C 2,8 C 81 % 1007,7 hPa 0,0 l/m 28,8 km/h (4 Bft) O 87 0 min 0,000 mm 0,0 UV-I 0 W/m -10,5 C -23,9 C 33,8 km/h (5 Bft) 100,00 %
01.03.2018 20:32 -7,8 C 2,8 C 81 % 1007,7 hPa 0,0 l/m 30,3 km/h (5 Bft) O-NO 59 0 min 0,000 mm 0,0 UV-I 0 W/m -10,5 C -24,5 C 38,6 km/h (5 Bft) 96,67 %
01.03.2018 20:33 -7,8 C 2,8 C 81 % 1007,7 hPa 0,0 l/m 29,3 km/h (5 Bft) O-SO 109 0 min 0,000 mm 0,0 UV-I 0 W/m -10,5 C -24,1 C 38,6 km/h (5 Bft) 100,00 %
01.03.2018 20:34 -7,8 C 2,8 C 81 % 1007,6 hPa 0,0 l/m 22,7 km/h (4 Bft) O 92 0 min 0,000 mm 0,0 UV-I 0 W/m -10,5 C -21,2 C 27,4 km/h (4 Bft) 96,67 %
01.03.2018 20:35 -7,8 C 2,8 C 81 % 1007,6 hPa 0,0 l/m 24,7 km/h (4 Bft) O-NO 69 0 min 0,000 mm 0,0 UV-I 0 W/m -10,5 C -22,1 C 30,6 km/h (5 Bft) 91,30 %
01.03.2018 20:36 -7,9 C 2,8 C 81 % 1007,7 hPa 0,0 l/m 19,8 km/h (3 Bft) O-NO 70 0 min 0,000 mm 0,0 UV-I 0 W/m -10,6 C -19,7 C 24,1 km/h (4 Bft) 100,00 %
01.03.2018 20:37 -7,9 C 2,8 C 81 % 1007,6 hPa 0,0 l/m 24,3 km/h (4 Bft) O-NO 72 0 min 0,000 mm 0,0 UV-I 0 W/m -10,6 C -22,1 C 29,0 km/h (5 Bft) 96,30 %
01.03.2018 20:38 -7,9 C 2,8 C 81 % 1007,7 hPa 0,0 l/m 23,2 km/h (4 Bft) O-NO 71 0 min 0,000 mm 0,0 UV-I 0 W/m -10,6 C -21,6 C 30,6 km/h (5 Bft) 96,15 %
01.03.2018 20:39 -7,9 C 2,8 C 81 % 1007,7 hPa 0,0 l/m 24,8 km/h (4 Bft) O-NO 72 0 min 0,000 mm 0,0 UV-I 0 W/m -10,6 C -22,3 C 33,8 km/h (5 Bft) 91,67 %
01.03.2018 20:40 -7,9 C 2,8 C 81 % 1007,7 hPa 0,0 l/m 24,3 km/h (4 Bft) O 94 0 min 0,000 mm 0,0 UV-I 0 W/m -10,6 C -22,1 C 27,4 km/h (4 Bft) 95,65 %
01.03.2018 20:41 -7,9 C 2,8 C 81 % 1007,7 hPa 0,0 l/m 20,1 km/h (4 Bft) O-NO 77 0 min 0,000 mm 0,0 UV-I 0 W/m -10,6 C -19,9 C 29,0 km/h (5 Bft) 92,59 %
01.03.2018 20:42 -7,9 C 2,8 C 81 % 1007,7 hPa 0,0 l/m 22,9 km/h (4 Bft) O 84 0 min 0,000 mm 0,0 UV-I 0 W/m -10,6 C -21,4 C 27,4 km/h (4 Bft) 96,15 %
01.03.2018 20:43 -7,9 C 2,8 C 82 % 1007,6 hPa 0,0 l/m 19,2 km/h (3 Bft) O 79 0 min 0,000 mm 0,0 UV-I 0 W/m -10,4 C -19,4 C 24,1 km/h (4 Bft) 94,44 %
01.03.2018 20:44 -7,9 C 2,8 C 81 % 1007,6 hPa 0,0 l/m 18,5 km/h (3 Bft) O-SO 105 0 min 0,000 mm 0,0 UV-I 0 W/m -10,6 C -18,9 C 24,1 km/h (4 Bft) 88,46 %
01.03.2018 20:45 -7,9 C 2,8 C 82 % 1007,6 hPa 0,0 l/m 19,9 km/h (4 Bft) O-NO 69 0 min 0,000 mm 0,0 UV-I 0 W/m -10,4 C -19,8 C 24,1 km/h (4 Bft) 100,00 %
01.03.2018 20:46 -7,9 C 2,8 C 82 % 1007,6 hPa 0,0 l/m 18,5 km/h (3 Bft) O 98 0 min 0,000 mm 0,0 UV-I 0 W/m -10,4 C -18,9 C 22,5 km/h (4 Bft) 92,86 %
01.03.2018 20:47 -7,9 C 2,8 C 82 % 1007,6 hPa 0,0 l/m 22,4 km/h (4 Bft) O-SO 102 0 min 0,000 mm 0,0 UV-I 0 W/m -10,4 C -21,2 C 33,8 km/h (5 Bft) 96,30 %
01.03.2018 20:48 -7,9 C 2,8 C 82 % 1007,6 hPa 0,0 l/m 24,4 km/h (4 Bft) O 90 0 min 0,000 mm 0,0 UV-I 0 W/m -10,4 C -22,1 C 30,6 km/h (5 Bft) 91,30 %
01.03.2018 20:49 -7,9 C 2,8 C 82 % 1007,5 hPa 0,0 l/m 20,2 km/h (4 Bft) NO 48 0 min 0,000 mm 0,0 UV-I 0 W/m -10,4 C -20,0 C 25,7 km/h (4 Bft) 100,00 %
01.03.2018 20:50 -7,9 C 2,8 C 82 % 1007,5 hPa 0,0 l/m 22,6 km/h (4 Bft) O-NO 74 0 min 0,000 mm 0,0 UV-I 0 W/m -10,4 C -21,3 C 29,0 km/h (5 Bft) 88,46 %
01.03.2018 20:51 -7,9 C 2,8 C 82 % 1007,4 hPa 0,0 l/m 20,8 km/h (4 Bft) O 92 0 min 0,000 mm 0,0 UV-I 0 W/m -10,4 C -20,3 C 29,0 km/h (5 Bft) 100,00 %
01.03.2018 20:52 -7,9 C 2,8 C 82 % 1007,4 hPa 0,0 l/m 20,4 km/h (4 Bft) O 85 0 min 0,000 mm 0,0 UV-I 0 W/m -10,4 C -20,1 C 22,5 km/h (4 Bft) 92,31 %
01.03.2018 20:53 -7,9 C 2,8 C 82 % 1007,5 hPa 0,0 l/m 23,1 km/h (4 Bft) O 90 0 min 0,000 mm 0,0 UV-I 0 W/m -10,4 C -21,5 C 29,0 km/h (5 Bft) 96,30 %
01.03.2018 20:54 -7,9 C 2,8 C 82 % 1007,4 hPa 0,0 l/m 21,1 km/h (4 Bft) O-SO 103 0 min 0,000 mm 0,0 UV-I 0 W/m -10,4 C -20,5 C 29,0 km/h (5 Bft) 91,67 %
01.03.2018 20:55 -7,9 C 2,8 C 82 % 1007,5 hPa 0,0 l/m 21,3 km/h (4 Bft) O 82 0 min 0,000 mm 0,0 UV-I 0 W/m -10,4 C -20,6 C 27,4 km/h (4 Bft) 96,15 %
01.03.2018 20:56 -7,9 C 2,8 C 82 % 1007,4 hPa 0,0 l/m 21,5 km/h (4 Bft) O-NO 71 0 min 0,000 mm 0,0 UV-I 0 W/m -10,4 C -20,7 C 30,6 km/h (5 Bft) 95,83 %
01.03.2018 20:57 -7,9 C 2,8 C 82 % 1007,5 hPa 0,0 l/m 19,1 km/h (3 Bft) O-SO 121 0 min 0,000 mm 0,0 UV-I 0 W/m -10,4 C -19,3 C 27,4 km/h (4 Bft) 93,10 %
01.03.2018 20:58 -7,9 C 2,8 C 82 % 1007,4 hPa 0,0 l/m 22,3 km/h (4 Bft) O-NO 77 0 min 0,000 mm 0,0 UV-I 0 W/m -10,4 C -21,1 C 25,7 km/h (4 Bft) 100,00 %
01.03.2018 20:59 -7,9 C 2,8 C 82 % 1007,5 hPa 0,0 l/m 24,7 km/h (4 Bft) O 82 0 min 0,000 mm 0,0 UV-I 0 W/m -10,4 C -22,3 C 30,6 km/h (5 Bft) 91,30 %
01.03.2018 21:00 -7,9 C 2,8 C 82 % 1007,4 hPa 0,0 l/m 22,8 km/h (4 Bft) O-NO 61 0 min 0,000 mm 0,0 UV-I 0 W/m -10,4 C -21,4 C 30,6 km/h (5 Bft) 100,00 %
01.03.2018 21:01 -7,8 C 2,8 C 82 % 1007,4 hPa 0,0 l/m 23,6 km/h (4 Bft) O 89 0 min 0,026 mm 0,0 UV-I 0 W/m -10,3 C -21,6 C 32,2 km/h (5 Bft) 91,30 %
01.03.2018 21:02 -7,9 C 2,8 C 82 % 1007,4 hPa 0,0 l/m 29,3 km/h (5 Bft) O 87 0 min 0,000 mm 0,0 UV-I 0 W/m -10,4 C -24,2 C 33,8 km/h (5 Bft) 100,00 %
01.03.2018 21:03 -7,8 C 2,8 C 82 % 1007,5 hPa 0,0 l/m 20,4 km/h (4 Bft) O-NO 64 0 min 0,000 mm 0,0 UV-I 0 W/m -10,3 C -19,9 C 25,7 km/h (4 Bft) 90,32 %
01.03.2018 21:04 -7,8 C 2,8 C 82 % 1007,5 hPa 0,0 l/m 16,0 km/h (3 Bft) O-NO 70 0 min 0,000 mm 0,0 UV-I 0 W/m -10,3 C -17,2 C 22,5 km/h (4 Bft) 93,94 %
01.03.2018 21:05 -7,8 C 2,8 C 82 % 1007,4 hPa 0,0 l/m 19,1 km/h (3 Bft) O-NO 73 0 min 0,000 mm 0,0 UV-I 0 W/m -10,3 C -19,2 C 25,7 km/h (4 Bft) 100,00 %
01.03.2018 21:06 -7,8 C 2,8 C 82 % 1007,3 hPa 0,0 l/m 22,4 km/h (4 Bft) O-NO 76 0 min 0,000 mm 0,0 UV-I 0 W/m -10,3 C -21,0 C 25,7 km/h (4 Bft) 96,67 %
01.03.2018 21:07 -7,8 C 2,8 C 82 % 1007,3 hPa 0,0 l/m 22,3 km/h (4 Bft) O 90 0 min 0,000 mm 0,0 UV-I 0 W/m -10,3 C -21,0 C 25,7 km/h (4 Bft) 95,65 %
01.03.2018 21:08 -7,8 C 2,8 C 82 % 1007,4 hPa 0,0 l/m 25,3 km/h (4 Bft) O 88 0 min 0,000 mm 0,0 UV-I 0 W/m -10,3 C -22,4 C 30,6 km/h (5 Bft) 87,50 %
01.03.2018 21:09 -7,8 C 2,8 C 82 % 1007,3 hPa 0,0 l/m 22,0 km/h (4 Bft) O 84 0 min 0,000 mm 0,0 UV-I 0 W/m -10,3 C -20,8 C 27,4 km/h (4 Bft) 96,15 %
01.03.2018 21:10 -7,8 C 2,8 C 83 % 1007,3 hPa 0,0 l/m 29,5 km/h (5 Bft) O-NO 73 0 min 0,000 mm 0,0 UV-I 0 W/m -10,2 C -24,2 C 38,6 km/h (5 Bft) 95,83 %
01.03.2018 21:11 -7,8 C 2,8 C 83 % 1007,3 hPa 0,0 l/m 28,1 km/h (4 Bft) O 88 0 min 0,000 mm 0,0 UV-I 0 W/m -10,2 C -23,6 C 33,8 km/h (5 Bft) 95,65 %
01.03.2018 21:12 -7,8 C 2,8 C 82 % 1007,3 hPa 0,0 l/m 26,3 km/h (4 Bft) O-NO 72 0 min 0,000 mm 0,0 UV-I 0 W/m -10,3 C -22,9 C 35,4 km/h (5 Bft) 98,02 %
01.03.2018 21:13 -7,8 C 2,8 C 82 % 1007,3 hPa 0,0 l/m 24,6 km/h (4 Bft) O 87 0 min 0,000 mm 0,0 UV-I 0 W/m -10,3 C -22,1 C 32,2 km/h (5 Bft) 97,56 %
01.03.2018 21:14 -7,8 C 2,8 C 82 % 1007,3 hPa 0,0 l/m 23,3 km/h (4 Bft) O-NO 67 0 min 0,000 mm 0,0 UV-I 0 W/m -10,3 C -21,5 C 30,6 km/h (5 Bft) 96,30 %
01.03.2018 21:15 -7,8 C 2,8 C 82 % 1007,3 hPa 0,0 l/m 23,7 km/h (4 Bft) O-NO 74 0 min 0,000 mm 0,0 UV-I 0 W/m -10,3 C -21,7 C 29,0 km/h (5 Bft) 98,02 %
01.03.2018 21:16 -7,8 C 2,8 C 82 % 1007,3 hPa 0,0 l/m 23,6 km/h (4 Bft) O 88 0 min 0,000 mm 0,0 UV-I 0 W/m -10,3 C -21,6 C 32,2 km/h (5 Bft) 97,73 %
01.03.2018 21:17 -7,8 C 2,8 C 82 % 1007,3 hPa 0,0 l/m 22,3 km/h (4 Bft) O 86 0 min 0,000 mm 0,0 UV-I 0 W/m -10,3 C -21,0 C 25,7 km/h (4 Bft) 100,00 %
01.03.2018 21:18 -7,8 C 2,8 C 83 % 1007,2 hPa 0,0 l/m 27,0 km/h (4 Bft) O-NO 69 0 min 0,000 mm 0,0 UV-I 0 W/m -10,2 C -23,2 C 37,0 km/h (5 Bft) 100,00 %
01.03.2018 21:19 -7,8 C 2,8 C 83 % 1007,3 hPa 0,0 l/m 28,2 km/h (4 Bft) O 99 0 min 0,000 mm 0,0 UV-I 0 W/m -10,2 C -23,7 C 40,2 km/h (6 Bft) 98,02 %
01.03.2018 21:20 -7,8 C 2,8 C 83 % 1007,2 hPa 0,0 l/m 27,2 km/h (4 Bft) O-NO 70 0 min 0,000 mm 0,0 UV-I 0 W/m -10,2 C -23,3 C 33,8 km/h (5 Bft) 100,00 %
01.03.2018 21:21 -7,8 C 2,8 C 83 % 1007,3 hPa 0,0 l/m 30,1 km/h (5 Bft) O-NO 69 0 min 0,000 mm 0,0 UV-I 0 W/m -10,2 C -24,4 C 35,4 km/h (5 Bft) 100,00 %
01.03.2018 21:22 -7,8 C 2,8 C 83 % 1007,3 hPa 0,0 l/m 23,7 km/h (4 Bft) O 101 0 min 0,000 mm 0,0 UV-I 0 W/m -10,2 C -21,7 C 27,4 km/h (4 Bft) 95,65 %
01.03.2018 21:23 -7,8 C 2,8 C 83 % 1007,2 hPa 0,0 l/m 31,9 km/h (5 Bft) O-NO 77 0 min 0,000 mm 0,0 UV-I 0 W/m -10,2 C -25,1 C 49,9 km/h (6 Bft) 100,00 %
01.03.2018 21:24 -7,8 C 2,8 C 83 % 1007,2 hPa 0,0 l/m 32,7 km/h (5 Bft) O 90 0 min 0,000 mm 0,0 UV-I 0 W/m -10,2 C -25,3 C 40,2 km/h (6 Bft) 100,00 %
01.03.2018 21:25 -7,8 C 2,8 C 83 % 1007,2 hPa 0,0 l/m 25,2 km/h (4 Bft) O 79 0 min 0,000 mm 0,0 UV-I 0 W/m -10,2 C -22,4 C 32,2 km/h (5 Bft) 100,00 %
01.03.2018 21:26 -7,8 C 2,8 C 83 % 1007,2 hPa 0,0 l/m 24,2 km/h (4 Bft) O 87 0 min 0,000 mm 0,0 UV-I 0 W/m -10,2 C -21,9 C 30,6 km/h (5 Bft) 100,00 %
01.03.2018 21:27 -7,8 C 2,8 C 83 % 1007,2 hPa 0,0 l/m 25,7 km/h (4 Bft) O 98 0 min 0,000 mm 0,0 UV-I 0 W/m -10,2 C -22,6 C 30,6 km/h (5 Bft) 94,44 %
01.03.2018 21:28 -7,8 C 2,8 C 83 % 1007,2 hPa 0,0 l/m 22,0 km/h (4 Bft) O-NO 70 0 min 0,000 mm 0,0 UV-I 0 W/m -10,2 C -20,8 C 25,7 km/h (4 Bft) 100,00 %
01.03.2018 21:29 -7,8 C 2,8 C 83 % 1007,2 hPa 0,0 l/m 20,4 km/h (4 Bft) O-NO 62 0 min 0,000 mm 0,0 UV-I 0 W/m -10,2 C -19,9 C 24,1 km/h (4 Bft) 100,00 %
01.03.2018 21:30 -7,8 C 2,8 C 83 % 1007,2 hPa 0,0 l/m 20,8 km/h (4 Bft) O 90 0 min 0,000 mm 0,0 UV-I 0 W/m -10,2 C -20,2 C 29,0 km/h (5 Bft) 90,91 %
01.03.2018 21:31 -7,8 C 2,8 C 83 % 1007,2 hPa 0,0 l/m 26,2 km/h (4 Bft) O-NO 69 0 min 0,000 mm 0,0 UV-I 0 W/m -10,2 C -22,8 C 35,4 km/h (5 Bft) 100,00 %
01.03.2018 21:32 -7,8 C 2,8 C 83 % 1007,2 hPa 0,0 l/m 29,6 km/h (5 Bft) O-NO 60 0 min 0,000 mm 0,0 UV-I 0 W/m -10,2 C -24,2 C 41,8 km/h (6 Bft) 100,00 %
01.03.2018 21:33 -7,8 C 2,8 C 83 % 1007,2 hPa 0,0 l/m 26,9 km/h (4 Bft) O-NO 76 0 min 0,000 mm 0,0 UV-I 0 W/m -10,2 C -23,1 C 32,2 km/h (5 Bft) 91,67 %
01.03.2018 21:34 -7,8 C 2,8 C 83 % 1007,1 hPa 0,0 l/m 22,2 km/h (4 Bft) O-NO 76 0 min 0,000 mm 0,0 UV-I 0 W/m -10,2 C -20,9 C 30,6 km/h (5 Bft) 100,00 %
01.03.2018 21:35 -7,8 C 2,8 C 83 % 1007,2 hPa 0,0 l/m 24,6 km/h (4 Bft) O-NO 60 0 min 0,000 mm 0,0 UV-I 0 W/m -10,2 C -22,1 C 30,6 km/h (5 Bft) 100,00 %
01.03.2018 21:36 -7,8 C 2,8 C 83 % 1007,1 hPa 0,0 l/m 25,2 km/h (4 Bft) O 92 0 min 0,000 mm 0,0 UV-I 0 W/m -10,2 C -22,4 C 32,2 km/h (5 Bft) 100,00 %
01.03.2018 21:37 -7,8 C 2,8 C 83 % 1007,1 hPa 0,0 l/m 25,7 km/h (4 Bft) O-SO 108 0 min 0,000 mm 0,0 UV-I 0 W/m -10,2 C -22,6 C 37,0 km/h (5 Bft) 96,15 %
01.03.2018 21:38 -7,8 C 2,8 C 83 % 1007,1 hPa 0,0 l/m 23,1 km/h (4 Bft) O 83 0 min 0,000 mm 0,0 UV-I 0 W/m -10,2 C -21,4 C 30,6 km/h (5 Bft) 95,83 %
01.03.2018 21:39 -7,8 C 2,8 C 83 % 1007,1 hPa 0,0 l/m 24,9 km/h (4 Bft) O-NO 66 0 min 0,000 mm 0,0 UV-I 0 W/m -10,2 C -22,2 C 33,8 km/h (5 Bft) 100,00 %
01.03.2018 21:40 -7,7 C 2,8 C 83 % 1007,0 hPa 0,0 l/m 25,1 km/h (4 Bft) O 86 0 min 0,000 mm 0,0 UV-I 0 W/m -10,1 C -22,2 C 32,2 km/h (5 Bft) 100,00 %
01.03.2018 21:41 -7,7 C 2,8 C 83 % 1007,0 hPa 0,0 l/m 25,1 km/h (4 Bft) NO 55 0 min 0,000 mm 0,0 UV-I 0 W/m -10,1 C -22,2 C 30,6 km/h (5 Bft) 96,15 %
01.03.2018 21:42 -7,7 C 2,8 C 83 % 1007,0 hPa 0,0 l/m 21,4 km/h (4 Bft) O-SO 107 0 min 0,000 mm 0,0 UV-I 0 W/m -10,1 C -20,4 C 29,0 km/h (5 Bft) 100,00 %
01.03.2018 21:43 -7,7 C 2,8 C 83 % 1007,0 hPa 0,0 l/m 23,3 km/h (4 Bft) O 81 0 min 0,000 mm 0,0 UV-I 0 W/m -10,1 C -21,3 C 32,2 km/h (5 Bft) 100,00 %
01.03.2018 21:44 -7,7 C 2,8 C 83 % 1007,0 hPa 0,0 l/m 24,2 km/h (4 Bft) O 90 0 min 0,000 mm 0,0 UV-I 0 W/m -10,1 C -21,8 C 33,8 km/h (5 Bft) 100,00 %
01.03.2018 21:45 -7,7 C 2,8 C 83 % 1007,0 hPa 0,0 l/m 19,9 km/h (4 Bft) O-NO 67 0 min 0,000 mm 0,0 UV-I 0 W/m -10,1 C -19,5 C 29,0 km/h (5 Bft) 100,00 %
01.03.2018 21:46 -7,7 C 2,8 C 83 % 1007,0 hPa 0,0 l/m 22,3 km/h (4 Bft) O 88 0 min 0,000 mm 0,0 UV-I 0 W/m -10,1 C -20,8 C 32,2 km/h (5 Bft) 98,05 %
01.03.2018 21:48 -7,7 C 2,8 C 83 % 1006,9 hPa 0,0 l/m 29,3 km/h (5 Bft) O-SO 104 0 min 0,000 mm 0,0 UV-I 0 W/m -10,1 C -24,0 C 43,5 km/h (6 Bft) 97,18 %
01.03.2018 21:49 -7,7 C 2,8 C 83 % 1006,9 hPa 0,0 l/m 28,6 km/h (4 Bft) O-NO 74 0 min 0,000 mm 0,0 UV-I 0 W/m -10,1 C -23,7 C 33,8 km/h (5 Bft) 94,12 %
01.03.2018 21:50 -7,7 C 2,8 C 83 % 1006,8 hPa 0,0 l/m 36,1 km/h (5 Bft) O 90 0 min 0,000 mm 0,0 UV-I 0 W/m -10,1 C -26,3 C 43,5 km/h (6 Bft) 100,00 %
01.03.2018 21:51 -7,7 C 2,8 C 83 % 1006,8 hPa 0,0 l/m 29,3 km/h (5 Bft) O-SO 108 0 min 0,000 mm 0,0 UV-I 0 W/m -10,1 C -24,0 C 38,6 km/h (5 Bft) 100,00 %
01.03.2018 21:52 -7,7 C 2,8 C 83 % 1006,8 hPa 0,0 l/m 23,9 km/h (4 Bft) O 91 0 min 0,000 mm 0,0 UV-I 0 W/m -10,1 C -21,6 C 30,6 km/h (5 Bft) 100,00 %
01.03.2018 21:53 -7,7 C 2,8 C 83 % 1006,8 hPa 0,0 l/m 24,7 km/h (4 Bft) O-NO 70 0 min 0,000 mm 0,0 UV-I 0 W/m -10,1 C -22,0 C 29,0 km/h (5 Bft) 98,05 %
01.03.2018 21:54 -7,7 C 2,8 C 83 % 1006,8 hPa 0,0 l/m 24,5 km/h (4 Bft) O 79 0 min 0,000 mm 0,0 UV-I 0 W/m -10,1 C -21,9 C 32,2 km/h (5 Bft) 100,00 %
01.03.2018 21:55 -7,7 C 2,8 C 83 % 1006,8 hPa 0,0 l/m 27,4 km/h (4 Bft) O-NO 72 0 min 0,000 mm 0,0 UV-I 0 W/m -10,1 C -23,2 C 35,4 km/h (5 Bft) 100,00 %
01.03.2018 21:56 -7,7 C 2,8 C 83 % 1006,8 hPa 0,0 l/m 24,0 km/h (4 Bft) O 97 0 min 0,000 mm 0,0 UV-I 0 W/m -10,1 C -21,7 C 30,6 km/h (5 Bft) 100,00 %
01.03.2018 21:57 -7,7 C 2,8 C 83 % 1006,8 hPa 0,0 l/m 25,5 km/h (4 Bft) O-SO 107 0 min 0,000 mm 0,0 UV-I 0 W/m -10,1 C -22,4 C 37,0 km/h (5 Bft) 100,00 %
01.03.2018 21:58 -7,7 C 2,8 C 83 % 1006,8 hPa 0,0 l/m 26,1 km/h (4 Bft) O-NO 62 0 min 0,000 mm 0,0 UV-I 0 W/m -10,1 C -22,6 C 33,8 km/h (5 Bft) 100,00 %
01.03.2018 21:59 -7,7 C 2,8 C 83 % 1006,8 hPa 0,0 l/m 25,9 km/h (4 Bft) O-NO 67 0 min 0,000 mm 0,0 UV-I 0 W/m -10,1 C -22,6 C 32,2 km/h (5 Bft) 100,00 %
01.03.2018 22:00 -7,7 C 2,8 C 83 % 1006,8 hPa 0,0 l/m 22,3 km/h (4 Bft) O 85 0 min 0,000 mm 0,0 UV-I 0 W/m -10,1 C -20,8 C 35,4 km/h (5 Bft) 100,00 %
01.03.2018 22:01 -7,7 C 2,8 C 83 % 1006,8 hPa 0,0 l/m 22,8 km/h (4 Bft) O-NO 77 0 min 0,025 mm 0,0 UV-I 0 W/m -10,1 C -21,1 C 35,4 km/h (5 Bft) 100,00 %
01.03.2018 22:02 -7,7 C 2,8 C 83 % 1006,8 hPa 0,0 l/m 28,7 km/h (4 Bft) O 94 0 min 0,000 mm 0,0 UV-I 0 W/m -10,1 C -23,7 C 35,4 km/h (5 Bft) 100,00 %
01.03.2018 22:03 -7,7 C 2,8 C 83 % 1006,8 hPa 0,0 l/m 26,5 km/h (4 Bft) O 97 0 min 0,000 mm 0,0 UV-I 0 W/m -10,1 C -22,8 C 35,4 km/h (5 Bft) 100,00 %
01.03.2018 22:04 -7,7 C 2,8 C 83 % 1006,7 hPa 0,0 l/m 28,2 km/h (4 Bft) O 87 0 min 0,000 mm 0,0 UV-I 0 W/m -10,1 C -23,5 C 37,0 km/h (5 Bft) 100,00 %
01.03.2018 22:05 -7,7 C 2,8 C 83 % 1006,7 hPa 0,0 l/m 24,8 km/h (4 Bft) O-NO 73 0 min 0,000 mm 0,0 UV-I 0 W/m -10,1 C -22,1 C 33,8 km/h (5 Bft) 100,00 %
01.03.2018 22:06 -7,7 C 2,8 C 83 % 1006,7 hPa 0,0 l/m 21,9 km/h (4 Bft) O 94 0 min 0,000 mm 0,0 UV-I 0 W/m -10,1 C -20,6 C 29,0 km/h (5 Bft) 100,00 %
01.03.2018 22:07 -7,7 C 2,8 C 83 % 1006,6 hPa 0,0 l/m 25,0 km/h (4 Bft) O-NO 65 0 min 0,000 mm 0,0 UV-I 0 W/m -10,1 C -22,2 C 33,8 km/h (5 Bft) 100,00 %
01.03.2018 22:08 -7,7 C 2,8 C 83 % 1006,6 hPa 0,0 l/m 24,6 km/h (4 Bft) O-NO 68 0 min 0,000 mm 0,0 UV-I 0 W/m -10,1 C -22,0 C 30,6 km/h (5 Bft) 100,00 %
01.03.2018 22:09 -7,7 C 2,8 C 83 % 1006,6 hPa 0,0 l/m 23,7 km/h (4 Bft) O 81 0 min 0,000 mm 0,0 UV-I 0 W/m -10,1 C -21,5 C 30,6 km/h (5 Bft) 100,00 %
01.03.2018 22:10 -7,7 C 2,8 C 83 % 1006,6 hPa 0,0 l/m 28,0 km/h (4 Bft) O 86 0 min 0,000 mm 0,0 UV-I 0 W/m -10,1 C -23,5 C 38,6 km/h (5 Bft) 100,00 %
01.03.2018 22:11 -7,7 C 2,8 C 83 % 1006,6 hPa 0,0 l/m 27,2 km/h (4 Bft) O-NO 68 0 min 0,000 mm 0,0 UV-I 0 W/m -10,1 C -23,1 C 32,2 km/h (5 Bft) 95,83 %
01.03.2018 22:12 -7,7 C 2,8 C 83 % 1006,5 hPa 0,0 l/m 23,5 km/h (4 Bft) NO 53 0 min 0,000 mm 0,0 UV-I 0 W/m -10,1 C -21,4 C 30,6 km/h (5 Bft) 95,65 %
01.03.2018 22:13 -7,7 C 2,8 C 83 % 1006,6 hPa 0,0 l/m 22,1 km/h (4 Bft) O 90 0 min 0,000 mm 0,0 UV-I 0 W/m -10,1 C -20,7 C 25,7 km/h (4 Bft) 100,00 %
01.03.2018 22:14 -7,7 C 2,8 C 83 % 1006,5 hPa 0,0 l/m 26,7 km/h (4 Bft) O-NO 71 0 min 0,000 mm 0,0 UV-I 0 W/m -10,1 C -22,9 C 38,6 km/h (5 Bft) 100,00 %
01.03.2018 22:15 -7,7 C 2,8 C 83 % 1006,4 hPa 0,0 l/m 28,6 km/h (4 Bft) O-NO 65 0 min 0,000 mm 0,0 UV-I 0 W/m -10,1 C -23,7 C 40,2 km/h (6 Bft) 100,00 %
01.03.2018 22:16 -7,6 C 2,8 C 83 % 1006,5 hPa 0,0 l/m 32,1 km/h (5 Bft) O-SO 116 0 min 0,000 mm 0,0 UV-I 0 W/m -10,0 C -24,8 C 43,5 km/h (6 Bft) 100,00 %
01.03.2018 22:17 -7,6 C 2,8 C 83 % 1006,4 hPa 0,0 l/m 27,6 km/h (4 Bft) O-NO 75 0 min 0,000 mm 0,0 UV-I 0 W/m -10,0 C -23,1 C 33,8 km/h (5 Bft) 100,00 %
01.03.2018 22:18 -7,6 C 2,8 C 83 % 1006,4 hPa 0,0 l/m 30,3 km/h (5 Bft) O-NO 70 0 min 0,000 mm 0,0 UV-I 0 W/m -10,0 C -24,2 C 41,8 km/h (6 Bft) 100,00 %
01.03.2018 22:19 -7,6 C 2,8 C 83 % 1006,4 hPa 0,0 l/m 31,2 km/h (5 Bft) O-SO 107 0 min 0,000 mm 0,0 UV-I 0 W/m -10,0 C -24,5 C 40,2 km/h (6 Bft) 100,00 %
01.03.2018 22:20 -7,6 C 2,8 C 83 % 1006,4 hPa 0,0 l/m 27,0 km/h (4 Bft) O-NO 72 0 min 0,000 mm 0,0 UV-I 0 W/m -10,0 C -22,9 C 38,6 km/h (5 Bft) 100,00 %
01.03.2018 22:22 -7,6 C 2,8 C 83 % 1006,5 hPa 0,0 l/m 27,2 km/h (4 Bft) O 94 0 min 0,000 mm 0,0 UV-I 0 W/m -10,0 C -23,0 C 40,2 km/h (6 Bft) 100,00 %
01.03.2018 22:23 -7,7 C 2,8 C 83 % 1006,4 hPa 0,0 l/m 26,3 km/h (4 Bft) O-NO 63 0 min 0,000 mm 0,0 UV-I 0 W/m -10,1 C -22,7 C 33,8 km/h (5 Bft) 100,00 %
01.03.2018 22:24 -7,6 C 2,8 C 83 % 1006,5 hPa 0,0 l/m 17,4 km/h (3 Bft) O-NO 67 0 min 0,000 mm 0,0 UV-I 0 W/m -10,0 C -17,9 C 22,5 km/h (4 Bft) 100,00 %
01.03.2018 22:25 -7,6 C 2,8 C 83 % 1006,4 hPa 0,0 l/m 18,3 km/h (3 Bft) O-NO 71 0 min 0,000 mm 0,0 UV-I 0 W/m -10,0 C -18,4 C 24,1 km/h (4 Bft) 100,00 %
01.03.2018 22:26 -7,6 C 2,8 C 83 % 1006,5 hPa 0,0 l/m 24,3 km/h (4 Bft) O 96 0 min 0,000 mm 0,0 UV-I 0 W/m -10,0 C -21,7 C 38,6 km/h (5 Bft) 100,00 %
01.03.2018 22:27 -7,6 C 2,8 C 83 % 1006,5 hPa 0,0 l/m 26,4 km/h (4 Bft) O-NO 71 0 min 0,000 mm 0,0 UV-I 0 W/m -10,0 C -22,6 C 37,0 km/h (5 Bft) 96,15 %
01.03.2018 22:28 -7,6 C 2,8 C 83 % 1006,4 hPa 0,0 l/m 28,6 km/h (4 Bft) O-SO 104 0 min 0,000 mm 0,0 UV-I 0 W/m -10,0 C -23,6 C 40,2 km/h (6 Bft) 100,00 %
01.03.2018 22:29 -7,6 C 2,8 C 83 % 1006,4 hPa 0,0 l/m 24,7 km/h (4 Bft) O-NO 72 0 min 0,000 mm 0,0 UV-I 0 W/m -10,0 C -21,9 C 32,2 km/h (5 Bft) 100,00 %
01.03.2018 22:30 -7,6 C 2,8 C 83 % 1006,4 hPa 0,0 l/m 21,7 km/h (4 Bft) O 99 0 min 0,000 mm 0,0 UV-I 0 W/m -10,0 C -20,4 C 25,7 km/h (4 Bft) 100,00 %
01.03.2018 22:32 -7,6 C 2,8 C 83 % 1006,5 hPa 0,0 l/m 23,6 km/h (4 Bft) O 82 0 min 0,000 mm 0,0 UV-I 0 W/m -10,0 C -21,4 C 40,2 km/h (6 Bft) 100,00 %
01.03.2018 22:33 -7,6 C 2,8 C 83 % 1006,5 hPa 0,0 l/m 27,5 km/h (4 Bft) O-NO 72 0 min 0,000 mm 0,0 UV-I 0 W/m -10,0 C -23,1 C 35,4 km/h (5 Bft) 100,00 %
01.03.2018 22:34 -7,6 C 2,8 C 83 % 1006,4 hPa 0,0 l/m 30,2 km/h (5 Bft) O-NO 57 0 min 0,000 mm 0,0 UV-I 0 W/m -10,0 C -24,2 C 41,8 km/h (6 Bft) 96,30 %
01.03.2018 22:35 -7,6 C 2,8 C 83 % 1006,4 hPa 0,0 l/m 31,4 km/h (5 Bft) O-SO 102 0 min 0,000 mm 0,0 UV-I 0 W/m -10,0 C -24,6 C 38,6 km/h (5 Bft) 100,00 %
01.03.2018 22:36 -7,6 C 2,8 C 83 % 1006,3 hPa 0,0 l/m 29,3 km/h (5 Bft) O 86 0 min 0,000 mm 0,0 UV-I 0 W/m -10,0 C -23,8 C 38,6 km/h (5 Bft) 100,00 %
01.03.2018 22:37 -7,6 C 2,8 C 83 % 1006,3 hPa 0,0 l/m 32,0 km/h (5 Bft) O-NO 69 0 min 0,000 mm 0,0 UV-I 0 W/m -10,0 C -24,8 C 38,6 km/h (5 Bft) 100,00 %
01.03.2018 22:38 -7,6 C 2,8 C 83 % 1006,3 hPa 0,0 l/m 29,2 km/h (5 Bft) O 97 0 min 0,000 mm 0,0 UV-I 0 W/m -10,0 C -23,8 C 40,2 km/h (6 Bft) 100,00 %
01.03.2018 22:39 -7,6 C 2,8 C 83 % 1006,3 hPa 0,0 l/m 26,7 km/h (4 Bft) O-SO 108 0 min 0,000 mm 0,0 UV-I 0 W/m -10,0 C -22,8 C 35,4 km/h (5 Bft) 92,31 %
01.03.2018 22:40 -7,6 C 2,8 C 83 % 1006,3 hPa 0,0 l/m 26,7 km/h (4 Bft) O 85 0 min 0,000 mm 0,0 UV-I 0 W/m -10,0 C -22,8 C 33,8 km/h (5 Bft) 100,00 %
01.03.2018 22:41 -7,6 C 2,8 C 83 % 1006,3 hPa 0,0 l/m 25,3 km/h (4 Bft) O 94 0 min 0,000 mm 0,0 UV-I 0 W/m -10,0 C -22,2 C 33,8 km/h (5 Bft) 95,83 %
01.03.2018 22:42 -7,6 C 2,8 C 83 % 1006,2 hPa 0,0 l/m 30,8 km/h (5 Bft) O-SO 103 0 min 0,000 mm 0,0 UV-I 0 W/m -10,0 C -24,4 C 41,8 km/h (6 Bft) 100,00 %
01.03.2018 22:43 -7,6 C 2,8 C 83 % 1006,2 hPa 0,0 l/m 24,0 km/h (4 Bft) O 90 0 min 0,000 mm 0,0 UV-I 0 W/m -10,0 C -21,5 C 35,4 km/h (5 Bft) 95,83 %
01.03.2018 22:44 -7,6 C 2,8 C 83 % 1006,1 hPa 0,0 l/m 24,7 km/h (4 Bft) O-SO 103 0 min 0,000 mm 0,0 UV-I 0 W/m -10,0 C -21,9 C 35,4 km/h (5 Bft) 100,00 %
01.03.2018 22:45 -7,6 C 2,8 C 83 % 1006,1 hPa 0,0 l/m 24,2 km/h (4 Bft) O 84 0 min 0,000 mm 0,0 UV-I 0 W/m -10,0 C -21,6 C 35,4 km/h (5 Bft) 95,83 %
01.03.2018 22:46 -7,7 C 2,8 C 83 % 1006,1 hPa 0,0 l/m 26,7 km/h (4 Bft) O-NO 72 0 min 0,000 mm 0,0 UV-I 0 W/m -10,1 C -22,9 C 38,6 km/h (5 Bft) 95,65 %
01.03.2018 22:47 -7,7 C 2,8 C 83 % 1006,2 hPa 0,0 l/m 22,9 km/h (4 Bft) O 94 0 min 0,000 mm 0,0 UV-I 0 W/m -10,1 C -21,1 C 30,6 km/h (5 Bft) 95,83 %
01.03.2018 22:48 -7,7 C 2,8 C 84 % 1006,2 hPa 0,0 l/m 25,3 km/h (4 Bft) O-NO 67 0 min 0,000 mm 0,0 UV-I 0 W/m -9,9 C -22,3 C 30,6 km/h (5 Bft) 95,65 %
01.03.2018 22:49 -7,7 C 2,8 C 84 % 1006,2 hPa 0,0 l/m 21,5 km/h (4 Bft) O 88 0 min 0,000 mm 0,0 UV-I 0 W/m -9,9 C -20,4 C 27,4 km/h (4 Bft) 100,00 %
01.03.2018 22:50 -7,6 C 2,8 C 84 % 1006,3 hPa 0,0 l/m 22,2 km/h (4 Bft) O 84 0 min 0,000 mm 0,0 UV-I 0 W/m -9,8 C -20,7 C 27,4 km/h (4 Bft) 94,12 %
01.03.2018 22:51 -7,6 C 2,8 C 84 % 1006,2 hPa 0,0 l/m 24,9 km/h (4 Bft) O 82 0 min 0,000 mm 0,0 UV-I 0 W/m -9,8 C -22,0 C 32,2 km/h (5 Bft) 100,00 %
01.03.2018 22:52 -7,6 C 2,8 C 84 % 1006,2 hPa 0,0 l/m 23,7 km/h (4 Bft) O 90 0 min 0,000 mm 0,0 UV-I 0 W/m -9,8 C -21,4 C 32,2 km/h (5 Bft) 96,15 %
01.03.2018 22:53 -7,6 C 2,8 C 84 % 1006,2 hPa 0,0 l/m 23,5 km/h (4 Bft) O-NO 76 0 min 0,000 mm 0,0 UV-I 0 W/m -9,8 C -21,3 C 30,6 km/h (5 Bft) 95,83 %
01.03.2018 22:54 -7,6 C 2,8 C 84 % 1006,1 hPa 0,0 l/m 24,4 km/h (4 Bft) O 98 0 min 0,000 mm 0,0 UV-I 0 W/m -9,8 C -21,7 C 29,0 km/h (5 Bft) 100,00 %
01.03.2018 22:55 -7,6 C 2,8 C 84 % 1006,1 hPa 0,0 l/m 23,5 km/h (4 Bft) O 80 0 min 0,000 mm 0,0 UV-I 0 W/m -9,8 C -21,3 C 32,2 km/h (5 Bft) 95,83 %
01.03.2018 22:56 -7,6 C 2,8 C 84 % 1006,1 hPa 0,0 l/m 25,6 km/h (4 Bft) O-NO 74 0 min 0,000 mm 0,0 UV-I 0 W/m -9,8 C -22,3 C 37,0 km/h (5 Bft) 100,00 %
01.03.2018 22:57 -7,7 C 2,8 C 84 % 1006,1 hPa 0,0 l/m 27,9 km/h (4 Bft) O 96 0 min 0,000 mm 0,0 UV-I 0 W/m -9,9 C -23,4 C 40,2 km/h (6 Bft) 91,67 %
01.03.2018 22:58 -7,7 C 2,8 C 84 % 1006,1 hPa 0,0 l/m 26,9 km/h (4 Bft) O 81 0 min 0,000 mm 0,0 UV-I 0 W/m -9,9 C -23,0 C 37,0 km/h (5 Bft) 100,00 %
01.03.2018 22:59 -7,7 C 2,8 C 84 % 1006,0 hPa 0,0 l/m 27,0 km/h (4 Bft) O 90 0 min 0,000 mm 0,0 UV-I 0 W/m -9,9 C -23,0 C 37,0 km/h (5 Bft) 96,15 %
01.03.2018 23:00 -7,7 C 2,8 C 84 % 1006,1 hPa 0,0 l/m 23,3 km/h (4 Bft) O 96 0 min 0,000 mm 0,0 UV-I 0 W/m -9,9 C -21,3 C 30,6 km/h (5 Bft) 100,00 %
01.03.2018 23:01 -7,7 C 2,8 C 84 % 1006,1 hPa 0,0 l/m 20,0 km/h (4 Bft) NO 56 0 min 0,025 mm 0,0 UV-I 0 W/m -9,9 C -19,6 C 25,7 km/h (4 Bft) 95,65 %
01.03.2018 23:02 -7,7 C 2,8 C 84 % 1006,0 hPa 0,0 l/m 25,3 km/h (4 Bft) O-NO 67 0 min 0,000 mm 0,0 UV-I 0 W/m -9,9 C -22,3 C 33,8 km/h (5 Bft) 95,83 %
01.03.2018 23:03 -7,7 C 2,8 C 84 % 1006,1 hPa 0,0 l/m 22,4 km/h (4 Bft) O 80 0 min 0,000 mm 0,0 UV-I 0 W/m -9,9 C -20,9 C 29,0 km/h (5 Bft) 100,00 %
01.03.2018 23:04 -7,7 C 2,8 C 84 % 1006,0 hPa 0,0 l/m 27,9 km/h (4 Bft) O-NO 74 0 min 0,000 mm 0,0 UV-I 0 W/m -9,9 C -23,4 C 38,6 km/h (5 Bft) 96,67 %
01.03.2018 23:05 -7,7 C 2,8 C 84 % 1006,0 hPa 0,0 l/m 29,0 km/h (5 Bft) O-NO 69 0 min 0,000 mm 0,0 UV-I 0 W/m -9,9 C -23,9 C 40,2 km/h (6 Bft) 100,00 %
01.03.2018 23:06 -7,7 C 2,8 C 84 % 1006,0 hPa 0,0 l/m 32,6 km/h (5 Bft) O 89 0 min 0,000 mm 0,0 UV-I 0 W/m -9,9 C -25,2 C 40,2 km/h (6 Bft) 96,30 %
01.03.2018 23:07 -7,7 C 2,8 C 84 % 1006,0 hPa 0,0 l/m 24,1 km/h (4 Bft) O 91 0 min 0,000 mm 0,0 UV-I 0 W/m -9,9 C -21,7 C 29,0 km/h (5 Bft) 100,00 %
01.03.2018 23:08 -7,7 C 2,8 C 84 % 1006,0 hPa 0,0 l/m 30,6 km/h (5 Bft) O 88 0 min 0,000 mm 0,0 UV-I 0 W/m -9,9 C -24,5 C 40,2 km/h (6 Bft) 91,67 %
01.03.2018 23:09 -7,7 C 2,8 C 84 % 1006,0 hPa 0,0 l/m 26,9 km/h (4 Bft) O 86 0 min 0,000 mm 0,0 UV-I 0 W/m -9,9 C -23,0 C 38,6 km/h (5 Bft) 100,00 %
01.03.2018 23:10 -7,7 C 2,8 C 84 % 1006,0 hPa 0,0 l/m 31,0 km/h (5 Bft) O-SO 102 0 min 0,000 mm 0,0 UV-I 0 W/m -9,9 C -24,6 C 37,0 km/h (5 Bft) 96,67 %
01.03.2018 23:11 -7,7 C 2,8 C 84 % 1006,0 hPa 0,0 l/m 27,6 km/h (4 Bft) O-SO 111 0 min 0,000 mm 0,0 UV-I 0 W/m -9,9 C -23,3 C 35,4 km/h (5 Bft) 95,65 %
01.03.2018 23:12 -7,7 C 2,8 C 83 % 1006,0 hPa 0,0 l/m 26,0 km/h (4 Bft) O 84 0 min 0,000 mm 0,0 UV-I 0 W/m -10,1 C -22,6 C 30,6 km/h (5 Bft) 100,00 %
01.03.2018 23:13 -7,7 C 2,8 C 84 % 1005,9 hPa 0,0 l/m 20,2 km/h (4 Bft) O 100 0 min 0,000 mm 0,0 UV-I 0 W/m -9,9 C -19,7 C 30,6 km/h (5 Bft) 100,00 %
01.03.2018 23:14 -7,7 C 2,8 C 84 % 1005,9 hPa 0,0 l/m 25,0 km/h (4 Bft) O-NO 65 0 min 0,000 mm 0,0 UV-I 0 W/m -9,9 C -22,2 C 33,8 km/h (5 Bft) 100,00 %
01.03.2018 23:15 -7,7 C 2,8 C 84 % 1005,9 hPa 0,0 l/m 30,5 km/h (5 Bft) O 86 0 min 0,000 mm 0,0 UV-I 0 W/m -9,9 C -24,4 C 37,0 km/h (5 Bft) 100,00 %
01.03.2018 23:16 -7,7 C 2,8 C 84 % 1005,9 hPa 0,0 l/m 27,3 km/h (4 Bft) O-NO 75 0 min 0,000 mm 0,0 UV-I 0 W/m -9,9 C -23,2 C 35,4 km/h (5 Bft) 100,00 %
01.03.2018 23:17 -7,7 C 2,8 C 84 % 1005,9 hPa 0,0 l/m 26,6 km/h (4 Bft) O 88 0 min 0,000 mm 0,0 UV-I 0 W/m -9,9 C -22,9 C 32,2 km/h (5 Bft) 100,00 %
01.03.2018 23:18 -7,7 C 2,8 C 84 % 1005,9 hPa 0,0 l/m 23,5 km/h (4 Bft) O-NO 78 0 min 0,000 mm 0,0 UV-I 0 W/m -9,9 C -21,4 C 27,4 km/h (4 Bft) 96,15 %
01.03.2018 23:19 -7,7 C 2,8 C 84 % 1005,9 hPa 0,0 l/m 25,9 km/h (4 Bft) O-NO 63 0 min 0,000 mm 0,0 UV-I 0 W/m -9,9 C -22,6 C 29,0 km/h (5 Bft) 100,00 %
01.03.2018 23:20 -7,7 C 2,8 C 84 % 1005,8 hPa 0,0 l/m 21,6 km/h (4 Bft) O-NO 67 0 min 0,000 mm 0,0 UV-I 0 W/m -9,9 C -20,5 C 32,2 km/h (5 Bft) 100,00 %
01.03.2018 23:21 -7,7 C 2,8 C 84 % 1005,9 hPa 0,0 l/m 23,3 km/h (4 Bft) O 91 0 min 0,000 mm 0,0 UV-I 0 W/m -9,9 C -21,3 C 29,0 km/h (5 Bft) 100,00 %
01.03.2018 23:22 -7,7 C 2,8 C 84 % 1005,8 hPa 0,0 l/m 22,2 km/h (4 Bft) O 90 0 min 0,000 mm 0,0 UV-I 0 W/m -9,9 C -20,8 C 30,6 km/h (5 Bft) 100,00 %
01.03.2018 23:23 -7,7 C 2,8 C 84 % 1005,8 hPa 0,0 l/m 25,5 km/h (4 Bft) O-NO 73 0 min 0,000 mm 0,0 UV-I 0 W/m -9,9 C -22,4 C 35,4 km/h (5 Bft) 95,83 %
01.03.2018 23:24 -7,7 C 2,8 C 84 % 1005,8 hPa 0,0 l/m 31,7 km/h (5 Bft) O 89 0 min 0,000 mm 0,0 UV-I 0 W/m -9,9 C -24,9 C 40,2 km/h (6 Bft) 100,00 %
01.03.2018 23:25 -7,7 C 2,8 C 84 % 1005,8 hPa 0,0 l/m 31,9 km/h (5 Bft) O 97 0 min 0,000 mm 0,0 UV-I 0 W/m -9,9 C -24,9 C 41,8 km/h (6 Bft) 100,00 %
01.03.2018 23:26 -7,7 C 2,8 C 84 % 1005,8 hPa 0,0 l/m 30,7 km/h (5 Bft) O-NO 72 0 min 0,000 mm 0,0 UV-I 0 W/m -9,9 C -24,5 C 38,6 km/h (5 Bft) 100,00 %
01.03.2018 23:27 -7,7 C 2,8 C 84 % 1005,8 hPa 0,0 l/m 25,2 km/h (4 Bft) O-NO 62 0 min 0,000 mm 0,0 UV-I 0 W/m -9,9 C -22,2 C 32,2 km/h (5 Bft) 100,00 %
01.03.2018 23:28 -7,7 C 2,8 C 84 % 1005,8 hPa 0,0 l/m 29,5 km/h (5 Bft) O 87 0 min 0,000 mm 0,0 UV-I 0 W/m -9,9 C -24,0 C 33,8 km/h (5 Bft) 95,65 %
01.03.2018 23:29 -7,7 C 2,8 C 84 % 1005,8 hPa 0,0 l/m 25,9 km/h (4 Bft) O 87 0 min 0,000 mm 0,0 UV-I 0 W/m -9,9 C -22,6 C 33,8 km/h (5 Bft) 100,00 %
01.03.2018 23:30 -7,7 C 2,8 C 84 % 1005,8 hPa 0,0 l/m 25,0 km/h (4 Bft) O 86 0 min 0,000 mm 0,0 UV-I 0 W/m -9,9 C -22,2 C 30,6 km/h (5 Bft) 100,00 %
01.03.2018 23:31 -7,7 C 2,8 C 84 % 1005,8 hPa 0,0 l/m 19,0 km/h (3 Bft) O-NO 77 0 min 0,000 mm 0,0 UV-I 0 W/m -9,9 C -19,0 C 29,0 km/h (5 Bft) 100,00 %
01.03.2018 23:32 -7,7 C 2,8 C 84 % 1005,8 hPa 0,0 l/m 20,1 km/h (4 Bft) O-NO 71 0 min 0,000 mm 0,0 UV-I 0 W/m -9,9 C -19,6 C 29,0 km/h (5 Bft) 100,00 %
01.03.2018 23:33 -7,7 C 2,8 C 84 % 1005,7 hPa 0,0 l/m 29,6 km/h (5 Bft) O 90 0 min 0,000 mm 0,0 UV-I 0 W/m -9,9 C -24,1 C 33,8 km/h (5 Bft) 93,33 %
01.03.2018 23:34 -7,7 C 2,8 C 84 % 1005,7 hPa 0,0 l/m 27,9 km/h (4 Bft) O 90 0 min 0,000 mm 0,0 UV-I 0 W/m -9,9 C -23,4 C 35,4 km/h (5 Bft) 100,00 %
01.03.2018 23:35 -7,7 C 2,8 C 84 % 1005,7 hPa 0,0 l/m 25,3 km/h (4 Bft) O-NO 74 0 min 0,000 mm 0,0 UV-I 0 W/m -9,9 C -22,3 C 30,6 km/h (5 Bft) 100,00 %
01.03.2018 23:36 -7,7 C 2,8 C 84 % 1005,7 hPa 0,0 l/m 32,7 km/h (5 Bft) O 93 0 min 0,000 mm 0,0 UV-I 0 W/m -9,9 C -25,2 C 41,8 km/h (6 Bft) 100,00 %
01.03.2018 23:37 -7,7 C 2,8 C 84 % 1005,7 hPa 0,0 l/m 25,7 km/h (4 Bft) O-NO 65 0 min 0,000 mm 0,0 UV-I 0 W/m -9,9 C -22,5 C 32,2 km/h (5 Bft) 90,91 %
01.03.2018 23:38 -7,7 C 2,8 C 84 % 1005,7 hPa 0,0 l/m 30,4 km/h (5 Bft) O-NO 69 0 min 0,000 mm 0,0 UV-I 0 W/m -9,9 C -24,4 C 35,4 km/h (5 Bft) 100,00 %
01.03.2018 23:39 -7,7 C 2,8 C 84 % 1005,6 hPa 0,0 l/m 28,5 km/h (4 Bft) O-NO 74 0 min 0,000 mm 0,0 UV-I 0 W/m -9,9 C -23,7 C 33,8 km/h (5 Bft) 100,00 %
01.03.2018 23:40 -7,7 C 2,8 C 84 % 1005,6 hPa 0,0 l/m 24,0 km/h (4 Bft) O 82 0 min 0,000 mm 0,0 UV-I 0 W/m -9,9 C -21,7 C 30,6 km/h (5 Bft) 100,00 %
01.03.2018 23:41 -7,7 C 2,8 C 84 % 1005,6 hPa 0,0 l/m 28,4 km/h (4 Bft) O-NO 62 0 min 0,000 mm 0,0 UV-I 0 W/m -9,9 C -23,6 C 33,8 km/h (5 Bft) 100,00 %
01.03.2018 23:42 -7,7 C 2,8 C 84 % 1005,6 hPa 0,0 l/m 27,1 km/h (4 Bft) NO 55 0 min 0,000 mm 0,0 UV-I 0 W/m -9,9 C -23,1 C 40,2 km/h (6 Bft) 100,00 %
01.03.2018 23:43 -7,7 C 2,8 C 84 % 1005,6 hPa 0,0 l/m 29,8 km/h (5 Bft) O-NO 72 0 min 0,000 mm 0,0 UV-I 0 W/m -9,9 C -24,2 C 37,0 km/h (5 Bft) 96,15 %
01.03.2018 23:44 -7,7 C 2,8 C 84 % 1005,6 hPa 0,0 l/m 29,9 km/h (5 Bft) O-NO 65 0 min 0,000 mm 0,0 UV-I 0 W/m -9,9 C -24,2 C 35,4 km/h (5 Bft) 100,00 %
01.03.2018 23:45 -7,7 C 2,8 C 84 % 1005,6 hPa 0,0 l/m 27,7 km/h (4 Bft) O-NO 78 0 min 0,000 mm 0,0 UV-I 0 W/m -9,9 C -23,3 C 33,8 km/h (5 Bft) 100,00 %
01.03.2018 23:46 -7,7 C 2,8 C 84 % 1005,6 hPa 0,0 l/m 27,4 km/h (4 Bft) O-NO 57 0 min 0,000 mm 0,0 UV-I 0 W/m -9,9 C -23,2 C 37,0 km/h (5 Bft) 100,00 %
01.03.2018 23:47 -7,7 C 2,8 C 84 % 1005,5 hPa 0,0 l/m 23,8 km/h (4 Bft) O 97 0 min 0,000 mm 0,0 UV-I 0 W/m -9,9 C -21,6 C 30,6 km/h (5 Bft) 100,00 %
01.03.2018 23:48 -7,7 C 2,8 C 84 % 1005,6 hPa 0,0 l/m 24,4 km/h (4 Bft) O 92 0 min 0,000 mm 0,0 UV-I 0 W/m -9,9 C -21,9 C 29,0 km/h (5 Bft) 100,00 %
01.03.2018 23:49 -7,7 C 2,8 C 84 % 1005,5 hPa 0,0 l/m 30,1 km/h (5 Bft) O-NO 71 0 min 0,000 mm 0,0 UV-I 0 W/m -9,9 C -24,3 C 43,5 km/h (6 Bft) 100,00 %
01.03.2018 23:50 -7,7 C 2,8 C 84 % 1005,5 hPa 0,0 l/m 27,4 km/h (4 Bft) O-SO 107 0 min 0,000 mm 0,0 UV-I 0 W/m -9,9 C -23,2 C 37,0 km/h (5 Bft) 100,00 %
01.03.2018 23:51 -7,7 C 2,8 C 84 % 1005,5 hPa 0,0 l/m 23,7 km/h (4 Bft) O-NO 77 0 min 0,000 mm 0,0 UV-I 0 W/m -9,9 C -21,5 C 30,6 km/h (5 Bft) 100,00 %
01.03.2018 23:52 -7,7 C 2,8 C 84 % 1005,5 hPa 0,0 l/m 21,0 km/h (4 Bft) O 87 0 min 0,000 mm 0,0 UV-I 0 W/m -9,9 C -20,1 C 25,7 km/h (4 Bft) 100,00 %
01.03.2018 23:53 -7,7 C 2,8 C 84 % 1005,5 hPa 0,0 l/m 20,5 km/h (4 Bft) NO 54 0 min 0,000 mm 0,0 UV-I 0 W/m -9,9 C -19,9 C 27,4 km/h (4 Bft) 100,00 %
01.03.2018 23:54 -7,7 C 2,8 C 84 % 1005,4 hPa 0,0 l/m 26,6 km/h (4 Bft) O-NO 74 0 min 0,000 mm 0,0 UV-I 0 W/m -9,9 C -22,9 C 33,8 km/h (5 Bft) 100,00 %
01.03.2018 23:55 -7,7 C 2,8 C 84 % 1005,4 hPa 0,0 l/m 23,4 km/h (4 Bft) O-NO 67 0 min 0,000 mm 0,0 UV-I 0 W/m -9,9 C -21,4 C 27,4 km/h (4 Bft) 100,00 %
01.03.2018 23:56 -7,7 C 2,8 C 84 % 1005,4 hPa 0,0 l/m 21,5 km/h (4 Bft) O-NO 76 0 min 0,000 mm 0,0 UV-I 0 W/m -9,9 C -20,4 C 27,4 km/h (4 Bft) 100,00 %
01.03.2018 23:57 -7,7 C 3,3 C 84 % 1005,4 hPa 0,0 l/m 25,9 km/h (4 Bft) O-NO 71 0 min 0,000 mm 0,0 UV-I 0 W/m -9,9 C -22,6 C 33,8 km/h (5 Bft) 95,83 %
01.03.2018 23:58 -7,7 C 2,8 C 84 % 1005,3 hPa 0,0 l/m 25,7 km/h (4 Bft) O-NO 67 0 min 0,000 mm 0,0 UV-I 0 W/m -9,9 C -22,5 C 32,2 km/h (5 Bft) 100,00 %
01.03.2018 23:59 -7,7 C 2,8 C 84 % 1005,3 hPa 0,0 l/m 27,7 km/h (4 Bft) O 88 0 min 0,000 mm 0,0 UV-I 0 W/m -9,9 C -23,3 C 37,0 km/h (5 Bft) 100,00 %
_ Min-Zeit 07:01 00:49 14:20 23:58 - 02:41 - - - - - - 07:02 05:32 12:54 03:54
Minimum _ -12,5 C 2,8 C 63 % 1005,3 hPa - 14,1 km/h (3 Bft) - - - - - - -14,9 C -32,9 C 17,7 km/h (3 Bft) 34,62 %
_ Max-Zeit 14:14 00:00 22:48 00:09 00:00 15:56 - - 15:55 13:01 12:06 12:52 15:32 12:54 21:23 00:00
Maximum _ -4,3 C 3,3 C 84 % 1018,8 hPa 0,0 l/m 39,6 km/h
O-SO (6 Bft)
- - 5 min 0,177 mm 1,4 UV-I 579 W/m -9,8 C -12,9 C 49,9 km/h
O (6 Bft)
100,00 %
Durchschnitt _ -8,7 C 2,8 C 77 % 1010,9 hPa #0,0 l/m 25,0 km/h (4 Bft) O - #8:21 h #1,422 mm 0,9 UV-I 274 W/m -12,1 C -23,4 C 32,9 km/h (5 Bft) 98,00 %